ftp/pub/mcmurdo/arrivalheights/2024/02252024.txt

Download

		Temp	Hi	Low	Out	Dew	Wind	Wind	Wind	Hi	Hi	Wind	Heat	THW		Heat	Cool	In 	In	In 	In 	In 	In Air	Wind	Wind	ISS 	Arc.
Date	Time	Out	Temp	Temp	Hum	Pt.	Speed	Dir	Run	Speed	Dir	Chill	Index	Index	Bar  	D-D 	D-D 	Temp	Hum	Dew	Heat	EMC	Density	Samp	Tx 	Recept	Int.
02/24/24	0:01	-18.1	-18.1	-18.2	72	-21.9	23.5	E	0.39	25.2	E	-31.9	-18.1	-31.9	742.3	0.025	0.000	20.6	4	-23.0	17.1	1.03	 .0732	21	1	91.3	1
02/24/24	0:02	-18.0	-18.0	-18.1	72	-21.8	23.5	E	0.39	24.3	ESE	-31.8	-18.1	-31.9	742.2	0.025	0.000	20.6	5	-20.5	17.2	1.25	 .0732	24	1	100.0	1
02/24/24	0:03	-18.0	-18.0	-18.0	71	-22.0	22.6	ESE	0.38	27.0	E	-31.6	-18.1	-31.7	742.2	0.025	0.000	20.6	5	-20.5	17.2	1.25	 .0732	23	1	100.0	1
02/24/24	0:04	-18.0	-18.0	-18.0	71	-22.0	23.5	E	0.39	27.0	E	-31.8	-18.1	-31.9	742.2	0.025	0.000	20.6	5	-20.5	17.2	1.25	 .0732	23	1	100.0	1
02/24/24	0:05	-18.0	-18.0	-18.0	71	-22.0	21.7	E	0.36	25.2	E	-31.4	-18.1	-31.4	742.3	0.025	0.000	20.6	5	-20.5	17.2	1.25	 .0732	24	1	100.0	1
02/24/24	0:06	-18.0	-18.0	-18.0	71	-22.0	22.6	E	0.38	25.2	E	-31.6	-18.1	-31.7	742.3	0.025	0.000	20.5	5	-20.5	17.1	1.25	 .0732	23	1	100.0	1
02/24/24	0:07	-18.0	-18.0	-18.0	70	-22.1	22.6	ESE	0.38	24.3	E	-31.6	-18.1	-31.7	742.3	0.025	0.000	20.5	5	-20.5	17.1	1.25	 .0732	24	1	100.0	1
02/24/24	0:08	-18.0	-18.0	-18.0	70	-22.1	20.9	ESE	0.35	23.5	ESE	-31.2	-18.1	-31.2	742.3	0.025	0.000	20.6	5	-20.5	17.2	1.25	 .0732	23	1	100.0	1
02/24/24	0:09	-18.0	-18.0	-18.0	70	-22.1	20.9	ESE	0.35	22.6	ESE	-31.2	-18.1	-31.2	742.3	0.025	0.000	20.6	5	-20.5	17.2	1.25	 .0732	23	1	100.0	1
02/24/24	0:10	-18.0	-18.0	-18.0	69	-22.3	22.6	ESE	0.38	24.3	ESE	-31.6	-18.1	-31.7	742.2	0.025	0.000	20.5	5	-20.5	17.1	1.25	 .0732	24	1	100.0	1
02/24/24	0:11	-18.0	-18.0	-18.0	69	-22.3	22.6	E	0.38	24.3	E	-31.6	-18.1	-31.7	742.3	0.025	0.000	20.5	5	-20.5	17.1	1.25	 .0732	23	1	100.0	1
02/24/24	0:12	-17.9	-17.9	-18.0	70	-22.1	21.7	E	0.36	24.3	E	-31.3	-18.0	-31.4	742.3	0.025	0.000	20.6	5	-20.5	17.2	1.25	 .0732	24	1	100.0	1
02/24/24	0:13	-17.9	-17.9	-17.9	70	-22.1	22.6	E	0.38	24.3	E	-31.6	-18.0	-31.6	742.3	0.025	0.000	20.6	5	-20.5	17.2	1.25	 .0732	23	1	100.0	1
02/24/24	0:14	-17.9	-17.9	-17.9	70	-22.1	20.9	ESE	0.35	23.5	E	-31.1	-18.0	-31.2	742.3	0.025	0.000	20.6	5	-20.5	17.2	1.25	 .0732	24	1	100.0	1
02/24/24	0:15	-17.9	-17.9	-17.9	70	-22.0	20.9	E	0.35	23.5	E	-31.1	-17.9	-31.1	742.3	0.025	0.000	20.6	5	-20.5	17.2	1.25	 .0732	23	1	100.0	1
02/24/24	0:16	-17.9	-17.9	-17.9	70	-22.0	21.7	E	0.36	23.5	ESE	-31.3	-17.9	-31.3	742.3	0.025	0.000	20.6	5	-20.5	17.2	1.25	 .0732	23	1	100.0	1
02/24/24	0:17	-17.9	-17.9	-17.9	70	-22.0	20.9	E	0.35	22.6	E	-31.1	-17.9	-31.1	742.3	0.025	0.000	20.6	5	-20.5	17.2	1.25	 .0732	24	1	100.0	1
02/24/24	0:18	-17.8	-17.8	-17.8	70	-22.0	21.7	E	0.36	24.3	E	-31.2	-17.9	-31.2	742.3	0.025	0.000	20.6	5	-20.5	17.2	1.25	 .0732	23	1	100.0	1
02/24/24	0:19	-17.8	-17.8	-17.8	71	-21.8	20.0	E	0.33	23.5	E	-30.7	-17.8	-30.7	742.3	0.025	0.000	20.6	5	-20.5	17.2	1.25	 .0732	24	1	100.0	1
02/24/24	0:20	-17.8	-17.8	-17.8	71	-21.8	19.1	E	0.32	22.6	E	-30.4	-17.8	-30.5	742.3	0.025	0.000	20.6	5	-20.5	17.2	1.25	 .0732	23	1	100.0	1
02/24/24	0:21	-17.7	-17.7	-17.7	72	-21.6	20.9	E	0.35	22.6	E	-30.8	-17.8	-30.9	742.3	0.025	0.000	20.6	5	-20.5	17.2	1.25	 .0732	23	1	100.0	1
02/24/24	0:22	-17.7	-17.7	-17.7	72	-21.5	21.7	E	0.36	23.5	E	-30.9	-17.7	-31.0	742.2	0.025	0.000	20.6	5	-20.5	17.2	1.25	 .0732	24	1	100.0	1
02/24/24	0:23	-17.7	-17.7	-17.7	72	-21.5	20.0	E	0.33	21.7	E	-30.5	-17.7	-30.6	742.3	0.025	0.000	20.6	5	-20.5	17.2	1.25	 .0732	23	1	100.0	1
02/24/24	0:24	-17.6	-17.6	-17.7	71	-21.6	20.9	E	0.35	21.7	E	-30.7	-17.7	-30.7	742.3	0.025	0.000	20.6	5	-20.5	17.2	1.25	 .0732	24	1	100.0	1
02/24/24	0:25	-17.6	-17.6	-17.6	71	-21.6	19.1	E	0.32	20.9	E	-30.2	-17.7	-30.3	742.3	0.025	0.000	20.6	5	-20.5	17.2	1.25	 .0732	23	1	100.0	1
02/24/24	0:26	-17.7	-17.6	-17.7	70	-21.8	19.1	ESE	0.32	20.0	ESE	-30.3	-17.7	-30.3	742.3	0.025	0.000	20.6	5	-20.5	17.2	1.25	 .0732	24	1	100.0	1
02/24/24	0:27	-17.7	-17.7	-17.7	70	-21.8	20.0	E	0.33	21.7	ESE	-30.5	-17.7	-30.6	742.3	0.025	0.000	20.6	5	-20.5	17.2	1.25	 .0732	23	1	100.0	1
02/24/24	0:28	-17.7	-17.7	-17.7	70	-21.8	20.9	E	0.35	22.6	E	-30.7	-17.7	-30.8	742.3	0.025	0.000	20.6	5	-20.5	17.2	1.25	 .0732	23	1	100.0	1
02/24/24	0:29	-17.7	-17.7	-17.7	70	-21.8	20.9	E	0.35	22.6	E	-30.7	-17.7	-30.8	742.2	0.025	0.000	20.6	5	-20.5	17.2	1.25	 .0732	24	1	100.0	1
02/24/24	0:30	-17.7	-17.7	-17.7	70	-21.8	21.7	ESE	0.36	23.5	E	-30.9	-17.7	-31.0	742.3	0.025	0.000	20.6	5	-20.5	17.2	1.25	 .0732	23	1	100.0	1
02/24/24	0:31	-17.7	-17.7	-17.7	70	-21.8	21.7	E	0.36	23.5	E	-30.9	-17.7	-31.0	742.2	0.025	0.000	20.6	5	-20.5	17.2	1.25	 .0732	24	1	100.0	1
02/24/24	0:32	-17.7	-17.7	-17.7	70	-21.8	20.9	E	0.35	23.5	E	-30.7	-17.7	-30.8	742.2	0.025	0.000	20.7	5	-20.4	17.3	1.25	 .0732	23	1	100.0	1
02/24/24	0:33	-17.7	-17.7	-17.7	70	-21.8	22.6	E	0.38	24.3	E	-31.2	-17.7	-31.2	742.2	0.025	0.000	20.6	5	-20.5	17.2	1.25	 .0732	23	1	100.0	1
02/24/24	0:34	-17.7	-17.7	-17.7	69	-22.0	21.7	E	0.36	24.3	E	-30.9	-17.7	-31.0	742.2	0.025	0.000	20.7	5	-20.4	17.3	1.25	 .0732	24	1	100.0	1
02/24/24	0:35	-17.6	-17.6	-17.7	70	-21.8	20.9	E	0.35	24.3	E	-30.7	-17.7	-30.7	742.2	0.025	0.000	20.7	5	-20.4	17.3	1.25	 .0732	23	1	100.0	1
02/24/24	0:36	-17.6	-17.6	-17.6	70	-21.8	21.7	E	0.36	24.3	E	-30.9	-17.7	-30.9	742.2	0.025	0.000	20.7	5	-20.4	17.3	1.25	 .0732	24	1	100.0	1
02/24/24	0:37	-17.6	-17.6	-17.6	69	-21.9	21.7	E	0.36	24.3	E	-30.9	-17.7	-30.9	742.2	0.025	0.000	20.7	5	-20.4	17.3	1.25	 .0732	23	1	100.0	1
02/24/24	0:38	-17.6	-17.6	-17.6	69	-21.9	20.9	E	0.35	23.5	E	-30.6	-17.7	-30.7	742.1	0.025	0.000	20.7	5	-20.4	17.3	1.25	 .0732	24	1	100.0	1
02/24/24	0:39	-17.6	-17.6	-17.6	70	-21.7	21.7	E	0.36	24.3	E	-30.8	-17.6	-30.9	742.1	0.025	0.000	20.7	5	-20.4	17.3	1.25	 .0732	23	1	100.0	1
02/24/24	0:40	-17.6	-17.6	-17.6	70	-21.7	20.9	E	0.35	23.5	E	-30.6	-17.6	-30.7	742.1	0.025	0.000	20.7	5	-20.4	17.3	1.25	 .0732	23	1	100.0	1
02/24/24	0:41	-17.5	-17.5	-17.6	70	-21.7	21.7	E	0.36	23.5	E	-30.7	-17.6	-30.8	742.1	0.025	0.000	20.7	5	-20.4	17.3	1.25	 .0732	24	1	100.0	1
02/24/24	0:42	-17.5	-17.5	-17.5	69	-21.8	20.9	ESE	0.35	22.6	ESE	-30.5	-17.6	-30.6	742.1	0.025	0.000	20.7	5	-20.4	17.3	1.25	 .0732	23	1	100.0	1
02/24/24	0:43	-17.5	-17.5	-17.5	69	-21.8	21.7	E	0.36	23.5	ESE	-30.7	-17.6	-30.8	742.1	0.025	0.000	20.7	5	-20.4	17.3	1.25	 .0732	24	1	100.0	1
02/24/24	0:44	-17.4	-17.4	-17.5	69	-21.8	20.9	E	0.35	23.5	E	-30.4	-17.6	-30.6	742.1	0.025	0.000	20.7	5	-20.4	17.3	1.25	 .0732	23	1	100.0	1
02/24/24	0:45	-17.4	-17.4	-17.5	70	-21.6	22.6	E	0.38	24.3	ESE	-30.9	-17.6	-31.0	742.1	0.025	0.000	20.7	5	-20.4	17.3	1.25	 .0732	23	1	100.0	1
02/24/24	0:46	-17.4	-17.4	-17.4	69	-21.8	21.7	E	0.36	23.5	E	-30.7	-17.6	-30.8	742.1	0.025	0.000	20.7	5	-20.4	17.3	1.25	 .0732	24	1	100.0	1
02/24/24	0:47	-17.4	-17.4	-17.4	69	-21.8	21.7	ESE	0.36	23.5	ESE	-30.7	-17.6	-30.8	742.1	0.025	0.000	20.7	5	-20.4	17.3	1.25	 .0732	23	1	100.0	1
02/24/24	0:48	-17.4	-17.4	-17.4	69	-21.8	20.0	ESE	0.33	23.5	ESE	-30.2	-17.6	-30.3	742.1	0.025	0.000	20.7	5	-20.4	17.3	1.25	 .0732	24	1	100.0	1
02/24/24	0:49	-17.4	-17.4	-17.4	68	-21.9	20.9	E	0.35	23.5	E	-30.4	-17.6	-30.6	742.1	0.025	0.000	20.8	5	-20.3	17.4	1.25	 .0732	23	1	100.0	1
02/24/24	0:50	-17.5	-17.4	-17.5	68	-22.0	20.9	E	0.35	22.6	ESE	-30.5	-17.6	-30.6	742.1	0.025	0.000	20.8	5	-20.3	17.4	1.25	 .0732	23	1	100.0	1
02/24/24	0:51	-17.5	-17.5	-17.5	68	-22.0	21.7	E	0.36	23.5	E	-30.7	-17.6	-30.8	742.1	0.025	0.000	20.8	5	-20.3	17.4	1.25	 .0732	24	1	100.0	1
02/24/24	0:52	-17.5	-17.5	-17.5	68	-22.0	21.7	E	0.36	23.5	ESE	-30.7	-17.6	-30.8	742.1	0.025	0.000	20.8	5	-20.3	17.4	1.25	 .0732	23	1	100.0	1
02/24/24	0:53	-17.6	-17.5	-17.6	68	-22.0	20.9	ESE	0.35	22.6	E	-30.6	-17.7	-30.7	742.1	0.025	0.000	20.8	5	-20.3	17.4	1.25	 .0732	24	1	100.0	1
02/24/24	0:54	-17.6	-17.6	-17.6	68	-22.0	20.9	E	0.35	22.6	E	-30.6	-17.7	-30.7	742.1	0.025	0.000	20.8	5	-20.3	17.4	1.25	 .0732	23	1	100.0	1
02/24/24	0:55	-17.6	-17.6	-17.6	68	-22.0	20.9	ESE	0.35	22.6	E	-30.6	-17.7	-30.7	742.1	0.025	0.000	20.8	5	-20.3	17.4	1.25	 .0732	24	1	100.0	1
02/24/24	0:56	-17.5	-17.5	-17.6	68	-22.0	20.0	ESE	0.33	22.6	E	-30.3	-17.6	-30.4	742.1	0.025	0.000	20.8	5	-20.3	17.5	1.25	 .0731	23	1	100.0	1
02/24/24	0:57	-17.5	-17.5	-17.5	68	-22.0	20.9	ESE	0.35	22.6	ESE	-30.5	-17.6	-30.6	742.1	0.025	0.000	20.8	5	-20.3	17.5	1.25	 .0731	23	1	100.0	1
02/24/24	0:58	-17.4	-17.4	-17.5	68	-21.9	21.7	E	0.36	23.5	E	-30.7	-17.6	-30.8	742.1	0.025	0.000	20.8	5	-20.3	17.5	1.25	 .0731	24	1	100.0	1
02/24/24	0:59	-17.4	-17.4	-17.5	68	-21.9	20.0	E	0.33	23.5	ESE	-30.2	-17.6	-30.3	742.1	0.025	0.000	20.8	5	-20.3	17.5	1.25	 .0731	23	1	100.0	1
02/24/24	1:00	-17.4	-17.4	-17.4	68	-21.9	20.9	E	0.35	22.6	E	-30.4	-17.5	-30.5	742.1	0.025	0.000	20.8	5	-20.3	17.5	1.25	 .0731	24	1	100.0	1
02/24/24	1:01	-17.4	-17.4	-17.4	69	-21.7	20.9	E	0.35	23.5	E	-30.4	-17.5	-30.5	742.1	0.025	0.000	20.8	5	-20.3	17.5	1.25	 .0731	23	1	100.0	1
02/24/24	1:02	-17.3	-17.3	-17.4	69	-21.7	20.0	ESE	0.33	22.6	ESE	-30.1	-17.4	-30.2	742.1	0.025	0.000	20.8	5	-20.3	17.5	1.25	 .0731	23	1	100.0	1
02/24/24	1:03	-17.3	-17.3	-17.3	69	-21.7	21.7	E	0.36	23.5	E	-30.5	-17.4	-30.6	742.1	0.025	0.000	20.8	5	-20.3	17.4	1.25	 .0732	24	1	100.0	1
02/24/24	1:04	-17.3	-17.3	-17.3	68	-21.8	20.9	ESE	0.35	22.6	E	-30.3	-17.4	-30.4	742.1	0.025	0.000	20.8	5	-20.3	17.4	1.25	 .0732	23	1	100.0	1
02/24/24	1:05	-17.3	-17.3	-17.3	67	-21.9	20.9	ESE	0.35	22.6	ESE	-30.2	-17.4	-30.3	742.2	0.025	0.000	20.8	5	-20.3	17.4	1.25	 .0732	24	1	100.0	1
02/24/24	1:06	-17.3	-17.3	-17.3	67	-22.0	20.0	E	0.33	22.6	E	-30.1	-17.4	-30.2	742.2	0.025	0.000	20.8	5	-20.3	17.4	1.25	 .0732	23	1	100.0	1
02/24/24	1:07	-17.3	-17.3	-17.3	66	-22.1	20.0	E	0.33	22.6	ESE	-30.0	-17.4	-30.1	742.1	0.025	0.000	20.8	5	-20.3	17.4	1.25	 .0732	24	1	100.0	1
02/24/24	1:08	-17.3	-17.3	-17.3	66	-22.1	19.1	ESE	0.32	20.9	ESE	-29.8	-17.4	-29.9	742.1	0.025	0.000	20.7	5	-20.4	17.3	1.25	 .0732	23	1	100.0	1
02/24/24	1:09	-17.3	-17.3	-17.3	66	-22.1	19.1	ESE	0.32	21.7	ESE	-29.8	-17.4	-29.9	742.1	0.025	0.000	20.7	5	-20.4	17.3	1.25	 .0732	23	1	100.0	1
02/24/24	1:10	-17.2	-17.2	-17.3	67	-21.9	19.1	ESE	0.32	21.7	ESE	-29.7	-17.3	-29.8	742.1	0.025	0.000	20.7	5	-20.4	17.3	1.25	 .0732	24	1	100.0	1
02/24/24	1:11	-17.2	-17.2	-17.3	67	-21.9	20.0	ESE	0.33	21.7	ESE	-29.9	-17.3	-30.1	742.2	0.025	0.000	20.7	5	-20.4	17.3	1.25	 .0732	23	1	100.0	1
02/24/24	1:12	-17.3	-17.2	-17.3	67	-21.9	19.1	ESE	0.32	20.9	ESE	-29.8	-17.4	-29.9	742.2	0.025	0.000	20.7	5	-20.4	17.3	1.25	 .0732	24	1	100.0	1
02/24/24	1:13	-17.3	-17.3	-17.3	66	-22.1	16.5	ESE	0.28	20.0	E	-29.0	-17.4	-29.1	742.2	0.025	0.000	20.7	5	-20.4	17.3	1.25	 .0732	23	1	100.0	1
02/24/24	1:14	-17.3	-17.3	-17.3	67	-21.9	17.4	ESE	0.29	20.9	E	-29.3	-17.4	-29.4	742.2	0.025	0.000	20.6	5	-20.5	17.2	1.25	 .0732	23	1	100.0	1
02/24/24	1:15	-17.3	-17.3	-17.3	67	-21.9	17.4	E	0.29	20.0	ESE	-29.3	-17.4	-29.4	742.2	0.025	0.000	20.6	5	-20.5	17.2	1.25	 .0732	24	1	100.0	1
02/24/24	1:16	-17.3	-17.3	-17.3	67	-21.9	17.4	E	0.29	20.9	ESE	-29.3	-17.4	-29.4	742.2	0.025	0.000	20.6	5	-20.5	17.2	1.25	 .0732	23	1	100.0	1
02/24/24	1:17	-17.3	-17.3	-17.3	67	-22.0	20.0	E	0.33	22.6	E	-30.1	-17.4	-30.2	742.2	0.025	0.000	20.6	5	-20.5	17.2	1.25	 .0732	24	1	100.0	1
02/24/24	1:18	-17.3	-17.3	-17.3	67	-22.0	20.0	E	0.33	20.9	E	-30.1	-17.4	-30.2	742.2	0.025	0.000	20.6	5	-20.5	17.2	1.25	 .0732	23	1	100.0	1
02/24/24	1:19	-17.3	-17.3	-17.3	67	-22.0	19.1	E	0.32	22.6	E	-29.8	-17.4	-29.9	742.2	0.025	0.000	20.6	5	-20.5	17.2	1.25	 .0732	24	1	100.0	1
02/24/24	1:20	-17.3	-17.3	-17.3	67	-22.0	18.3	E	0.30	22.6	E	-29.6	-17.4	-29.7	742.2	0.025	0.000	20.6	5	-20.5	17.2	1.25	 .0732	23	1	100.0	1
02/24/24	1:21	-17.3	-17.3	-17.3	66	-22.2	18.3	ESE	0.30	20.9	ESE	-29.6	-17.4	-29.7	742.2	0.025	0.000	20.6	5	-20.5	17.2	1.25	 .0732	23	1	100.0	1
02/24/24	1:22	-17.3	-17.3	-17.3	66	-22.2	18.3	ESE	0.30	20.0	ESE	-29.6	-17.4	-29.7	742.2	0.025	0.000	20.6	5	-20.5	17.2	1.25	 .0732	24	1	100.0	1
02/24/24	1:23	-17.4	-17.3	-17.4	67	-22.1	19.1	ESE	0.32	21.7	ESE	-29.9	-17.5	-30.1	742.1	0.025	0.000	20.6	5	-20.5	17.2	1.25	 .0732	23	1	100.0	1
02/24/24	1:24	-17.4	-17.4	-17.4	66	-22.3	16.5	ESE	0.28	19.1	ESE	-29.2	-17.6	-29.3	742.1	0.025	0.000	20.6	5	-20.5	17.2	1.25	 .0732	24	1	100.0	1
02/24/24	1:25	-17.4	-17.4	-17.4	65	-22.5	18.3	ESE	0.30	20.9	ESE	-29.8	-17.6	-29.9	742.1	0.025	0.000	20.6	5	-20.5	17.2	1.25	 .0732	23	1	100.0	1
02/24/24	1:26	-17.4	-17.4	-17.4	66	-22.3	19.1	ESE	0.32	20.9	E	-30.0	-17.6	-30.1	742.1	0.025	0.000	20.7	5	-20.4	17.3	1.25	 .0732	23	1	100.0	1
02/24/24	1:27	-17.4	-17.4	-17.4	66	-22.3	19.1	E	0.32	23.5	E	-30.0	-17.6	-30.1	742.1	0.025	0.000	20.7	5	-20.4	17.3	1.25	 .0732	24	1	100.0	1
02/24/24	1:28	-17.4	-17.4	-17.4	66	-22.2	20.9	E	0.35	23.5	E	-30.4	-17.5	-30.5	742.1	0.025	0.000	20.7	5	-20.4	17.3	1.25	 .0732	23	1	100.0	1
02/24/24	1:29	-17.3	-17.3	-17.4	66	-22.2	20.0	E	0.33	23.5	E	-30.1	-17.4	-30.2	742.1	0.025	0.000	20.7	5	-20.4	17.3	1.25	 .0732	24	1	100.0	1
02/24/24	1:30	-17.3	-17.3	-17.3	65	-22.3	20.0	E	0.33	21.7	E	-30.0	-17.4	-30.1	742.1	0.025	0.000	20.7	5	-20.4	17.3	1.25	 .0732	23	1	100.0	1
02/24/24	1:31	-17.3	-17.3	-17.3	65	-22.3	20.0	ESE	0.33	22.6	E	-30.0	-17.4	-30.1	742.1	0.025	0.000	20.7	5	-20.4	17.3	1.25	 .0732	23	1	100.0	1
02/24/24	1:32	-17.2	-17.2	-17.2	64	-22.4	18.3	ESE	0.30	20.9	ESE	-29.4	-17.3	-29.6	742.1	0.025	0.000	20.7	5	-20.4	17.3	1.25	 .0732	24	1	100.0	1
02/24/24	1:33	-17.2	-17.2	-17.2	64	-22.4	19.1	ESE	0.32	21.7	ESE	-29.7	-17.3	-29.8	742.1	0.025	0.000	20.7	5	-20.4	17.3	1.25	 .0732	23	1	100.0	1
02/24/24	1:34	-17.3	-17.3	-17.3	64	-22.5	18.3	ESE	0.30	20.9	ESE	-29.6	-17.4	-29.7	742.1	0.025	0.000	20.7	5	-20.4	17.3	1.25	 .0732	24	1	100.0	1
02/24/24	1:35	-17.3	-17.3	-17.3	64	-22.5	18.3	ESE	0.30	20.0	ESE	-29.6	-17.4	-29.7	742.1	0.025	0.000	20.7	5	-20.4	17.3	1.25	 .0732	23	1	100.0	1
02/24/24	1:36	-17.3	-17.3	-17.3	65	-22.3	17.4	ESE	0.29	20.0	ESE	-29.3	-17.4	-29.4	742.1	0.025	0.000	20.8	5	-20.3	17.4	1.25	 .0732	24	1	100.0	1
02/24/24	1:37	-17.3	-17.3	-17.3	64	-22.5	19.1	ESE	0.32	20.9	ESE	-29.8	-17.4	-29.9	742.1	0.025	0.000	20.7	5	-20.4	17.3	1.25	 .0732	23	1	100.0	1
02/24/24	1:38	-17.3	-17.3	-17.3	64	-22.5	18.3	ESE	0.30	20.9	ESE	-29.6	-17.4	-29.7	742.1	0.025	0.000	20.8	5	-20.3	17.4	1.25	 .0731	23	1	100.0	1
02/24/24	1:39	-17.3	-17.3	-17.3	64	-22.5	17.4	ESE	0.29	20.0	ESE	-29.3	-17.4	-29.4	742.1	0.025	0.000	20.8	5	-20.3	17.4	1.25	 .0732	24	1	100.0	1
02/24/24	1:40	-17.3	-17.3	-17.3	64	-22.5	19.1	ESE	0.32	20.9	E	-29.8	-17.4	-29.9	742.1	0.025	0.000	20.8	5	-20.3	17.4	1.25	 .0732	23	1	100.0	1
02/24/24	1:41	-17.3	-17.3	-17.3	64	-22.5	18.3	E	0.30	20.9	E	-29.6	-17.4	-29.7	742.1	0.025	0.000	20.8	5	-20.3	17.4	1.25	 .0731	24	1	100.0	1
02/24/24	1:42	-17.3	-17.3	-17.3	64	-22.5	19.1	ESE	0.32	20.9	E	-29.8	-17.4	-29.9	742.1	0.025	0.000	20.8	5	-20.3	17.4	1.25	 .0731	23	1	100.0	1
02/24/24	1:43	-17.3	-17.3	-17.3	63	-22.6	18.3	ESE	0.30	20.9	E	-29.6	-17.4	-29.7	742.0	0.025	0.000	20.8	5	-20.3	17.4	1.25	 .0731	23	1	100.0	1
02/24/24	1:44	-17.3	-17.3	-17.3	63	-22.6	18.3	ESE	0.30	20.0	E	-29.6	-17.4	-29.7	742.0	0.025	0.000	20.8	5	-20.3	17.4	1.25	 .0731	24	1	100.0	1
02/24/24	1:45	-17.2	-17.2	-17.3	63	-22.6	19.1	E	0.32	20.9	E	-29.7	-17.3	-29.8	742.0	0.025	0.000	20.8	6	-18.2	17.4	1.54	 .0731	23	1	100.0	1
02/24/24	1:46	-17.3	-17.2	-17.3	63	-22.6	19.1	E	0.32	21.7	E	-29.8	-17.4	-29.9	742.0	0.025	0.000	20.8	6	-18.2	17.4	1.54	 .0731	24	1	100.0	1
02/24/24	1:47	-17.2	-17.2	-17.3	63	-22.6	18.3	ESE	0.30	20.0	E	-29.4	-17.3	-29.6	742.0	0.025	0.000	20.8	6	-18.2	17.5	1.54	 .0731	23	1	100.0	1
02/24/24	1:48	-17.2	-17.2	-17.2	63	-22.6	17.4	ESE	0.29	20.0	ESE	-29.2	-17.3	-29.3	742.0	0.025	0.000	20.8	5	-20.3	17.5	1.25	 .0731	24	1	100.0	1
02/24/24	1:49	-17.2	-17.2	-17.2	63	-22.6	19.1	ESE	0.32	21.7	E	-29.7	-17.3	-29.8	742.1	0.025	0.000	20.8	6	-18.2	17.5	1.54	 .0731	23	1	100.0	1
02/24/24	1:50	-17.2	-17.2	-17.2	62	-22.8	18.3	ESE	0.30	20.9	ESE	-29.4	-17.3	-29.6	742.0	0.025	0.000	20.9	6	-18.1	17.6	1.54	 .0731	23	1	100.0	1
02/24/24	1:51	-17.2	-17.2	-17.2	62	-22.8	17.4	ESE	0.29	20.0	ESE	-29.2	-17.3	-29.3	742.0	0.025	0.000	20.9	6	-18.1	17.6	1.54	 .0731	24	1	100.0	1
02/24/24	1:52	-17.3	-17.2	-17.3	62	-22.8	17.4	ESE	0.29	19.1	ESE	-29.3	-17.4	-29.4	742.0	0.025	0.000	20.9	6	-18.1	17.7	1.54	 .0731	23	1	100.0	1
02/24/24	1:53	-17.3	-17.2	-17.3	62	-22.8	20.0	ESE	0.33	22.6	ESE	-30.0	-17.4	-30.1	742.1	0.025	0.000	20.9	6	-18.1	17.7	1.54	 .0731	24	1	100.0	1
02/24/24	1:54	-17.2	-17.2	-17.3	62	-22.8	18.3	ESE	0.30	20.9	ESE	-29.4	-17.3	-29.6	742.1	0.025	0.000	20.9	5	-20.2	17.6	1.25	 .0731	23	1	100.0	1
02/24/24	1:55	-17.2	-17.2	-17.2	61	-23.0	20.0	E	0.33	22.6	E	-29.9	-17.3	-30.1	742.0	0.025	0.000	21.0	5	-20.2	17.7	1.25	 .0731	23	1	100.0	1
02/24/24	1:56	-17.2	-17.2	-17.2	61	-23.0	20.0	E	0.33	21.7	E	-29.9	-17.3	-30.1	742.0	0.025	0.000	21.0	6	-18.0	17.7	1.55	 .0731	24	1	100.0	1
02/24/24	1:57	-17.2	-17.2	-17.2	61	-22.9	19.1	E	0.32	21.7	ESE	-29.6	-17.3	-29.7	742.0	0.025	0.000	21.0	6	-18.0	17.7	1.55	 .0731	23	1	100.0	1
02/24/24	1:58	-17.2	-17.2	-17.2	60	-23.1	20.9	E	0.35	22.6	E	-30.1	-17.3	-30.2	742.0	0.025	0.000	21.0	5	-20.2	17.7	1.25	 .0731	24	1	100.0	1
02/24/24	1:59	-17.1	-17.1	-17.2	60	-23.0	20.9	ESE	0.35	22.6	ESE	-29.9	-17.2	-30.1	742.0	0.025	0.000	21.0	6	-18.0	17.7	1.55	 .0731	23	1	100.0	1
02/24/24	2:00	-17.0	-17.0	-17.1	59	-23.1	20.0	ESE	0.33	22.6	ESE	-29.6	-17.1	-29.7	742.1	0.025	0.000	21.0	6	-18.0	17.7	1.55	 .0731	24	1	100.0	1
02/24/24	2:01	-17.0	-17.0	-17.0	59	-23.1	19.1	ESE	0.32	20.9	ESE	-29.4	-17.1	-29.5	742.1	0.025	0.000	21.0	6	-18.0	17.7	1.55	 .0731	23	1	100.0	1
02/24/24	2:02	-17.0	-17.0	-17.0	58	-23.3	20.0	ESE	0.33	20.9	ESE	-29.6	-17.1	-29.7	742.1	0.025	0.000	21.0	6	-18.0	17.7	1.55	 .0731	23	1	100.0	1
02/24/24	2:03	-17.1	-17.0	-17.1	56	-23.8	20.0	ESE	0.33	21.7	ESE	-29.7	-17.2	-29.8	742.1	0.025	0.000	21.0	6	-18.0	17.7	1.55	 .0731	24	1	100.0	1
02/24/24	2:04	-17.1	-17.1	-17.1	56	-23.8	18.3	ESE	0.30	20.9	ESE	-29.2	-17.2	-29.3	742.0	0.025	0.000	21.0	6	-18.0	17.7	1.55	 .0731	23	1	100.0	1
02/24/24	2:05	-17.2	-17.1	-17.2	57	-23.7	18.3	ESE	0.30	20.0	ESE	-29.4	-17.3	-29.5	742.0	0.025	0.000	20.9	6	-18.1	17.7	1.54	 .0731	24	1	100.0	1
02/24/24	2:06	-17.2	-17.2	-17.2	57	-23.7	18.3	ESE	0.30	20.0	ESE	-29.4	-17.3	-29.6	742.0	0.025	0.000	20.9	6	-18.1	17.7	1.54	 .0731	23	1	100.0	1
02/24/24	2:07	-17.3	-17.2	-17.3	57	-23.8	17.4	ESE	0.29	20.0	ESE	-29.3	-17.4	-29.4	742.0	0.025	0.000	20.9	6	-18.1	17.7	1.54	 .0731	23	1	100.0	1
02/24/24	2:08	-17.3	-17.3	-17.3	58	-23.6	15.7	ESE	0.26	18.3	ESE	-28.8	-17.4	-28.9	742.0	0.025	0.000	20.9	6	-18.1	17.7	1.54	 .0731	24	1	100.0	1
02/24/24	2:09	-17.3	-17.3	-17.3	59	-23.4	16.5	ESE	0.28	18.3	E	-29.1	-17.4	-29.2	742.0	0.025	0.000	20.9	6	-18.1	17.7	1.54	 .0731	23	1	100.0	1
02/24/24	2:10	-17.3	-17.3	-17.3	60	-23.3	17.4	ESE	0.29	20.0	ESE	-29.3	-17.4	-29.4	742.0	0.025	0.000	20.9	6	-18.1	17.7	1.54	 .0731	24	1	100.0	1
02/24/24	2:11	-17.3	-17.3	-17.3	61	-23.1	17.4	ESE	0.29	20.0	E	-29.3	-17.4	-29.4	742.0	0.025	0.000	20.9	6	-18.1	17.6	1.54	 .0731	23	1	100.0	1
02/24/24	2:12	-17.3	-17.3	-17.3	61	-23.0	18.3	E	0.30	20.0	ESE	-29.6	-17.4	-29.7	742.0	0.025	0.000	20.9	6	-18.1	17.6	1.54	 .0731	23	1	100.0	1
02/24/24	2:13	-17.3	-17.3	-17.3	61	-23.0	19.1	ESE	0.32	20.9	E	-29.8	-17.4	-29.9	742.0	0.025	0.000	20.9	6	-18.1	17.6	1.54	 .0731	24	1	100.0	1
02/24/24	2:14	-17.3	-17.3	-17.3	61	-23.0	17.4	ESE	0.29	18.3	ESE	-29.3	-17.4	-29.4	742.0	0.025	0.000	20.8	6	-18.2	17.5	1.54	 .0731	23	1	100.0	1
02/24/24	2:15	-17.3	-17.3	-17.3	60	-23.2	17.4	E	0.29	20.0	ESE	-29.3	-17.4	-29.4	742.0	0.025	0.000	20.8	6	-18.2	17.5	1.54	 .0731	24	1	100.0	1
02/24/24	2:16	-17.3	-17.3	-17.3	60	-23.2	16.5	E	0.28	18.3	E	-29.0	-17.4	-29.1	742.0	0.025	0.000	20.8	6	-18.2	17.5	1.54	 .0731	23	1	100.0	1
02/24/24	2:17	-17.3	-17.3	-17.3	61	-23.0	17.4	E	0.29	20.0	E	-29.3	-17.4	-29.4	742.0	0.025	0.000	20.8	6	-18.2	17.5	1.54	 .0731	24	1	100.0	1
02/24/24	2:18	-17.3	-17.3	-17.3	61	-23.0	18.3	E	0.30	20.9	E	-29.6	-17.4	-29.7	742.0	0.025	0.000	20.8	6	-18.2	17.4	1.54	 .0731	23	1	100.0	1
02/24/24	2:19	-17.3	-17.3	-17.3	60	-23.2	18.3	ESE	0.30	20.0	E	-29.6	-17.4	-29.7	742.0	0.025	0.000	20.8	6	-18.2	17.4	1.54	 .0731	23	1	100.0	1
02/24/24	2:20	-17.2	-17.2	-17.3	60	-23.1	17.4	ESE	0.29	20.0	E	-29.2	-17.3	-29.3	742.0	0.025	0.000	20.8	6	-18.2	17.4	1.54	 .0731	24	1	100.0	1
02/24/24	2:21	-17.3	-17.3	-17.3	60	-23.2	18.3	ESE	0.30	20.0	ESE	-29.6	-17.4	-29.7	741.9	0.025	0.000	20.8	6	-18.2	17.4	1.54	 .0731	23	1	100.0	1
02/24/24	2:22	-17.3	-17.3	-17.3	60	-23.2	18.3	E	0.30	21.7	E	-29.6	-17.4	-29.7	742.0	0.025	0.000	20.8	6	-18.2	17.4	1.54	 .0731	24	1	100.0	1
02/24/24	2:23	-17.3	-17.2	-17.3	59	-23.4	20.0	E	0.33	21.7	E	-30.0	-17.4	-30.1	741.9	0.025	0.000	20.8	6	-18.2	17.4	1.54	 .0731	23	1	100.0	1
02/24/24	2:24	-17.2	-17.2	-17.3	59	-23.3	19.1	E	0.32	21.7	E	-29.7	-17.3	-29.8	741.9	0.025	0.000	20.8	6	-18.2	17.4	1.54	 .0731	23	1	100.0	1
02/24/24	2:25	-17.2	-17.2	-17.3	59	-23.3	19.1	E	0.32	20.9	E	-29.7	-17.3	-29.8	741.9	0.025	0.000	20.8	6	-18.2	17.4	1.54	 .0731	24	1	100.0	1
02/24/24	2:26	-17.2	-17.2	-17.2	59	-23.3	19.1	E	0.32	20.9	E	-29.7	-17.3	-29.8	741.9	0.025	0.000	20.8	6	-18.2	17.4	1.54	 .0731	23	1	100.0	1
02/24/24	2:27	-17.2	-17.2	-17.2	59	-23.3	20.0	E	0.33	21.7	E	-29.9	-17.3	-30.1	741.9	0.025	0.000	20.8	6	-18.2	17.4	1.54	 .0731	24	1	100.0	1
02/24/24	2:28	-17.2	-17.2	-17.2	59	-23.3	19.1	ESE	0.32	22.6	E	-29.7	-17.3	-29.8	741.9	0.025	0.000	20.8	6	-18.2	17.5	1.54	 .0731	23	1	100.0	1
02/24/24	2:29	-17.2	-17.2	-17.2	59	-23.3	17.4	ESE	0.29	20.0	ESE	-29.2	-17.3	-29.3	741.9	0.025	0.000	20.8	6	-18.2	17.5	1.54	 .0731	24	1	100.0	1
02/24/24	2:30	-17.3	-17.2	-17.3	59	-23.4	19.1	ESE	0.32	20.9	ESE	-29.8	-17.4	-29.9	741.9	0.025	0.000	20.8	6	-18.2	17.5	1.54	 .0731	23	1	100.0	1
02/24/24	2:31	-17.3	-17.3	-17.3	59	-23.4	19.1	ESE	0.32	21.7	E	-29.8	-17.4	-29.9	741.9	0.025	0.000	20.8	6	-18.2	17.5	1.54	 .0731	23	1	100.0	1
02/24/24	2:32	-17.3	-17.3	-17.3	59	-23.4	20.9	ESE	0.35	21.7	ESE	-30.3	-17.4	-30.4	741.9	0.025	0.000	20.8	6	-18.2	17.5	1.54	 .0731	24	1	100.0	1
02/24/24	2:33	-17.3	-17.3	-17.3	59	-23.4	18.3	ESE	0.30	20.9	ESE	-29.6	-17.4	-29.7	741.9	0.025	0.000	20.9	6	-18.1	17.6	1.54	 .0731	23	1	100.0	1
02/24/24	2:34	-17.4	-17.3	-17.4	59	-23.5	19.1	E	0.32	20.9	E	-29.9	-17.5	-30.1	741.9	0.025	0.000	20.8	6	-18.2	17.5	1.54	 .0731	24	1	100.0	1
02/24/24	2:35	-17.4	-17.4	-17.4	59	-23.5	19.1	E	0.32	21.7	E	-30.0	-17.6	-30.1	742.0	0.025	0.000	20.9	6	-18.1	17.6	1.54	 .0731	23	1	100.0	1
02/24/24	2:36	-17.5	-17.4	-17.5	59	-23.6	19.1	ESE	0.32	21.7	ESE	-30.1	-17.6	-30.2	741.9	0.025	0.000	20.9	6	-18.1	17.6	1.54	 .0731	23	1	100.0	1
02/24/24	2:37	-17.5	-17.5	-17.5	60	-23.4	17.4	E	0.29	19.1	E	-29.6	-17.6	-29.7	741.9	0.025	0.000	20.9	6	-18.1	17.6	1.54	 .0731	24	1	100.0	1
02/24/24	2:38	-17.6	-17.5	-17.6	60	-23.5	18.3	E	0.30	20.0	E	-29.9	-17.7	-30.0	741.9	0.025	0.000	20.9	6	-18.1	17.6	1.54	 .0731	23	1	100.0	1
02/24/24	2:39	-17.5	-17.5	-17.6	60	-23.4	20.0	E	0.33	21.7	E	-30.3	-17.6	-30.4	741.9	0.025	0.000	20.9	6	-18.1	17.7	1.54	 .0731	24	1	100.0	1
02/24/24	2:40	-17.5	-17.5	-17.6	61	-23.2	20.0	E	0.33	22.6	E	-30.3	-17.6	-30.4	741.9	0.025	0.000	20.9	6	-18.1	17.7	1.54	 .0731	23	1	100.0	1
02/24/24	2:41	-17.5	-17.5	-17.6	60	-23.4	20.0	E	0.33	21.7	E	-30.3	-17.6	-30.4	741.9	0.025	0.000	20.9	6	-18.1	17.7	1.54	 .0731	24	1	100.0	1
02/24/24	2:42	-17.5	-17.5	-17.5	60	-23.4	19.1	E	0.32	21.7	ESE	-30.1	-17.6	-30.2	741.9	0.025	0.000	20.9	6	-18.1	17.7	1.54	 .0731	23	1	100.0	1
02/24/24	2:43	-17.5	-17.5	-17.5	60	-23.4	21.7	E	0.36	22.6	E	-30.7	-17.6	-30.8	741.8	0.025	0.000	20.9	6	-18.1	17.7	1.54	 .0731	23	1	100.0	1
02/24/24	2:44	-17.5	-17.5	-17.5	60	-23.4	20.0	E	0.33	22.6	E	-30.3	-17.6	-30.4	741.8	0.025	0.000	21.0	6	-18.0	17.7	1.55	 .0731	24	1	100.0	1
02/24/24	2:45	-17.5	-17.5	-17.5	60	-23.4	20.0	ESE	0.33	23.5	E	-30.3	-17.6	-30.4	741.8	0.025	0.000	21.0	6	-18.0	17.7	1.55	 .0730	23	1	100.0	1
02/24/24	2:46	-17.4	-17.4	-17.5	59	-23.5	20.9	ESE	0.35	22.6	E	-30.4	-17.6	-30.6	741.8	0.025	0.000	21.0	6	-18.0	17.7	1.55	 .0730	24	1	100.0	1
02/24/24	2:47	-17.4	-17.4	-17.4	58	-23.7	20.0	E	0.33	22.6	ESE	-30.2	-17.6	-30.3	741.8	0.025	0.000	21.0	6	-18.0	17.7	1.55	 .0730	23	1	100.0	1
02/24/24	2:48	-17.4	-17.4	-17.4	59	-23.5	19.1	ESE	0.32	21.7	ESE	-29.9	-17.5	-30.1	741.8	0.025	0.000	21.0	6	-18.0	17.7	1.55	 .0731	23	1	100.0	1
02/24/24	2:49	-17.4	-17.4	-17.4	59	-23.5	19.1	E	0.32	21.7	E	-30.0	-17.6	-30.1	741.8	0.025	0.000	21.0	6	-18.0	17.7	1.55	 .0730	24	1	100.0	1
02/24/24	2:50	-17.4	-17.4	-17.4	59	-23.5	20.9	ESE	0.35	22.6	ESE	-30.4	-17.6	-30.6	741.8	0.025	0.000	21.0	6	-18.0	17.7	1.55	 .0730	23	1	100.0	1
02/24/24	2:51	-17.4	-17.4	-17.4	58	-23.7	19.1	E	0.32	21.7	E	-30.0	-17.6	-30.1	741.8	0.025	0.000	20.9	6	-18.1	17.7	1.54	 .0731	24	1	100.0	1
02/24/24	2:52	-17.4	-17.4	-17.4	58	-23.7	18.3	E	0.30	20.9	ESE	-29.8	-17.6	-29.9	741.8	0.025	0.000	20.9	6	-18.1	17.7	1.54	 .0731	23	1	100.0	1
02/24/24	2:53	-17.4	-17.4	-17.4	58	-23.7	20.0	E	0.33	22.6	E	-30.2	-17.6	-30.3	741.8	0.025	0.000	20.9	6	-18.1	17.7	1.54	 .0731	23	1	100.0	1
02/24/24	2:54	-17.5	-17.4	-17.5	58	-23.8	20.9	E	0.35	23.5	ESE	-30.5	-17.6	-30.6	741.7	0.025	0.000	20.9	6	-18.1	17.7	1.54	 .0731	24	1	100.0	1
02/24/24	2:55	-17.5	-17.4	-17.5	58	-23.8	20.9	E	0.35	22.6	ESE	-30.5	-17.6	-30.6	741.8	0.025	0.000	20.9	6	-18.1	17.7	1.54	 .0731	23	1	100.0	1
02/24/24	2:56	-17.5	-17.5	-17.5	58	-23.8	19.1	E	0.32	21.7	E	-30.1	-17.6	-30.2	741.8	0.025	0.000	20.9	6	-18.1	17.7	1.54	 .0731	24	1	100.0	1
02/24/24	2:57	-17.5	-17.5	-17.6	58	-23.8	19.1	E	0.32	22.6	E	-30.1	-17.6	-30.2	741.8	0.025	0.000	20.9	6	-18.1	17.6	1.54	 .0731	23	1	100.0	1
02/24/24	2:58	-17.6	-17.5	-17.6	59	-23.7	21.7	E	0.36	23.5	E	-30.8	-17.7	-30.9	741.8	0.025	0.000	20.9	6	-18.1	17.6	1.54	 .0731	24	1	100.0	1
02/24/24	2:59	-17.6	-17.6	-17.6	58	-23.8	20.9	E	0.35	22.6	E	-30.6	-17.7	-30.7	741.8	0.025	0.000	20.9	6	-18.1	17.6	1.54	 .0731	23	1	100.0	1
02/24/24	3:00	-17.6	-17.6	-17.6	58	-23.9	20.0	E	0.33	22.6	E	-30.4	-17.7	-30.6	741.8	0.025	0.000	20.9	6	-18.1	17.6	1.54	 .0731	23	1	100.0	1
02/24/24	3:01	-17.7	-17.6	-17.7	58	-23.9	19.1	E	0.32	21.7	ESE	-30.3	-17.8	-30.4	741.8	0.025	0.000	20.9	6	-18.1	17.6	1.54	 .0731	24	1	100.0	1
02/24/24	3:02	-17.7	-17.7	-17.7	58	-23.9	20.9	E	0.35	22.6	E	-30.7	-17.8	-30.8	741.8	0.025	0.000	20.8	6	-18.2	17.5	1.54	 .0731	23	1	100.0	1
02/24/24	3:03	-17.7	-17.7	-17.7	59	-23.8	21.7	E	0.36	23.5	E	-30.9	-17.8	-31.1	741.7	0.025	0.000	20.8	6	-18.2	17.5	1.54	 .0731	24	1	100.0	1
02/24/24	3:04	-17.7	-17.7	-17.7	59	-23.8	20.9	E	0.35	22.6	E	-30.7	-17.8	-30.8	741.7	0.025	0.000	20.8	6	-18.2	17.5	1.54	 .0731	23	1	100.0	1
02/24/24	3:05	-17.7	-17.7	-17.7	59	-23.8	20.0	E	0.33	21.7	E	-30.6	-17.8	-30.7	741.7	0.025	0.000	20.8	6	-18.2	17.4	1.54	 .0731	23	1	100.0	1
02/24/24	3:06	-17.7	-17.7	-17.7	60	-23.6	20.0	E	0.33	22.6	E	-30.6	-17.8	-30.7	741.8	0.025	0.000	20.8	6	-18.2	17.4	1.54	 .0731	24	1	100.0	1
02/24/24	3:07	-17.8	-17.8	-17.8	60	-23.7	20.0	E	0.33	21.7	E	-30.7	-17.9	-30.8	741.7	0.025	0.000	20.8	6	-18.2	17.4	1.54	 .0731	23	1	100.0	1
02/24/24	3:08	-17.8	-17.8	-17.8	60	-23.7	20.0	E	0.33	21.7	E	-30.7	-17.9	-30.8	741.8	0.025	0.000	20.8	6	-18.2	17.4	1.54	 .0731	24	1	100.0	1
02/24/24	3:09	-17.8	-17.8	-17.8	61	-23.5	20.0	E	0.33	21.7	E	-30.7	-17.9	-30.8	741.7	0.025	0.000	20.8	6	-18.2	17.4	1.54	 .0731	23	1	100.0	1
02/24/24	3:10	-17.8	-17.8	-17.8	61	-23.5	20.0	E	0.33	22.6	E	-30.7	-17.9	-30.8	741.7	0.025	0.000	20.8	6	-18.2	17.4	1.54	 .0731	24	1	100.0	1
02/24/24	3:11	-17.8	-17.8	-17.8	61	-23.5	20.9	E	0.35	23.5	E	-30.9	-17.9	-31.1	741.7	0.025	0.000	20.8	6	-18.2	17.4	1.54	 .0731	23	1	100.0	1
02/24/24	3:12	-17.8	-17.8	-17.8	60	-23.7	20.9	E	0.35	23.5	E	-30.9	-17.9	-31.1	741.7	0.025	0.000	20.8	6	-18.2	17.4	1.54	 .0731	23	1	100.0	1
02/24/24	3:13	-17.8	-17.8	-17.8	60	-23.7	21.7	E	0.36	23.5	E	-31.2	-17.9	-31.3	741.7	0.025	0.000	20.8	6	-18.2	17.4	1.54	 .0731	24	1	100.0	1
02/24/24	3:14	-17.8	-17.8	-17.8	60	-23.7	20.9	E	0.35	22.6	ESE	-30.9	-17.9	-31.1	741.7	0.025	0.000	20.8	6	-18.2	17.4	1.54	 .0731	23	1	100.0	1
02/24/24	3:15	-17.8	-17.8	-17.8	60	-23.7	20.9	E	0.35	23.5	E	-30.9	-17.9	-31.0	741.7	0.025	0.000	20.8	6	-18.2	17.4	1.54	 .0731	24	1	100.0	1
02/24/24	3:16	-17.8	-17.8	-17.8	60	-23.7	21.7	E	0.36	22.6	E	-31.1	-17.9	-31.2	741.7	0.025	0.000	20.8	6	-18.2	17.4	1.54	 .0731	23	1	100.0	1
02/24/24	3:17	-17.8	-17.8	-17.8	60	-23.7	22.6	E	0.38	24.3	E	-31.3	-17.9	-31.4	741.6	0.025	0.000	20.8	6	-18.2	17.4	1.54	 .0731	23	1	100.0	1
02/24/24	3:18	-17.8	-17.8	-17.8	60	-23.7	21.7	E	0.36	23.5	ESE	-31.1	-17.9	-31.2	741.6	0.025	0.000	20.8	6	-18.2	17.4	1.54	 .0731	24	1	100.0	1
02/24/24	3:19	-17.8	-17.8	-17.8	59	-23.9	21.7	E	0.36	23.5	E	-31.1	-17.9	-31.2	741.6	0.025	0.000	20.8	6	-18.2	17.4	1.54	 .0731	23	1	100.0	1
02/24/24	3:20	-17.8	-17.8	-17.8	59	-23.9	21.7	E	0.36	22.6	ESE	-31.1	-17.9	-31.2	741.6	0.025	0.000	20.8	6	-18.2	17.4	1.54	 .0731	24	1	100.0	1
02/24/24	3:21	-17.8	-17.8	-17.8	59	-23.9	22.6	E	0.38	24.3	E	-31.3	-17.9	-31.4	741.6	0.025	0.000	20.8	6	-18.2	17.4	1.54	 .0731	23	1	100.0	1
02/24/24	3:22	-17.8	-17.8	-17.8	59	-23.9	21.7	E	0.36	23.5	E	-31.1	-17.9	-31.2	741.6	0.025	0.000	20.8	6	-18.2	17.4	1.54	 .0731	24	1	100.0	1
02/24/24	3:23	-17.8	-17.8	-17.8	59	-23.9	21.7	E	0.36	24.3	E	-31.1	-17.9	-31.2	741.5	0.025	0.000	20.8	6	-18.2	17.4	1.54	 .0731	23	1	100.0	1
02/24/24	3:24	-17.8	-17.8	-17.8	59	-23.9	21.7	E	0.36	23.5	E	-31.1	-17.9	-31.2	741.5	0.025	0.000	20.8	6	-18.2	17.4	1.54	 .0731	23	1	100.0	1
02/24/24	3:25	-17.8	-17.8	-17.8	59	-23.9	21.7	E	0.36	23.5	E	-31.1	-17.9	-31.2	741.5	0.025	0.000	20.8	6	-18.2	17.5	1.54	 .0731	24	1	100.0	1
02/24/24	3:26	-17.8	-17.8	-17.8	59	-23.9	22.6	E	0.38	23.5	E	-31.4	-17.9	-31.5	741.5	0.025	0.000	20.8	6	-18.2	17.5	1.54	 .0731	23	1	100.0	1
02/24/24	3:27	-17.8	-17.8	-17.8	59	-23.9	21.7	E	0.36	23.5	E	-31.2	-17.9	-31.3	741.5	0.025	0.000	20.8	6	-18.2	17.5	1.54	 .0731	24	1	100.0	1
02/24/24	3:28	-17.8	-17.8	-17.8	60	-23.7	21.7	E	0.36	24.3	E	-31.2	-17.9	-31.3	741.5	0.025	0.000	20.8	6	-18.2	17.5	1.54	 .0731	23	1	100.0	1
02/24/24	3:29	-17.8	-17.8	-17.8	60	-23.7	23.5	E	0.39	25.2	E	-31.5	-17.9	-31.6	741.5	0.025	0.000	20.8	6	-18.2	17.5	1.54	 .0731	23	1	100.0	1
02/24/24	3:30	-17.8	-17.8	-17.8	60	-23.7	23.5	E	0.39	24.3	E	-31.5	-17.9	-31.6	741.5	0.025	0.000	20.8	6	-18.2	17.5	1.54	 .0731	24	1	100.0	1
02/24/24	3:31	-17.7	-17.7	-17.8	60	-23.6	20.9	E	0.35	23.5	E	-30.8	-17.8	-30.9	741.5	0.025	0.000	20.8	6	-18.2	17.5	1.54	 .0731	23	1	100.0	1
02/24/24	3:32	-17.7	-17.7	-17.8	60	-23.6	22.6	E	0.38	24.3	E	-31.2	-17.8	-31.3	741.5	0.025	0.000	20.8	6	-18.2	17.5	1.54	 .0731	24	1	100.0	1
02/24/24	3:33	-17.7	-17.7	-17.8	60	-23.6	22.6	E	0.38	24.3	E	-31.2	-17.8	-31.3	741.5	0.025	0.000	20.8	6	-18.2	17.5	1.54	 .0731	23	1	100.0	1
02/24/24	3:34	-17.7	-17.7	-17.7	59	-23.8	21.7	E	0.36	23.5	E	-31.1	-17.8	-31.2	741.5	0.025	0.000	20.9	6	-18.1	17.6	1.54	 .0730	23	1	100.0	1
02/24/24	3:35	-17.7	-17.7	-17.7	59	-23.8	22.6	E	0.38	24.3	E	-31.2	-17.8	-31.3	741.4	0.025	0.000	20.9	6	-18.1	17.6	1.54	 .0730	24	1	100.0	1
02/24/24	3:36	-17.7	-17.7	-17.7	59	-23.8	23.5	E	0.39	25.2	E	-31.4	-17.8	-31.5	741.4	0.025	0.000	20.9	6	-18.1	17.6	1.54	 .0730	23	1	100.0	1
02/24/24	3:37	-17.6	-17.6	-17.7	58	-23.9	22.6	E	0.38	24.3	E	-31.1	-17.7	-31.2	741.5	0.025	0.000	20.9	6	-18.1	17.7	1.54	 .0730	24	1	100.0	1
02/24/24	3:38	-17.6	-17.6	-17.6	58	-23.8	22.6	E	0.38	23.5	E	-31.0	-17.7	-31.1	741.5	0.025	0.000	20.9	6	-18.1	17.7	1.54	 .0730	23	1	100.0	1
02/24/24	3:39	-17.6	-17.6	-17.6	57	-24.0	22.6	E	0.38	23.5	E	-31.0	-17.7	-31.1	741.4	0.025	0.000	20.9	6	-18.1	17.7	1.54	 .0730	24	1	100.0	1
02/24/24	3:40	-17.6	-17.6	-17.6	57	-24.0	22.6	E	0.38	23.5	E	-31.0	-17.7	-31.1	741.4	0.025	0.000	20.9	6	-18.1	17.7	1.54	 .0730	23	1	100.0	1
02/24/24	3:41	-17.6	-17.6	-17.6	57	-24.0	22.6	E	0.38	23.5	E	-31.0	-17.7	-31.1	741.4	0.025	0.000	20.9	6	-18.1	17.7	1.54	 .0730	23	1	100.0	1
02/24/24	3:42	-17.5	-17.5	-17.6	57	-24.0	22.6	E	0.38	23.5	E	-30.9	-17.6	-31.1	741.4	0.025	0.000	20.9	6	-18.1	17.7	1.54	 .0730	24	1	100.0	1
02/24/24	3:43	-17.5	-17.5	-17.5	56	-24.2	20.9	E	0.35	23.5	E	-30.5	-17.6	-30.6	741.5	0.025	0.000	20.9	6	-18.1	17.7	1.54	 .0730	23	1	100.0	1
02/24/24	3:44	-17.5	-17.5	-17.5	55	-24.4	21.7	E	0.36	23.5	E	-30.7	-17.6	-30.8	741.4	0.025	0.000	20.9	6	-18.1	17.7	1.54	 .0730	24	1	100.0	1
02/24/24	3:45	-17.5	-17.4	-17.5	55	-24.4	22.6	E	0.38	23.5	E	-30.9	-17.6	-31.1	741.4	0.025	0.000	21.0	6	-18.0	17.7	1.55	 .0730	23	1	100.0	1
02/24/24	3:46	-17.5	-17.5	-17.5	55	-24.4	22.6	E	0.38	23.5	E	-30.9	-17.6	-31.1	741.4	0.025	0.000	20.9	6	-18.1	17.7	1.54	 .0730	24	1	100.0	1
02/24/24	3:47	-17.5	-17.5	-17.5	55	-24.4	22.6	E	0.38	23.5	E	-30.9	-17.6	-31.1	741.4	0.025	0.000	21.0	6	-18.0	17.7	1.55	 .0730	23	1	100.0	1
02/24/24	3:48	-17.4	-17.4	-17.5	55	-24.3	20.9	E	0.35	23.5	E	-30.4	-17.6	-30.6	741.4	0.025	0.000	20.9	6	-18.1	17.7	1.54	 .0730	23	1	100.0	1
02/24/24	3:49	-17.4	-17.4	-17.4	55	-24.3	20.9	E	0.35	22.6	E	-30.4	-17.6	-30.6	741.4	0.025	0.000	20.9	6	-18.1	17.7	1.54	 .0730	24	1	100.0	1
02/24/24	3:50	-17.4	-17.4	-17.4	55	-24.3	22.6	E	0.38	24.3	E	-30.9	-17.6	-31.0	741.4	0.025	0.000	20.9	6	-18.1	17.7	1.54	 .0730	23	1	100.0	1
02/24/24	3:51	-17.4	-17.4	-17.4	55	-24.3	22.6	E	0.38	23.5	E	-30.8	-17.5	-30.9	741.3	0.025	0.000	20.9	6	-18.1	17.7	1.54	 .0730	24	1	100.0	1
02/24/24	3:52	-17.4	-17.4	-17.4	55	-24.3	22.6	E	0.38	24.3	E	-30.8	-17.5	-30.9	741.3	0.025	0.000	20.9	6	-18.1	17.7	1.54	 .0730	23	1	100.0	1
02/24/24	3:53	-17.4	-17.4	-17.4	55	-24.3	21.7	E	0.36	23.5	E	-30.7	-17.6	-30.8	741.4	0.025	0.000	20.9	6	-18.1	17.6	1.54	 .0730	23	1	100.0	1
02/24/24	3:54	-17.4	-17.4	-17.4	55	-24.3	21.7	E	0.36	23.5	E	-30.7	-17.6	-30.8	741.3	0.025	0.000	20.9	6	-18.1	17.6	1.54	 .0730	24	1	100.0	1
02/24/24	3:55	-17.4	-17.4	-17.5	55	-24.3	21.7	E	0.36	23.5	E	-30.7	-17.6	-30.8	741.4	0.025	0.000	20.9	6	-18.1	17.6	1.54	 .0730	23	1	100.0	1
02/24/24	3:56	-17.4	-17.4	-17.5	55	-24.3	22.6	E	0.38	23.5	E	-30.9	-17.6	-31.0	741.4	0.025	0.000	20.9	6	-18.1	17.6	1.54	 .0730	24	1	100.0	1
02/24/24	3:57	-17.5	-17.4	-17.5	55	-24.4	22.6	E	0.38	23.5	E	-30.9	-17.6	-31.1	741.3	0.025	0.000	20.9	6	-18.1	17.6	1.54	 .0730	23	1	100.0	1
02/24/24	3:58	-17.5	-17.5	-17.5	55	-24.4	21.7	E	0.36	23.5	E	-30.7	-17.6	-30.8	741.3	0.025	0.000	20.9	6	-18.1	17.6	1.54	 .0730	23	1	100.0	1
02/24/24	3:59	-17.5	-17.5	-17.5	55	-24.4	21.7	E	0.36	23.5	E	-30.7	-17.6	-30.8	741.3	0.025	0.000	20.8	6	-18.2	17.5	1.54	 .0730	24	1	100.0	1
02/24/24	4:00	-17.5	-17.5	-17.5	55	-24.4	21.7	E	0.36	23.5	E	-30.7	-17.6	-30.8	741.3	0.025	0.000	20.8	6	-18.2	17.5	1.54	 .0730	23	1	100.0	1
02/24/24	4:01	-17.5	-17.5	-17.5	55	-24.4	21.7	E	0.36	23.5	E	-30.7	-17.6	-30.8	741.3	0.025	0.000	20.8	6	-18.2	17.5	1.54	 .0730	24	1	100.0	1
02/24/24	4:02	-17.4	-17.4	-17.5	55	-24.3	20.9	E	0.35	22.6	E	-30.4	-17.6	-30.6	741.3	0.025	0.000	20.8	6	-18.2	17.5	1.54	 .0730	23	1	100.0	1
02/24/24	4:03	-17.4	-17.4	-17.5	55	-24.3	22.6	E	0.38	23.5	E	-30.9	-17.6	-31.0	741.3	0.025	0.000	20.8	6	-18.2	17.5	1.54	 .0730	24	1	100.0	1
02/24/24	4:04	-17.4	-17.4	-17.4	55	-24.3	21.7	E	0.36	23.5	E	-30.6	-17.5	-30.7	741.3	0.025	0.000	20.8	6	-18.2	17.4	1.54	 .0731	23	1	100.0	1
02/24/24	4:05	-17.4	-17.4	-17.4	55	-24.3	21.7	E	0.36	23.5	E	-30.6	-17.5	-30.7	741.3	0.025	0.000	20.8	6	-18.2	17.4	1.54	 .0731	23	1	100.0	1
02/24/24	4:06	-17.3	-17.3	-17.4	55	-24.2	22.6	E	0.38	24.3	E	-30.7	-17.4	-30.8	741.3	0.025	0.000	20.8	6	-18.2	17.4	1.54	 .0731	24	1	100.0	1
02/24/24	4:07	-17.3	-17.3	-17.4	55	-24.2	20.9	E	0.35	22.6	E	-30.3	-17.4	-30.4	741.3	0.025	0.000	20.8	6	-18.2	17.4	1.54	 .0731	23	1	100.0	1
02/24/24	4:08	-17.3	-17.3	-17.3	55	-24.2	20.9	E	0.35	22.6	E	-30.2	-17.4	-30.3	741.3	0.025	0.000	20.8	6	-18.2	17.4	1.54	 .0731	24	1	100.0	1
02/24/24	4:09	-17.2	-17.2	-17.3	54	-24.3	20.0	E	0.33	21.7	E	-29.9	-17.3	-30.1	741.3	0.025	0.000	20.8	6	-18.2	17.4	1.54	 .0731	23	1	100.0	1
02/24/24	4:10	-17.2	-17.2	-17.2	54	-24.3	20.9	E	0.35	22.6	E	-30.2	-17.3	-30.3	741.3	0.025	0.000	20.8	6	-18.2	17.5	1.54	 .0730	23	1	100.0	1
02/24/24	4:11	-17.2	-17.2	-17.2	55	-24.1	21.7	E	0.36	23.5	E	-30.4	-17.3	-30.5	741.3	0.025	0.000	20.8	6	-18.2	17.5	1.54	 .0730	24	1	100.0	1
02/24/24	4:12	-17.2	-17.2	-17.2	55	-24.1	20.9	E	0.35	22.6	E	-30.2	-17.3	-30.3	741.3	0.025	0.000	20.8	6	-18.2	17.5	1.54	 .0730	23	1	100.0	1
02/24/24	4:13	-17.2	-17.2	-17.2	55	-24.1	21.7	E	0.36	23.5	E	-30.4	-17.3	-30.5	741.2	0.025	0.000	20.8	6	-18.2	17.5	1.54	 .0730	24	1	100.0	1
02/24/24	4:14	-17.2	-17.2	-17.2	55	-24.1	20.9	E	0.35	21.7	E	-30.2	-17.3	-30.3	741.2	0.025	0.000	20.8	6	-18.2	17.5	1.54	 .0730	23	1	100.0	1
02/24/24	4:15	-17.2	-17.2	-17.2	55	-24.1	20.9	E	0.35	22.6	E	-30.1	-17.3	-30.2	741.3	0.025	0.000	20.9	6	-18.1	17.6	1.54	 .0730	23	1	100.0	1
02/24/24	4:16	-17.2	-17.2	-17.2	55	-24.1	20.9	E	0.35	23.5	E	-30.1	-17.3	-30.2	741.2	0.025	0.000	20.9	6	-18.1	17.6	1.54	 .0730	24	1	100.0	1
02/24/24	4:17	-17.1	-17.1	-17.2	55	-24.0	21.7	E	0.36	22.6	E	-30.2	-17.2	-30.3	741.2	0.025	0.000	20.9	6	-18.1	17.6	1.54	 .0730	23	1	100.0	1
02/24/24	4:18	-17.1	-17.1	-17.1	55	-24.0	21.7	E	0.36	23.5	E	-30.2	-17.2	-30.3	741.2	0.025	0.000	20.9	6	-18.1	17.6	1.54	 .0730	24	1	100.0	1
02/24/24	4:19	-17.1	-17.1	-17.1	55	-24.0	21.7	E	0.36	23.5	E	-30.2	-17.2	-30.3	741.2	0.025	0.000	20.9	6	-18.1	17.6	1.54	 .0730	23	1	100.0	1
02/24/24	4:20	-17.1	-17.1	-17.1	55	-24.0	21.7	E	0.36	23.5	E	-30.2	-17.2	-30.3	741.2	0.025	0.000	20.9	6	-18.1	17.7	1.54	 .0730	24	1	100.0	1
02/24/24	4:21	-17.1	-17.1	-17.1	55	-24.0	23.5	E	0.39	24.3	E	-30.6	-17.2	-30.7	741.2	0.025	0.000	20.9	6	-18.1	17.7	1.54	 .0730	23	1	100.0	1
02/24/24	4:22	-17.1	-17.1	-17.1	55	-24.0	23.5	E	0.39	24.3	E	-30.6	-17.2	-30.7	741.1	0.025	0.000	20.9	6	-18.1	17.7	1.54	 .0730	23	1	100.0	1
02/24/24	4:23	-17.1	-17.1	-17.1	55	-24.0	23.5	E	0.39	24.3	E	-30.6	-17.2	-30.7	741.2	0.025	0.000	20.9	6	-18.1	17.7	1.54	 .0730	24	1	100.0	1
02/24/24	4:24	-17.1	-17.1	-17.1	55	-24.0	22.6	E	0.38	24.3	E	-30.3	-17.2	-30.4	741.2	0.025	0.000	20.9	6	-18.1	17.7	1.54	 .0730	23	1	100.0	1
02/24/24	4:25	-17.1	-17.1	-17.1	55	-24.0	22.6	E	0.38	24.3	E	-30.3	-17.2	-30.4	741.1	0.025	0.000	20.9	6	-18.1	17.7	1.54	 .0730	24	1	100.0	1
02/24/24	4:26	-17.1	-17.1	-17.1	55	-24.0	23.5	E	0.39	24.3	E	-30.6	-17.2	-30.7	741.1	0.025	0.000	21.0	6	-18.0	17.7	1.55	 .0730	23	1	100.0	1
02/24/24	4:27	-17.0	-17.0	-17.1	55	-23.9	23.5	E	0.39	24.3	E	-30.5	-17.1	-30.6	741.1	0.025	0.000	21.0	6	-18.0	17.7	1.55	 .0730	23	1	100.0	1
02/24/24	4:28	-17.0	-17.0	-17.0	55	-23.9	22.6	E	0.38	24.3	E	-30.3	-17.1	-30.4	741.2	0.025	0.000	21.0	6	-18.0	17.7	1.55	 .0730	24	1	100.0	1
02/24/24	4:29	-17.0	-17.0	-17.0	56	-23.7	23.5	E	0.39	25.2	E	-30.5	-17.1	-30.6	741.1	0.025	0.000	21.0	6	-18.0	17.7	1.55	 .0730	23	1	100.0	1
02/24/24	4:30	-17.0	-16.9	-17.0	56	-23.7	21.7	E	0.36	24.3	E	-30.1	-17.1	-30.2	741.1	0.025	0.000	21.1	6	-18.0	17.8	1.55	 .0730	24	1	100.0	1
02/24/24	4:31	-17.0	-16.9	-17.0	56	-23.7	22.6	E	0.38	24.3	E	-30.3	-17.1	-30.4	741.1	0.025	0.000	21.1	6	-18.0	17.8	1.55	 .0730	23	1	100.0	1
02/24/24	4:32	-17.1	-17.0	-17.1	57	-23.6	23.5	E	0.39	24.3	E	-30.6	-17.2	-30.7	741.1	0.025	0.000	21.1	6	-18.0	17.8	1.55	 .0730	24	1	100.0	1
02/24/24	4:33	-17.1	-17.1	-17.1	56	-23.8	22.6	E	0.38	24.3	E	-30.3	-17.2	-30.4	741.1	0.025	0.000	21.1	6	-18.0	17.8	1.55	 .0730	23	1	100.0	1
02/24/24	4:34	-17.1	-17.1	-17.1	57	-23.6	21.7	E	0.36	23.5	E	-30.2	-17.2	-30.3	741.1	0.025	0.000	21.1	6	-18.0	17.8	1.55	 .0730	23	1	100.0	1
02/24/24	4:35	-17.1	-17.1	-17.1	58	-23.4	23.5	E	0.39	24.3	E	-30.6	-17.2	-30.7	741.1	0.025	0.000	21.1	6	-18.0	17.8	1.55	 .0730	24	1	100.0	1
02/24/24	4:36	-17.1	-17.1	-17.1	57	-23.6	23.5	E	0.39	25.2	E	-30.6	-17.2	-30.7	741.1	0.025	0.000	21.1	6	-18.0	17.8	1.55	 .0730	23	1	100.0	1
02/24/24	4:37	-17.1	-17.1	-17.1	57	-23.6	23.5	E	0.39	24.3	E	-30.6	-17.2	-30.7	741.1	0.025	0.000	21.1	6	-18.0	17.8	1.55	 .0730	24	1	100.0	1
02/24/24	4:38	-17.1	-17.1	-17.1	56	-23.8	22.6	E	0.38	23.5	E	-30.3	-17.2	-30.4	741.1	0.025	0.000	21.1	6	-18.0	17.8	1.55	 .0730	23	1	100.0	1
02/24/24	4:39	-17.0	-17.0	-17.1	56	-23.7	23.5	E	0.39	24.3	E	-30.5	-17.1	-30.6	741.1	0.025	0.000	21.1	6	-18.0	17.8	1.55	 .0730	23	1	100.0	1
02/24/24	4:40	-17.0	-17.0	-17.0	56	-23.7	23.5	E	0.39	25.2	E	-30.5	-17.1	-30.6	741.1	0.025	0.000	21.1	6	-18.0	17.8	1.55	 .0730	24	1	100.0	1
02/24/24	4:41	-16.9	-16.9	-17.0	56	-23.6	24.3	E	0.41	26.1	E	-30.5	-17.0	-30.6	741.1	0.024	0.000	21.1	6	-18.0	17.8	1.55	 .0730	23	1	100.0	1
02/24/24	4:42	-16.8	-16.8	-16.9	56	-23.6	23.5	E	0.39	24.3	E	-30.2	-16.9	-30.3	741.1	0.024	0.000	21.1	6	-18.0	17.8	1.55	 .0730	24	1	100.0	1
02/24/24	4:43	-16.8	-16.8	-16.8	55	-23.8	22.6	E	0.38	23.5	E	-30.1	-16.9	-30.2	741.1	0.024	0.000	21.1	6	-18.0	17.8	1.55	 .0730	23	1	100.0	1
02/24/24	4:44	-16.8	-16.8	-16.8	55	-23.8	22.6	E	0.38	24.3	E	-30.1	-16.9	-30.2	741.1	0.024	0.000	21.1	6	-18.0	17.8	1.55	 .0730	24	1	100.0	1
02/24/24	4:45	-16.8	-16.8	-16.8	55	-23.8	22.6	E	0.38	24.3	E	-30.1	-16.9	-30.2	741.0	0.024	0.000	21.1	6	-18.0	17.8	1.55	 .0730	23	1	100.0	1
02/24/24	4:46	-16.8	-16.8	-16.8	55	-23.7	23.5	E	0.39	24.3	E	-30.2	-16.9	-30.3	741.1	0.024	0.000	21.1	6	-18.0	17.8	1.55	 .0730	23	1	100.0	1
02/24/24	4:47	-16.8	-16.8	-16.8	55	-23.7	23.5	E	0.39	24.3	E	-30.2	-16.9	-30.3	741.1	0.024	0.000	21.1	6	-18.0	17.8	1.55	 .0730	24	1	100.0	1
02/24/24	4:48	-16.8	-16.8	-16.8	55	-23.7	23.5	E	0.39	25.2	E	-30.2	-16.9	-30.3	741.0	0.024	0.000	21.1	6	-18.0	17.8	1.55	 .0730	23	1	100.0	1
02/24/24	4:49	-16.8	-16.8	-16.8	55	-23.7	22.6	E	0.38	23.5	E	-30.0	-16.9	-30.1	741.1	0.024	0.000	21.1	6	-18.0	17.8	1.55	 .0730	24	1	100.0	1
02/24/24	4:50	-16.8	-16.8	-16.8	56	-23.6	21.7	E	0.36	23.5	E	-29.8	-16.9	-29.9	741.1	0.024	0.000	21.1	6	-18.0	17.8	1.55	 .0730	23	1	100.0	1
02/24/24	4:51	-16.8	-16.8	-16.8	56	-23.6	22.6	E	0.38	24.3	E	-30.1	-16.9	-30.2	741.1	0.024	0.000	21.1	6	-18.0	17.8	1.55	 .0730	23	1	100.0	1
02/24/24	4:52	-16.8	-16.8	-16.8	56	-23.6	23.5	E	0.39	25.2	E	-30.2	-16.9	-30.3	741.1	0.024	0.000	21.1	6	-18.0	17.8	1.55	 .0730	24	1	100.0	1
02/24/24	4:53	-16.8	-16.8	-16.8	55	-23.7	24.3	E	0.41	25.2	E	-30.4	-16.9	-30.5	741.1	0.024	0.000	21.0	6	-18.0	17.7	1.55	 .0730	23	1	100.0	1
02/24/24	4:54	-16.8	-16.8	-16.8	55	-23.7	22.6	E	0.38	25.2	E	-30.0	-16.9	-30.1	741.0	0.024	0.000	21.0	6	-18.0	17.7	1.55	 .0730	24	1	100.0	1
02/24/24	4:55	-16.8	-16.8	-16.8	55	-23.7	23.5	E	0.39	25.2	E	-30.2	-16.9	-30.3	741.0	0.024	0.000	21.0	6	-18.0	17.7	1.55	 .0730	23	1	100.0	1
02/24/24	4:56	-16.7	-16.7	-16.8	55	-23.7	24.3	E	0.41	25.2	E	-30.3	-16.8	-30.4	741.1	0.024	0.000	21.0	6	-18.0	17.7	1.55	 .0730	24	1	100.0	1
02/24/24	4:57	-16.8	-16.8	-16.8	55	-23.7	23.5	E	0.39	25.2	E	-30.2	-16.9	-30.3	741.0	0.024	0.000	21.0	6	-18.0	17.7	1.55	 .0730	23	1	100.0	1
02/24/24	4:58	-16.8	-16.8	-16.8	54	-23.9	24.3	E	0.41	25.2	E	-30.4	-16.9	-30.5	741.0	0.024	0.000	21.1	6	-18.0	17.8	1.55	 .0730	23	1	100.0	1
02/24/24	4:59	-16.8	-16.8	-16.8	54	-24.0	24.3	E	0.41	25.2	E	-30.4	-16.9	-30.6	741.0	0.024	0.000	21.1	6	-18.0	17.8	1.55	 .0730	24	1	100.0	1
02/24/24	5:00	-16.8	-16.8	-16.8	54	-24.0	23.5	E	0.39	25.2	E	-30.2	-16.9	-30.3	741.0	0.024	0.000	21.1	6	-18.0	17.8	1.55	 .0730	23	1	100.0	1
02/24/24	5:01	-16.9	-16.8	-16.9	54	-24.0	23.5	E	0.39	25.2	E	-30.3	-17.0	-30.4	741.0	0.024	0.000	21.1	6	-18.0	17.8	1.55	 .0730	24	1	100.0	1
02/24/24	5:02	-16.9	-16.9	-16.9	54	-24.0	22.6	E	0.38	25.2	E	-30.1	-17.0	-30.2	741.0	0.024	0.000	21.1	6	-18.0	17.8	1.55	 .0730	23	1	100.0	1
02/24/24	5:03	-16.9	-16.9	-16.9	54	-24.1	22.6	E	0.38	24.3	E	-30.2	-17.1	-30.3	741.0	0.024	0.000	21.1	6	-18.0	17.8	1.55	 .0730	23	1	100.0	1
02/24/24	5:04	-16.9	-16.9	-16.9	54	-24.1	22.6	E	0.38	23.5	E	-30.2	-17.1	-30.3	741.1	0.024	0.000	21.1	6	-18.0	17.8	1.55	 .0730	24	1	100.0	1
02/24/24	5:05	-17.0	-16.9	-17.0	54	-24.1	22.6	E	0.38	24.3	E	-30.3	-17.1	-30.4	741.1	0.025	0.000	21.1	6	-18.0	17.8	1.55	 .0730	23	1	100.0	1
02/24/24	5:06	-17.0	-17.0	-17.0	54	-24.1	23.5	E	0.39	25.2	E	-30.5	-17.1	-30.6	741.0	0.025	0.000	21.1	6	-18.0	17.8	1.55	 .0730	24	1	100.0	1
02/24/24	5:07	-17.0	-17.0	-17.0	53	-24.3	23.5	E	0.39	24.3	E	-30.5	-17.1	-30.6	741.0	0.025	0.000	21.1	6	-18.0	17.8	1.55	 .0730	23	1	100.0	1
02/24/24	5:08	-17.0	-17.0	-17.0	54	-24.1	22.6	E	0.38	24.3	E	-30.3	-17.1	-30.4	741.0	0.025	0.000	21.1	6	-18.0	17.8	1.55	 .0730	24	1	100.0	1
02/24/24	5:09	-16.9	-16.9	-17.0	54	-24.1	20.9	E	0.35	23.5	E	-29.8	-17.1	-29.9	741.1	0.024	0.000	21.1	6	-18.0	17.8	1.55	 .0729	23	1	100.0	1
02/24/24	5:10	-16.9	-16.9	-16.9	54	-24.1	22.6	E	0.38	24.3	E	-30.2	-17.1	-30.3	741.0	0.024	0.000	21.1	6	-18.0	17.8	1.55	 .0730	23	1	100.0	1
02/24/24	5:11	-16.9	-16.9	-16.9	54	-24.1	23.5	E	0.39	24.3	E	-30.4	-17.1	-30.5	741.0	0.024	0.000	21.1	6	-18.0	17.8	1.55	 .0729	24	1	100.0	1
02/24/24	5:12	-16.9	-16.9	-16.9	53	-24.3	22.6	E	0.38	25.2	E	-30.2	-17.1	-30.3	741.0	0.024	0.000	21.1	6	-18.0	17.8	1.55	 .0729	23	1	100.0	1
02/24/24	5:13	-16.9	-16.9	-16.9	53	-24.2	22.6	E	0.38	23.5	E	-30.1	-17.0	-30.2	741.0	0.024	0.000	21.1	6	-18.0	17.8	1.55	 .0729	24	1	100.0	1
02/24/24	5:14	-16.8	-16.8	-16.9	54	-24.0	20.9	E	0.35	22.6	E	-29.6	-16.9	-29.7	741.0	0.024	0.000	21.1	6	-18.0	17.8	1.55	 .0729	23	1	100.0	1
02/24/24	5:15	-16.8	-16.8	-16.8	54	-24.0	20.9	E	0.35	22.6	E	-29.6	-16.9	-29.7	741.0	0.024	0.000	21.2	6	-17.9	17.9	1.55	 .0729	23	1	100.0	1
02/24/24	5:16	-16.8	-16.8	-16.8	53	-24.1	21.7	E	0.36	22.6	E	-29.8	-16.9	-29.9	741.1	0.024	0.000	21.2	6	-17.9	17.9	1.55	 .0729	24	1	100.0	1
02/24/24	5:17	-16.8	-16.8	-16.8	53	-24.1	21.7	E	0.36	22.6	E	-29.8	-16.9	-29.9	741.0	0.024	0.000	21.2	6	-17.9	17.9	1.55	 .0729	23	1	100.0	1
02/24/24	5:18	-16.8	-16.8	-16.8	53	-24.1	20.9	E	0.35	23.5	E	-29.6	-16.9	-29.7	741.0	0.024	0.000	21.2	6	-17.9	17.9	1.55	 .0729	24	1	100.0	1
02/24/24	5:19	-16.8	-16.8	-16.8	53	-24.1	21.7	E	0.36	23.5	E	-29.8	-16.9	-29.9	741.0	0.024	0.000	21.2	6	-17.9	17.9	1.55	 .0729	23	1	100.0	1
02/24/24	5:20	-16.8	-16.8	-16.8	53	-24.1	21.7	E	0.36	23.5	E	-29.8	-16.9	-29.9	741.0	0.024	0.000	21.2	6	-17.9	18.0	1.55	 .0729	23	1	100.0	1
02/24/24	5:21	-16.8	-16.8	-16.8	53	-24.1	21.7	E	0.36	23.5	E	-29.8	-16.9	-29.9	741.0	0.024	0.000	21.2	6	-17.9	18.0	1.55	 .0729	24	1	100.0	1
02/24/24	5:22	-16.8	-16.8	-16.8	53	-24.1	22.6	E	0.38	23.5	E	-30.0	-16.9	-30.1	741.0	0.024	0.000	21.2	5	-20.0	17.9	1.25	 .0729	23	1	100.0	1
02/24/24	5:23	-16.8	-16.8	-16.8	53	-24.1	22.6	E	0.38	24.3	E	-30.0	-16.9	-30.1	741.0	0.024	0.000	21.2	5	-20.0	17.9	1.25	 .0729	24	1	100.0	1
02/24/24	5:24	-16.8	-16.8	-16.8	53	-24.1	22.6	E	0.38	23.5	E	-30.0	-16.9	-30.1	741.0	0.024	0.000	21.2	5	-20.0	17.9	1.25	 .0729	23	1	100.0	1
02/24/24	5:25	-16.8	-16.8	-16.8	53	-24.1	22.6	E	0.38	23.5	E	-30.0	-16.9	-30.1	741.0	0.024	0.000	21.2	5	-20.0	17.9	1.25	 .0729	24	1	100.0	1
02/24/24	5:26	-16.8	-16.8	-16.8	53	-24.1	21.7	E	0.36	23.5	E	-29.8	-16.9	-29.9	741.0	0.024	0.000	21.3	5	-20.0	18.1	1.25	 .0729	23	1	100.0	1
02/24/24	5:27	-16.8	-16.8	-16.8	53	-24.1	20.9	E	0.35	22.6	E	-29.6	-16.9	-29.7	741.0	0.024	0.000	21.2	5	-20.0	17.9	1.25	 .0729	23	1	100.0	1
02/24/24	5:28	-16.8	-16.8	-16.8	53	-24.1	20.9	ESE	0.35	22.6	E	-29.6	-16.9	-29.7	741.1	0.024	0.000	21.2	5	-20.0	17.9	1.25	 .0729	24	1	100.0	1
02/24/24	5:29	-16.8	-16.8	-16.8	53	-24.1	20.9	E	0.35	21.7	E	-29.6	-16.9	-29.7	741.1	0.024	0.000	21.2	5	-20.0	17.9	1.25	 .0729	23	1	100.0	1
02/24/24	5:30	-16.8	-16.8	-16.8	53	-24.1	20.9	E	0.35	21.7	E	-29.6	-16.9	-29.7	741.1	0.024	0.000	21.2	5	-20.0	17.9	1.25	 .0729	24	1	100.0	1
02/24/24	5:31	-16.7	-16.7	-16.8	52	-24.3	21.7	E	0.36	22.6	E	-29.7	-16.9	-29.9	741.1	0.024	0.000	21.2	5	-20.1	17.9	1.25	 .0730	23	1	100.0	1
02/24/24	5:32	-16.7	-16.7	-16.7	52	-24.3	22.6	E	0.38	23.5	E	-29.9	-16.9	-30.1	741.0	0.024	0.000	21.2	5	-20.1	17.9	1.25	 .0729	23	1	100.0	1
02/24/24	5:33	-16.7	-16.7	-16.7	51	-24.5	23.5	E	0.39	24.3	E	-30.1	-16.9	-30.3	741.0	0.024	0.000	21.2	5	-20.1	17.9	1.25	 .0729	24	1	100.0	1
02/24/24	5:34	-16.7	-16.7	-16.7	50	-24.7	22.6	E	0.38	23.5	E	-29.8	-16.8	-30.0	740.9	0.024	0.000	21.2	5	-20.1	17.9	1.25	 .0729	23	1	100.0	1
02/24/24	5:35	-16.7	-16.7	-16.7	50	-24.7	22.6	E	0.38	23.5	E	-29.8	-16.8	-30.0	741.0	0.024	0.000	21.2	5	-20.1	17.9	1.25	 .0729	24	1	100.0	1
02/24/24	5:36	-16.7	-16.7	-16.7	50	-24.7	22.6	E	0.38	23.5	E	-29.8	-16.8	-30.0	740.9	0.024	0.000	21.2	5	-20.1	17.9	1.25	 .0729	23	1	100.0	1
02/24/24	5:37	-16.7	-16.7	-16.7	50	-24.7	21.7	E	0.36	23.5	E	-29.6	-16.8	-29.8	740.9	0.024	0.000	21.1	5	-20.1	17.8	1.25	 .0729	23	1	100.0	1
02/24/24	5:38	-16.7	-16.7	-16.7	50	-24.7	21.7	E	0.36	23.5	E	-29.6	-16.8	-29.8	740.9	0.024	0.000	21.1	5	-20.1	17.8	1.25	 .0730	24	1	100.0	1
02/24/24	5:39	-16.7	-16.7	-16.7	51	-24.5	20.9	E	0.35	22.6	E	-29.4	-16.8	-29.6	740.9	0.024	0.000	21.1	5	-20.1	17.8	1.25	 .0730	23	1	100.0	1
02/24/24	5:40	-16.7	-16.7	-16.7	52	-24.2	20.9	E	0.35	22.6	E	-29.4	-16.8	-29.6	741.0	0.024	0.000	21.1	5	-20.1	17.8	1.25	 .0730	24	1	100.0	1
02/24/24	5:41	-16.7	-16.7	-16.7	52	-24.3	21.7	E	0.36	22.6	ESE	-29.7	-16.9	-29.9	741.0	0.024	0.000	21.1	5	-20.1	17.7	1.25	 .0730	23	1	100.0	1
02/24/24	5:42	-16.7	-16.7	-16.7	51	-24.5	20.0	E	0.33	21.7	E	-29.2	-16.8	-29.3	741.0	0.024	0.000	21.1	5	-20.1	17.7	1.25	 .0730	24	1	100.0	1
02/24/24	5:43	-16.7	-16.7	-16.7	52	-24.2	19.1	ESE	0.32	21.7	E	-28.9	-16.8	-29.1	741.0	0.024	0.000	21.1	5	-20.1	17.7	1.25	 .0730	23	1	100.0	1
02/24/24	5:44	-16.7	-16.7	-16.7	52	-24.2	20.0	E	0.33	21.7	E	-29.2	-16.8	-29.3	741.0	0.024	0.000	21.1	5	-20.1	17.7	1.25	 .0730	23	1	100.0	1
02/24/24	5:45	-16.7	-16.7	-16.7	52	-24.2	19.1	E	0.32	20.9	E	-28.9	-16.8	-29.1	741.0	0.024	0.000	21.1	5	-20.1	17.7	1.25	 .0730	24	1	100.0	1
02/24/24	5:46	-16.7	-16.7	-16.7	52	-24.2	19.1	E	0.32	20.9	E	-28.9	-16.8	-29.1	740.9	0.024	0.000	21.1	5	-20.1	17.7	1.25	 .0730	23	1	100.0	1
02/24/24	5:47	-16.7	-16.7	-16.7	52	-24.2	20.0	E	0.33	20.9	E	-29.2	-16.8	-29.3	740.9	0.024	0.000	21.1	5	-20.1	17.7	1.25	 .0730	24	1	100.0	1
02/24/24	5:48	-16.7	-16.7	-16.7	53	-24.0	20.0	E	0.33	21.7	E	-29.2	-16.8	-29.3	740.9	0.024	0.000	21.1	5	-20.1	17.7	1.25	 .0730	23	1	100.0	1
02/24/24	5:49	-16.7	-16.7	-16.7	52	-24.2	20.0	E	0.33	21.7	E	-29.2	-16.8	-29.3	740.9	0.024	0.000	21.1	5	-20.1	17.7	1.25	 .0730	24	1	100.0	1
02/24/24	5:50	-16.7	-16.7	-16.7	52	-24.2	20.0	E	0.33	22.6	E	-29.2	-16.8	-29.3	740.9	0.024	0.000	21.1	5	-20.1	17.7	1.25	 .0730	23	1	100.0	1
02/24/24	5:51	-16.7	-16.7	-16.7	52	-24.2	20.9	E	0.35	22.6	E	-29.4	-16.8	-29.6	740.9	0.024	0.000	21.1	5	-20.1	17.7	1.25	 .0730	23	1	100.0	1
02/24/24	5:52	-16.7	-16.7	-16.7	53	-24.0	21.7	E	0.36	22.6	E	-29.6	-16.8	-29.7	740.9	0.024	0.000	21.1	5	-20.1	17.8	1.25	 .0729	24	1	100.0	1
02/24/24	5:53	-16.7	-16.7	-16.7	53	-24.1	20.9	E	0.35	22.6	E	-29.5	-16.8	-29.6	740.9	0.024	0.000	21.1	5	-20.1	17.8	1.25	 .0729	23	1	100.0	1
02/24/24	5:54	-16.7	-16.7	-16.7	53	-24.1	20.9	E	0.35	22.6	E	-29.5	-16.8	-29.6	740.9	0.024	0.000	21.1	5	-20.1	17.8	1.25	 .0729	24	1	100.0	1
02/24/24	5:55	-16.7	-16.7	-16.7	53	-24.1	21.7	E	0.36	22.6	E	-29.7	-16.8	-29.8	740.9	0.024	0.000	21.2	5	-20.1	17.9	1.25	 .0729	23	1	100.0	1
02/24/24	5:56	-16.7	-16.7	-16.7	53	-24.1	21.7	E	0.36	23.5	E	-29.7	-16.8	-29.8	740.8	0.024	0.000	21.2	5	-20.1	17.9	1.25	 .0729	23	1	100.0	1
02/24/24	5:57	-16.7	-16.7	-16.7	53	-24.0	22.6	E	0.38	23.5	E	-29.8	-16.8	-29.9	740.9	0.024	0.000	21.2	5	-20.1	17.9	1.25	 .0729	24	1	100.0	1
02/24/24	5:58	-16.7	-16.7	-16.7	53	-24.0	21.7	E	0.36	23.5	E	-29.6	-16.8	-29.7	740.9	0.024	0.000	21.2	5	-20.1	17.9	1.25	 .0729	23	1	100.0	1
02/24/24	5:59	-16.7	-16.7	-16.7	54	-23.8	22.6	E	0.38	23.5	E	-29.8	-16.8	-29.9	740.8	0.024	0.000	21.2	5	-20.1	17.9	1.25	 .0729	24	1	100.0	1
02/24/24	6:00	-16.7	-16.7	-16.7	54	-23.8	21.7	E	0.36	23.5	E	-29.6	-16.8	-29.7	740.8	0.024	0.000	21.2	5	-20.0	17.9	1.25	 .0729	23	1	100.0	1
02/24/24	6:01	-16.7	-16.7	-16.7	54	-23.8	22.6	E	0.38	24.3	E	-29.8	-16.8	-29.9	740.8	0.024	0.000	21.2	5	-20.0	17.9	1.25	 .0729	23	1	100.0	1
02/24/24	6:02	-16.6	-16.6	-16.7	54	-23.8	21.7	E	0.36	23.5	E	-29.6	-16.7	-29.7	740.8	0.024	0.000	21.3	5	-20.0	18.1	1.25	 .0729	24	1	100.0	1
02/24/24	6:03	-16.6	-16.6	-16.7	54	-23.8	21.7	E	0.36	22.6	ESE	-29.6	-16.7	-29.7	740.8	0.024	0.000	21.3	5	-20.0	18.1	1.25	 .0729	23	1	100.0	1
02/24/24	6:04	-16.6	-16.6	-16.7	54	-23.8	21.7	E	0.36	23.5	E	-29.6	-16.7	-29.7	740.8	0.024	0.000	21.3	5	-20.0	18.1	1.25	 .0729	24	1	100.0	1
02/24/24	6:05	-16.6	-16.6	-16.6	54	-23.8	21.7	E	0.36	22.6	E	-29.6	-16.7	-29.7	740.8	0.024	0.000	21.3	5	-20.0	18.1	1.25	 .0729	23	1	100.0	1
02/24/24	6:06	-16.7	-16.6	-16.7	54	-23.8	20.9	E	0.35	22.6	E	-29.4	-16.8	-29.5	740.8	0.024	0.000	21.3	5	-20.0	18.1	1.25	 .0729	24	1	100.0	1
02/24/24	6:07	-16.6	-16.6	-16.7	54	-23.8	20.9	E	0.35	22.6	E	-29.3	-16.7	-29.4	740.8	0.024	0.000	21.3	5	-19.9	18.2	1.25	 .0729	23	1	100.0	1
02/24/24	6:08	-16.6	-16.6	-16.7	54	-23.8	20.9	E	0.35	23.5	E	-29.3	-16.7	-29.4	740.8	0.024	0.000	21.3	5	-19.9	18.2	1.25	 .0729	23	1	100.0	1
02/24/24	6:09	-16.6	-16.6	-16.6	55	-23.6	21.7	E	0.36	22.6	E	-29.6	-16.7	-29.7	740.8	0.024	0.000	21.3	5	-19.9	18.2	1.25	 .0729	24	1	100.0	1
02/24/24	6:10	-16.6	-16.6	-16.6	55	-23.5	21.7	E	0.36	22.6	E	-29.5	-16.7	-29.6	740.8	0.024	0.000	21.3	5	-19.9	18.2	1.25	 .0729	23	1	100.0	1
02/24/24	6:11	-16.6	-16.6	-16.6	55	-23.5	21.7	E	0.36	23.5	E	-29.5	-16.7	-29.6	740.8	0.024	0.000	21.3	5	-19.9	18.2	1.25	 .0729	24	1	100.0	1
02/24/24	6:12	-16.6	-16.6	-16.6	54	-23.7	20.9	E	0.35	23.5	E	-29.3	-16.7	-29.4	740.8	0.024	0.000	21.3	5	-19.9	18.2	1.25	 .0729	23	1	100.0	1
02/24/24	6:13	-16.5	-16.5	-16.6	54	-23.7	20.9	E	0.35	23.5	E	-29.2	-16.6	-29.3	740.8	0.024	0.000	21.4	5	-19.9	18.2	1.25	 .0729	23	1	100.0	1
02/24/24	6:14	-16.5	-16.5	-16.5	54	-23.7	20.9	E	0.35	22.6	E	-29.2	-16.6	-29.3	740.8	0.024	0.000	21.3	5	-19.9	18.2	1.25	 .0729	24	1	100.0	1
02/24/24	6:15	-16.4	-16.4	-16.5	53	-23.8	21.7	E	0.36	22.6	E	-29.3	-16.6	-29.5	740.8	0.024	0.000	21.4	5	-19.9	18.2	1.25	 .0729	23	1	100.0	1
02/24/24	6:16	-16.4	-16.4	-16.5	53	-23.8	21.7	E	0.36	22.6	E	-29.3	-16.6	-29.5	740.8	0.024	0.000	21.4	5	-19.9	18.2	1.25	 .0729	24	1	100.0	1
02/24/24	6:17	-16.4	-16.4	-16.4	53	-23.8	21.7	E	0.36	22.6	E	-29.3	-16.6	-29.5	740.8	0.024	0.000	21.3	5	-19.9	18.2	1.25	 .0729	23	1	100.0	1
02/24/24	6:18	-16.4	-16.4	-16.4	53	-23.8	20.9	E	0.35	22.6	E	-29.1	-16.6	-29.3	740.8	0.024	0.000	21.3	5	-19.9	18.2	1.25	 .0729	23	1	100.0	1
02/24/24	6:19	-16.4	-16.4	-16.4	53	-23.8	20.0	E	0.33	21.7	E	-28.9	-16.6	-29.1	740.9	0.024	0.000	21.3	5	-19.9	18.2	1.25	 .0729	24	1	100.0	1
02/24/24	6:20	-16.4	-16.4	-16.4	53	-23.8	20.9	E	0.35	22.6	E	-29.1	-16.6	-29.3	740.8	0.024	0.000	21.3	5	-19.9	18.2	1.25	 .0729	23	1	100.0	1
02/24/24	6:21	-16.5	-16.4	-16.5	53	-23.9	20.9	E	0.35	23.5	E	-29.2	-16.7	-29.3	740.9	0.024	0.000	21.3	5	-19.9	18.2	1.25	 .0729	24	1	100.0	1
02/24/24	6:22	-16.5	-16.5	-16.5	53	-23.9	20.0	E	0.33	21.7	E	-28.9	-16.7	-29.1	740.8	0.024	0.000	21.3	5	-20.0	18.1	1.25	 .0729	23	1	100.0	1
02/24/24	6:23	-16.5	-16.5	-16.5	53	-23.9	20.0	E	0.33	21.7	E	-28.9	-16.7	-29.1	740.9	0.024	0.000	21.3	5	-20.0	18.1	1.25	 .0729	24	1	100.0	1
02/24/24	6:24	-16.5	-16.5	-16.6	53	-23.9	19.1	E	0.32	20.9	E	-28.7	-16.7	-28.9	740.9	0.024	0.000	21.3	5	-20.0	18.1	1.25	 .0729	23	1	100.0	1
02/24/24	6:25	-16.6	-16.6	-16.6	53	-23.9	19.1	E	0.32	20.9	E	-28.8	-16.7	-29.0	740.9	0.024	0.000	21.3	5	-20.0	18.1	1.25	 .0729	23	1	100.0	1
02/24/24	6:26	-16.6	-16.6	-16.6	54	-23.8	18.3	E	0.30	20.0	E	-28.7	-16.7	-28.8	740.9	0.024	0.000	21.2	5	-20.0	17.9	1.25	 .0729	24	1	100.0	1
02/24/24	6:27	-16.7	-16.6	-16.7	54	-23.8	19.1	ESE	0.32	20.9	E	-28.9	-16.8	-29.1	740.9	0.024	0.000	21.2	5	-20.0	17.9	1.25	 .0729	23	1	100.0	1
02/24/24	6:28	-16.6	-16.6	-16.7	54	-23.8	20.9	E	0.35	22.6	E	-29.3	-16.7	-29.4	740.9	0.024	0.000	21.2	5	-20.0	17.9	1.25	 .0729	24	1	100.0	1
02/24/24	6:29	-16.6	-16.6	-16.7	53	-24.0	20.9	E	0.35	22.6	E	-29.3	-16.7	-29.4	740.9	0.024	0.000	21.2	5	-20.1	17.9	1.25	 .0729	23	1	100.0	1
02/24/24	6:30	-16.6	-16.6	-16.6	52	-24.1	20.9	E	0.35	22.6	E	-29.3	-16.7	-29.4	740.9	0.024	0.000	21.2	5	-20.1	17.9	1.25	 .0729	23	1	100.0	1
02/24/24	6:31	-16.6	-16.6	-16.6	52	-24.1	21.7	E	0.36	23.5	E	-29.5	-16.7	-29.7	740.9	0.024	0.000	21.2	5	-20.1	17.9	1.25	 .0729	24	1	100.0	1
02/24/24	6:32	-16.5	-16.5	-16.6	51	-24.3	21.7	E	0.36	23.5	E	-29.4	-16.7	-29.6	740.8	0.024	0.000	21.1	5	-20.1	17.8	1.25	 .0729	23	1	100.0	1
02/24/24	6:33	-16.4	-16.4	-16.5	51	-24.2	21.7	E	0.36	23.5	E	-29.3	-16.6	-29.5	740.8	0.024	0.000	21.1	5	-20.1	17.8	1.25	 .0729	24	1	100.0	1
02/24/24	6:34	-16.4	-16.4	-16.5	52	-24.0	21.7	E	0.36	22.6	E	-29.3	-16.6	-29.5	740.8	0.024	0.000	21.1	5	-20.1	17.7	1.25	 .0730	23	1	100.0	1
02/24/24	6:35	-16.4	-16.4	-16.4	52	-24.0	21.7	E	0.36	22.6	E	-29.3	-16.6	-29.5	740.8	0.024	0.000	21.1	5	-20.1	17.7	1.25	 .0730	24	1	100.0	1
02/24/24	6:36	-16.4	-16.4	-16.4	52	-24.0	20.9	E	0.35	23.5	E	-29.1	-16.6	-29.3	740.8	0.024	0.000	21.1	5	-20.1	17.7	1.25	 .0730	23	1	100.0	1
02/24/24	6:37	-16.4	-16.4	-16.4	52	-24.0	20.9	E	0.35	22.6	E	-29.1	-16.6	-29.3	740.8	0.024	0.000	21.1	5	-20.1	17.7	1.25	 .0730	23	1	100.0	1
02/24/24	6:38	-16.4	-16.4	-16.4	52	-24.0	20.0	E	0.33	21.7	E	-28.8	-16.6	-29.0	740.8	0.024	0.000	21.1	5	-20.1	17.7	1.25	 .0730	24	1	100.0	1
02/24/24	6:39	-16.4	-16.4	-16.4	51	-24.2	20.0	E	0.33	21.7	E	-28.8	-16.6	-29.0	740.8	0.024	0.000	21.0	5	-20.2	17.7	1.25	 .0730	23	1	100.0	1
02/24/24	6:40	-16.4	-16.4	-16.4	51	-24.2	18.3	E	0.30	20.0	E	-28.4	-16.6	-28.6	740.8	0.024	0.000	21.0	5	-20.2	17.7	1.25	 .0730	24	1	100.0	1
02/24/24	6:41	-16.4	-16.4	-16.4	52	-24.0	17.4	E	0.29	20.0	E	-28.2	-16.6	-28.3	740.9	0.024	0.000	21.0	5	-20.2	17.7	1.25	 .0730	23	1	100.0	1
02/24/24	6:42	-16.5	-16.4	-16.5	53	-23.9	18.3	ESE	0.30	20.9	ESE	-28.5	-16.7	-28.7	740.9	0.024	0.000	21.0	5	-20.2	17.7	1.25	 .0730	23	1	100.0	1
02/24/24	6:43	-16.6	-16.5	-16.6	53	-23.9	17.4	ESE	0.29	18.3	ESE	-28.3	-16.7	-28.5	740.9	0.024	0.000	21.0	5	-20.2	17.7	1.25	 .0730	24	1	100.0	1
02/24/24	6:44	-16.7	-16.6	-16.7	54	-23.8	18.3	E	0.30	20.0	ESE	-28.7	-16.8	-28.8	740.8	0.024	0.000	21.0	5	-20.2	17.7	1.25	 .0730	23	1	100.0	1
02/24/24	6:45	-16.7	-16.7	-16.7	54	-23.8	17.4	E	0.29	20.0	E	-28.5	-16.8	-28.6	740.8	0.024	0.000	20.9	5	-20.2	17.6	1.25	 .0730	24	1	100.0	1
02/24/24	6:46	-16.7	-16.7	-16.7	54	-23.8	18.3	E	0.30	20.0	E	-28.7	-16.8	-28.8	740.8	0.024	0.000	20.9	5	-20.2	17.6	1.25	 .0730	23	1	100.0	1
02/24/24	6:47	-16.7	-16.7	-16.7	53	-24.0	19.1	E	0.32	20.9	E	-28.9	-16.8	-29.1	740.8	0.024	0.000	20.9	5	-20.2	17.6	1.25	 .0730	24	1	100.0	1
02/24/24	6:48	-16.7	-16.7	-16.7	53	-24.0	19.1	E	0.32	21.7	E	-28.9	-16.8	-29.1	740.8	0.024	0.000	21.0	5	-20.2	17.7	1.25	 .0730	23	1	100.0	1
02/24/24	6:49	-16.6	-16.6	-16.7	53	-24.0	18.3	E	0.30	21.7	E	-28.7	-16.7	-28.8	740.8	0.024	0.000	21.0	5	-20.2	17.7	1.25	 .0730	23	1	100.0	1
02/24/24	6:50	-16.6	-16.6	-16.6	52	-24.1	17.4	E	0.29	18.3	E	-28.3	-16.7	-28.5	740.8	0.024	0.000	21.0	5	-20.2	17.7	1.25	 .0730	24	1	100.0	1
02/24/24	6:51	-16.6	-16.5	-16.6	52	-24.1	18.3	ESE	0.30	20.9	ESE	-28.6	-16.7	-28.7	740.8	0.024	0.000	21.0	5	-20.2	17.7	1.25	 .0730	23	1	100.0	1
02/24/24	6:52	-16.5	-16.5	-16.5	53	-23.9	17.4	E	0.29	20.0	E	-28.3	-16.7	-28.4	740.8	0.024	0.000	21.0	5	-20.2	17.7	1.25	 .0730	24	1	100.0	1
02/24/24	6:53	-16.5	-16.5	-16.6	53	-23.9	18.3	E	0.30	20.0	E	-28.5	-16.7	-28.7	740.8	0.024	0.000	21.0	5	-20.2	17.7	1.25	 .0730	23	1	100.0	1
02/24/24	6:54	-16.4	-16.4	-16.5	52	-24.0	19.1	E	0.32	21.7	E	-28.7	-16.6	-28.8	740.7	0.024	0.000	21.0	5	-20.2	17.7	1.25	 .0730	23	1	100.0	1
02/24/24	6:55	-16.4	-16.4	-16.4	51	-24.2	18.3	E	0.30	20.9	E	-28.4	-16.6	-28.6	740.8	0.024	0.000	21.0	5	-20.2	17.7	1.25	 .0730	24	1	100.0	1
02/24/24	6:56	-16.4	-16.4	-16.4	51	-24.2	18.3	E	0.30	20.9	E	-28.4	-16.6	-28.6	740.8	0.024	0.000	21.1	5	-20.1	17.7	1.25	 .0730	23	1	100.0	1
02/24/24	6:57	-16.3	-16.3	-16.4	51	-24.1	18.3	E	0.30	20.0	E	-28.3	-16.5	-28.4	740.7	0.024	0.000	21.1	5	-20.1	17.7	1.25	 .0729	24	1	100.0	1
02/24/24	6:58	-16.3	-16.3	-16.3	51	-24.1	19.1	E	0.32	21.7	E	-28.5	-16.5	-28.7	740.8	0.024	0.000	21.1	5	-20.1	17.7	1.25	 .0730	23	1	100.0	1
02/24/24	6:59	-16.3	-16.3	-16.3	51	-24.1	18.3	E	0.30	20.9	E	-28.2	-16.4	-28.4	740.7	0.024	0.000	21.1	5	-20.1	17.7	1.25	 .0729	23	1	100.0	1
02/24/24	7:00	-16.3	-16.3	-16.3	51	-24.1	18.3	E	0.30	20.9	E	-28.2	-16.4	-28.4	740.8	0.024	0.000	21.1	5	-20.1	17.7	1.25	 .0730	24	1	100.0	1
02/24/24	7:01	-16.2	-16.2	-16.3	51	-24.0	18.3	E	0.30	19.1	E	-28.2	-16.4	-28.3	740.7	0.024	0.000	21.1	5	-20.1	17.8	1.25	 .0729	23	1	100.0	1
02/24/24	7:02	-16.2	-16.2	-16.2	51	-24.0	18.3	E	0.30	20.9	E	-28.2	-16.4	-28.3	740.8	0.024	0.000	21.1	5	-20.1	17.8	1.25	 .0729	24	1	100.0	1
02/24/24	7:03	-16.2	-16.2	-16.2	51	-24.0	17.4	E	0.29	18.3	E	-27.8	-16.3	-28.0	740.8	0.024	0.000	21.1	5	-20.1	17.8	1.25	 .0729	23	1	100.0	1
02/24/24	7:04	-16.1	-16.1	-16.2	51	-23.9	17.4	E	0.29	19.1	E	-27.8	-16.3	-27.9	740.8	0.024	0.000	21.1	5	-20.1	17.8	1.25	 .0729	24	1	100.0	1
02/24/24	7:05	-16.1	-16.1	-16.1	50	-24.1	17.4	E	0.29	19.1	ESE	-27.7	-16.2	-27.8	740.8	0.024	0.000	21.1	5	-20.1	17.8	1.25	 .0729	23	1	100.0	1
02/24/24	7:06	-16.0	-16.0	-16.1	50	-24.1	16.5	E	0.28	18.3	E	-27.3	-16.2	-27.5	740.8	0.024	0.000	21.1	5	-20.1	17.8	1.25	 .0729	23	1	100.0	1
02/24/24	7:07	-15.9	-15.9	-16.0	50	-24.0	17.4	E	0.29	18.3	E	-27.6	-16.1	-27.7	740.8	0.024	0.000	21.1	5	-20.1	17.8	1.25	 .0729	24	1	100.0	1
02/24/24	7:08	-16.0	-15.9	-16.0	50	-24.1	18.3	E	0.30	20.0	E	-27.8	-16.2	-28.0	740.7	0.024	0.000	21.1	5	-20.1	17.8	1.25	 .0729	23	1	100.0	1
02/24/24	7:09	-16.1	-16.0	-16.1	50	-24.1	17.4	E	0.29	20.0	E	-27.7	-16.2	-27.8	740.7	0.024	0.000	21.1	5	-20.1	17.8	1.25	 .0729	24	1	100.0	1
02/24/24	7:10	-16.1	-16.1	-16.1	50	-24.1	17.4	E	0.29	18.3	E	-27.7	-16.2	-27.8	740.7	0.024	0.000	21.1	5	-20.1	17.8	1.25	 .0729	23	1	100.0	1
02/24/24	7:11	-16.1	-16.1	-16.1	50	-24.2	17.4	E	0.29	20.0	E	-27.8	-16.3	-27.9	740.7	0.024	0.000	21.1	5	-20.1	17.8	1.25	 .0729	24	1	100.0	1
02/24/24	7:12	-16.1	-16.1	-16.1	50	-24.2	18.3	E	0.30	20.9	E	-28.0	-16.3	-28.2	740.7	0.024	0.000	21.1	5	-20.1	17.7	1.25	 .0729	23	1	100.0	1
02/24/24	7:13	-16.0	-16.0	-16.1	50	-24.1	17.4	E	0.29	20.9	ESE	-27.6	-16.2	-27.8	740.6	0.024	0.000	21.1	5	-20.1	17.7	1.25	 .0729	23	1	100.0	1
02/24/24	7:14	-15.8	-15.8	-16.0	49	-24.1	18.3	E	0.30	20.9	E	-27.6	-16.0	-27.8	740.7	0.024	0.000	21.1	5	-20.1	17.7	1.25	 .0729	24	1	100.0	1
02/24/24	7:15	-15.8	-15.8	-15.8	49	-24.1	18.3	E	0.30	20.0	E	-27.6	-15.9	-27.7	740.7	0.024	0.000	21.1	5	-20.1	17.7	1.25	 .0729	23	1	100.0	1
02/24/24	7:16	-15.8	-15.8	-15.8	49	-24.1	18.3	E	0.30	20.0	E	-27.6	-16.0	-27.8	740.7	0.024	0.000	21.1	5	-20.1	17.7	1.25	 .0729	24	1	100.0	1
02/24/24	7:17	-15.9	-15.8	-15.9	48	-24.4	17.4	E	0.29	20.0	E	-27.4	-16.1	-27.6	740.7	0.024	0.000	21.1	5	-20.1	17.7	1.25	 .0729	23	1	100.0	1
02/24/24	7:18	-16.0	-15.9	-16.0	48	-24.5	17.4	E	0.29	19.1	E	-27.6	-16.2	-27.8	740.7	0.024	0.000	21.0	5	-20.2	17.7	1.25	 .0730	23	1	100.0	1
02/24/24	7:19	-16.1	-16.0	-16.1	48	-24.6	18.3	E	0.30	19.1	E	-27.9	-16.2	-28.1	740.7	0.024	0.000	21.0	5	-20.2	17.7	1.25	 .0730	24	1	100.0	1
02/24/24	7:20	-16.2	-16.1	-16.2	48	-24.7	17.4	E	0.29	19.1	E	-27.8	-16.3	-28.0	740.7	0.024	0.000	21.0	5	-20.2	17.7	1.25	 .0730	23	1	100.0	1
02/24/24	7:21	-16.2	-16.2	-16.2	49	-24.5	18.3	E	0.30	19.1	E	-28.2	-16.4	-28.3	740.7	0.024	0.000	20.9	5	-20.2	17.6	1.25	 .0730	24	1	100.0	1
02/24/24	7:22	-16.2	-16.2	-16.2	49	-24.5	17.4	E	0.29	20.0	E	-27.9	-16.4	-28.1	740.7	0.024	0.000	20.9	5	-20.2	17.6	1.25	 .0730	23	1	100.0	1
02/24/24	7:23	-16.2	-16.2	-16.2	49	-24.5	18.3	E	0.30	20.0	E	-28.2	-16.4	-28.3	740.7	0.024	0.000	20.9	5	-20.2	17.6	1.25	 .0730	23	1	100.0	1
02/24/24	7:24	-16.2	-16.2	-16.2	48	-24.7	18.3	E	0.30	20.0	E	-28.2	-16.4	-28.3	740.7	0.024	0.000	20.9	5	-20.2	17.6	1.25	 .0730	24	1	100.0	1
02/24/24	7:25	-16.2	-16.2	-16.2	48	-24.7	18.3	E	0.30	20.0	E	-28.2	-16.4	-28.3	740.7	0.024	0.000	20.9	5	-20.2	17.6	1.25	 .0730	23	1	100.0	1
02/24/24	7:26	-16.2	-16.2	-16.2	48	-24.7	18.3	E	0.30	20.0	E	-28.2	-16.4	-28.3	740.7	0.024	0.000	20.9	5	-20.3	17.6	1.25	 .0730	24	1	100.0	1
02/24/24	7:27	-16.3	-16.3	-16.3	48	-24.8	18.3	E	0.30	20.0	E	-28.2	-16.4	-28.4	740.6	0.024	0.000	20.9	5	-20.3	17.6	1.25	 .0730	23	1	100.0	1
02/24/24	7:28	-16.3	-16.3	-16.3	49	-24.6	17.4	E	0.29	20.0	E	-28.1	-16.5	-28.2	740.7	0.024	0.000	20.9	5	-20.3	17.6	1.25	 .0730	24	1	100.0	1
02/24/24	7:29	-16.3	-16.3	-16.3	49	-24.6	18.3	E	0.30	20.0	E	-28.3	-16.5	-28.4	740.7	0.024	0.000	20.9	5	-20.3	17.6	1.25	 .0730	23	1	100.0	1
02/24/24	7:30	-16.3	-16.3	-16.3	48	-24.8	17.4	E	0.29	19.1	E	-28.1	-16.5	-28.2	740.7	0.024	0.000	20.8	5	-20.3	17.5	1.25	 .0730	23	1	100.0	1
02/24/24	7:31	-16.3	-16.3	-16.3	48	-24.8	16.5	E	0.28	19.1	ESE	-27.7	-16.4	-27.9	740.7	0.024	0.000	20.8	5	-20.3	17.5	1.25	 .0730	24	1	100.0	1
02/24/24	7:32	-16.3	-16.3	-16.3	48	-24.8	17.4	E	0.29	20.0	E	-28.1	-16.5	-28.2	740.7	0.024	0.000	20.9	5	-20.3	17.6	1.25	 .0730	23	1	100.0	1
02/24/24	7:33	-16.3	-16.3	-16.3	49	-24.6	16.5	E	0.28	18.3	E	-27.8	-16.5	-27.9	740.7	0.024	0.000	20.8	5	-20.3	17.5	1.25	 .0730	24	1	100.0	1
02/24/24	7:34	-16.3	-16.3	-16.3	48	-24.8	17.4	E	0.29	20.0	E	-28.1	-16.5	-28.2	740.6	0.024	0.000	20.8	5	-20.3	17.5	1.25	 .0730	23	1	100.0	1
02/24/24	7:35	-16.3	-16.3	-16.3	47	-25.0	16.5	E	0.28	19.1	E	-27.7	-16.4	-27.9	740.6	0.024	0.000	20.9	5	-20.3	17.6	1.25	 .0730	23	1	100.0	1
02/24/24	7:36	-16.2	-16.2	-16.3	47	-24.9	17.4	E	0.29	20.9	E	-27.9	-16.4	-28.1	740.6	0.024	0.000	20.9	5	-20.3	17.6	1.25	 .0730	24	1	100.0	1
02/24/24	7:37	-16.2	-16.2	-16.2	47	-24.9	17.4	ESE	0.29	21.7	ESE	-27.8	-16.3	-28.0	740.6	0.024	0.000	20.9	5	-20.3	17.6	1.25	 .0730	23	1	100.0	1
02/24/24	7:38	-15.9	-15.9	-16.1	47	-24.6	16.5	E	0.28	19.1	E	-27.2	-16.1	-27.4	740.6	0.024	0.000	20.9	5	-20.3	17.6	1.25	 .0730	24	1	100.0	1
02/24/24	7:39	-15.7	-15.7	-15.8	46	-24.7	17.4	E	0.29	19.1	E	-27.2	-15.8	-27.3	740.6	0.024	0.000	20.9	5	-20.3	17.6	1.25	 .0730	23	1	100.0	1
02/24/24	7:40	-15.7	-15.7	-15.7	46	-24.7	19.1	E	0.32	21.7	ESE	-27.7	-15.8	-27.8	740.6	0.024	0.000	20.9	5	-20.3	17.6	1.25	 .0730	23	1	100.0	1
02/24/24	7:41	-15.7	-15.7	-15.7	45	-24.9	20.0	E	0.33	20.9	E	-27.9	-15.8	-28.1	740.6	0.024	0.000	20.9	5	-20.3	17.6	1.25	 .0730	24	1	100.0	1
02/24/24	7:42	-15.7	-15.7	-15.7	45	-24.9	18.3	E	0.30	20.9	E	-27.4	-15.8	-27.6	740.6	0.024	0.000	20.9	5	-20.3	17.6	1.25	 .0730	23	1	100.0	1
02/24/24	7:43	-15.7	-15.7	-15.7	44	-25.2	20.0	E	0.33	22.6	E	-27.9	-15.8	-28.1	740.6	0.024	0.000	20.9	5	-20.2	17.6	1.25	 .0730	24	1	100.0	1
02/24/24	7:44	-15.6	-15.6	-15.7	44	-25.1	18.3	E	0.30	20.9	E	-27.3	-15.8	-27.5	740.6	0.024	0.000	20.9	5	-20.2	17.6	1.25	 .0730	23	1	100.0	1
02/24/24	7:45	-15.3	-15.3	-15.6	44	-24.9	17.4	E	0.29	20.9	E	-26.7	-15.5	-26.9	740.5	0.023	0.000	20.9	5	-20.2	17.6	1.25	 .0730	24	1	100.0	1
02/24/24	7:46	-15.2	-15.2	-15.3	43	-25.0	19.1	E	0.32	20.9	E	-27.0	-15.3	-27.2	740.5	0.023	0.000	20.9	5	-20.2	17.6	1.25	 .0730	23	1	100.0	1
02/24/24	7:47	-15.2	-15.1	-15.2	43	-25.0	18.3	E	0.30	20.9	E	-26.8	-15.3	-26.9	740.5	0.023	0.000	20.9	5	-20.2	17.6	1.25	 .0730	23	1	100.0	1
02/24/24	7:48	-15.2	-15.2	-15.2	43	-25.0	16.5	E	0.28	18.3	ESE	-26.3	-15.4	-26.5	740.6	0.023	0.000	21.0	5	-20.2	17.7	1.25	 .0729	24	1	100.0	1
02/24/24	7:49	-15.2	-15.2	-15.2	43	-25.0	17.4	E	0.29	20.0	ESE	-26.5	-15.3	-26.7	740.5	0.023	0.000	21.0	5	-20.2	17.7	1.25	 .0729	23	1	100.0	1
02/24/24	7:50	-15.1	-15.1	-15.1	43	-24.9	16.5	E	0.28	17.4	E	-26.1	-15.2	-26.3	740.6	0.023	0.000	21.0	5	-20.2	17.7	1.25	 .0729	24	1	100.0	1
02/24/24	7:51	-15.1	-15.1	-15.1	43	-24.9	15.7	E	0.26	17.4	E	-25.9	-15.3	-26.1	740.6	0.023	0.000	21.0	5	-20.2	17.7	1.25	 .0729	23	1	100.0	1
02/24/24	7:52	-15.2	-15.1	-15.2	43	-25.0	16.5	E	0.28	18.3	E	-26.3	-15.4	-26.5	740.6	0.023	0.000	21.0	5	-20.2	17.7	1.25	 .0729	24	1	100.0	1
02/24/24	7:53	-15.4	-15.2	-15.4	44	-24.9	16.5	E	0.28	18.3	E	-26.6	-15.6	-26.7	740.6	0.023	0.000	21.0	5	-20.2	17.7	1.25	 .0729	23	1	100.0	1
02/24/24	7:54	-15.6	-15.4	-15.6	44	-25.1	16.5	E	0.28	17.4	E	-26.8	-15.7	-26.9	740.6	0.024	0.000	21.0	5	-20.2	17.7	1.25	 .0729	23	1	100.0	1
02/24/24	7:55	-15.7	-15.6	-15.7	44	-25.2	17.4	E	0.29	18.3	E	-27.2	-15.8	-27.3	740.6	0.024	0.000	21.0	5	-20.2	17.7	1.25	 .0729	24	1	100.0	1
02/24/24	7:56	-15.8	-15.7	-15.8	44	-25.3	16.5	E	0.28	17.4	E	-27.1	-15.9	-27.2	740.5	0.024	0.000	21.0	5	-20.2	17.7	1.25	 .0729	23	1	100.0	1
02/24/24	7:57	-15.8	-15.8	-15.8	45	-25.1	16.5	E	0.28	17.4	E	-27.2	-16.0	-27.3	740.5	0.024	0.000	21.0	5	-20.2	17.7	1.25	 .0729	24	1	100.0	1
02/24/24	7:58	-15.8	-15.8	-15.8	45	-25.1	16.5	ESE	0.28	18.3	E	-27.2	-16.0	-27.3	740.6	0.024	0.000	21.0	5	-20.2	17.7	1.25	 .0729	23	1	100.0	1
02/24/24	7:59	-15.8	-15.8	-15.8	45	-25.0	16.5	ESE	0.28	18.3	ESE	-27.1	-15.9	-27.2	740.5	0.024	0.000	20.9	5	-20.2	17.6	1.25	 .0730	23	1	100.0	1
02/24/24	8:00	-15.8	-15.8	-15.8	45	-25.0	16.5	ESE	0.28	17.4	E	-27.1	-15.9	-27.2	740.6	0.024	0.000	20.9	5	-20.2	17.6	1.25	 .0730	24	1	100.0	1
02/24/24	8:01	-15.9	-15.8	-15.9	46	-24.9	15.7	ESE	0.26	16.5	ESE	-26.9	-16.1	-27.1	740.6	0.024	0.000	20.9	5	-20.2	17.6	1.25	 .0730	23	1	100.0	1
02/24/24	8:02	-15.9	-15.9	-15.9	47	-24.6	17.4	E	0.29	20.0	E	-27.4	-16.1	-27.6	740.6	0.024	0.000	20.9	5	-20.2	17.6	1.25	 .0730	24	1	100.0	1
02/24/24	8:03	-15.9	-15.9	-15.9	47	-24.6	17.4	ESE	0.29	19.1	ESE	-27.4	-16.1	-27.6	740.6	0.024	0.000	20.9	5	-20.2	17.6	1.25	 .0730	23	1	100.0	1
02/24/24	8:04	-15.7	-15.7	-15.8	46	-24.7	15.7	ESE	0.26	17.4	ESE	-26.7	-15.8	-26.8	740.6	0.024	0.000	20.9	5	-20.2	17.6	1.25	 .0730	23	1	100.0	1
02/24/24	8:05	-15.3	-15.3	-15.6	45	-24.6	17.4	E	0.29	18.3	E	-26.7	-15.4	-26.8	740.6	0.023	0.000	20.9	5	-20.2	17.6	1.25	 .0730	24	1	100.0	1
02/24/24	8:06	-15.2	-15.2	-15.3	44	-24.7	17.4	E	0.29	18.3	E	-26.5	-15.3	-26.7	740.5	0.023	0.000	20.9	5	-20.2	17.6	1.25	 .0730	23	1	100.0	1
02/24/24	8:07	-15.2	-15.1	-15.2	44	-24.7	16.5	E	0.28	17.4	E	-26.3	-15.3	-26.4	740.5	0.023	0.000	20.9	5	-20.3	17.6	1.25	 .0730	24	1	100.0	1
02/24/24	8:08	-15.2	-15.2	-15.2	44	-24.8	17.4	E	0.29	20.0	E	-26.6	-15.4	-26.8	740.5	0.023	0.000	20.9	5	-20.3	17.6	1.25	 .0730	23	1	100.0	1
02/24/24	8:09	-15.3	-15.3	-15.3	45	-24.6	15.7	E	0.26	18.3	E	-26.2	-15.5	-26.4	740.5	0.023	0.000	20.9	5	-20.3	17.6	1.25	 .0730	24	1	100.0	1
02/24/24	8:10	-15.3	-15.3	-15.3	44	-24.9	16.5	E	0.28	18.3	E	-26.5	-15.5	-26.7	740.5	0.023	0.000	20.9	5	-20.3	17.6	1.25	 .0730	23	1	100.0	1
02/24/24	8:11	-15.4	-15.3	-15.4	44	-24.9	16.5	E	0.28	18.3	E	-26.6	-15.6	-26.7	740.5	0.023	0.000	20.9	5	-20.3	17.6	1.25	 .0730	23	1	100.0	1
02/24/24	8:12	-15.5	-15.4	-15.5	45	-24.8	15.7	E	0.26	16.5	E	-26.4	-15.7	-26.6	740.5	0.023	0.000	20.9	5	-20.3	17.6	1.25	 .0730	24	1	100.0	1
02/24/24	8:13	-15.7	-15.6	-15.7	45	-24.9	17.4	ESE	0.29	18.3	E	-27.2	-15.8	-27.3	740.5	0.024	0.000	20.9	5	-20.3	17.6	1.25	 .0730	23	1	100.0	1
02/24/24	8:14	-15.8	-15.7	-15.8	45	-25.0	15.7	ESE	0.26	17.4	ESE	-26.8	-15.9	-26.9	740.4	0.024	0.000	20.9	5	-20.3	17.6	1.25	 .0730	24	1	100.0	1
02/24/24	8:15	-15.8	-15.8	-15.8	46	-24.8	16.5	E	0.28	17.4	E	-27.1	-15.9	-27.2	740.5	0.024	0.000	20.9	5	-20.3	17.6	1.25	 .0730	23	1	100.0	1
02/24/24	8:16	-15.8	-15.8	-15.8	46	-24.8	16.5	E	0.28	18.3	ESE	-27.1	-15.9	-27.2	740.4	0.024	0.000	20.9	5	-20.3	17.6	1.25	 .0730	23	1	100.0	1
02/24/24	8:17	-15.8	-15.7	-15.8	46	-24.8	16.5	E	0.28	17.4	E	-27.1	-15.9	-27.2	740.4	0.024	0.000	20.9	5	-20.3	17.6	1.25	 .0730	24	1	100.0	1
02/24/24	8:18	-15.8	-15.8	-15.8	46	-24.8	16.5	ESE	0.28	18.3	ESE	-27.1	-15.9	-27.2	740.5	0.024	0.000	20.9	5	-20.3	17.6	1.25	 .0730	23	1	100.0	1
02/24/24	8:19	-15.8	-15.8	-15.8	47	-24.5	17.4	E	0.29	18.3	E	-27.3	-15.9	-27.5	740.5	0.024	0.000	20.9	5	-20.3	17.6	1.25	 .0730	24	1	100.0	1
02/24/24	8:20	-15.8	-15.8	-15.8	47	-24.6	16.5	E	0.28	18.3	ESE	-27.2	-16.0	-27.3	740.5	0.024	0.000	20.9	5	-20.2	17.6	1.25	 .0729	23	1	100.0	1
02/24/24	8:21	-15.8	-15.8	-15.8	47	-24.5	16.5	E	0.28	19.1	ESE	-27.1	-15.9	-27.2	740.5	0.024	0.000	20.9	5	-20.2	17.6	1.25	 .0729	23	1	100.0	1
02/24/24	8:22	-15.7	-15.7	-15.8	47	-24.5	14.8	E	0.25	17.4	E	-26.4	-15.9	-26.6	740.5	0.024	0.000	20.9	5	-20.2	17.6	1.25	 .0729	24	1	100.0	1
02/24/24	8:23	-15.7	-15.7	-15.7	47	-24.4	15.7	E	0.26	18.3	E	-26.7	-15.8	-26.8	740.5	0.024	0.000	20.9	5	-20.2	17.6	1.25	 .0729	23	1	100.0	1
02/24/24	8:24	-15.6	-15.6	-15.6	47	-24.4	15.7	ESE	0.26	18.3	E	-26.6	-15.8	-26.8	740.5	0.024	0.000	20.9	5	-20.2	17.6	1.25	 .0729	24	1	100.0	1
02/24/24	8:25	-15.7	-15.6	-15.7	47	-24.4	16.5	E	0.28	18.3	ESE	-26.9	-15.8	-27.1	740.5	0.024	0.000	20.9	5	-20.2	17.6	1.25	 .0730	23	1	100.0	1
02/24/24	8:26	-15.8	-15.7	-15.8	47	-24.5	17.4	E	0.29	18.3	ESE	-27.3	-15.9	-27.5	740.5	0.024	0.000	20.9	5	-20.2	17.6	1.25	 .0730	24	1	100.0	1
02/24/24	8:27	-15.8	-15.8	-15.8	47	-24.5	17.4	E	0.29	19.1	ESE	-27.3	-15.9	-27.5	740.5	0.024	0.000	20.9	5	-20.2	17.6	1.25	 .0730	23	1	100.0	1
02/24/24	8:28	-15.8	-15.8	-15.8	47	-24.5	16.5	E	0.28	20.0	E	-27.1	-15.9	-27.2	740.5	0.024	0.000	21.0	5	-20.2	17.7	1.25	 .0729	23	1	100.0	1
02/24/24	8:29	-15.6	-15.6	-15.7	46	-24.6	18.3	E	0.30	20.9	E	-27.3	-15.7	-27.4	740.5	0.024	0.000	21.0	5	-20.2	17.7	1.25	 .0729	24	1	100.0	1
02/24/24	8:30	-15.2	-15.2	-15.5	45	-24.5	15.7	E	0.26	17.4	E	-26.1	-15.4	-26.2	740.4	0.023	0.000	21.0	5	-20.2	17.7	1.25	 .0729	23	1	100.0	1
02/24/24	8:31	-15.1	-15.1	-15.2	43	-24.9	17.4	E	0.29	19.1	E	-26.4	-15.2	-26.6	740.4	0.023	0.000	21.0	5	-20.2	17.7	1.25	 .0729	24	1	100.0	1
02/24/24	8:32	-15.1	-15.1	-15.1	44	-24.7	17.4	E	0.29	18.3	E	-26.4	-15.3	-26.6	740.5	0.023	0.000	21.0	5	-20.2	17.7	1.25	 .0729	23	1	100.0	1
02/24/24	8:33	-15.3	-15.1	-15.3	44	-24.8	19.1	E	0.32	21.7	E	-27.1	-15.4	-27.3	740.5	0.023	0.000	21.1	5	-20.1	17.7	1.25	 .0729	23	1	100.0	1
02/24/24	8:34	-15.4	-15.3	-15.4	44	-24.9	17.4	E	0.29	19.1	E	-26.8	-15.6	-27.0	740.5	0.023	0.000	21.1	5	-20.1	17.7	1.25	 .0729	24	1	100.0	1
02/24/24	8:35	-15.4	-15.4	-15.4	44	-24.9	17.4	E	0.29	20.0	E	-26.8	-15.6	-27.0	740.5	0.023	0.000	21.1	5	-20.1	17.7	1.25	 .0729	23	1	100.0	1
02/24/24	8:36	-15.3	-15.3	-15.4	43	-25.1	17.4	E	0.29	19.1	E	-26.7	-15.5	-26.9	740.5	0.023	0.000	21.1	5	-20.1	17.7	1.25	 .0729	24	1	100.0	1
02/24/24	8:37	-15.4	-15.3	-15.4	43	-25.2	17.4	E	0.29	19.1	E	-26.9	-15.6	-27.1	740.5	0.023	0.000	21.1	5	-20.1	17.7	1.25	 .0729	23	1	100.0	1
02/24/24	8:38	-15.6	-15.4	-15.6	44	-25.1	15.7	E	0.26	17.4	E	-26.5	-15.7	-26.7	740.5	0.024	0.000	21.1	5	-20.1	17.7	1.25	 .0729	24	1	100.0	1
02/24/24	8:39	-15.7	-15.6	-15.7	46	-24.7	15.7	E	0.26	16.5	E	-26.7	-15.9	-26.9	740.5	0.024	0.000	21.1	5	-20.1	17.7	1.25	 .0729	23	1	100.0	1
02/24/24	8:40	-15.9	-15.8	-15.9	46	-24.9	16.5	E	0.28	17.4	E	-27.3	-16.1	-27.4	740.4	0.024	0.000	21.1	5	-20.1	17.7	1.25	 .0729	23	1	100.0	1
02/24/24	8:41	-16.1	-15.9	-16.1	47	-24.8	15.7	E	0.26	17.4	E	-27.2	-16.2	-27.3	740.5	0.024	0.000	21.1	5	-20.1	17.7	1.25	 .0729	24	1	100.0	1
02/24/24	8:42	-16.2	-16.1	-16.2	47	-24.9	16.5	E	0.28	17.4	E	-27.6	-16.3	-27.7	740.5	0.024	0.000	21.1	5	-20.1	17.7	1.25	 .0729	23	1	100.0	1
02/24/24	8:43	-16.3	-16.2	-16.3	47	-25.0	16.5	E	0.28	17.4	E	-27.7	-16.4	-27.9	740.4	0.024	0.000	21.1	5	-20.1	17.7	1.25	 .0729	24	1	100.0	1
02/24/24	8:44	-16.3	-16.3	-16.3	48	-24.8	16.5	E	0.28	17.4	E	-27.7	-16.4	-27.9	740.5	0.024	0.000	21.1	5	-20.1	17.7	1.25	 .0729	23	1	100.0	1
02/24/24	8:45	-16.3	-16.3	-16.3	48	-24.8	16.5	E	0.28	19.1	ESE	-27.7	-16.4	-27.9	740.5	0.024	0.000	21.1	5	-20.1	17.7	1.25	 .0729	23	1	100.0	1
02/24/24	8:46	-16.2	-16.2	-16.3	48	-24.7	17.4	E	0.29	18.3	E	-27.9	-16.4	-28.1	740.5	0.024	0.000	21.0	5	-20.2	17.7	1.25	 .0729	24	1	100.0	1
02/24/24	8:47	-16.2	-16.2	-16.2	48	-24.7	18.3	E	0.30	19.1	E	-28.1	-16.3	-28.2	740.4	0.024	0.000	21.0	5	-20.2	17.7	1.25	 .0729	23	1	100.0	1
02/24/24	8:48	-16.1	-16.1	-16.2	47	-24.8	17.4	E	0.29	19.1	E	-27.8	-16.3	-27.9	740.4	0.024	0.000	21.0	5	-20.2	17.7	1.25	 .0729	24	1	100.0	1
02/24/24	8:49	-16.0	-16.0	-16.1	47	-24.7	17.4	E	0.29	18.3	E	-27.6	-16.2	-27.8	740.4	0.024	0.000	21.0	5	-20.2	17.7	1.25	 .0729	23	1	100.0	1
02/24/24	8:50	-15.9	-15.9	-16.0	46	-24.9	16.5	E	0.28	18.3	E	-27.3	-16.1	-27.4	740.4	0.024	0.000	20.9	5	-20.2	17.6	1.25	 .0729	24	1	100.0	1
02/24/24	8:51	-15.9	-15.9	-15.9	46	-24.9	15.7	E	0.26	16.5	E	-27.0	-16.1	-27.2	740.4	0.024	0.000	20.9	5	-20.2	17.6	1.25	 .0729	23	1	100.0	1
02/24/24	8:52	-16.0	-15.9	-16.0	47	-24.7	14.8	E	0.25	16.5	E	-26.8	-16.2	-27.0	740.4	0.024	0.000	20.9	5	-20.2	17.6	1.25	 .0729	23	1	100.0	1
02/24/24	8:53	-16.0	-16.0	-16.0	47	-24.7	16.5	E	0.28	18.3	E	-27.3	-16.2	-27.5	740.4	0.024	0.000	20.9	5	-20.2	17.6	1.25	 .0729	24	1	100.0	1
02/24/24	8:54	-16.0	-16.0	-16.0	47	-24.7	16.5	E	0.28	18.3	E	-27.3	-16.2	-27.5	740.4	0.024	0.000	20.9	5	-20.3	17.6	1.25	 .0730	23	1	100.0	1
02/24/24	8:55	-16.0	-16.0	-16.0	47	-24.7	15.7	E	0.26	16.5	E	-27.1	-16.2	-27.3	740.4	0.024	0.000	20.9	5	-20.3	17.6	1.25	 .0730	24	1	100.0	1
02/24/24	8:56	-16.1	-16.0	-16.1	47	-24.8	15.7	E	0.26	16.5	E	-27.2	-16.2	-27.3	740.4	0.024	0.000	20.9	5	-20.3	17.6	1.25	 .0730	23	1	100.0	1
02/24/24	8:57	-16.1	-16.1	-16.1	47	-24.8	13.9	E	0.23	16.5	E	-26.6	-16.2	-26.8	740.4	0.024	0.000	20.8	5	-20.3	17.5	1.25	 .0730	23	1	100.0	1
02/24/24	8:58	-16.2	-16.1	-16.2	48	-24.7	14.8	E	0.25	16.5	E	-27.1	-16.3	-27.2	740.4	0.024	0.000	20.8	5	-20.3	17.5	1.25	 .0730	24	1	100.0	1
02/24/24	8:59	-16.1	-16.1	-16.1	48	-24.6	14.8	E	0.25	15.7	E	-26.9	-16.2	-27.1	740.4	0.024	0.000	20.8	5	-20.3	17.5	1.25	 .0730	23	1	100.0	1
02/24/24	9:00	-16.0	-16.0	-16.1	47	-24.7	15.7	E	0.26	17.4	E	-27.1	-16.2	-27.3	740.4	0.024	0.000	20.8	5	-20.3	17.5	1.25	 .0730	24	1	100.0	1
02/24/24	9:01	-15.9	-15.9	-16.0	47	-24.7	14.8	E	0.25	16.5	E	-26.7	-16.1	-26.9	740.4	0.024	0.000	20.8	5	-20.3	17.5	1.25	 .0730	23	1	100.0	1
02/24/24	9:02	-15.9	-15.9	-15.9	47	-24.6	14.8	E	0.25	15.7	E	-26.7	-16.1	-26.8	740.4	0.024	0.000	20.8	5	-20.3	17.4	1.25	 .0730	23	1	100.0	1
02/24/24	9:03	-15.9	-15.8	-15.9	47	-24.7	14.8	E	0.25	16.5	E	-26.7	-16.1	-26.9	740.4	0.024	0.000	20.8	5	-20.3	17.4	1.25	 .0730	24	1	100.0	1
02/24/24	9:04	-16.0	-15.9	-16.0	47	-24.7	15.7	E	0.26	16.5	E	-27.1	-16.2	-27.3	740.4	0.024	0.000	20.8	5	-20.3	17.4	1.25	 .0730	23	1	100.0	1
02/24/24	9:05	-16.1	-16.1	-16.1	48	-24.6	14.8	E	0.25	16.5	E	-26.9	-16.3	-27.1	740.4	0.024	0.000	20.8	5	-20.3	17.5	1.25	 .0730	24	1	100.0	1
02/24/24	9:06	-16.2	-16.1	-16.2	48	-24.7	15.7	E	0.26	16.5	E	-27.3	-16.3	-27.5	740.4	0.024	0.000	20.8	5	-20.3	17.5	1.25	 .0730	23	1	100.0	1
02/24/24	9:07	-16.1	-16.1	-16.1	47	-24.8	14.8	E	0.25	16.5	E	-26.9	-16.2	-27.1	740.4	0.024	0.000	20.8	5	-20.3	17.5	1.25	 .0730	24	1	100.0	1
02/24/24	9:08	-15.9	-15.9	-16.1	47	-24.7	14.8	E	0.25	16.5	E	-26.7	-16.1	-26.9	740.4	0.024	0.000	20.8	5	-20.3	17.5	1.25	 .0730	23	1	100.0	1
02/24/24	9:09	-16.0	-15.9	-16.0	47	-24.7	14.8	E	0.25	17.4	ESE	-26.8	-16.2	-27.0	740.4	0.024	0.000	20.8	5	-20.3	17.5	1.25	 .0730	23	1	100.0	1
02/24/24	9:10	-15.9	-15.9	-15.9	47	-24.7	14.8	E	0.25	15.7	E	-26.7	-16.1	-26.9	740.4	0.024	0.000	20.8	5	-20.3	17.5	1.25	 .0730	24	1	100.0	1
02/24/24	9:11	-15.8	-15.8	-15.9	47	-24.6	14.8	E	0.25	16.5	ESE	-26.6	-16.0	-26.8	740.4	0.024	0.000	20.8	5	-20.3	17.5	1.25	 .0730	23	1	100.0	1
02/24/24	9:12	-15.8	-15.8	-15.8	47	-24.6	14.8	E	0.25	16.5	E	-26.6	-16.0	-26.8	740.4	0.024	0.000	20.8	5	-20.3	17.5	1.25	 .0730	24	1	100.0	1
02/24/24	9:13	-15.9	-15.9	-15.9	47	-24.7	13.9	E	0.23	15.7	E	-26.4	-16.1	-26.6	740.4	0.024	0.000	20.8	5	-20.3	17.5	1.25	 .0730	23	1	100.0	1
02/24/24	9:14	-15.9	-15.9	-15.9	47	-24.7	13.9	E	0.23	17.4	E	-26.4	-16.1	-26.6	740.4	0.024	0.000	20.9	5	-20.3	17.6	1.25	 .0730	23	1	100.0	1
02/24/24	9:15	-15.8	-15.8	-15.9	46	-24.8	13.9	E	0.23	15.7	E	-26.3	-16.0	-26.5	740.4	0.024	0.000	20.9	5	-20.3	17.6	1.25	 .0730	24	1	100.0	1
02/24/24	9:16	-15.8	-15.8	-15.8	46	-24.8	13.0	E	0.22	14.8	E	-25.9	-15.9	-26.1	740.4	0.024	0.000	20.9	5	-20.3	17.6	1.25	 .0730	23	1	100.0	1
02/24/24	9:17	-15.7	-15.7	-15.8	46	-24.7	13.9	E	0.23	14.8	E	-26.2	-15.9	-26.3	740.3	0.024	0.000	20.9	5	-20.2	17.6	1.25	 .0729	24	1	100.0	1
02/24/24	9:18	-15.7	-15.7	-15.7	46	-24.7	13.0	E	0.22	15.7	E	-25.8	-15.8	-25.9	740.4	0.024	0.000	20.9	5	-20.2	17.6	1.25	 .0729	23	1	100.0	1
02/24/24	9:19	-15.4	-15.4	-15.7	45	-24.7	14.8	ESE	0.25	17.4	ESE	-26.1	-15.6	-26.3	740.3	0.023	0.000	20.9	5	-20.2	17.6	1.25	 .0729	24	1	100.0	1
02/24/24	9:20	-15.3	-15.3	-15.4	44	-24.9	14.8	E	0.25	16.5	E	-25.9	-15.5	-26.1	740.4	0.023	0.000	20.9	5	-20.2	17.6	1.25	 .0729	23	1	100.0	1
02/24/24	9:21	-15.3	-15.3	-15.3	44	-24.8	13.0	E	0.22	14.8	ESE	-25.3	-15.4	-25.4	740.3	0.023	0.000	20.9	5	-20.2	17.6	1.25	 .0729	23	1	100.0	1
02/24/24	9:22	-15.3	-15.3	-15.3	45	-24.6	13.9	E	0.23	15.7	ESE	-25.7	-15.5	-25.8	740.4	0.023	0.000	20.9	5	-20.2	17.6	1.25	 .0729	24	1	100.0	1
02/24/24	9:23	-15.5	-15.4	-15.5	45	-24.8	13.9	E	0.23	14.8	E	-25.9	-15.7	-26.1	740.3	0.023	0.000	21.0	5	-20.2	17.7	1.25	 .0729	23	1	100.0	1
02/24/24	9:24	-15.6	-15.5	-15.6	45	-24.9	14.8	E	0.25	15.7	E	-26.3	-15.8	-26.5	740.3	0.024	0.000	21.0	5	-20.2	17.7	1.25	 .0729	24	1	100.0	1
02/24/24	9:25	-15.7	-15.6	-15.7	45	-24.9	13.9	E	0.23	15.7	E	-26.1	-15.8	-26.3	740.3	0.024	0.000	21.0	5	-20.2	17.7	1.25	 .0729	23	1	100.0	1
02/24/24	9:26	-15.7	-15.7	-15.7	46	-24.7	14.8	E	0.25	15.7	E	-26.4	-15.9	-26.6	740.3	0.024	0.000	21.0	5	-20.2	17.7	1.25	 .0729	23	1	100.0	1
02/24/24	9:27	-15.8	-15.7	-15.8	46	-24.8	14.8	ESE	0.25	15.7	ESE	-26.6	-15.9	-26.7	740.3	0.024	0.000	21.1	5	-20.1	17.7	1.25	 .0729	24	1	100.0	1
02/24/24	9:28	-15.8	-15.8	-15.8	46	-24.8	14.8	E	0.25	15.7	E	-26.6	-15.9	-26.7	740.3	0.024	0.000	21.1	5	-20.1	17.7	1.25	 .0729	23	1	100.0	1
02/24/24	9:29	-15.8	-15.8	-15.8	46	-24.8	14.8	E	0.25	15.7	E	-26.6	-16.0	-26.8	740.3	0.024	0.000	21.1	5	-20.1	17.7	1.25	 .0729	24	1	100.0	1
02/24/24	9:30	-15.9	-15.8	-15.9	46	-24.9	14.8	E	0.25	15.7	ESE	-26.7	-16.1	-26.9	740.3	0.024	0.000	21.1	5	-20.1	17.7	1.25	 .0729	23	1	100.0	1
02/24/24	9:31	-16.0	-15.9	-16.0	47	-24.7	14.8	E	0.25	15.7	ESE	-26.8	-16.2	-27.0	740.3	0.024	0.000	21.1	5	-20.1	17.7	1.25	 .0729	24	1	100.0	1
02/24/24	9:32	-16.1	-16.0	-16.1	47	-24.8	14.8	E	0.25	16.5	E	-26.9	-16.2	-27.1	740.3	0.024	0.000	21.1	5	-20.1	17.7	1.25	 .0729	23	1	100.0	1
02/24/24	9:33	-16.1	-16.1	-16.1	47	-24.8	14.8	E	0.25	15.7	E	-26.9	-16.3	-27.1	740.3	0.024	0.000	21.1	5	-20.1	17.7	1.25	 .0729	23	1	100.0	1
02/24/24	9:34	-16.2	-16.1	-16.2	47	-24.9	14.8	E	0.25	16.5	E	-27.1	-16.3	-27.2	740.3	0.024	0.000	21.1	5	-20.1	17.7	1.25	 .0729	24	1	100.0	1
02/24/24	9:35	-16.2	-16.2	-16.2	47	-24.9	14.8	E	0.25	15.7	E	-27.1	-16.4	-27.3	740.3	0.024	0.000	21.1	5	-20.1	17.7	1.25	 .0729	23	1	100.0	1
02/24/24	9:36	-16.2	-16.2	-16.3	48	-24.7	15.7	E	0.26	16.5	ESE	-27.4	-16.4	-27.6	740.2	0.024	0.000	21.1	5	-20.1	17.7	1.25	 .0729	24	1	100.0	1
02/24/24	9:37	-16.2	-16.2	-16.2	47	-24.9	15.7	E	0.26	16.5	E	-27.3	-16.3	-27.5	740.2	0.024	0.000	21.0	5	-20.2	17.7	1.25	 .0729	23	1	100.0	1
02/24/24	9:38	-16.1	-16.1	-16.2	47	-24.8	15.7	E	0.26	16.5	E	-27.2	-16.2	-27.3	740.2	0.024	0.000	21.0	5	-20.2	17.7	1.25	 .0729	23	1	100.0	1
02/24/24	9:39	-16.1	-16.1	-16.1	47	-24.8	15.7	E	0.26	17.4	E	-27.2	-16.3	-27.4	740.2	0.024	0.000	21.0	5	-20.2	17.7	1.25	 .0729	24	1	100.0	1
02/24/24	9:40	-16.1	-16.1	-16.1	47	-24.8	15.7	E	0.26	15.7	E	-27.2	-16.2	-27.3	740.2	0.024	0.000	21.0	5	-20.2	17.7	1.25	 .0729	23	1	100.0	1
02/24/24	9:41	-16.1	-16.1	-16.1	47	-24.8	14.8	E	0.25	16.5	E	-26.9	-16.3	-27.1	740.2	0.024	0.000	21.0	5	-20.2	17.7	1.25	 .0729	24	1	100.0	1
02/24/24	9:42	-16.2	-16.1	-16.2	47	-24.9	15.7	E	0.26	16.5	E	-27.3	-16.3	-27.5	740.2	0.024	0.000	21.0	5	-20.2	17.7	1.25	 .0729	23	1	100.0	1
02/24/24	9:43	-16.2	-16.2	-16.2	47	-24.9	15.7	E	0.26	16.5	E	-27.4	-16.4	-27.6	740.2	0.024	0.000	20.9	5	-20.2	17.6	1.25	 .0729	23	1	100.0	1
02/24/24	9:44	-16.2	-16.2	-16.3	47	-24.9	15.7	E	0.26	16.5	E	-27.4	-16.4	-27.6	740.2	0.024	0.000	20.9	5	-20.2	17.6	1.25	 .0729	24	1	100.0	1
02/24/24	9:45	-16.2	-16.2	-16.2	46	-25.1	14.8	E	0.25	15.7	E	-27.1	-16.3	-27.2	740.2	0.024	0.000	20.9	5	-20.2	17.6	1.25	 .0729	23	1	100.0	1
02/24/24	9:46	-16.1	-16.1	-16.2	46	-25.1	15.7	E	0.26	16.5	E	-27.2	-16.3	-27.4	740.2	0.024	0.000	20.9	5	-20.2	17.6	1.25	 .0729	24	1	100.0	1
02/24/24	9:47	-16.0	-16.0	-16.1	46	-25.0	13.9	E	0.23	16.5	E	-26.5	-16.2	-26.7	740.3	0.024	0.000	20.9	5	-20.2	17.6	1.25	 .0729	23	1	100.0	1
02/24/24	9:48	-15.9	-15.9	-16.0	45	-25.2	15.7	E	0.26	17.4	ESE	-27.0	-16.1	-27.2	740.2	0.024	0.000	20.9	5	-20.3	17.6	1.25	 .0729	24	1	100.0	1
02/24/24	9:49	-15.9	-15.9	-15.9	45	-25.1	15.7	E	0.26	16.5	E	-26.9	-16.1	-27.1	740.2	0.024	0.000	20.9	5	-20.3	17.6	1.25	 .0729	23	1	100.0	1
02/24/24	9:50	-15.9	-15.9	-15.9	45	-25.2	14.8	E	0.25	15.7	E	-26.7	-16.1	-26.9	740.2	0.024	0.000	20.9	5	-20.3	17.6	1.25	 .0729	23	1	100.0	1
02/24/24	9:51	-16.0	-15.9	-16.0	45	-25.2	15.7	E	0.26	16.5	E	-27.1	-16.2	-27.3	740.2	0.024	0.000	20.9	5	-20.3	17.6	1.25	 .0729	24	1	100.0	1
02/24/24	9:52	-16.1	-16.0	-16.1	45	-25.3	14.8	E	0.25	16.5	E	-26.9	-16.3	-27.1	740.2	0.024	0.000	20.9	5	-20.3	17.6	1.25	 .0729	23	1	100.0	1
02/24/24	9:53	-16.2	-16.2	-16.2	46	-25.2	14.8	E	0.25	16.5	E	-27.1	-16.4	-27.3	740.2	0.024	0.000	20.9	5	-20.3	17.6	1.25	 .0729	24	1	100.0	1
02/24/24	9:54	-16.3	-16.2	-16.3	46	-25.2	14.8	E	0.25	15.7	E	-27.2	-16.4	-27.3	740.2	0.024	0.000	20.9	5	-20.3	17.6	1.25	 .0729	23	1	100.0	1
02/24/24	9:55	-16.3	-16.3	-16.3	46	-25.3	13.9	E	0.23	14.8	E	-26.9	-16.5	-27.1	740.2	0.024	0.000	20.9	5	-20.3	17.6	1.25	 .0729	23	1	100.0	1
02/24/24	9:56	-16.4	-16.3	-16.4	46	-25.4	14.8	E	0.25	15.7	E	-27.4	-16.6	-27.6	740.2	0.024	0.000	20.9	5	-20.3	17.6	1.25	 .0729	24	1	100.0	1
02/24/24	9:57	-16.4	-16.4	-16.4	46	-25.4	13.9	E	0.23	15.7	E	-27.1	-16.6	-27.3	740.2	0.024	0.000	20.9	5	-20.3	17.6	1.25	 .0729	23	1	100.0	1
02/24/24	9:58	-16.5	-16.4	-16.5	46	-25.4	13.9	E	0.23	14.8	E	-27.2	-16.7	-27.3	740.2	0.024	0.000	20.9	5	-20.3	17.6	1.25	 .0729	24	1	100.0	1
02/24/24	9:59	-16.4	-16.4	-16.5	46	-25.4	13.0	E	0.22	15.7	E	-26.8	-16.6	-26.9	740.2	0.024	0.000	20.9	5	-20.3	17.6	1.25	 .0729	23	1	100.0	1
02/24/24	10:00	-16.4	-16.4	-16.4	46	-25.3	13.9	ESE	0.23	15.7	E	-27.1	-16.6	-27.2	740.2	0.024	0.000	20.9	5	-20.3	17.6	1.25	 .0729	24	1	100.0	1
02/24/24	10:01	-16.4	-16.4	-16.4	46	-25.3	12.2	ESE	0.20	13.9	E	-26.4	-16.6	-26.6	740.2	0.024	0.000	20.9	5	-20.3	17.6	1.25	 .0729	23	1	100.0	1
02/24/24	10:02	-16.2	-16.2	-16.4	45	-25.4	13.9	E	0.23	15.7	E	-26.8	-16.4	-27.0	740.2	0.024	0.000	20.9	5	-20.3	17.6	1.25	 .0729	23	1	100.0	1
02/24/24	10:03	-15.9	-15.9	-16.2	45	-25.2	15.7	E	0.26	19.1	E	-27.0	-16.1	-27.2	740.2	0.024	0.000	20.9	5	-20.2	17.6	1.25	 .0729	24	1	100.0	1
02/24/24	10:04	-15.8	-15.8	-15.9	44	-25.3	13.9	E	0.23	14.8	ESE	-26.3	-16.0	-26.5	740.2	0.024	0.000	20.9	5	-20.3	17.6	1.25	 .0729	23	1	100.0	1
02/24/24	10:05	-15.8	-15.8	-15.8	44	-25.3	13.9	E	0.23	15.7	E	-26.3	-16.0	-26.5	740.2	0.024	0.000	20.9	5	-20.2	17.6	1.25	 .0729	24	1	100.0	1
02/24/24	10:06	-16.0	-15.8	-16.0	44	-25.5	13.9	E	0.23	15.7	E	-26.5	-16.2	-26.7	740.2	0.024	0.000	20.9	5	-20.2	17.6	1.25	 .0729	23	1	100.0	1
02/24/24	10:07	-16.2	-16.0	-16.2	45	-25.4	13.9	E	0.23	14.8	E	-26.7	-16.3	-26.9	740.2	0.024	0.000	20.9	5	-20.2	17.6	1.25	 .0729	23	1	100.0	1
02/24/24	10:08	-16.3	-16.2	-16.3	45	-25.5	13.0	E	0.22	13.9	E	-26.7	-16.5	-26.8	740.2	0.024	0.000	20.9	5	-20.2	17.6	1.25	 .0729	24	1	100.0	1
02/24/24	10:09	-16.5	-16.3	-16.5	46	-25.4	13.9	E	0.23	14.8	E	-27.2	-16.7	-27.3	740.2	0.024	0.000	20.9	5	-20.2	17.6	1.25	 .0729	23	1	100.0	1
02/24/24	10:10	-16.6	-16.5	-16.6	46	-25.5	13.9	E	0.23	15.7	E	-27.3	-16.8	-27.5	740.1	0.024	0.000	20.9	5	-20.2	17.6	1.25	 .0729	24	1	100.0	1
02/24/24	10:11	-16.7	-16.7	-16.7	46	-25.6	14.8	E	0.25	15.7	E	-27.8	-16.9	-27.9	740.2	0.024	0.000	21.0	5	-20.2	17.7	1.25	 .0729	23	1	100.0	1
02/24/24	10:12	-16.7	-16.7	-16.7	47	-25.4	13.9	E	0.23	15.7	E	-27.4	-16.9	-27.6	740.1	0.024	0.000	21.0	5	-20.2	17.7	1.25	 .0729	24	1	100.0	1
02/24/24	10:13	-16.8	-16.7	-16.8	47	-25.5	14.8	E	0.25	15.7	E	-27.8	-16.9	-28.0	740.1	0.024	0.000	21.0	5	-20.2	17.7	1.25	 .0729	23	1	100.0	1
02/24/24	10:14	-16.8	-16.7	-16.8	47	-25.5	14.8	E	0.25	15.7	E	-27.8	-16.9	-28.0	740.1	0.024	0.000	21.0	5	-20.2	17.7	1.25	 .0729	23	1	100.0	1
02/24/24	10:15	-16.7	-16.7	-16.8	47	-25.4	14.8	E	0.25	15.7	E	-27.8	-16.9	-27.9	740.1	0.024	0.000	21.0	5	-20.2	17.7	1.25	 .0729	24	1	100.0	1
02/24/24	10:16	-16.7	-16.7	-16.8	47	-25.4	15.7	E	0.26	16.5	E	-28.1	-16.9	-28.2	740.1	0.024	0.000	21.1	5	-20.1	17.7	1.25	 .0729	23	1	100.0	1
02/24/24	10:17	-16.8	-16.7	-16.8	47	-25.5	15.7	E	0.26	16.5	E	-28.1	-16.9	-28.3	740.1	0.024	0.000	21.1	5	-20.1	17.7	1.25	 .0729	24	1	100.0	1
02/24/24	10:18	-16.8	-16.8	-16.8	47	-25.5	15.7	E	0.26	16.5	E	-28.1	-16.9	-28.3	740.1	0.024	0.000	21.1	5	-20.1	17.7	1.25	 .0729	23	1	100.0	1
02/24/24	10:19	-16.8	-16.7	-16.8	47	-25.5	15.7	E	0.26	16.5	E	-28.1	-16.9	-28.3	740.1	0.024	0.000	21.1	5	-20.1	17.7	1.25	 .0729	23	1	100.0	1
02/24/24	10:20	-16.8	-16.8	-16.8	47	-25.5	15.7	E	0.26	16.5	E	-28.1	-16.9	-28.3	740.1	0.024	0.000	21.1	5	-20.1	17.7	1.25	 .0729	24	1	100.0	1
02/24/24	10:21	-16.7	-16.7	-16.7	47	-25.4	15.7	E	0.26	16.5	E	-28.1	-16.9	-28.2	740.1	0.024	0.000	21.1	5	-20.1	17.7	1.25	 .0729	23	1	100.0	1
02/24/24	10:22	-16.7	-16.7	-16.8	47	-25.4	16.5	E	0.28	17.4	E	-28.3	-16.9	-28.4	740.1	0.024	0.000	21.1	5	-20.1	17.8	1.25	 .0729	24	1	100.0	1
02/24/24	10:23	-16.7	-16.7	-16.7	47	-25.4	15.7	E	0.26	16.5	E	-28.1	-16.9	-28.2	740.1	0.024	0.000	21.1	5	-20.1	17.8	1.25	 .0729	23	1	100.0	1
02/24/24	10:24	-16.7	-16.7	-16.7	47	-25.4	15.7	E	0.26	15.7	E	-28.1	-16.9	-28.2	740.0	0.024	0.000	21.1	5	-20.1	17.8	1.25	 .0729	23	1	100.0	1
02/24/24	10:25	-16.7	-16.7	-16.7	47	-25.4	15.7	E	0.26	16.5	E	-28.1	-16.9	-28.2	740.1	0.024	0.000	21.1	5	-20.1	17.8	1.25	 .0729	24	1	100.0	1
02/24/24	10:26	-16.7	-16.7	-16.7	48	-25.2	15.7	E	0.26	16.5	E	-28.1	-16.9	-28.2	740.1	0.024	0.000	21.1	5	-20.1	17.8	1.25	 .0729	23	1	100.0	1
02/24/24	10:27	-16.7	-16.7	-16.7	47	-25.4	15.7	E	0.26	16.5	E	-27.9	-16.8	-28.1	740.0	0.024	0.000	21.1	5	-20.1	17.8	1.25	 .0729	24	1	100.0	1
02/24/24	10:28	-16.6	-16.6	-16.7	47	-25.3	16.5	E	0.28	16.5	E	-28.2	-16.8	-28.3	740.1	0.024	0.000	21.1	5	-20.1	17.8	1.25	 .0729	23	1	100.0	1
02/24/24	10:29	-16.6	-16.6	-16.7	47	-25.3	16.5	E	0.28	16.5	E	-28.1	-16.7	-28.2	740.1	0.024	0.000	21.1	5	-20.1	17.8	1.25	 .0729	24	1	100.0	1
02/24/24	10:30	-16.5	-16.5	-16.6	46	-25.4	15.7	E	0.26	16.5	E	-27.7	-16.7	-27.9	740.0	0.024	0.000	21.1	5	-20.1	17.8	1.25	 .0729	23	1	100.0	1
02/24/24	10:31	-16.5	-16.5	-16.5	46	-25.4	15.7	E	0.26	16.5	E	-27.7	-16.7	-27.9	740.1	0.024	0.000	21.1	5	-20.1	17.7	1.25	 .0729	23	1	100.0	1
02/24/24	10:32	-16.5	-16.5	-16.5	47	-25.2	15.7	E	0.26	15.7	E	-27.7	-16.7	-27.9	740.0	0.024	0.000	21.1	5	-20.1	17.7	1.25	 .0729	24	1	100.0	1
02/24/24	10:33	-16.5	-16.5	-16.5	47	-25.2	14.8	E	0.25	15.7	E	-27.4	-16.7	-27.6	740.0	0.024	0.000	21.1	5	-20.1	17.7	1.25	 .0729	23	1	100.0	1
02/24/24	10:34	-16.5	-16.5	-16.5	47	-25.2	14.8	E	0.25	15.7	E	-27.4	-16.7	-27.6	740.0	0.024	0.000	21.1	5	-20.1	17.7	1.25	 .0729	24	1	100.0	1
02/24/24	10:35	-16.5	-16.5	-16.5	47	-25.2	14.8	E	0.25	15.7	E	-27.4	-16.7	-27.6	740.0	0.024	0.000	21.1	5	-20.1	17.7	1.25	 .0729	23	1	100.0	1
02/24/24	10:36	-16.6	-16.5	-16.6	47	-25.3	14.8	E	0.25	15.7	E	-27.6	-16.7	-27.7	740.0	0.024	0.000	21.1	5	-20.1	17.7	1.25	 .0729	23	1	100.0	1
02/24/24	10:37	-16.6	-16.6	-16.6	47	-25.3	13.9	E	0.23	14.8	E	-27.2	-16.7	-27.4	740.0	0.024	0.000	21.0	5	-20.2	17.7	1.25	 .0729	24	1	100.0	1
02/24/24	10:38	-16.6	-16.6	-16.6	47	-25.3	13.9	E	0.23	13.9	E	-27.3	-16.8	-27.5	740.0	0.024	0.000	21.0	5	-20.2	17.7	1.25	 .0729	23	1	100.0	1
02/24/24	10:39	-16.7	-16.6	-16.7	47	-25.4	13.9	E	0.23	13.9	ESE	-27.4	-16.8	-27.6	740.0	0.024	0.000	21.0	5	-20.2	17.7	1.25	 .0729	24	1	100.0	1
02/24/24	10:40	-16.7	-16.7	-16.7	48	-25.2	13.9	E	0.23	14.8	E	-27.4	-16.9	-27.6	740.0	0.024	0.000	21.0	5	-20.2	17.7	1.25	 .0729	23	1	100.0	1
02/24/24	10:41	-16.8	-16.7	-16.8	48	-25.2	13.9	E	0.23	15.7	E	-27.6	-16.9	-27.7	740.0	0.024	0.000	20.9	5	-20.2	17.6	1.25	 .0729	24	1	100.0	1
02/24/24	10:42	-16.8	-16.8	-16.8	48	-25.2	13.9	E	0.23	13.9	E	-27.6	-16.9	-27.7	740.0	0.024	0.000	20.9	5	-20.2	17.6	1.25	 .0729	23	1	100.0	1
02/24/24	10:43	-16.8	-16.8	-16.8	48	-25.3	13.9	E	0.23	14.8	E	-27.6	-17.0	-27.8	740.0	0.024	0.000	20.9	5	-20.2	17.6	1.25	 .0729	23	1	100.0	1
02/24/24	10:44	-16.9	-16.8	-16.9	48	-25.3	13.0	E	0.22	13.9	E	-27.3	-17.1	-27.5	740.0	0.024	0.000	20.9	5	-20.3	17.6	1.25	 .0729	24	1	100.0	1
02/24/24	10:45	-16.9	-16.9	-16.9	48	-25.4	13.0	E	0.22	13.9	E	-27.4	-17.1	-27.6	740.0	0.024	0.000	20.9	5	-20.3	17.6	1.25	 .0729	23	1	100.0	1
02/24/24	10:46	-17.0	-16.9	-17.0	48	-25.4	13.0	E	0.22	13.9	E	-27.5	-17.2	-27.7	740.0	0.025	0.000	20.9	5	-20.3	17.6	1.25	 .0729	24	1	100.0	1
02/24/24	10:47	-17.0	-17.0	-17.0	49	-25.2	13.0	E	0.22	13.9	E	-27.5	-17.2	-27.7	740.0	0.025	0.000	20.9	5	-20.3	17.6	1.25	 .0729	23	1	100.0	1
02/24/24	10:48	-17.1	-17.0	-17.1	49	-25.3	13.0	E	0.22	14.8	E	-27.6	-17.2	-27.7	740.0	0.025	0.000	20.9	5	-20.3	17.6	1.25	 .0729	23	1	100.0	1
02/24/24	10:49	-17.1	-17.1	-17.1	49	-25.3	14.8	E	0.25	14.8	E	-28.2	-17.2	-28.3	740.0	0.025	0.000	20.9	5	-20.3	17.6	1.25	 .0729	24	1	100.0	1
02/24/24	10:50	-17.1	-17.1	-17.1	48	-25.5	13.9	E	0.23	14.8	E	-27.9	-17.2	-28.1	740.0	0.025	0.000	20.9	5	-20.3	17.6	1.25	 .0729	23	1	100.0	1
02/24/24	10:51	-17.1	-17.1	-17.1	48	-25.5	13.0	E	0.22	13.9	E	-27.6	-17.2	-27.7	740.1	0.025	0.000	20.9	5	-20.3	17.6	1.25	 .0729	24	1	100.0	1
02/24/24	10:52	-17.1	-17.1	-17.1	48	-25.5	12.2	E	0.20	13.9	E	-27.3	-17.3	-27.5	740.1	0.025	0.000	20.9	5	-20.3	17.6	1.25	 .0729	23	1	100.0	1
02/24/24	10:53	-17.2	-17.2	-17.2	48	-25.6	13.0	E	0.22	13.0	E	-27.7	-17.3	-27.9	740.0	0.025	0.000	20.9	5	-20.3	17.6	1.25	 .0729	24	1	100.0	1
02/24/24	10:54	-17.2	-17.2	-17.2	48	-25.6	13.0	E	0.22	13.0	E	-27.7	-17.3	-27.9	740.0	0.025	0.000	20.9	5	-20.3	17.6	1.25	 .0729	23	1	100.0	1
02/24/24	10:55	-17.2	-17.2	-17.2	48	-25.6	13.0	E	0.22	13.9	E	-27.7	-17.3	-27.9	740.0	0.025	0.000	20.9	5	-20.3	17.6	1.25	 .0729	23	1	100.0	1
02/24/24	10:56	-17.2	-17.2	-17.2	48	-25.6	13.0	E	0.22	14.8	E	-27.7	-17.3	-27.9	740.0	0.025	0.000	20.9	5	-20.3	17.6	1.25	 .0729	24	1	100.0	1
02/24/24	10:57	-17.2	-17.2	-17.2	48	-25.6	13.9	E	0.23	14.8	E	-28.1	-17.3	-28.2	740.0	0.025	0.000	20.9	5	-20.3	17.6	1.25	 .0729	23	1	100.0	1
02/24/24	10:58	-17.2	-17.1	-17.2	48	-25.6	12.2	E	0.20	13.0	E	-27.4	-17.3	-27.6	740.0	0.025	0.000	20.9	5	-20.3	17.6	1.25	 .0729	24	1	100.0	1
02/24/24	10:59	-17.2	-17.1	-17.2	48	-25.6	11.3	E	0.19	12.2	E	-27.1	-17.3	-27.2	740.1	0.025	0.000	20.9	6	-18.1	17.7	1.54	 .0729	23	1	100.0	1
02/24/24	11:00	-17.2	-17.2	-17.2	48	-25.6	12.2	E	0.20	13.0	E	-27.4	-17.4	-27.6	740.0	0.025	0.000	20.9	5	-20.2	17.6	1.25	 .0729	23	1	100.0	1
02/24/24	11:01	-17.2	-17.2	-17.2	48	-25.6	13.0	E	0.22	13.9	E	-27.8	-17.4	-27.9	740.1	0.025	0.000	20.9	5	-20.2	17.6	1.25	 .0729	24	1	100.0	1
02/24/24	11:02	-17.2	-17.2	-17.2	48	-25.6	13.9	E	0.23	14.8	E	-28.1	-17.3	-28.2	740.0	0.025	0.000	20.9	5	-20.2	17.6	1.25	 .0729	23	1	100.0	1
02/24/24	11:03	-17.1	-17.1	-17.2	48	-25.5	13.0	E	0.22	14.8	E	-27.6	-17.2	-27.7	740.1	0.025	0.000	20.9	6	-18.1	17.7	1.54	 .0729	24	1	100.0	1
02/24/24	11:04	-17.1	-17.1	-17.1	47	-25.7	13.9	E	0.23	14.8	E	-27.9	-17.2	-28.1	740.0	0.025	0.000	20.9	6	-18.1	17.7	1.54	 .0729	23	1	100.0	1
02/24/24	11:05	-17.1	-17.1	-17.1	47	-25.7	13.9	E	0.23	14.8	E	-27.9	-17.2	-28.1	740.0	0.025	0.000	21.0	5	-20.2	17.7	1.25	 .0729	23	1	100.0	1
02/24/24	11:06	-17.0	-17.0	-17.1	46	-25.9	11.3	E	0.19	13.0	E	-26.8	-17.2	-27.0	740.0	0.025	0.000	21.0	6	-18.0	17.7	1.55	 .0729	24	1	100.0	1
02/24/24	11:07	-17.0	-17.0	-17.1	46	-25.9	10.4	E	0.17	12.2	E	-26.4	-17.2	-26.6	740.1	0.025	0.000	21.0	5	-20.2	17.7	1.25	 .0729	23	1	100.0	1
02/24/24	11:08	-17.1	-17.1	-17.1	47	-25.8	10.4	E	0.17	11.3	E	-26.6	-17.3	-26.8	740.1	0.025	0.000	21.0	6	-18.0	17.7	1.55	 .0729	24	1	100.0	1
02/24/24	11:09	-17.2	-17.1	-17.2	46	-26.1	10.4	E	0.17	12.2	ENE	-26.7	-17.4	-26.9	740.1	0.025	0.000	21.1	5	-20.1	17.7	1.25	 .0729	23	1	100.0	1
02/24/24	11:10	-17.2	-17.2	-17.3	46	-26.1	12.2	E	0.20	13.0	E	-27.4	-17.4	-27.6	740.1	0.025	0.000	21.1	5	-20.1	17.7	1.25	 .0729	24	1	100.0	1
02/24/24	11:11	-17.2	-17.2	-17.2	46	-26.1	12.2	ENE	0.20	13.0	ENE	-27.4	-17.3	-27.6	740.1	0.025	0.000	21.1	5	-20.1	17.7	1.25	 .0729	23	1	100.0	1
02/24/24	11:12	-16.9	-16.9	-17.1	45	-26.1	13.0	ENE	0.22	13.9	ENE	-27.4	-17.1	-27.6	740.1	0.024	0.000	21.1	5	-20.1	17.7	1.25	 .0729	23	1	100.0	1
02/24/24	11:13	-16.7	-16.7	-16.9	44	-26.1	13.0	E	0.22	13.9	E	-27.2	-16.9	-27.3	740.1	0.024	0.000	21.1	6	-18.0	17.8	1.55	 .0729	24	1	100.0	1
02/24/24	11:14	-16.5	-16.5	-16.7	44	-25.9	13.0	E	0.22	14.8	E	-26.9	-16.7	-27.1	740.1	0.024	0.000	21.1	6	-18.0	17.8	1.55	 .0729	23	1	100.0	1
02/24/24	11:15	-16.3	-16.3	-16.5	43	-26.0	13.9	E	0.23	14.8	E	-26.9	-16.4	-27.1	740.1	0.024	0.000	21.1	6	-18.0	17.8	1.55	 .0729	24	1	100.0	1
02/24/24	11:16	-16.1	-16.1	-16.2	41	-26.3	12.2	E	0.20	13.0	E	-25.9	-16.2	-26.1	740.1	0.024	0.000	21.1	5	-20.1	17.7	1.25	 .0729	23	1	100.0	1
02/24/24	11:17	-15.9	-15.9	-16.0	41	-26.2	11.3	E	0.19	13.0	E	-25.4	-16.1	-25.6	740.0	0.024	0.000	21.1	5	-20.1	17.7	1.25	 .0729	23	1	100.0	1
02/24/24	11:18	-15.8	-15.8	-15.9	40	-26.3	12.2	E	0.20	13.9	E	-25.6	-15.9	-25.8	740.0	0.024	0.000	21.1	6	-18.0	17.8	1.55	 .0729	24	1	100.0	1
02/24/24	11:19	-15.7	-15.7	-15.8	40	-26.2	11.3	E	0.19	13.0	E	-25.1	-15.8	-25.3	740.0	0.024	0.000	21.1	6	-18.0	17.8	1.55	 .0729	23	1	100.0	1
02/24/24	11:20	-15.7	-15.7	-15.7	40	-26.2	11.3	E	0.19	12.2	E	-25.1	-15.8	-25.3	740.1	0.024	0.000	21.1	5	-20.1	17.7	1.25	 .0729	24	1	100.0	1
02/24/24	11:21	-15.7	-15.7	-15.7	39	-26.5	11.3	E	0.19	12.2	E	-25.1	-15.8	-25.3	740.0	0.024	0.000	21.1	6	-18.0	17.8	1.55	 .0729	23	1	100.0	1
02/24/24	11:22	-15.7	-15.7	-15.7	40	-26.3	11.3	E	0.19	11.3	E	-25.2	-15.9	-25.4	740.0	0.024	0.000	21.1	5	-20.1	17.7	1.25	 .0729	24	1	100.0	1
02/24/24	11:23	-15.8	-15.8	-15.8	40	-26.4	10.4	E	0.17	11.3	E	-25.0	-16.0	-25.2	740.0	0.024	0.000	21.0	5	-20.2	17.7	1.25	 .0729	23	1	100.0	1
02/24/24	11:24	-15.9	-15.8	-15.9	40	-26.4	11.3	E	0.19	12.2	E	-25.4	-16.1	-25.6	740.0	0.024	0.000	21.0	5	-20.2	17.7	1.25	 .0729	23	1	100.0	1
02/24/24	11:25	-15.9	-15.9	-15.9	40	-26.4	12.2	E	0.20	13.0	E	-25.8	-16.1	-25.9	740.0	0.024	0.000	21.0	6	-18.0	17.7	1.55	 .0729	24	1	100.0	1
02/24/24	11:26	-15.9	-15.9	-15.9	40	-26.4	12.2	E	0.20	13.0	E	-25.8	-16.1	-25.9	740.0	0.024	0.000	21.0	5	-20.2	17.7	1.25	 .0729	23	1	100.0	1
02/24/24	11:27	-15.8	-15.8	-15.9	40	-26.4	11.3	E	0.19	12.2	E	-25.3	-16.0	-25.5	740.0	0.024	0.000	20.9	6	-18.1	17.7	1.54	 .0729	24	1	100.0	1
02/24/24	11:28	-15.8	-15.8	-15.8	40	-26.3	11.3	E	0.19	13.0	E	-25.3	-15.9	-25.4	740.1	0.024	0.000	20.9	6	-18.1	17.7	1.54	 .0729	23	1	100.0	1
02/24/24	11:29	-15.8	-15.8	-15.8	40	-26.3	11.3	E	0.19	13.0	E	-25.3	-15.9	-25.4	740.0	0.024	0.000	20.9	6	-18.1	17.7	1.54	 .0729	23	1	100.0	1
02/24/24	11:30	-15.8	-15.8	-15.8	40	-26.3	11.3	E	0.19	13.0	E	-25.3	-15.9	-25.4	740.1	0.024	0.000	20.9	6	-18.1	17.7	1.54	 .0729	24	1	100.0	1
02/24/24	11:31	-15.9	-15.8	-15.9	40	-26.5	11.3	E	0.19	12.2	E	-25.5	-16.1	-25.7	740.1	0.024	0.000	20.9	6	-18.1	17.7	1.54	 .0729	23	1	100.0	1
02/24/24	11:32	-16.2	-16.0	-16.2	40	-26.7	12.2	E	0.20	13.0	E	-26.1	-16.3	-26.3	740.1	0.024	0.000	20.9	6	-18.1	17.6	1.54	 .0729	24	1	100.0	1
02/24/24	11:33	-16.2	-16.2	-16.2	40	-26.7	12.2	E	0.20	13.0	E	-26.1	-16.3	-26.3	740.1	0.024	0.000	20.9	6	-18.1	17.6	1.54	 .0729	23	1	100.0	1
02/24/24	11:34	-16.1	-16.1	-16.2	40	-26.6	12.2	E	0.20	13.0	E	-25.9	-16.2	-26.1	740.1	0.024	0.000	20.9	6	-18.1	17.6	1.54	 .0729	24	1	100.0	1
02/24/24	11:35	-15.8	-15.8	-16.0	39	-26.6	11.3	E	0.19	11.3	E	-25.3	-16.0	-25.5	740.1	0.024	0.000	20.9	6	-18.1	17.6	1.54	 .0729	23	1	100.0	1
02/24/24	11:36	-15.8	-15.8	-15.8	39	-26.6	11.3	E	0.19	12.2	E	-25.3	-15.9	-25.4	740.1	0.024	0.000	20.9	6	-18.1	17.6	1.54	 .0729	23	1	100.0	1
02/24/24	11:37	-15.7	-15.7	-15.8	39	-26.5	11.3	E	0.19	12.2	E	-25.1	-15.8	-25.3	740.1	0.024	0.000	20.9	6	-18.1	17.6	1.54	 .0729	24	1	100.0	1
02/24/24	11:38	-15.6	-15.6	-15.7	39	-26.4	11.3	E	0.19	12.2	E	-25.1	-15.8	-25.2	740.1	0.024	0.000	20.9	6	-18.1	17.6	1.54	 .0729	23	1	100.0	1
02/24/24	11:39	-15.6	-15.6	-15.6	39	-26.4	11.3	E	0.19	12.2	E	-25.0	-15.7	-25.2	740.1	0.024	0.000	20.9	6	-18.1	17.6	1.54	 .0729	24	1	100.0	1
02/24/24	11:40	-15.7	-15.6	-15.7	39	-26.5	10.4	E	0.17	11.3	E	-24.8	-15.8	-24.9	740.1	0.024	0.000	20.9	6	-18.1	17.7	1.54	 .0729	23	1	100.0	1
02/24/24	11:41	-15.8	-15.7	-15.8	39	-26.6	10.4	E	0.17	11.3	E	-25.0	-16.0	-25.2	740.1	0.024	0.000	20.9	6	-18.1	17.7	1.54	 .0729	23	1	100.0	1
02/24/24	11:42	-15.9	-15.8	-15.9	39	-26.7	10.4	E	0.17	11.3	E	-25.1	-16.1	-25.2	740.1	0.024	0.000	20.9	6	-18.1	17.6	1.54	 .0729	24	1	100.0	1
02/24/24	11:43	-15.9	-15.8	-15.9	39	-26.7	9.6	ENE	0.16	10.4	ENE	-24.7	-16.1	-24.8	740.1	0.024	0.000	20.9	6	-18.1	17.7	1.54	 .0729	23	1	100.0	1
02/24/24	11:44	-16.0	-15.9	-16.0	40	-26.5	9.6	ENE	0.16	11.3	ENE	-24.8	-16.2	-24.9	740.1	0.024	0.000	20.9	6	-18.1	17.7	1.54	 .0729	24	1	100.0	1
02/24/24	11:45	-16.0	-16.0	-16.1	40	-26.5	9.6	ENE	0.16	10.4	ENE	-24.8	-16.2	-24.9	740.1	0.024	0.000	20.9	6	-18.1	17.7	1.54	 .0729	23	1	100.0	1
02/24/24	11:46	-16.0	-16.0	-16.1	40	-26.5	9.6	ENE	0.16	11.3	ENE	-24.8	-16.2	-24.9	740.1	0.024	0.000	20.9	6	-18.1	17.7	1.54	 .0729	23	1	100.0	1
02/24/24	11:47	-16.0	-16.0	-16.0	40	-26.5	9.6	ENE	0.16	11.3	ENE	-24.8	-16.2	-24.9	740.1	0.024	0.000	20.9	6	-18.1	17.7	1.54	 .0729	24	1	100.0	1
02/24/24	11:48	-16.0	-16.0	-16.0	40	-26.5	9.6	ENE	0.16	10.4	E	-24.8	-16.2	-24.9	740.1	0.024	0.000	20.9	6	-18.1	17.7	1.54	 .0729	23	1	100.0	1
02/24/24	11:49	-16.1	-16.0	-16.1	40	-26.6	9.6	ENE	0.16	10.4	ENE	-24.9	-16.3	-25.1	740.1	0.024	0.000	20.9	6	-18.1	17.7	1.54	 .0729	24	1	100.0	1
02/24/24	11:50	-16.2	-16.1	-16.2	40	-26.7	9.6	ENE	0.16	10.4	ENE	-25.0	-16.3	-25.2	740.1	0.024	0.000	21.0	6	-18.0	17.7	1.55	 .0729	23	1	100.0	1
02/24/24	11:51	-16.2	-16.2	-16.2	40	-26.7	9.6	ENE	0.16	12.2	ENE	-25.0	-16.3	-25.2	740.1	0.024	0.000	21.0	6	-18.0	17.7	1.55	 .0729	24	1	100.0	1
02/24/24	11:52	-16.2	-16.2	-16.2	40	-26.7	9.6	ENE	0.16	11.3	ENE	-25.1	-16.4	-25.2	740.1	0.024	0.000	21.0	6	-18.0	17.7	1.55	 .0729	23	1	100.0	1
02/24/24	11:53	-16.2	-16.2	-16.2	41	-26.5	10.4	ENE	0.17	11.3	ENE	-25.4	-16.4	-25.6	740.1	0.024	0.000	21.0	6	-18.0	17.7	1.55	 .0729	23	1	100.0	1
02/24/24	11:54	-16.2	-16.2	-16.2	41	-26.4	8.7	ENE	0.14	9.6	ENE	-24.6	-16.3	-24.7	740.1	0.024	0.000	21.0	6	-18.0	17.7	1.55	 .0729	24	1	100.0	1
02/24/24	11:55	-16.2	-16.2	-16.2	41	-26.5	8.7	ENE	0.14	9.6	ENE	-24.7	-16.4	-24.8	740.1	0.024	0.000	21.0	6	-18.0	17.7	1.55	 .0729	23	1	100.0	1
02/24/24	11:56	-16.3	-16.2	-16.3	41	-26.5	10.4	ENE	0.17	11.3	ENE	-25.6	-16.4	-25.7	740.1	0.024	0.000	21.1	6	-18.0	17.8	1.55	 .0729	24	1	100.0	1
02/24/24	11:57	-16.3	-16.3	-16.3	41	-26.5	10.4	ENE	0.17	11.3	ENE	-25.6	-16.4	-25.7	740.1	0.024	0.000	21.1	6	-18.0	17.8	1.55	 .0729	23	1	100.0	1
02/24/24	11:58	-16.2	-16.2	-16.3	41	-26.5	9.6	ENE	0.16	10.4	ENE	-25.1	-16.4	-25.2	740.1	0.024	0.000	21.1	6	-18.0	17.8	1.55	 .0729	23	1	100.0	1
02/24/24	11:59	-16.2	-16.2	-16.2	41	-26.4	9.6	ENE	0.16	11.3	ENE	-25.0	-16.3	-25.2	740.1	0.024	0.000	21.1	6	-18.0	17.8	1.55	 .0729	24	1	100.0	1
02/24/24	12:00	-16.1	-16.1	-16.2	41	-26.3	10.4	ENE	0.17	11.3	ENE	-25.3	-16.2	-25.4	740.1	0.024	0.000	21.1	6	-18.0	17.8	1.55	 .0729	24	1	100.0	1
02/24/24	12:01	-16.1	-16.1	-16.1	41	-26.3	9.6	ENE	0.16	10.4	ENE	-24.9	-16.2	-25.1	740.1	0.024	0.000	21.1	6	-18.0	17.8	1.55	 .0729	23	1	100.0	1
02/24/24	12:02	-16.0	-16.0	-16.1	41	-26.3	9.6	ENE	0.16	10.4	ENE	-24.8	-16.2	-24.9	740.1	0.024	0.000	21.1	6	-18.0	17.8	1.55	 .0728	23	1	100.0	1
02/24/24	12:03	-15.9	-15.9	-16.0	41	-26.2	10.4	ENE	0.17	11.3	ENE	-25.1	-16.1	-25.3	740.1	0.024	0.000	21.1	6	-18.0	17.8	1.55	 .0728	24	1	100.0	1
02/24/24	12:04	-15.9	-15.9	-15.9	41	-26.2	10.4	ENE	0.17	11.3	ENE	-25.1	-16.1	-25.2	740.1	0.024	0.000	21.1	6	-18.0	17.8	1.55	 .0729	23	1	100.0	1
02/24/24	12:05	-15.8	-15.8	-15.9	41	-26.1	9.6	ENE	0.16	9.6	ENE	-24.6	-16.0	-24.8	740.1	0.024	0.000	21.1	6	-18.0	17.8	1.55	 .0729	23	1	100.0	1
02/24/24	12:06	-15.7	-15.7	-15.8	41	-26.0	8.7	ENE	0.14	10.4	ENE	-24.0	-15.9	-24.2	740.1	0.024	0.000	21.1	6	-18.0	17.8	1.55	 .0729	24	1	100.0	1
02/24/24	12:07	-15.6	-15.6	-15.7	40	-26.2	10.4	ENE	0.17	10.4	ENE	-24.7	-15.8	-24.9	740.1	0.024	0.000	21.1	6	-18.0	17.8	1.55	 .0729	23	1	100.0	1
02/24/24	12:08	-15.4	-15.4	-15.6	40	-26.0	9.6	ENE	0.16	10.4	ENE	-24.1	-15.6	-24.3	740.1	0.023	0.000	21.1	6	-18.0	17.8	1.55	 .0729	24	1	100.0	1
02/24/24	12:09	-15.3	-15.3	-15.4	39	-26.1	9.6	ENE	0.16	11.3	ENE	-23.9	-15.5	-24.1	740.1	0.023	0.000	21.1	6	-18.0	17.8	1.55	 .0729	23	1	100.0	1
02/24/24	12:10	-15.2	-15.2	-15.3	39	-26.1	9.6	ENE	0.16	10.4	ENE	-23.8	-15.4	-24.1	740.1	0.023	0.000	21.1	6	-18.0	17.8	1.55	 .0729	23	1	100.0	1
02/24/24	12:11	-15.1	-15.1	-15.2	38	-26.2	7.8	ENE	0.13	9.6	ENE	-22.7	-15.3	-22.9	740.1	0.023	0.000	21.1	6	-18.0	17.8	1.55	 .0729	24	1	100.0	1
02/24/24	12:12	-15.0	-15.0	-15.1	38	-26.2	8.7	ENE	0.14	9.6	ENE	-23.1	-15.2	-23.3	740.1	0.023	0.000	21.1	6	-18.0	17.8	1.55	 .0729	23	1	100.0	1
02/24/24	12:13	-14.9	-14.9	-15.0	38	-26.1	9.6	ENE	0.16	10.4	ENE	-23.5	-15.2	-23.7	740.1	0.023	0.000	21.1	6	-18.0	17.8	1.55	 .0729	24	1	100.0	1
02/24/24	12:14	-14.9	-14.9	-14.9	38	-26.1	8.7	ENE	0.14	9.6	ENE	-23.1	-15.2	-23.3	740.2	0.023	0.000	21.1	6	-18.0	17.8	1.55	 .0729	23	1	100.0	1
02/24/24	12:15	-14.9	-14.9	-14.9	37	-26.4	9.6	ENE	0.16	10.4	ENE	-23.4	-15.1	-23.6	740.2	0.023	0.000	21.1	6	-18.0	17.8	1.55	 .0729	24	1	100.0	1
02/24/24	12:16	-14.8	-14.8	-14.8	37	-26.3	7.0	ENE	0.12	7.8	ENE	-21.9	-15.0	-22.1	740.1	0.023	0.000	21.1	6	-18.0	17.8	1.55	 .0729	23	1	100.0	1
02/24/24	12:17	-14.8	-14.8	-14.8	37	-26.3	8.7	ENE	0.14	9.6	ENE	-22.8	-15.0	-23.1	740.1	0.023	0.000	21.1	6	-18.0	17.8	1.55	 .0729	23	1	100.0	1
02/24/24	12:18	-14.8	-14.8	-14.8	37	-26.3	9.6	ENE	0.16	11.3	ENE	-23.3	-15.1	-23.6	740.1	0.023	0.000	21.1	6	-18.0	17.8	1.55	 .0729	24	1	100.0	1
02/24/24	12:19	-14.8	-14.8	-14.8	37	-26.3	10.4	ENE	0.17	11.3	ENE	-23.7	-15.0	-23.9	740.1	0.023	0.000	21.1	6	-18.0	17.8	1.55	 .0729	23	1	100.0	1
02/24/24	12:20	-14.7	-14.7	-14.8	37	-26.2	9.6	ENE	0.16	10.4	ENE	-23.2	-14.9	-23.4	740.1	0.023	0.000	21.1	6	-18.0	17.8	1.55	 .0729	24	1	100.0	1
02/24/24	12:21	-14.7	-14.7	-14.7	36	-26.5	8.7	ENE	0.14	9.6	ENE	-22.8	-14.9	-23.0	740.1	0.023	0.000	21.1	6	-18.0	17.8	1.55	 .0729	23	1	100.0	1
02/24/24	12:22	-14.8	-14.7	-14.8	36	-26.6	9.6	ENE	0.16	10.4	ENE	-23.3	-15.0	-23.5	740.1	0.023	0.000	21.0	6	-18.0	17.7	1.55	 .0729	23	1	100.0	1
02/24/24	12:23	-14.8	-14.8	-14.8	36	-26.6	10.4	ENE	0.17	11.3	E	-23.7	-15.1	-23.9	740.1	0.023	0.000	21.0	6	-18.0	17.7	1.55	 .0729	24	1	100.0	1
02/24/24	12:24	-14.9	-14.8	-14.9	36	-26.7	10.4	ENE	0.17	11.3	E	-23.8	-15.2	-24.1	740.1	0.023	0.000	21.0	6	-18.0	17.7	1.55	 .0729	23	1	100.0	1
02/24/24	12:25	-14.9	-14.9	-14.9	37	-26.4	10.4	E	0.17	11.3	E	-23.8	-15.2	-24.1	740.1	0.023	0.000	21.0	6	-18.0	17.7	1.55	 .0729	24	1	100.0	1
02/24/24	12:26	-15.1	-14.9	-15.1	37	-26.5	9.6	E	0.16	10.4	E	-23.6	-15.3	-23.8	740.1	0.023	0.000	21.0	6	-18.0	17.7	1.55	 .0729	23	1	100.0	1
02/24/24	12:27	-15.1	-15.1	-15.1	37	-26.5	10.4	E	0.17	11.3	E	-24.0	-15.3	-24.2	740.1	0.023	0.000	20.9	6	-18.1	17.7	1.54	 .0729	23	1	100.0	1
02/24/24	12:28	-15.1	-15.1	-15.1	37	-26.5	9.6	ENE	0.16	10.4	ENE	-23.6	-15.3	-23.8	740.1	0.023	0.000	20.9	6	-18.1	17.7	1.54	 .0729	24	1	100.0	1
02/24/24	12:29	-15.1	-15.1	-15.1	37	-26.5	9.6	ENE	0.16	10.4	ENE	-23.6	-15.3	-23.8	740.1	0.023	0.000	20.9	6	-18.1	17.7	1.54	 .0729	23	1	100.0	1
02/24/24	12:30	-15.1	-15.1	-15.1	37	-26.5	10.4	ENE	0.17	11.3	ENE	-24.0	-15.3	-24.2	740.0	0.023	0.000	20.9	6	-18.1	17.7	1.54	 .0729	24	1	100.0	1
02/24/24	12:31	-15.1	-15.1	-15.1	37	-26.6	10.4	ENE	0.17	10.4	ENE	-24.1	-15.3	-24.3	740.0	0.023	0.000	20.9	6	-18.1	17.7	1.54	 .0729	23	1	100.0	1
02/24/24	12:32	-15.2	-15.1	-15.2	37	-26.6	10.4	E	0.17	11.3	ENE	-24.2	-15.4	-24.4	740.0	0.023	0.000	20.9	6	-18.1	17.6	1.54	 .0729	24	1	100.0	1
02/24/24	12:33	-15.3	-15.2	-15.3	38	-26.4	11.3	ENE	0.19	12.2	E	-24.7	-15.5	-24.9	740.0	0.023	0.000	20.9	6	-18.1	17.7	1.54	 .0729	23	1	100.0	1
02/24/24	12:34	-15.4	-15.3	-15.4	38	-26.5	11.3	ENE	0.19	12.2	ENE	-24.8	-15.6	-25.0	740.0	0.023	0.000	20.9	6	-18.1	17.6	1.54	 .0729	23	1	100.0	1
02/24/24	12:35	-15.4	-15.4	-15.4	38	-26.6	11.3	ENE	0.19	12.2	ENE	-24.8	-15.7	-25.1	740.0	0.023	0.000	20.9	6	-18.1	17.6	1.54	 .0729	24	1	100.0	1
02/24/24	12:36	-15.4	-15.4	-15.4	38	-26.6	10.4	ENE	0.17	12.2	ENE	-24.5	-15.7	-24.7	740.0	0.023	0.000	20.9	6	-18.1	17.6	1.54	 .0729	23	1	100.0	1
02/24/24	12:37	-15.6	-15.4	-15.6	38	-26.7	11.3	ENE	0.19	12.2	ENE	-25.0	-15.7	-25.2	740.0	0.024	0.000	20.9	6	-18.1	17.6	1.54	 .0729	24	1	100.0	1
02/24/24	12:38	-15.6	-15.6	-15.6	38	-26.7	12.2	ENE	0.20	12.2	ENE	-25.4	-15.8	-25.6	740.0	0.024	0.000	20.9	6	-18.1	17.7	1.54	 .0729	23	1	100.0	1
02/24/24	12:39	-15.6	-15.6	-15.6	38	-26.7	10.4	ENE	0.17	11.3	ENE	-24.6	-15.7	-24.8	740.0	0.024	0.000	20.9	6	-18.1	17.7	1.54	 .0729	23	1	100.0	1
02/24/24	12:40	-15.6	-15.6	-15.6	39	-26.4	11.3	ENE	0.19	12.2	ENE	-25.0	-15.7	-25.2	740.1	0.024	0.000	20.9	6	-18.1	17.6	1.54	 .0729	24	1	100.0	1
02/24/24	12:41	-15.6	-15.6	-15.6	38	-26.7	10.4	ENE	0.17	11.3	ENE	-24.6	-15.7	-24.8	740.1	0.024	0.000	20.9	6	-18.1	17.7	1.54	 .0729	23	1	100.0	1
02/24/24	12:42	-15.6	-15.6	-15.6	39	-26.4	10.4	ENE	0.17	11.3	ENE	-24.6	-15.7	-24.8	740.0	0.024	0.000	20.9	6	-18.1	17.7	1.54	 .0729	24	1	100.0	1
02/24/24	12:43	-15.7	-15.6	-15.7	39	-26.5	10.4	ENE	0.17	11.3	ENE	-24.8	-15.8	-24.9	740.0	0.024	0.000	20.9	6	-18.1	17.7	1.54	 .0729	23	1	100.0	1
02/24/24	12:44	-15.7	-15.7	-15.7	39	-26.5	11.3	ENE	0.19	12.2	ENE	-25.1	-15.8	-25.3	740.0	0.024	0.000	20.9	6	-18.1	17.7	1.54	 .0729	24	1	100.0	1
02/24/24	12:45	-15.7	-15.7	-15.7	39	-26.5	10.4	ENE	0.17	12.2	ENE	-24.8	-15.9	-25.0	740.0	0.024	0.000	20.9	6	-18.1	17.7	1.54	 .0729	23	1	100.0	1
02/24/24	12:46	-15.7	-15.7	-15.7	39	-26.5	10.4	E	0.17	11.3	E	-24.8	-15.9	-25.0	740.0	0.024	0.000	20.9	6	-18.1	17.7	1.54	 .0729	23	1	100.0	1
02/24/24	12:47	-15.8	-15.7	-15.8	39	-26.6	10.4	E	0.17	11.3	ENE	-24.9	-15.9	-25.1	740.0	0.024	0.000	21.0	6	-18.0	17.7	1.55	 .0729	24	1	100.0	1
02/24/24	12:48	-15.8	-15.8	-15.8	39	-26.6	11.3	E	0.19	12.2	E	-25.3	-15.9	-25.4	740.0	0.024	0.000	21.0	6	-18.0	17.7	1.55	 .0729	23	1	100.0	1
02/24/24	12:49	-15.8	-15.8	-15.8	39	-26.6	11.3	E	0.19	12.2	E	-25.3	-15.9	-25.4	740.0	0.024	0.000	21.0	6	-18.0	17.7	1.55	 .0729	24	1	100.0	1
02/24/24	12:50	-15.8	-15.8	-15.8	40	-26.3	12.2	E	0.20	13.0	E	-25.6	-15.9	-25.8	740.0	0.024	0.000	21.0	6	-18.0	17.7	1.55	 .0729	23	1	100.0	1
02/24/24	12:51	-15.7	-15.7	-15.8	39	-26.5	11.3	E	0.19	12.2	E	-25.1	-15.8	-25.3	740.0	0.024	0.000	21.0	6	-18.0	17.7	1.55	 .0729	23	1	100.0	1
02/24/24	12:52	-15.6	-15.6	-15.7	39	-26.4	11.3	E	0.19	12.2	E	-25.0	-15.7	-25.2	740.0	0.024	0.000	21.1	6	-18.0	17.8	1.55	 .0729	24	1	100.0	1
02/24/24	12:53	-15.5	-15.5	-15.6	39	-26.3	12.2	E	0.20	13.0	E	-25.3	-15.7	-25.4	740.0	0.023	0.000	21.0	6	-18.0	17.7	1.55	 .0729	23	1	100.0	1
02/24/24	12:54	-15.3	-15.3	-15.4	39	-26.2	11.3	E	0.19	12.2	E	-24.7	-15.6	-24.9	740.0	0.023	0.000	21.1	6	-18.0	17.8	1.55	 .0729	24	1	100.0	1
02/24/24	12:55	-15.3	-15.3	-15.3	39	-26.1	12.2	E	0.20	13.0	E	-25.0	-15.5	-25.2	740.0	0.023	0.000	21.1	6	-18.0	17.8	1.55	 .0729	23	1	100.0	1
02/24/24	12:56	-15.2	-15.2	-15.2	38	-26.3	11.3	E	0.19	12.2	E	-24.5	-15.4	-24.7	739.9	0.023	0.000	21.1	6	-18.0	17.8	1.55	 .0728	24	1	100.0	1
02/24/24	12:57	-15.2	-15.2	-15.2	38	-26.4	11.3	E	0.19	12.2	ENE	-24.6	-15.4	-24.8	740.0	0.023	0.000	21.1	6	-18.0	17.8	1.55	 .0729	23	1	100.0	1
02/24/24	12:58	-15.3	-15.2	-15.3	38	-26.4	11.3	E	0.19	13.0	ENE	-24.7	-15.5	-24.9	740.0	0.023	0.000	21.1	6	-18.0	17.8	1.55	 .0729	23	1	100.0	1
02/24/24	12:59	-15.3	-15.3	-15.3	38	-26.5	11.3	E	0.19	13.0	E	-24.7	-15.6	-24.9	740.0	0.023	0.000	21.1	6	-18.0	17.8	1.55	 .0729	24	1	100.0	1
02/24/24	13:00	-15.4	-15.3	-15.4	38	-26.5	12.2	E	0.20	13.9	E	-25.1	-15.6	-25.3	740.0	0.023	0.000	21.1	6	-18.0	17.8	1.55	 .0729	23	1	100.0	1
02/24/24	13:01	-15.4	-15.4	-15.4	38	-26.5	13.0	E	0.22	13.9	E	-25.4	-15.6	-25.7	739.9	0.023	0.000	21.1	6	-18.0	17.8	1.55	 .0728	24	1	100.0	1
02/24/24	13:02	-15.3	-15.3	-15.4	39	-26.2	13.0	E	0.22	13.9	E	-25.4	-15.6	-25.6	740.0	0.023	0.000	21.1	6	-18.0	17.8	1.55	 .0729	23	1	100.0	1
02/24/24	13:03	-15.3	-15.3	-15.3	39	-26.2	12.2	E	0.20	13.9	E	-25.1	-15.6	-25.3	739.9	0.023	0.000	21.1	6	-18.0	17.8	1.55	 .0728	23	1	100.0	1
02/24/24	13:04	-15.3	-15.3	-15.3	38	-26.4	13.0	E	0.22	13.9	E	-25.3	-15.5	-25.5	739.9	0.023	0.000	21.0	6	-18.0	17.7	1.55	 .0729	24	1	100.0	1
02/24/24	13:05	-15.3	-15.3	-15.3	38	-26.5	13.0	E	0.22	13.9	E	-25.4	-15.6	-25.6	739.9	0.023	0.000	21.0	6	-18.0	17.7	1.55	 .0729	23	1	100.0	1
02/24/24	13:06	-15.4	-15.4	-15.4	39	-26.3	13.0	E	0.22	13.9	E	-25.5	-15.6	-25.7	739.9	0.023	0.000	21.0	6	-18.0	17.7	1.55	 .0729	24	1	100.0	1
02/24/24	13:07	-15.6	-15.5	-15.6	38	-26.7	13.0	E	0.22	13.9	E	-25.7	-15.8	-25.9	739.9	0.024	0.000	21.0	6	-18.0	17.7	1.55	 .0729	23	1	100.0	1
02/24/24	13:08	-15.8	-15.7	-15.8	39	-26.6	13.0	E	0.22	14.8	E	-26.0	-16.0	-26.2	739.9	0.024	0.000	20.9	6	-18.1	17.7	1.54	 .0729	23	1	100.0	1
02/24/24	13:09	-16.0	-15.9	-16.0	40	-26.5	13.9	E	0.23	14.8	E	-26.5	-16.2	-26.7	739.9	0.024	0.000	20.9	6	-18.1	17.7	1.54	 .0729	24	1	100.0	1
02/24/24	13:10	-16.2	-16.1	-16.2	40	-26.7	13.0	E	0.22	13.9	E	-26.4	-16.3	-26.6	739.9	0.024	0.000	20.9	6	-18.1	17.7	1.54	 .0729	23	1	100.0	1
02/24/24	13:11	-16.3	-16.2	-16.3	41	-26.6	13.0	E	0.22	13.9	E	-26.7	-16.5	-26.8	739.9	0.024	0.000	20.9	6	-18.1	17.7	1.54	 .0729	24	1	100.0	1
02/24/24	13:12	-16.3	-16.3	-16.3	41	-26.5	13.0	E	0.22	13.9	E	-26.6	-16.4	-26.7	739.9	0.024	0.000	20.9	6	-18.1	17.7	1.54	 .0729	23	1	100.0	1
02/24/24	13:13	-16.3	-16.3	-16.3	41	-26.5	13.0	E	0.22	13.9	E	-26.6	-16.4	-26.7	739.9	0.024	0.000	20.9	6	-18.1	17.7	1.54	 .0729	24	1	100.0	1
02/24/24	13:14	-16.2	-16.2	-16.3	41	-26.5	13.0	E	0.22	14.8	E	-26.5	-16.4	-26.7	739.9	0.024	0.000	20.9	6	-18.1	17.7	1.54	 .0729	23	1	100.0	1
02/24/24	13:15	-16.3	-16.3	-16.3	42	-26.2	12.2	E	0.20	13.9	E	-26.3	-16.4	-26.4	739.9	0.024	0.000	20.9	6	-18.1	17.6	1.54	 .0729	23	1	100.0	1
02/24/24	13:16	-16.3	-16.3	-16.3	42	-26.3	13.0	E	0.22	13.9	E	-26.7	-16.5	-26.8	739.9	0.024	0.000	20.9	6	-18.1	17.6	1.54	 .0729	24	1	100.0	1
02/24/24	13:17	-16.3	-16.3	-16.3	42	-26.3	12.2	E	0.20	13.9	E	-26.3	-16.5	-26.5	739.9	0.024	0.000	20.9	6	-18.1	17.6	1.54	 .0729	23	1	100.0	1
02/24/24	13:18	-16.5	-16.4	-16.5	42	-26.4	12.2	E	0.20	13.9	E	-26.6	-16.7	-26.7	739.9	0.024	0.000	20.9	6	-18.1	17.6	1.54	 .0729	24	1	100.0	1
02/24/24	13:19	-16.7	-16.6	-16.7	42	-26.6	12.2	E	0.20	13.9	E	-26.7	-16.8	-26.9	739.9	0.024	0.000	20.9	6	-18.1	17.6	1.54	 .0729	23	1	100.0	1
02/24/24	13:20	-16.8	-16.7	-16.8	43	-26.4	13.0	E	0.22	14.8	E	-27.2	-16.9	-27.4	739.9	0.024	0.000	20.9	6	-18.1	17.6	1.54	 .0729	23	1	100.0	1
02/24/24	13:21	-16.8	-16.8	-16.8	43	-26.4	13.9	E	0.23	14.8	E	-27.6	-16.9	-27.7	739.8	0.024	0.000	20.9	6	-18.1	17.6	1.54	 .0729	24	1	100.0	1
02/24/24	13:22	-16.7	-16.7	-16.7	43	-26.3	13.9	E	0.23	14.8	E	-27.4	-16.8	-27.6	739.8	0.024	0.000	20.9	6	-18.1	17.6	1.54	 .0729	23	1	100.0	1
02/24/24	13:23	-16.7	-16.7	-16.7	43	-26.3	13.9	E	0.23	16.5	ESE	-27.4	-16.8	-27.6	739.8	0.024	0.000	20.9	6	-18.1	17.6	1.54	 .0729	24	1	100.0	1
02/24/24	13:24	-16.5	-16.5	-16.6	43	-26.2	13.0	E	0.22	14.8	ESE	-26.9	-16.7	-27.1	739.8	0.024	0.000	20.9	6	-18.1	17.6	1.54	 .0729	23	1	100.0	1
02/24/24	13:25	-16.3	-16.3	-16.4	43	-26.0	13.9	E	0.23	14.8	E	-26.9	-16.5	-27.1	739.8	0.024	0.000	20.9	6	-18.1	17.6	1.54	 .0729	24	1	100.0	1
02/24/24	13:26	-16.3	-16.3	-16.3	43	-26.0	13.0	E	0.22	13.9	E	-26.6	-16.4	-26.7	739.8	0.024	0.000	20.9	6	-18.1	17.6	1.54	 .0729	23	1	100.0	1
02/24/24	13:27	-16.4	-16.3	-16.4	43	-26.1	13.0	E	0.22	14.8	E	-26.7	-16.6	-26.9	739.8	0.024	0.000	20.9	6	-18.1	17.6	1.54	 .0729	23	1	100.0	1
02/24/24	13:28	-16.5	-16.4	-16.5	43	-26.2	13.0	E	0.22	14.8	E	-26.9	-16.7	-27.1	739.7	0.024	0.000	20.9	6	-18.1	17.7	1.54	 .0729	24	1	100.0	1
02/24/24	13:29	-16.5	-16.5	-16.6	43	-26.2	13.0	ESE	0.22	14.8	ESE	-26.9	-16.7	-27.1	739.7	0.024	0.000	20.9	6	-18.1	17.7	1.54	 .0729	23	1	100.0	1
02/24/24	13:30	-16.5	-16.5	-16.5	43	-26.2	12.2	E	0.20	13.0	E	-26.6	-16.7	-26.7	739.7	0.024	0.000	20.9	6	-18.1	17.7	1.54	 .0729	24	1	100.0	1
02/24/24	13:31	-16.5	-16.4	-16.5	44	-25.9	12.2	E	0.20	13.9	E	-26.6	-16.7	-26.7	739.8	0.024	0.000	20.9	6	-18.1	17.7	1.54	 .0729	23	1	100.0	1
02/24/24	13:32	-16.6	-16.5	-16.6	44	-26.0	12.2	E	0.20	13.9	E	-26.6	-16.7	-26.8	739.7	0.024	0.000	21.0	6	-18.0	17.7	1.55	 .0728	23	1	100.0	1
02/24/24	13:33	-16.5	-16.5	-16.6	43	-26.2	12.2	E	0.20	14.8	E	-26.6	-16.7	-26.7	739.7	0.024	0.000	21.0	6	-18.0	17.7	1.55	 .0728	24	1	100.0	1
02/24/24	13:34	-16.4	-16.4	-16.4	43	-26.1	10.4	E	0.17	12.2	E	-25.7	-16.6	-25.8	739.7	0.024	0.000	21.0	6	-18.0	17.7	1.55	 .0728	23	1	100.0	1
02/24/24	13:35	-16.5	-16.4	-16.5	43	-26.2	12.2	E	0.20	13.0	E	-26.6	-16.7	-26.7	739.8	0.024	0.000	21.1	6	-18.0	17.8	1.55	 .0728	24	1	100.0	1
02/24/24	13:36	-16.6	-16.5	-16.6	43	-26.2	11.3	E	0.19	13.0	E	-26.3	-16.7	-26.4	739.7	0.024	0.000	21.1	6	-18.0	17.8	1.55	 .0728	23	1	100.0	1
02/24/24	13:37	-16.6	-16.6	-16.6	43	-26.2	10.4	E	0.17	12.2	E	-25.9	-16.7	-26.1	739.7	0.024	0.000	21.1	6	-18.0	17.8	1.55	 .0728	24	1	100.0	1
02/24/24	13:38	-16.7	-16.6	-16.7	44	-26.1	11.3	ESE	0.19	12.2	E	-26.4	-16.8	-26.6	739.7	0.024	0.000	21.1	6	-18.0	17.8	1.55	 .0728	23	1	100.0	1
02/24/24	13:39	-16.5	-16.5	-16.7	44	-25.9	12.2	ESE	0.20	13.0	ESE	-26.6	-16.7	-26.7	739.7	0.024	0.000	21.1	6	-18.0	17.8	1.55	 .0728	23	1	100.0	1
02/24/24	13:40	-16.3	-16.3	-16.5	44	-25.8	12.2	ESE	0.20	13.9	ESE	-26.3	-16.5	-26.5	739.7	0.024	0.000	21.1	6	-18.0	17.8	1.55	 .0728	24	1	100.0	1
02/24/24	13:41	-16.2	-16.2	-16.3	44	-25.6	12.2	ESE	0.20	13.0	ESE	-26.1	-16.3	-26.3	739.7	0.024	0.000	21.1	6	-18.0	17.8	1.55	 .0728	23	1	100.0	1
02/24/24	13:42	-16.1	-16.1	-16.2	43	-25.8	12.2	ESE	0.20	14.8	ESE	-25.9	-16.2	-26.1	739.7	0.024	0.000	21.1	6	-18.0	17.8	1.55	 .0728	24	1	100.0	1
02/24/24	13:43	-15.8	-15.8	-16.0	42	-25.8	11.3	ESE	0.19	13.9	ESE	-25.3	-16.0	-25.5	739.7	0.024	0.000	21.2	6	-17.9	17.9	1.55	 .0728	23	1	100.0	1
02/24/24	13:44	-15.7	-15.7	-15.8	42	-25.7	13.0	ESE	0.22	13.9	E	-25.8	-15.8	-25.9	739.7	0.024	0.000	21.2	6	-17.9	17.9	1.55	 .0728	23	1	100.0	1
02/24/24	13:45	-15.6	-15.6	-15.7	42	-25.6	13.0	ESE	0.22	16.5	ESE	-25.7	-15.8	-25.9	739.7	0.024	0.000	21.2	6	-17.9	17.9	1.55	 .0728	24	1	100.0	1
02/24/24	13:46	-15.5	-15.5	-15.6	41	-25.8	11.3	ESE	0.19	13.0	ESE	-24.9	-15.7	-25.1	739.7	0.023	0.000	21.2	6	-17.9	17.9	1.55	 .0728	23	1	100.0	1
02/24/24	13:47	-15.6	-15.5	-15.6	41	-25.8	11.3	ESE	0.19	12.2	E	-25.0	-15.7	-25.2	739.7	0.024	0.000	21.2	6	-17.9	17.9	1.55	 .0728	24	1	100.0	1
02/24/24	13:48	-15.7	-15.6	-15.7	41	-26.0	10.4	E	0.17	11.3	ESE	-24.8	-15.9	-25.0	739.7	0.024	0.000	21.2	6	-17.9	17.9	1.55	 .0728	23	1	100.0	1
02/24/24	13:49	-15.9	-15.8	-15.9	41	-26.2	10.4	E	0.17	11.3	E	-25.1	-16.1	-25.3	739.7	0.024	0.000	21.2	6	-17.9	17.9	1.55	 .0728	23	1	100.0	1
02/24/24	13:50	-16.1	-15.9	-16.1	42	-26.1	10.4	E	0.17	11.3	E	-25.3	-16.3	-25.5	739.7	0.024	0.000	21.2	6	-17.9	17.9	1.55	 .0728	24	1	100.0	1
02/24/24	13:51	-16.3	-16.2	-16.3	42	-26.3	10.4	E	0.17	12.2	E	-25.6	-16.5	-25.8	739.7	0.024	0.000	21.2	6	-17.9	17.9	1.55	 .0728	23	1	100.0	1
02/24/24	13:52	-16.5	-16.3	-16.5	43	-26.2	12.2	E	0.20	12.2	E	-26.6	-16.7	-26.7	739.7	0.024	0.000	21.2	6	-17.9	17.9	1.55	 .0728	24	1	100.0	1
02/24/24	13:53	-16.6	-16.5	-16.6	43	-26.2	10.4	ESE	0.17	11.3	ESE	-25.9	-16.7	-26.1	739.7	0.024	0.000	21.2	6	-17.9	17.9	1.55	 .0728	23	1	100.0	1
02/24/24	13:54	-16.8	-16.6	-16.8	44	-26.2	10.4	E	0.17	12.2	ESE	-26.2	-16.9	-26.3	739.7	0.024	0.000	21.2	6	-17.9	17.9	1.55	 .0728	24	1	100.0	1
02/24/24	13:55	-16.9	-16.8	-16.9	44	-26.3	10.4	ESE	0.17	11.3	ESE	-26.4	-17.1	-26.6	739.7	0.024	0.000	21.2	6	-17.9	17.9	1.55	 .0728	23	1	100.0	1
02/24/24	13:56	-17.1	-16.9	-17.1	44	-26.4	10.4	E	0.17	12.2	E	-26.5	-17.2	-26.7	739.7	0.025	0.000	21.2	6	-17.9	17.9	1.55	 .0728	23	1	100.0	1
02/24/24	13:57	-17.2	-17.1	-17.2	45	-26.3	11.3	ESE	0.19	12.2	E	-27.1	-17.3	-27.2	739.7	0.025	0.000	21.2	6	-17.9	17.9	1.55	 .0728	24	1	100.0	1
02/24/24	13:58	-17.1	-17.1	-17.2	45	-26.2	10.4	ESE	0.17	11.3	E	-26.6	-17.3	-26.8	739.7	0.025	0.000	21.1	6	-18.0	17.8	1.55	 .0728	23	1	100.0	1
02/24/24	13:59	-17.1	-17.1	-17.2	46	-26.0	10.4	E	0.17	10.4	E	-26.6	-17.3	-26.8	739.7	0.025	0.000	21.2	6	-17.9	17.9	1.55	 .0728	24	1	100.0	1
02/24/24	14:00	-17.1	-17.1	-17.1	46	-26.0	10.4	E	0.17	11.3	E	-26.6	-17.3	-26.8	739.7	0.025	0.000	21.1	6	-18.0	17.8	1.55	 .0728	23	1	100.0	1
02/24/24	14:01	-17.1	-17.1	-17.1	46	-26.0	10.4	E	0.17	12.2	E	-26.5	-17.2	-26.7	739.7	0.025	0.000	21.1	6	-18.0	17.8	1.55	 .0728	23	1	100.0	1
02/24/24	14:02	-17.0	-17.0	-17.1	46	-25.9	10.4	E	0.17	12.2	E	-26.4	-17.2	-26.6	739.7	0.025	0.000	21.1	6	-18.0	17.8	1.55	 .0728	24	1	100.0	1
02/24/24	14:03	-16.9	-16.9	-17.0	46	-25.9	10.4	E	0.17	13.0	E	-26.4	-17.1	-26.6	739.7	0.024	0.000	21.1	6	-18.0	17.8	1.55	 .0728	23	1	100.0	1
02/24/24	14:04	-16.8	-16.8	-16.9	46	-25.7	12.2	E	0.20	13.0	E	-26.9	-17.0	-27.1	739.7	0.024	0.000	21.1	6	-18.0	17.8	1.55	 .0728	24	1	100.0	1
02/24/24	14:05	-16.7	-16.7	-16.8	47	-25.4	11.3	E	0.19	12.2	E	-26.4	-16.8	-26.6	739.7	0.024	0.000	21.2	6	-17.9	17.9	1.55	 .0728	23	1	100.0	1
02/24/24	14:06	-16.5	-16.5	-16.6	46	-25.4	11.3	E	0.19	12.2	E	-26.2	-16.7	-26.3	739.7	0.024	0.000	21.2	6	-17.9	17.9	1.55	 .0728	24	1	100.0	1
02/24/24	14:07	-16.4	-16.4	-16.5	46	-25.3	10.4	E	0.17	11.3	E	-25.7	-16.6	-25.8	739.7	0.024	0.000	21.2	6	-17.9	17.9	1.55	 .0728	23	1	100.0	1
02/24/24	14:08	-16.3	-16.3	-16.4	45	-25.5	9.6	E	0.16	10.4	E	-25.2	-16.4	-25.3	739.7	0.024	0.000	21.2	6	-17.9	17.9	1.55	 .0728	23	1	100.0	1
02/24/24	14:09	-16.2	-16.2	-16.3	45	-25.4	10.4	E	0.17	10.4	E	-25.4	-16.3	-25.6	739.7	0.024	0.000	21.2	6	-17.9	17.9	1.55	 .0728	24	1	100.0	1
02/24/24	14:10	-16.1	-16.1	-16.1	45	-25.3	10.4	E	0.17	11.3	E	-25.3	-16.2	-25.4	739.7	0.024	0.000	21.2	6	-17.9	17.9	1.55	 .0728	23	1	100.0	1
02/24/24	14:11	-16.0	-16.0	-16.1	44	-25.5	10.4	E	0.17	11.3	E	-25.2	-16.2	-25.3	739.7	0.024	0.000	21.2	6	-17.9	17.9	1.55	 .0728	24	1	100.0	1
02/24/24	14:12	-15.9	-15.9	-16.0	44	-25.4	10.4	E	0.17	11.3	E	-25.1	-16.1	-25.3	739.7	0.024	0.000	21.2	6	-17.9	18.0	1.55	 .0728	23	1	100.0	1
02/24/24	14:13	-15.9	-15.9	-15.9	44	-25.4	10.4	E	0.17	11.3	E	-25.1	-16.1	-25.2	739.7	0.024	0.000	21.2	6	-17.9	18.0	1.55	 .0728	23	1	100.0	1
02/24/24	14:14	-15.8	-15.8	-15.8	44	-25.3	9.6	E	0.16	10.4	E	-24.5	-15.9	-24.7	739.7	0.024	0.000	21.2	6	-17.9	18.0	1.55	 .0728	24	1	100.0	1
02/24/24	14:15	-15.8	-15.8	-15.8	43	-25.5	9.6	E	0.16	10.4	E	-24.5	-15.9	-24.7	739.7	0.024	0.000	21.2	6	-17.9	17.9	1.55	 .0728	23	1	100.0	1
02/24/24	14:16	-15.7	-15.7	-15.8	43	-25.5	8.7	E	0.14	10.4	E	-24.0	-15.9	-24.2	739.8	0.024	0.000	21.2	6	-17.9	18.0	1.55	 .0728	24	1	100.0	1
02/24/24	14:17	-15.7	-15.7	-15.7	43	-25.5	8.7	E	0.14	9.6	ENE	-24.0	-15.9	-24.2	739.8	0.024	0.000	21.2	6	-17.9	18.0	1.55	 .0728	23	1	100.0	1
02/24/24	14:18	-15.7	-15.7	-15.7	43	-25.4	9.6	E	0.16	10.4	E	-24.4	-15.8	-24.6	739.8	0.024	0.000	21.2	6	-17.9	18.0	1.55	 .0728	24	1	100.0	1
02/24/24	14:19	-15.6	-15.6	-15.6	43	-25.3	8.7	E	0.14	9.6	E	-23.8	-15.7	-24.0	739.7	0.024	0.000	21.2	6	-17.9	18.0	1.55	 .0728	23	1	100.0	1
02/24/24	14:20	-15.6	-15.6	-15.6	42	-25.6	7.8	ENE	0.13	8.7	ENE	-23.4	-15.8	-23.6	739.7	0.024	0.000	21.2	6	-17.9	18.0	1.55	 .0728	23	1	100.0	1
02/24/24	14:21	-15.7	-15.6	-15.7	42	-25.7	8.7	ENE	0.14	9.6	E	-24.0	-15.9	-24.2	739.8	0.024	0.000	21.2	6	-17.9	18.0	1.55	 .0728	24	1	100.0	1
02/24/24	14:22	-15.7	-15.7	-15.7	42	-25.7	8.7	E	0.14	9.6	E	-24.0	-15.9	-24.2	739.8	0.024	0.000	21.3	6	-17.8	18.1	1.54	 .0728	23	1	100.0	1
02/24/24	14:23	-15.8	-15.7	-15.8	42	-25.8	8.7	ENE	0.14	9.6	ENE	-24.1	-15.9	-24.3	739.8	0.024	0.000	21.3	6	-17.8	18.1	1.54	 .0728	24	1	100.0	1
02/24/24	14:24	-15.8	-15.8	-15.8	42	-25.8	8.7	ENE	0.14	8.7	ENE	-24.1	-15.9	-24.3	739.8	0.024	0.000	21.3	6	-17.8	18.1	1.54	 .0728	23	1	100.0	1
02/24/24	14:25	-15.8	-15.8	-15.8	42	-25.8	7.8	ENE	0.13	8.7	ENE	-23.6	-15.9	-23.8	739.8	0.024	0.000	21.3	6	-17.8	18.1	1.54	 .0728	23	1	100.0	1
02/24/24	14:26	-15.8	-15.8	-15.8	42	-25.8	8.7	E	0.14	8.7	E	-24.1	-15.9	-24.3	739.8	0.024	0.000	21.3	6	-17.8	18.1	1.54	 .0728	24	1	100.0	1
02/24/24	14:27	-15.8	-15.8	-15.8	42	-25.8	8.7	E	0.14	9.6	E	-24.1	-15.9	-24.3	739.8	0.024	0.000	21.3	6	-17.8	18.1	1.54	 .0728	23	1	100.0	1
02/24/24	14:28	-15.8	-15.8	-15.8	42	-25.8	7.8	ENE	0.13	8.7	E	-23.6	-15.9	-23.8	739.8	0.024	0.000	21.3	6	-17.8	18.1	1.54	 .0728	24	1	100.0	1
02/24/24	14:29	-15.7	-15.7	-15.8	42	-25.7	7.8	ENE	0.13	8.7	ENE	-23.6	-15.9	-23.7	739.8	0.024	0.000	21.3	6	-17.8	18.1	1.54	 .0728	23	1	100.0	1
02/24/24	14:30	-15.7	-15.7	-15.7	42	-25.7	8.7	E	0.14	8.7	E	-24.0	-15.9	-24.2	739.8	0.024	0.000	21.2	6	-17.9	18.0	1.55	 .0728	23	1	100.0	1
02/24/24	14:31	-15.7	-15.7	-15.7	42	-25.7	7.8	E	0.13	8.7	E	-23.5	-15.8	-23.7	739.8	0.024	0.000	21.3	6	-17.8	18.1	1.54	 .0728	24	1	100.0	1
02/24/24	14:32	-15.6	-15.6	-15.7	42	-25.6	7.8	E	0.13	8.7	E	-23.4	-15.8	-23.6	739.8	0.024	0.000	21.2	6	-17.9	18.0	1.55	 .0728	23	1	100.0	1
02/24/24	14:33	-15.4	-15.4	-15.6	42	-25.5	7.8	E	0.13	8.7	E	-23.2	-15.6	-23.4	739.8	0.023	0.000	21.2	6	-17.9	18.0	1.55	 .0728	24	1	100.0	1
02/24/24	14:34	-15.3	-15.3	-15.4	41	-25.6	7.0	ENE	0.12	7.8	E	-22.6	-15.5	-22.8	739.8	0.023	0.000	21.2	6	-17.9	18.0	1.55	 .0728	23	1	100.0	1
02/24/24	14:35	-15.2	-15.2	-15.3	40	-25.8	7.8	E	0.13	7.8	ENE	-22.9	-15.4	-23.2	739.8	0.023	0.000	21.2	6	-17.9	18.0	1.55	 .0728	24	1	100.0	1
02/24/24	14:36	-15.1	-15.1	-15.2	40	-25.7	7.8	E	0.13	8.7	ESE	-22.8	-15.3	-23.1	739.8	0.023	0.000	21.2	6	-17.9	17.9	1.55	 .0728	23	1	100.0	1
02/24/24	14:37	-15.0	-15.0	-15.1	40	-25.6	7.8	E	0.13	8.7	E	-22.7	-15.2	-22.9	739.9	0.023	0.000	21.2	6	-17.9	17.9	1.55	 .0728	23	1	100.0	1
02/24/24	14:38	-14.9	-14.9	-15.0	40	-25.6	7.8	E	0.13	8.7	E	-22.6	-15.2	-22.8	739.8	0.023	0.000	21.2	6	-17.9	17.9	1.55	 .0728	24	1	100.0	1
02/24/24	14:39	-14.8	-14.8	-14.9	39	-25.7	7.0	E	0.12	7.8	E	-22.0	-15.1	-22.2	739.8	0.023	0.000	21.1	6	-18.0	17.8	1.55	 .0728	23	1	100.0	1
02/24/24	14:40	-14.8	-14.8	-14.8	39	-25.7	7.8	E	0.13	8.7	ESE	-22.5	-15.1	-22.7	739.7	0.023	0.000	21.1	6	-18.0	17.8	1.55	 .0728	24	1	100.0	1
02/24/24	14:41	-14.8	-14.8	-14.8	39	-25.7	7.0	E	0.12	7.8	ESE	-22.0	-15.1	-22.2	739.8	0.023	0.000	21.1	6	-18.0	17.8	1.55	 .0728	23	1	100.0	1
02/24/24	14:42	-14.8	-14.8	-14.8	39	-25.7	7.0	E	0.12	8.7	E	-22.0	-15.1	-22.2	739.8	0.023	0.000	21.1	6	-18.0	17.8	1.55	 .0728	23	1	100.0	1
02/24/24	14:43	-14.8	-14.8	-14.8	39	-25.7	7.8	E	0.13	9.6	E	-22.5	-15.1	-22.7	739.8	0.023	0.000	21.1	6	-18.0	17.8	1.55	 .0728	24	1	100.0	1
02/24/24	14:44	-14.8	-14.8	-14.8	39	-25.7	7.8	E	0.13	8.7	E	-22.5	-15.1	-22.7	739.7	0.023	0.000	21.1	6	-18.0	17.8	1.55	 .0728	23	1	100.0	1
02/24/24	14:45	-14.8	-14.8	-14.8	39	-25.7	7.8	E	0.13	8.7	E	-22.5	-15.1	-22.7	739.8	0.023	0.000	21.1	6	-18.0	17.8	1.55	 .0728	24	1	100.0	1
02/24/24	14:46	-14.8	-14.8	-14.8	38	-26.0	7.0	E	0.12	7.8	E	-21.9	-15.0	-22.1	739.8	0.023	0.000	21.1	6	-18.0	17.8	1.55	 .0728	23	1	100.0	1
02/24/24	14:47	-14.7	-14.7	-14.8	38	-25.9	7.8	E	0.13	8.7	E	-22.3	-14.9	-22.6	739.8	0.023	0.000	21.0	6	-18.0	17.7	1.55	 .0729	24	1	100.0	1
02/24/24	14:48	-14.7	-14.7	-14.7	38	-25.9	7.8	E	0.13	7.8	E	-22.3	-14.9	-22.5	739.8	0.023	0.000	21.1	6	-18.0	17.8	1.55	 .0728	23	1	100.0	1
02/24/24	14:49	-14.6	-14.6	-14.7	38	-25.8	7.8	E	0.13	8.7	E	-22.2	-14.8	-22.4	739.8	0.023	0.000	21.0	6	-18.0	17.7	1.55	 .0729	23	1	100.0	1
02/24/24	14:50	-14.6	-14.6	-14.6	38	-25.8	7.0	E	0.12	7.8	E	-21.7	-14.8	-21.9	739.8	0.023	0.000	21.0	6	-18.0	17.7	1.55	 .0729	24	1	100.0	1
02/24/24	14:51	-14.5	-14.5	-14.6	38	-25.7	7.0	E	0.12	7.8	E	-21.6	-14.7	-21.8	739.8	0.023	0.000	21.0	6	-18.0	17.7	1.55	 .0729	23	1	100.0	1
02/24/24	14:52	-14.4	-14.4	-14.5	37	-26.0	7.0	E	0.12	7.8	E	-21.5	-14.7	-21.7	739.8	0.023	0.000	21.0	6	-18.0	17.7	1.55	 .0729	24	1	100.0	1
02/24/24	14:53	-14.4	-14.4	-14.4	37	-25.9	7.0	E	0.12	7.8	E	-21.4	-14.6	-21.7	739.8	0.023	0.000	21.0	6	-18.0	17.7	1.55	 .0729	23	1	100.0	1
02/24/24	14:54	-14.4	-14.4	-14.4	37	-25.9	7.0	E	0.12	7.8	E	-21.4	-14.6	-21.7	739.8	0.023	0.000	21.1	6	-18.0	17.8	1.55	 .0728	23	1	100.0	1
02/24/24	14:55	-14.4	-14.3	-14.4	37	-25.9	7.0	E	0.12	7.8	E	-21.4	-14.6	-21.7	739.8	0.023	0.000	21.1	6	-18.0	17.8	1.55	 .0728	24	1	100.0	1
02/24/24	14:56	-14.4	-14.4	-14.4	37	-26.0	7.0	E	0.12	7.0	E	-21.5	-14.7	-21.7	739.8	0.023	0.000	21.0	6	-18.0	17.7	1.55	 .0729	23	1	100.0	1
02/24/24	14:57	-14.5	-14.4	-14.5	37	-26.0	7.0	E	0.12	7.8	E	-21.6	-14.7	-21.8	739.8	0.023	0.000	21.1	6	-18.0	17.8	1.55	 .0728	24	1	100.0	1
02/24/24	14:58	-14.6	-14.5	-14.6	37	-26.1	7.0	E	0.12	7.8	E	-21.7	-14.8	-21.9	739.8	0.023	0.000	21.1	6	-18.0	17.8	1.55	 .0728	23	1	100.0	1
02/24/24	14:59	-14.6	-14.6	-14.6	37	-26.1	7.0	E	0.12	7.8	E	-21.7	-14.8	-21.9	739.8	0.023	0.000	21.1	6	-18.0	17.8	1.55	 .0728	24	1	100.0	1
02/24/24	15:00	-14.7	-14.6	-14.7	37	-26.2	7.0	E	0.12	7.8	E	-21.8	-14.9	-22.0	739.8	0.023	0.000	21.1	6	-18.0	17.8	1.55	 .0728	23	1	100.0	1
02/24/24	15:01	-14.7	-14.7	-14.7	37	-26.2	7.0	E	0.12	7.8	E	-21.8	-14.9	-22.0	739.8	0.023	0.000	21.1	6	-18.0	17.8	1.55	 .0728	23	1	100.0	1
02/24/24	15:02	-14.7	-14.7	-14.7	37	-26.2	7.8	E	0.13	8.7	E	-22.3	-14.9	-22.6	739.8	0.023	0.000	21.1	6	-18.0	17.8	1.55	 .0728	24	1	100.0	1
02/24/24	15:03	-14.7	-14.7	-14.7	37	-26.2	7.8	E	0.13	7.8	E	-22.3	-14.9	-22.6	739.8	0.023	0.000	21.1	6	-18.0	17.8	1.55	 .0728	23	1	100.0	1
02/24/24	15:04	-14.7	-14.7	-14.7	37	-26.2	7.8	E	0.13	8.7	E	-22.3	-14.9	-22.6	739.8	0.023	0.000	21.1	6	-18.0	17.8	1.55	 .0728	24	1	100.0	1
02/24/24	15:05	-14.7	-14.7	-14.7	37	-26.2	7.8	E	0.13	7.8	E	-22.3	-14.9	-22.6	739.8	0.023	0.000	21.1	6	-18.0	17.8	1.55	 .0728	23	1	100.0	1
02/24/24	15:06	-14.7	-14.7	-14.7	37	-26.2	7.0	E	0.12	7.8	E	-21.8	-14.9	-22.1	739.8	0.023	0.000	21.1	6	-18.0	17.8	1.55	 .0728	23	1	100.0	1
02/24/24	15:07	-14.7	-14.7	-14.8	37	-26.2	7.0	E	0.12	7.0	E	-21.8	-14.9	-22.1	739.7	0.023	0.000	21.1	6	-18.0	17.8	1.55	 .0728	24	1	100.0	1
02/24/24	15:08	-14.8	-14.8	-14.8	37	-26.3	7.0	E	0.12	7.0	E	-21.9	-15.0	-22.1	739.8	0.023	0.000	21.1	6	-18.0	17.8	1.55	 .0728	23	1	100.0	1
02/24/24	15:09	-14.8	-14.8	-14.8	37	-26.3	7.0	E	0.12	7.8	E	-22.0	-15.1	-22.2	739.8	0.023	0.000	21.1	6	-18.0	17.8	1.55	 .0728	24	1	100.0	1
02/24/24	15:10	-14.9	-14.8	-14.9	37	-26.4	7.8	E	0.13	8.7	E	-22.6	-15.2	-22.8	739.8	0.023	0.000	21.1	6	-18.0	17.8	1.55	 .0728	23	1	100.0	1
02/24/24	15:11	-14.9	-14.9	-14.9	37	-26.4	7.8	E	0.13	7.8	E	-22.6	-15.2	-22.8	739.8	0.023	0.000	21.1	6	-18.0	17.8	1.55	 .0728	24	1	100.0	1
02/24/24	15:12	-14.9	-14.9	-14.9	37	-26.4	7.8	E	0.13	8.7	E	-22.6	-15.2	-22.8	739.8	0.023	0.000	21.2	6	-17.9	17.9	1.55	 .0728	23	1	100.0	1
02/24/24	15:13	-14.9	-14.9	-14.9	37	-26.4	7.8	E	0.13	8.7	E	-22.6	-15.2	-22.8	739.8	0.023	0.000	21.2	6	-17.9	17.9	1.55	 .0728	23	1	100.0	1
02/24/24	15:14	-14.9	-14.9	-14.9	37	-26.4	7.8	E	0.13	7.8	E	-22.6	-15.2	-22.8	739.8	0.023	0.000	21.2	6	-17.9	17.9	1.55	 .0728	24	1	100.0	1
02/24/24	15:15	-14.9	-14.9	-14.9	37	-26.4	7.8	E	0.13	7.8	E	-22.6	-15.1	-22.8	739.8	0.023	0.000	21.2	6	-17.9	17.9	1.55	 .0728	23	1	100.0	1
02/24/24	15:16	-14.8	-14.8	-14.9	37	-26.3	7.0	E	0.12	7.8	E	-22.0	-15.1	-22.2	739.8	0.023	0.000	21.2	6	-17.9	17.9	1.55	 .0728	24	1	100.0	1
02/24/24	15:17	-14.8	-14.8	-14.8	37	-26.3	7.0	E	0.12	7.8	E	-22.0	-15.1	-22.2	739.8	0.023	0.000	21.2	6	-17.9	17.9	1.55	 .0728	23	1	100.0	1
02/24/24	15:18	-14.8	-14.8	-14.8	37	-26.3	7.0	E	0.12	7.8	E	-22.0	-15.1	-22.2	739.8	0.023	0.000	21.2	6	-17.9	17.9	1.55	 .0728	23	1	100.0	1
02/24/24	15:19	-14.8	-14.8	-14.8	37	-26.3	7.0	E	0.12	8.7	E	-22.0	-15.1	-22.2	739.8	0.023	0.000	21.2	6	-17.9	18.0	1.55	 .0728	24	1	100.0	1
02/24/24	15:20	-14.8	-14.8	-14.8	37	-26.3	7.8	E	0.13	8.7	E	-22.5	-15.1	-22.7	739.8	0.023	0.000	21.2	6	-17.9	17.9	1.55	 .0728	23	1	100.0	1
02/24/24	15:21	-14.8	-14.8	-14.8	37	-26.3	7.8	E	0.13	8.7	ESE	-22.5	-15.1	-22.7	739.8	0.023	0.000	21.2	6	-17.9	17.9	1.55	 .0728	24	1	100.0	1
02/24/24	15:22	-14.8	-14.8	-14.8	37	-26.3	7.0	E	0.12	7.8	E	-22.0	-15.1	-22.2	739.8	0.023	0.000	21.2	6	-17.9	17.9	1.55	 .0728	23	1	100.0	1
02/24/24	15:23	-14.9	-14.8	-14.9	37	-26.4	7.0	E	0.12	7.0	E	-22.1	-15.1	-22.3	739.8	0.023	0.000	21.2	6	-17.9	17.9	1.55	 .0728	23	1	100.0	1
02/24/24	15:24	-14.9	-14.9	-14.9	37	-26.4	7.0	E	0.12	8.7	E	-22.1	-15.1	-22.3	739.8	0.023	0.000	21.2	6	-17.9	17.9	1.55	 .0728	24	1	100.0	1
02/24/24	15:25	-14.9	-14.9	-14.9	37	-26.4	7.0	E	0.12	7.8	E	-22.1	-15.1	-22.3	739.8	0.023	0.000	21.2	6	-17.9	17.9	1.55	 .0728	23	1	100.0	1
02/24/24	15:26	-14.9	-14.9	-14.9	37	-26.4	7.0	E	0.12	7.8	E	-22.1	-15.2	-22.3	739.8	0.023	0.000	21.2	6	-17.9	17.9	1.55	 .0728	24	1	100.0	1
02/24/24	15:27	-15.0	-14.9	-15.0	37	-26.5	7.8	ESE	0.13	8.7	ESE	-22.7	-15.2	-22.9	739.8	0.023	0.000	21.2	6	-17.9	17.9	1.55	 .0728	23	1	100.0	1
02/24/24	15:28	-15.0	-15.0	-15.0	38	-26.2	7.8	ESE	0.13	8.7	ESE	-22.7	-15.2	-22.9	739.8	0.023	0.000	21.2	6	-17.9	17.9	1.55	 .0728	24	1	100.0	1
02/24/24	15:29	-15.1	-15.0	-15.1	38	-26.2	7.0	E	0.12	7.8	E	-22.3	-15.3	-22.5	739.8	0.023	0.000	21.2	6	-17.9	17.9	1.55	 .0728	23	1	100.0	1
02/24/24	15:30	-15.1	-15.1	-15.1	38	-26.2	7.0	E	0.12	7.8	E	-22.3	-15.3	-22.5	739.8	0.023	0.000	21.2	6	-17.9	17.9	1.55	 .0728	23	1	100.0	1
02/24/24	15:31	-15.1	-15.1	-15.1	38	-26.3	7.0	E	0.12	7.8	E	-22.3	-15.3	-22.6	739.8	0.023	0.000	21.1	6	-18.0	17.8	1.55	 .0728	24	1	100.0	1
02/24/24	15:32	-15.2	-15.1	-15.2	38	-26.3	7.8	E	0.13	7.8	E	-22.9	-15.4	-23.1	739.8	0.023	0.000	21.1	6	-18.0	17.8	1.55	 .0728	23	1	100.0	1
02/24/24	15:33	-15.2	-15.2	-15.2	38	-26.3	7.8	E	0.13	7.8	E	-22.9	-15.4	-23.1	739.8	0.023	0.000	21.1	6	-18.0	17.8	1.55	 .0728	24	1	100.0	1
02/24/24	15:34	-15.2	-15.2	-15.2	38	-26.4	7.8	E	0.13	7.8	E	-22.9	-15.4	-23.2	739.7	0.023	0.000	21.1	6	-18.0	17.8	1.55	 .0728	23	1	100.0	1
02/24/24	15:35	-15.2	-15.2	-15.2	38	-26.4	7.8	E	0.13	8.7	E	-22.9	-15.4	-23.2	739.7	0.023	0.000	21.1	6	-18.0	17.8	1.55	 .0728	23	1	100.0	1
02/24/24	15:36	-15.3	-15.2	-15.3	38	-26.4	7.8	E	0.13	8.7	E	-23.0	-15.5	-23.2	739.8	0.023	0.000	21.1	6	-18.0	17.8	1.55	 .0728	24	1	100.0	1
02/24/24	15:37	-15.3	-15.3	-15.3	38	-26.4	7.8	ESE	0.13	8.7	ESE	-23.0	-15.5	-23.2	739.8	0.023	0.000	21.1	6	-18.0	17.8	1.55	 .0728	23	1	100.0	1
02/24/24	15:38	-15.3	-15.3	-15.3	39	-26.1	7.8	ESE	0.13	8.7	ESE	-23.0	-15.5	-23.2	739.8	0.023	0.000	21.1	6	-18.0	17.8	1.55	 .0728	24	1	100.0	1
02/24/24	15:39	-15.3	-15.3	-15.3	39	-26.2	7.0	ESE	0.12	7.8	E	-22.6	-15.6	-22.8	739.8	0.023	0.000	21.1	6	-18.0	17.8	1.55	 .0728	23	1	100.0	1
02/24/24	15:40	-15.4	-15.3	-15.4	39	-26.2	7.0	ESE	0.12	7.8	E	-22.7	-15.6	-22.8	739.8	0.023	0.000	21.1	6	-18.0	17.8	1.55	 .0728	24	1	100.0	1
02/24/24	15:41	-15.4	-15.4	-15.4	39	-26.2	7.0	ESE	0.12	7.8	ESE	-22.7	-15.6	-22.8	739.7	0.023	0.000	21.1	6	-18.0	17.8	1.55	 .0728	23	1	100.0	1
02/24/24	15:42	-15.3	-15.3	-15.4	39	-26.2	7.0	ESE	0.12	7.8	ESE	-22.6	-15.6	-22.8	739.8	0.023	0.000	21.1	6	-18.0	17.8	1.55	 .0728	23	1	100.0	1
02/24/24	15:43	-15.3	-15.3	-15.3	39	-26.2	7.0	ESE	0.12	7.8	ESE	-22.6	-15.6	-22.8	739.7	0.023	0.000	21.1	6	-18.0	17.8	1.55	 .0728	24	1	100.0	1
02/24/24	15:44	-15.3	-15.3	-15.3	39	-26.2	7.0	ESE	0.12	7.8	ESE	-22.6	-15.6	-22.8	739.8	0.023	0.000	21.1	6	-18.0	17.8	1.55	 .0728	23	1	100.0	1
02/24/24	15:45	-15.4	-15.3	-15.4	39	-26.2	7.0	ESE	0.12	7.8	ESE	-22.7	-15.6	-22.8	739.8	0.023	0.000	21.1	6	-18.0	17.8	1.55	 .0728	24	1	100.0	1
02/24/24	15:46	-15.3	-15.3	-15.3	39	-26.2	7.0	ESE	0.12	7.8	ESE	-22.6	-15.6	-22.8	739.7	0.023	0.000	21.1	6	-18.0	17.8	1.55	 .0728	23	1	100.0	1
02/24/24	15:47	-15.3	-15.3	-15.3	39	-26.2	7.0	ESE	0.12	7.8	ESE	-22.6	-15.6	-22.8	739.7	0.023	0.000	21.1	6	-18.0	17.8	1.55	 .0728	23	1	100.0	1
02/24/24	15:48	-15.4	-15.3	-15.4	39	-26.2	7.0	ESE	0.12	7.8	ESE	-22.7	-15.6	-22.8	739.7	0.023	0.000	21.1	6	-18.0	17.8	1.55	 .0728	24	1	100.0	1
02/24/24	15:49	-15.4	-15.4	-15.4	39	-26.3	7.0	ESE	0.12	7.8	ESE	-22.7	-15.6	-22.9	739.8	0.023	0.000	21.1	6	-18.0	17.8	1.55	 .0728	23	1	100.0	1
02/24/24	15:50	-15.5	-15.4	-15.5	39	-26.3	7.0	ESE	0.12	7.8	ESE	-22.8	-15.7	-22.9	739.8	0.023	0.000	21.1	6	-18.0	17.8	1.55	 .0728	24	1	100.0	1
02/24/24	15:51	-15.5	-15.5	-15.5	39	-26.3	7.0	ESE	0.12	7.8	ESE	-22.8	-15.7	-22.9	739.7	0.023	0.000	21.1	6	-18.0	17.8	1.55	 .0728	23	1	100.0	1
02/24/24	15:52	-15.6	-15.6	-15.6	39	-26.4	7.0	ESE	0.12	7.8	ESE	-22.9	-15.7	-23.1	739.8	0.024	0.000	21.1	6	-18.0	17.8	1.55	 .0728	23	1	100.0	1
02/24/24	15:53	-15.6	-15.6	-15.6	39	-26.4	7.8	ESE	0.13	8.7	ESE	-23.4	-15.7	-23.6	739.7	0.024	0.000	21.1	6	-18.0	17.8	1.55	 .0728	24	1	100.0	1
02/24/24	15:54	-15.5	-15.5	-15.6	39	-26.3	7.0	ESE	0.12	7.8	ESE	-22.8	-15.7	-22.9	739.7	0.023	0.000	21.1	6	-18.0	17.8	1.55	 .0728	23	1	100.0	1
02/24/24	15:55	-15.4	-15.4	-15.5	39	-26.3	7.0	ESE	0.12	7.8	ESE	-22.7	-15.6	-22.9	739.7	0.023	0.000	21.1	6	-18.0	17.8	1.55	 .0728	24	1	100.0	1
02/24/24	15:56	-15.4	-15.4	-15.4	39	-26.2	7.0	ESE	0.12	7.8	ESE	-22.7	-15.6	-22.8	739.7	0.023	0.000	21.1	6	-18.0	17.8	1.55	 .0728	23	1	100.0	1
02/24/24	15:57	-15.4	-15.4	-15.4	39	-26.2	7.0	ESE	0.12	7.8	ESE	-22.7	-15.6	-22.8	739.7	0.023	0.000	21.1	6	-18.0	17.8	1.55	 .0728	24	1	100.0	1
02/24/24	15:58	-15.5	-15.4	-15.5	39	-26.3	7.0	ESE	0.12	7.8	ESE	-22.8	-15.7	-22.9	739.7	0.023	0.000	21.1	6	-18.0	17.8	1.55	 .0728	23	1	100.0	1
02/24/24	15:59	-15.6	-15.5	-15.6	39	-26.4	7.8	ESE	0.13	7.8	E	-23.4	-15.7	-23.6	739.7	0.024	0.000	21.1	6	-18.0	17.8	1.55	 .0728	23	1	100.0	1
02/24/24	16:00	-15.6	-15.6	-15.6	39	-26.4	7.8	ESE	0.13	9.6	ESE	-23.4	-15.8	-23.6	739.7	0.024	0.000	21.2	6	-17.9	17.9	1.55	 .0728	24	1	100.0	1
02/24/24	16:01	-15.6	-15.6	-15.6	39	-26.4	7.8	ESE	0.13	8.7	ESE	-23.4	-15.7	-23.6	739.7	0.024	0.000	21.1	6	-18.0	17.8	1.55	 .0728	23	1	100.0	1
02/24/24	16:02	-15.5	-15.5	-15.6	39	-26.3	8.7	ESE	0.14	9.6	ESE	-23.8	-15.7	-23.9	739.7	0.023	0.000	21.2	6	-17.9	17.9	1.55	 .0728	24	1	100.0	1
02/24/24	16:03	-15.4	-15.4	-15.4	39	-26.2	8.7	ESE	0.14	9.6	ESE	-23.6	-15.6	-23.8	739.7	0.023	0.000	21.2	6	-17.9	17.9	1.55	 .0728	23	1	100.0	1
02/24/24	16:04	-15.3	-15.3	-15.4	39	-26.2	8.7	ESE	0.14	9.6	ESE	-23.6	-15.6	-23.8	739.7	0.023	0.000	21.2	6	-17.9	17.9	1.55	 .0728	23	1	100.0	1
02/24/24	16:05	-15.3	-15.3	-15.3	39	-26.2	8.7	ESE	0.14	9.6	ESE	-23.6	-15.6	-23.8	739.6	0.023	0.000	21.2	6	-17.9	17.9	1.55	 .0728	24	1	100.0	1
02/24/24	16:06	-15.4	-15.3	-15.4	39	-26.2	8.7	ESE	0.14	9.6	ESE	-23.6	-15.6	-23.8	739.6	0.023	0.000	21.2	6	-17.9	17.9	1.55	 .0728	23	1	100.0	1
02/24/24	16:07	-15.4	-15.4	-15.4	39	-26.3	9.6	ESE	0.16	10.4	ESE	-24.1	-15.6	-24.3	739.6	0.023	0.000	21.2	6	-17.9	17.9	1.55	 .0728	24	1	100.0	1
02/24/24	16:08	-15.5	-15.4	-15.5	39	-26.3	10.4	ESE	0.17	12.2	ESE	-24.6	-15.7	-24.7	739.6	0.023	0.000	21.2	6	-17.9	17.9	1.55	 .0728	23	1	100.0	1
02/24/24	16:09	-15.4	-15.4	-15.5	39	-26.2	10.4	ESE	0.17	13.0	ESE	-24.4	-15.6	-24.6	739.6	0.023	0.000	21.2	6	-17.9	17.9	1.55	 .0728	24	1	100.0	1
02/24/24	16:10	-15.3	-15.3	-15.4	39	-26.1	10.4	ESE	0.17	11.3	ESE	-24.3	-15.5	-24.5	739.6	0.023	0.000	21.2	6	-17.9	17.9	1.55	 .0728	23	1	100.0	1
02/24/24	16:11	-15.3	-15.3	-15.3	39	-26.1	10.4	ESE	0.17	12.2	ESE	-24.3	-15.5	-24.5	739.5	0.023	0.000	21.2	6	-17.9	17.9	1.55	 .0728	23	1	100.0	1
02/24/24	16:12	-15.0	-15.0	-15.2	39	-25.9	11.3	ESE	0.19	12.2	ESE	-24.3	-15.2	-24.5	739.6	0.023	0.000	21.2	6	-17.9	18.0	1.55	 .0728	24	1	100.0	1
02/24/24	16:13	-14.7	-14.7	-14.9	38	-25.9	11.3	ESE	0.19	12.2	ESE	-23.9	-14.9	-24.1	739.5	0.023	0.000	21.2	6	-17.9	18.0	1.55	 .0728	23	1	100.0	1
02/24/24	16:14	-14.7	-14.7	-14.7	37	-26.2	11.3	ESE	0.19	13.9	ESE	-23.9	-14.9	-24.1	739.5	0.023	0.000	21.2	6	-17.9	17.9	1.55	 .0728	24	1	100.0	1
02/24/24	16:15	-14.4	-14.4	-14.6	37	-26.0	11.3	ESE	0.19	13.0	ESE	-23.6	-14.7	-23.8	739.5	0.023	0.000	21.2	6	-17.9	17.9	1.55	 .0728	23	1	100.0	1
02/24/24	16:16	-14.4	-14.4	-14.4	36	-26.3	10.4	ESE	0.17	11.3	ESE	-23.2	-14.7	-23.4	739.5	0.023	0.000	21.2	6	-17.9	17.9	1.55	 .0728	23	1	100.0	1
02/24/24	16:17	-14.5	-14.4	-14.5	36	-26.3	11.3	ESE	0.19	12.2	ESE	-23.7	-14.7	-23.9	739.5	0.023	0.000	21.2	6	-17.9	17.9	1.55	 .0728	24	1	100.0	1
02/24/24	16:18	-14.7	-14.5	-14.7	36	-26.5	10.4	ESE	0.17	12.2	ESE	-23.5	-14.9	-23.7	739.5	0.023	0.000	21.2	6	-17.9	17.9	1.55	 .0728	23	1	100.0	1
02/24/24	16:19	-14.8	-14.7	-14.8	36	-26.6	10.4	ESE	0.17	11.3	ESE	-23.7	-15.1	-23.9	739.5	0.023	0.000	21.2	6	-17.9	17.9	1.55	 .0728	24	1	100.0	1
02/24/24	16:20	-14.8	-14.8	-14.9	36	-26.6	11.3	ESE	0.19	12.2	ESE	-24.1	-15.1	-24.3	739.5	0.023	0.000	21.2	6	-17.9	17.9	1.55	 .0728	23	1	100.0	1
02/24/24	16:21	-15.0	-14.9	-15.0	37	-26.5	12.2	ESE	0.20	15.7	ESE	-24.6	-15.2	-24.8	739.5	0.023	0.000	21.2	6	-17.9	17.9	1.55	 .0728	24	1	100.0	1
02/24/24	16:22	-14.8	-14.8	-15.0	37	-26.3	13.0	ESE	0.22	15.7	ESE	-24.7	-15.1	-24.9	739.5	0.023	0.000	21.2	6	-17.9	17.9	1.55	 .0728	23	1	100.0	1
02/24/24	16:23	-14.7	-14.7	-14.8	37	-26.2	11.3	ESE	0.19	12.2	ESE	-23.9	-14.9	-24.2	739.5	0.023	0.000	21.2	6	-17.9	17.9	1.55	 .0728	23	1	100.0	1
02/24/24	16:24	-14.7	-14.7	-14.7	36	-26.5	11.3	ESE	0.19	12.2	ESE	-23.9	-14.9	-24.1	739.5	0.023	0.000	21.1	6	-18.0	17.8	1.55	 .0728	24	1	100.0	1
02/24/24	16:25	-14.8	-14.7	-14.8	36	-26.6	11.3	ESE	0.19	12.2	ESE	-24.0	-15.0	-24.2	739.5	0.023	0.000	21.1	6	-18.0	17.8	1.55	 .0728	23	1	100.0	1
02/24/24	16:26	-14.8	-14.8	-14.8	36	-26.6	10.4	ESE	0.17	11.3	ESE	-23.7	-15.1	-23.9	739.5	0.023	0.000	21.1	6	-18.0	17.8	1.55	 .0728	24	1	100.0	1
02/24/24	16:27	-14.9	-14.9	-14.9	36	-26.7	10.4	ESE	0.17	10.4	ESE	-23.8	-15.2	-24.1	739.5	0.023	0.000	21.1	6	-18.0	17.8	1.55	 .0728	23	1	100.0	1
02/24/24	16:28	-15.1	-14.9	-15.1	37	-26.5	10.4	ESE	0.17	11.3	ESE	-24.0	-15.3	-24.2	739.5	0.023	0.000	21.1	6	-18.0	17.8	1.55	 .0728	23	1	100.0	1
02/24/24	16:29	-15.2	-15.1	-15.2	37	-26.6	11.3	ESE	0.19	11.3	ESE	-24.5	-15.4	-24.7	739.5	0.023	0.000	21.1	6	-18.0	17.8	1.55	 .0728	24	1	100.0	1
02/24/24	16:30	-15.3	-15.2	-15.3	37	-26.7	12.2	ESE	0.20	12.2	ESE	-25.0	-15.5	-25.2	739.5	0.023	0.000	21.1	6	-18.0	17.8	1.55	 .0728	23	1	100.0	1
02/24/24	16:31	-15.4	-15.3	-15.4	37	-26.9	11.3	ESE	0.19	12.2	ESE	-24.8	-15.7	-25.1	739.5	0.023	0.000	21.1	6	-18.0	17.8	1.55	 .0728	24	1	100.0	1
02/24/24	16:32	-15.5	-15.4	-15.6	38	-26.6	11.3	ESE	0.19	12.2	ESE	-24.9	-15.7	-25.1	739.5	0.023	0.000	21.1	6	-18.0	17.8	1.55	 .0728	23	1	100.0	1
02/24/24	16:33	-15.4	-15.4	-15.5	38	-26.6	11.3	ESE	0.19	12.2	ESE	-24.8	-15.7	-25.1	739.5	0.023	0.000	21.1	6	-18.0	17.8	1.55	 .0728	23	1	100.0	1
02/24/24	16:34	-15.3	-15.3	-15.4	38	-26.5	11.3	ESE	0.19	12.2	ESE	-24.7	-15.6	-24.9	739.5	0.023	0.000	21.1	6	-18.0	17.8	1.55	 .0728	24	1	100.0	1
02/24/24	16:35	-15.4	-15.3	-15.4	38	-26.5	11.3	ESE	0.19	12.2	ESE	-24.8	-15.6	-25.0	739.5	0.023	0.000	21.1	6	-18.0	17.8	1.55	 .0728	23	1	100.0	1
02/24/24	16:36	-15.4	-15.4	-15.4	38	-26.6	11.3	ESE	0.19	12.2	ESE	-24.8	-15.7	-25.1	739.5	0.023	0.000	21.1	6	-18.0	17.8	1.55	 .0728	24	1	100.0	1
02/24/24	16:37	-15.4	-15.4	-15.5	38	-26.6	11.3	ESE	0.19	12.2	ESE	-24.8	-15.7	-25.1	739.4	0.023	0.000	21.1	6	-18.0	17.8	1.55	 .0728	23	1	100.0	1
02/24/24	16:38	-15.5	-15.4	-15.5	38	-26.6	12.2	ESE	0.20	12.2	ESE	-25.3	-15.7	-25.4	739.4	0.023	0.000	21.1	6	-18.0	17.8	1.55	 .0728	24	1	100.0	1
02/24/24	16:39	-15.6	-15.5	-15.6	38	-26.7	12.2	ESE	0.20	12.2	ESE	-25.4	-15.8	-25.6	739.4	0.024	0.000	21.1	6	-18.0	17.8	1.55	 .0728	23	1	100.0	1
02/24/24	16:40	-15.7	-15.6	-15.7	39	-26.5	12.2	ESE	0.20	13.0	ESE	-25.6	-15.9	-25.7	739.4	0.024	0.000	21.1	6	-18.0	17.8	1.55	 .0728	23	1	100.0	1
02/24/24	16:41	-15.8	-15.7	-15.8	39	-26.6	12.2	ESE	0.20	13.0	ESE	-25.6	-15.9	-25.8	739.4	0.024	0.000	21.1	6	-18.0	17.8	1.55	 .0728	24	1	100.0	1
02/24/24	16:42	-15.8	-15.8	-15.8	39	-26.6	12.2	ESE	0.20	13.0	ESE	-25.7	-16.0	-25.8	739.4	0.024	0.000	21.1	6	-18.0	17.8	1.55	 .0728	23	1	100.0	1
02/24/24	16:43	-15.9	-15.8	-15.9	39	-26.7	12.2	ESE	0.20	13.0	ESE	-25.8	-16.1	-25.9	739.4	0.024	0.000	21.1	6	-18.0	17.8	1.55	 .0728	24	1	100.0	1
02/24/24	16:44	-15.9	-15.9	-15.9	39	-26.7	13.0	ESE	0.22	13.0	ESE	-26.1	-16.1	-26.2	739.4	0.024	0.000	21.1	6	-18.0	17.8	1.55	 .0728	23	1	100.0	1
02/24/24	16:45	-15.9	-15.9	-15.9	39	-26.7	13.0	ESE	0.22	13.9	ESE	-26.2	-16.1	-26.3	739.4	0.024	0.000	21.1	6	-18.0	17.8	1.55	 .0728	23	1	100.0	1
02/24/24	16:46	-15.9	-15.9	-15.9	39	-26.7	13.9	ESE	0.23	13.9	ESE	-26.4	-16.1	-26.6	739.4	0.024	0.000	21.1	6	-18.0	17.8	1.55	 .0728	24	1	100.0	1
02/24/24	16:47	-15.8	-15.8	-15.9	40	-26.4	13.0	ESE	0.22	13.9	ESE	-26.0	-16.0	-26.2	739.4	0.024	0.000	21.1	6	-18.0	17.8	1.55	 .0728	23	1	100.0	1
02/24/24	16:48	-15.8	-15.8	-15.8	39	-26.6	13.9	ESE	0.23	13.9	ESE	-26.2	-15.9	-26.4	739.4	0.024	0.000	21.1	6	-18.0	17.8	1.55	 .0728	24	1	100.0	1
02/24/24	16:49	-15.8	-15.8	-15.8	39	-26.6	13.9	ESE	0.23	14.8	ESE	-26.2	-15.9	-26.4	739.4	0.024	0.000	21.1	6	-18.0	17.8	1.55	 .0728	23	1	100.0	1
02/24/24	16:50	-15.7	-15.7	-15.8	39	-26.5	15.7	ESE	0.26	17.4	ESE	-26.7	-15.8	-26.8	739.4	0.024	0.000	21.2	6	-17.9	17.9	1.55	 .0728	24	1	100.0	1
02/24/24	16:51	-15.4	-15.4	-15.6	39	-26.3	13.9	ESE	0.23	14.8	ESE	-25.8	-15.6	-26.0	739.3	0.023	0.000	21.2	6	-17.9	17.9	1.55	 .0728	23	1	100.0	1
02/24/24	16:52	-15.3	-15.3	-15.4	39	-26.2	13.9	ESE	0.23	14.8	ESE	-25.7	-15.6	-25.9	739.3	0.023	0.000	21.2	6	-17.9	17.9	1.55	 .0728	23	1	100.0	1
02/24/24	16:53	-15.4	-15.3	-15.4	39	-26.2	14.8	ESE	0.25	14.8	ESE	-26.0	-15.6	-26.2	739.3	0.023	0.000	21.2	6	-17.9	17.9	1.55	 .0728	24	1	100.0	1
02/24/24	16:54	-15.3	-15.3	-15.4	39	-26.2	13.9	ESE	0.23	14.8	ESE	-25.7	-15.6	-25.9	739.3	0.023	0.000	21.2	6	-17.9	17.9	1.55	 .0728	23	1	100.0	1
02/24/24	16:55	-15.3	-15.3	-15.4	38	-26.5	14.8	ESE	0.25	15.7	ESE	-25.9	-15.6	-26.2	739.3	0.023	0.000	21.2	6	-17.9	17.9	1.55	 .0728	24	1	100.0	1
02/24/24	16:56	-15.3	-15.3	-15.3	38	-26.5	13.9	ESE	0.23	15.7	ESE	-25.7	-15.6	-25.9	739.3	0.023	0.000	21.2	6	-17.9	17.9	1.55	 .0728	23	1	100.0	1
02/24/24	16:57	-15.3	-15.3	-15.3	38	-26.5	13.9	ESE	0.23	14.8	ESE	-25.7	-15.6	-25.9	739.3	0.023	0.000	21.2	6	-17.9	17.9	1.55	 .0728	23	1	100.0	1
02/24/24	16:58	-15.4	-15.3	-15.4	38	-26.6	14.8	ESE	0.25	14.8	ESE	-26.1	-15.7	-26.3	739.3	0.023	0.000	21.2	6	-17.9	18.0	1.55	 .0727	24	1	100.0	1
02/24/24	16:59	-15.5	-15.4	-15.5	38	-26.6	14.8	ESE	0.25	15.7	ESE	-26.2	-15.7	-26.3	739.3	0.023	0.000	21.2	6	-17.9	17.9	1.55	 .0728	23	1	100.0	1
02/24/24	17:00	-15.6	-15.6	-15.6	39	-26.4	13.9	ESE	0.23	14.8	ESE	-26.0	-15.8	-26.2	739.3	0.024	0.000	21.2	6	-17.9	17.9	1.55	 .0728	24	1	100.0	1
02/24/24	17:01	-15.7	-15.6	-15.7	39	-26.5	14.8	ESE	0.25	15.7	ESE	-26.4	-15.8	-26.6	739.3	0.024	0.000	21.2	6	-17.9	17.9	1.55	 .0728	23	1	100.0	1
02/24/24	17:02	-15.7	-15.7	-15.7	39	-26.5	14.8	ESE	0.25	16.5	ESE	-26.4	-15.8	-26.6	739.3	0.024	0.000	21.2	6	-17.9	18.0	1.55	 .0727	24	1	100.0	1
02/24/24	17:03	-15.6	-15.6	-15.7	39	-26.4	15.7	ESE	0.26	16.5	ESE	-26.5	-15.7	-26.7	739.3	0.024	0.000	21.2	6	-17.9	17.9	1.55	 .0728	23	1	100.0	1
02/24/24	17:04	-15.6	-15.6	-15.6	39	-26.4	14.8	ESE	0.25	15.7	ESE	-26.2	-15.7	-26.4	739.3	0.024	0.000	21.2	6	-17.9	17.9	1.55	 .0728	23	1	100.0	1
02/24/24	17:05	-15.6	-15.6	-15.6	39	-26.4	14.8	ESE	0.25	14.8	ESE	-26.3	-15.8	-26.5	739.3	0.024	0.000	21.2	6	-17.9	17.9	1.55	 .0728	24	1	100.0	1
02/24/24	17:06	-15.7	-15.6	-15.7	39	-26.5	14.8	ESE	0.25	15.7	ESE	-26.4	-15.8	-26.6	739.3	0.024	0.000	21.2	6	-17.9	17.9	1.55	 .0728	23	1	100.0	1
02/24/24	17:07	-15.7	-15.7	-15.7	39	-26.5	14.8	ESE	0.25	15.7	ESE	-26.4	-15.9	-26.6	739.2	0.024	0.000	21.2	6	-17.9	17.9	1.55	 .0728	24	1	100.0	1
02/24/24	17:08	-15.7	-15.7	-15.8	40	-26.3	16.5	ESE	0.28	20.9	ESE	-27.0	-15.9	-27.2	739.3	0.024	0.000	21.2	6	-17.9	17.9	1.55	 .0728	23	1	100.0	1
02/24/24	17:09	-15.5	-15.5	-15.7	39	-26.3	16.5	ESE	0.28	19.1	ESE	-26.7	-15.7	-26.9	739.2	0.023	0.000	21.1	6	-18.0	17.8	1.55	 .0728	23	1	100.0	1
02/24/24	17:10	-15.3	-15.3	-15.4	39	-26.2	15.7	ESE	0.26	16.5	ESE	-26.2	-15.6	-26.4	739.2	0.023	0.000	21.1	6	-18.0	17.8	1.55	 .0728	24	1	100.0	1
02/24/24	17:11	-15.3	-15.3	-15.3	39	-26.1	16.5	ESE	0.28	17.4	ESE	-26.4	-15.5	-26.6	739.2	0.023	0.000	21.1	6	-18.0	17.8	1.55	 .0728	23	1	100.0	1
02/24/24	17:12	-15.3	-15.3	-15.3	39	-26.1	16.5	ESE	0.28	19.1	ESE	-26.4	-15.5	-26.6	739.2	0.023	0.000	21.1	6	-18.0	17.8	1.55	 .0728	24	1	100.0	1
02/24/24	17:13	-15.2	-15.2	-15.3	39	-26.0	16.5	ESE	0.28	19.1	ESE	-26.3	-15.4	-26.5	739.2	0.023	0.000	21.1	6	-18.0	17.8	1.55	 .0728	23	1	100.0	1
02/24/24	17:14	-14.9	-14.9	-15.2	38	-26.1	16.5	ESE	0.28	17.4	ESE	-25.9	-15.1	-26.1	739.2	0.023	0.000	21.1	6	-18.0	17.8	1.55	 .0728	24	1	100.0	1
02/24/24	17:15	-14.7	-14.7	-14.8	37	-26.2	15.7	ESE	0.26	16.5	ESE	-25.3	-14.9	-25.6	739.2	0.023	0.000	21.1	6	-18.0	17.8	1.55	 .0728	23	1	100.0	1
02/24/24	17:16	-14.8	-14.7	-14.8	37	-26.3	16.5	ESE	0.28	16.5	ESE	-25.8	-15.1	-26.1	739.1	0.023	0.000	21.1	6	-18.0	17.8	1.55	 .0728	23	1	100.0	1
02/24/24	17:17	-14.8	-14.8	-14.9	37	-26.3	17.4	ESE	0.29	19.1	ESE	-26.1	-15.1	-26.3	739.1	0.023	0.000	21.1	6	-18.0	17.8	1.55	 .0728	24	1	100.0	1
02/24/24	17:18	-14.7	-14.7	-14.8	37	-26.2	15.7	ESE	0.26	17.4	ESE	-25.3	-14.9	-25.6	739.1	0.023	0.000	21.0	6	-18.0	17.7	1.55	 .0728	23	1	100.0	1
02/24/24	17:19	-14.8	-14.7	-14.8	37	-26.3	16.5	ESE	0.28	17.4	ESE	-25.8	-15.1	-26.1	739.1	0.023	0.000	21.1	6	-18.0	17.8	1.55	 .0728	24	1	100.0	1
02/24/24	17:20	-14.8	-14.8	-14.8	37	-26.3	16.5	ESE	0.28	18.3	ESE	-25.8	-15.1	-26.1	739.1	0.023	0.000	21.1	6	-18.0	17.8	1.55	 .0728	23	1	100.0	1
02/24/24	17:21	-15.1	-14.9	-15.1	38	-26.2	16.5	ESE	0.28	17.4	ESE	-26.1	-15.3	-26.3	739.1	0.023	0.000	21.0	6	-18.0	17.7	1.55	 .0728	23	1	100.0	1
02/24/24	17:22	-15.1	-15.1	-15.1	38	-26.2	17.4	ESE	0.29	18.3	ESE	-26.4	-15.3	-26.6	739.1	0.023	0.000	21.0	6	-18.0	17.7	1.55	 .0728	24	1	100.0	1
02/24/24	17:23	-14.8	-14.8	-15.0	38	-26.0	16.5	ESE	0.28	17.4	ESE	-25.8	-15.1	-26.1	739.1	0.023	0.000	21.1	6	-18.0	17.8	1.55	 .0728	23	1	100.0	1
02/24/24	17:24	-14.8	-14.8	-14.8	38	-26.0	16.5	ESE	0.28	17.4	ESE	-25.8	-15.0	-26.0	739.1	0.023	0.000	21.1	6	-18.0	17.8	1.55	 .0728	24	1	100.0	1
02/24/24	17:25	-14.8	-14.7	-14.8	38	-26.0	16.5	ESE	0.28	17.4	ESE	-25.8	-15.0	-26.0	739.1	0.023	0.000	21.1	6	-18.0	17.8	1.55	 .0728	23	1	100.0	1
02/24/24	17:26	-14.9	-14.8	-14.9	38	-26.1	16.5	ESE	0.28	17.4	ESE	-25.9	-15.1	-26.1	739.1	0.023	0.000	21.1	6	-18.0	17.8	1.55	 .0728	23	1	100.0	1
02/24/24	17:27	-14.9	-14.9	-14.9	38	-26.1	17.4	ESE	0.29	18.3	ESE	-26.2	-15.1	-26.4	739.1	0.023	0.000	21.0	6	-18.0	17.7	1.55	 .0728	24	1	100.0	1
02/24/24	17:28	-14.8	-14.8	-14.9	38	-26.0	17.4	ESE	0.29	19.1	ESE	-26.1	-15.1	-26.3	739.1	0.023	0.000	21.0	6	-18.0	17.7	1.55	 .0728	23	1	100.0	1
02/24/24	17:29	-14.8	-14.8	-14.8	38	-26.0	17.4	ESE	0.29	19.1	ESE	-26.1	-15.1	-26.3	739.1	0.023	0.000	21.0	6	-18.0	17.7	1.55	 .0728	24	1	100.0	1
02/24/24	17:30	-14.9	-14.9	-14.9	38	-26.1	16.5	ESE	0.28	17.4	ESE	-26.0	-15.2	-26.2	739.1	0.023	0.000	21.1	6	-18.0	17.8	1.55	 .0728	23	1	100.0	1
02/24/24	17:31	-15.1	-14.9	-15.1	39	-25.9	17.4	ESE	0.29	19.1	ESE	-26.4	-15.3	-26.6	739.1	0.023	0.000	21.1	6	-18.0	17.8	1.55	 .0728	24	1	100.0	1
02/24/24	17:32	-15.1	-15.1	-15.1	39	-25.9	17.4	ESE	0.29	20.0	ESE	-26.4	-15.3	-26.6	739.1	0.023	0.000	21.1	6	-18.0	17.8	1.55	 .0728	23	1	100.0	1
02/24/24	17:33	-15.0	-15.0	-15.1	39	-25.9	16.5	ESE	0.28	17.4	ESE	-26.1	-15.2	-26.3	739.1	0.023	0.000	21.1	6	-18.0	17.8	1.55	 .0728	23	1	100.0	1
02/24/24	17:34	-14.9	-14.9	-14.9	38	-26.1	16.5	ESE	0.28	17.4	ESE	-25.9	-15.1	-26.1	739.1	0.023	0.000	21.1	6	-18.0	17.8	1.55	 .0728	24	1	100.0	1
02/24/24	17:35	-15.0	-14.9	-15.0	39	-25.9	16.5	ESE	0.28	17.4	ESE	-26.1	-15.2	-26.3	739.1	0.023	0.000	21.1	6	-18.0	17.8	1.55	 .0728	23	1	100.0	1
02/24/24	17:36	-15.2	-15.0	-15.2	39	-26.1	16.5	ESE	0.28	19.1	ESE	-26.3	-15.4	-26.6	739.1	0.023	0.000	21.1	6	-18.0	17.8	1.55	 .0728	24	1	100.0	1
02/24/24	17:37	-15.3	-15.3	-15.3	40	-25.9	18.3	ESE	0.30	20.9	ESE	-26.9	-15.4	-27.1	739.1	0.023	0.000	21.1	6	-18.0	17.8	1.55	 .0728	23	1	100.0	1
02/24/24	17:38	-15.1	-15.1	-15.3	40	-25.7	17.4	ESE	0.29	19.1	ESE	-26.4	-15.3	-26.7	739.1	0.023	0.000	21.1	6	-18.0	17.8	1.55	 .0728	23	1	100.0	1
02/24/24	17:39	-15.0	-15.0	-15.1	40	-25.6	17.4	ESE	0.29	19.1	ESE	-26.3	-15.2	-26.5	739.1	0.023	0.000	21.1	6	-18.0	17.8	1.55	 .0728	24	1	100.0	1
02/24/24	17:40	-15.1	-15.0	-15.1	39	-25.9	18.3	ESE	0.30	20.9	ESE	-26.6	-15.3	-26.8	739.1	0.023	0.000	21.1	6	-18.0	17.8	1.55	 .0728	23	1	100.0	1
02/24/24	17:41	-14.8	-14.8	-15.0	39	-25.7	17.4	ESE	0.29	19.1	ESE	-26.1	-15.1	-26.3	739.1	0.023	0.000	21.1	6	-18.0	17.8	1.55	 .0728	24	1	100.0	1
02/24/24	17:42	-14.7	-14.7	-14.8	39	-25.6	16.5	ESE	0.28	18.3	ESE	-25.6	-14.9	-25.8	739.1	0.023	0.000	21.2	6	-17.9	17.9	1.55	 .0727	23	1	100.0	1
02/24/24	17:43	-14.7	-14.6	-14.7	39	-25.6	16.5	ESE	0.28	18.3	ESE	-25.6	-14.9	-25.8	739.1	0.023	0.000	21.2	6	-17.9	17.9	1.55	 .0727	24	1	100.0	1
02/24/24	17:44	-14.7	-14.7	-14.7	38	-25.9	17.4	ESE	0.29	19.1	ESE	-25.9	-14.9	-26.2	739.1	0.023	0.000	21.2	6	-17.9	17.9	1.55	 .0727	23	1	100.0	1
02/24/24	17:45	-14.6	-14.6	-14.7	38	-25.8	17.4	ESE	0.29	20.0	ESE	-25.8	-14.8	-26.0	739.1	0.023	0.000	21.2	6	-17.9	17.9	1.55	 .0727	23	1	100.0	1
02/24/24	17:46	-14.7	-14.6	-14.7	38	-25.9	17.4	ESE	0.29	19.1	ESE	-25.8	-14.9	-26.1	739.1	0.023	0.000	21.2	6	-17.9	17.9	1.55	 .0727	24	1	100.0	1
02/24/24	17:47	-14.6	-14.6	-14.7	38	-25.8	18.3	ESE	0.30	19.1	ESE	-26.0	-14.8	-26.2	739.1	0.023	0.000	21.2	6	-17.9	17.9	1.55	 .0727	23	1	100.0	1
02/24/24	17:48	-14.6	-14.6	-14.6	38	-25.8	17.4	ESE	0.29	18.3	ESE	-25.8	-14.8	-26.0	739.1	0.023	0.000	21.2	6	-17.9	18.0	1.55	 .0727	24	1	100.0	1
02/24/24	17:49	-14.6	-14.6	-14.6	38	-25.8	16.5	ESE	0.28	17.4	ESE	-25.4	-14.8	-25.7	739.1	0.023	0.000	21.2	6	-17.9	18.0	1.55	 .0727	23	1	100.0	1
02/24/24	17:50	-14.6	-14.6	-14.6	38	-25.8	16.5	ESE	0.28	17.4	ESE	-25.6	-14.8	-25.8	739.1	0.023	0.000	21.2	6	-17.9	18.0	1.55	 .0727	23	1	100.0	1
02/24/24	17:51	-14.7	-14.6	-14.7	38	-25.9	16.5	ESE	0.28	17.4	ESE	-25.7	-14.9	-25.9	739.1	0.023	0.000	21.2	6	-17.9	18.0	1.55	 .0727	24	1	100.0	1
02/24/24	17:52	-14.8	-14.7	-14.8	38	-26.0	17.4	ESE	0.29	19.1	ESE	-26.0	-15.0	-26.2	739.1	0.023	0.000	21.2	6	-17.9	18.0	1.55	 .0727	23	1	100.0	1
02/24/24	17:53	-14.9	-14.8	-14.9	39	-25.8	18.3	ESE	0.30	20.0	ESE	-26.4	-15.2	-26.7	739.1	0.023	0.000	21.2	6	-17.9	18.0	1.55	 .0727	24	1	100.0	1
02/24/24	17:54	-15.0	-14.9	-15.0	39	-25.9	17.4	ESE	0.29	19.1	ESE	-26.3	-15.2	-26.5	739.1	0.023	0.000	21.2	6	-17.9	18.0	1.55	 .0727	23	1	100.0	1
02/24/24	17:55	-15.1	-15.0	-15.1	39	-25.9	19.1	ESE	0.32	20.9	ESE	-26.8	-15.3	-27.1	739.1	0.023	0.000	21.2	6	-17.9	18.0	1.55	 .0727	24	1	100.0	1
02/24/24	17:56	-14.9	-14.9	-15.1	39	-25.8	20.0	ESE	0.33	20.9	ESE	-26.9	-15.2	-27.1	739.1	0.023	0.000	21.2	6	-17.9	18.0	1.55	 .0727	23	1	100.0	1
02/24/24	17:57	-14.9	-14.8	-14.9	39	-25.8	18.3	ESE	0.30	20.0	ESE	-26.4	-15.1	-26.6	739.1	0.023	0.000	21.2	6	-17.9	18.0	1.55	 .0727	23	1	100.0	1
02/24/24	17:58	-14.9	-14.9	-14.9	39	-25.8	18.3	ESE	0.30	20.0	ESE	-26.4	-15.2	-26.7	739.1	0.023	0.000	21.2	6	-17.9	18.0	1.55	 .0727	24	1	100.0	1
02/24/24	17:59	-14.9	-14.9	-15.0	39	-25.8	18.3	ESE	0.30	19.1	ESE	-26.4	-15.2	-26.7	739.1	0.023	0.000	21.2	6	-17.9	17.9	1.55	 .0727	23	1	100.0	1
02/24/24	18:00	-15.0	-14.9	-15.0	39	-25.9	18.3	ESE	0.30	20.0	ESE	-26.6	-15.2	-26.8	739.1	0.023	0.000	21.2	6	-17.9	17.9	1.55	 .0727	24	1	100.0	1
02/24/24	18:01	-14.8	-14.8	-14.9	39	-25.7	19.1	ESE	0.32	20.9	ESE	-26.4	-15.0	-26.7	739.1	0.023	0.000	21.2	6	-17.9	17.9	1.55	 .0727	23	1	100.0	1
02/24/24	18:02	-14.7	-14.7	-14.8	39	-25.6	17.4	ESE	0.29	18.3	ESE	-25.8	-14.9	-26.1	739.1	0.023	0.000	21.2	6	-17.9	17.9	1.55	 .0727	23	1	100.0	1
02/24/24	18:03	-14.7	-14.7	-14.7	39	-25.6	18.3	ESE	0.30	20.0	ESE	-26.2	-14.9	-26.4	739.1	0.023	0.000	21.2	6	-17.9	17.9	1.55	 .0727	24	1	100.0	1
02/24/24	18:04	-14.8	-14.7	-14.8	39	-25.7	17.4	ESE	0.29	20.0	ESE	-26.0	-15.0	-26.2	739.1	0.023	0.000	21.1	6	-18.0	17.8	1.55	 .0727	23	1	100.0	1
02/24/24	18:05	-14.8	-14.8	-14.8	39	-25.7	17.4	ESE	0.29	18.3	ESE	-26.1	-15.1	-26.3	739.1	0.023	0.000	21.1	6	-18.0	17.8	1.55	 .0727	24	1	100.0	1
02/24/24	18:06	-14.7	-14.7	-14.8	39	-25.6	18.3	ESE	0.30	20.0	ESE	-26.2	-14.9	-26.4	739.1	0.023	0.000	21.1	6	-18.0	17.8	1.55	 .0727	23	1	100.0	1
02/24/24	18:07	-14.6	-14.6	-14.7	39	-25.5	19.1	ESE	0.32	20.9	ESE	-26.2	-14.8	-26.4	739.0	0.023	0.000	21.1	6	-18.0	17.8	1.55	 .0727	23	1	100.0	1
02/24/24	18:08	-14.5	-14.5	-14.6	38	-25.7	18.3	ESE	0.30	20.0	ESE	-25.9	-14.7	-26.1	739.0	0.023	0.000	21.1	6	-18.0	17.8	1.55	 .0727	24	1	100.0	1
02/24/24	18:09	-14.5	-14.4	-14.5	39	-25.4	18.3	ESE	0.30	20.0	ESE	-25.9	-14.7	-26.1	739.0	0.023	0.000	21.1	6	-18.0	17.8	1.55	 .0727	23	1	100.0	1
02/24/24	18:10	-14.5	-14.4	-14.5	39	-25.4	19.1	ESE	0.32	21.7	ESE	-26.1	-14.7	-26.3	739.0	0.023	0.000	21.1	6	-18.0	17.8	1.55	 .0728	24	1	100.0	1
02/24/24	18:11	-14.5	-14.4	-14.5	39	-25.4	18.3	ESE	0.30	20.0	ESE	-25.9	-14.7	-26.1	739.0	0.023	0.000	21.1	6	-18.0	17.8	1.55	 .0728	23	1	100.0	1
02/24/24	18:12	-14.7	-14.5	-14.7	39	-25.6	19.1	ESE	0.32	20.9	ESE	-26.3	-14.9	-26.6	739.1	0.023	0.000	21.1	6	-18.0	17.8	1.55	 .0728	24	1	100.0	1
02/24/24	18:13	-14.8	-14.7	-14.8	39	-25.7	18.3	ESE	0.30	21.7	ESE	-26.2	-15.0	-26.4	739.0	0.023	0.000	21.1	6	-18.0	17.8	1.55	 .0728	23	1	100.0	1
02/24/24	18:14	-14.9	-14.8	-14.9	40	-25.5	19.1	ESE	0.32	20.9	ESE	-26.6	-15.1	-26.8	739.0	0.023	0.000	21.1	6	-18.0	17.8	1.55	 .0728	23	1	100.0	1
02/24/24	18:15	-15.1	-14.9	-15.1	40	-25.7	19.1	ESE	0.32	20.0	ESE	-26.8	-15.3	-27.1	739.0	0.023	0.000	21.1	6	-18.0	17.8	1.55	 .0728	24	1	100.0	1
02/24/24	18:16	-15.2	-15.1	-15.2	41	-25.5	18.3	ESE	0.30	19.1	ESE	-26.8	-15.4	-27.0	739.1	0.023	0.000	21.1	6	-18.0	17.8	1.55	 .0728	23	1	100.0	1
02/24/24	18:17	-15.3	-15.2	-15.3	41	-25.6	20.0	ESE	0.33	20.9	ESE	-27.4	-15.5	-27.6	739.0	0.023	0.000	21.1	6	-18.0	17.8	1.55	 .0728	24	1	100.0	1
02/24/24	18:18	-15.3	-15.3	-15.3	41	-25.6	20.0	ESE	0.33	20.9	ESE	-27.4	-15.5	-27.6	739.0	0.023	0.000	21.1	6	-18.0	17.8	1.55	 .0728	23	1	100.0	1
02/24/24	18:19	-15.3	-15.3	-15.3	42	-25.4	20.0	ESE	0.33	20.9	ESE	-27.4	-15.5	-27.6	739.0	0.023	0.000	21.1	6	-18.0	17.8	1.55	 .0728	23	1	100.0	1
02/24/24	18:20	-15.3	-15.3	-15.4	42	-25.4	20.0	ESE	0.33	21.7	ESE	-27.4	-15.5	-27.6	739.0	0.023	0.000	21.1	6	-18.0	17.8	1.55	 .0728	24	1	100.0	1
02/24/24	18:21	-15.3	-15.3	-15.3	42	-25.4	20.9	ESE	0.35	20.9	ESE	-27.6	-15.5	-27.8	739.0	0.023	0.000	21.1	6	-18.0	17.8	1.55	 .0728	23	1	100.0	1
02/24/24	18:22	-15.3	-15.3	-15.3	42	-25.3	20.9	ESE	0.35	20.9	ESE	-27.6	-15.4	-27.7	739.0	0.023	0.000	21.1	6	-18.0	17.8	1.55	 .0728	24	1	100.0	1
02/24/24	18:23	-15.1	-15.1	-15.3	42	-25.2	20.9	ESE	0.35	22.6	ESE	-27.3	-15.3	-27.5	739.0	0.023	0.000	21.1	6	-18.0	17.8	1.55	 .0728	23	1	100.0	1
02/24/24	18:24	-14.8	-14.8	-15.1	41	-25.2	20.0	ESE	0.33	21.7	ESE	-26.8	-15.1	-27.0	739.0	0.023	0.000	21.1	6	-18.0	17.8	1.55	 .0728	24	1	100.0	1
02/24/24	18:25	-14.8	-14.8	-14.8	41	-25.1	20.9	ESE	0.35	22.6	ESE	-26.9	-15.0	-27.1	739.0	0.023	0.000	21.1	6	-18.0	17.8	1.55	 .0728	23	1	100.0	1
02/24/24	18:26	-14.7	-14.7	-14.8	41	-25.1	20.9	ESE	0.35	21.7	ESE	-26.8	-14.9	-27.1	739.0	0.023	0.000	21.1	6	-18.0	17.8	1.55	 .0728	23	1	100.0	1
02/24/24	18:27	-14.7	-14.7	-14.7	41	-25.1	20.9	ESE	0.35	21.7	ESE	-26.8	-14.9	-27.1	739.0	0.023	0.000	21.1	6	-18.0	17.8	1.55	 .0728	24	1	100.0	1
02/24/24	18:28	-14.8	-14.7	-14.8	41	-25.1	20.9	ESE	0.35	22.6	ESE	-26.9	-15.0	-27.1	739.0	0.023	0.000	21.1	6	-18.0	17.8	1.55	 .0727	23	1	100.0	1
02/24/24	18:29	-14.6	-14.6	-14.7	41	-25.0	20.0	ESE	0.33	20.9	ESE	-26.4	-14.8	-26.7	739.0	0.023	0.000	21.1	6	-18.0	17.8	1.55	 .0727	24	1	100.0	1
02/24/24	18:30	-14.6	-14.6	-14.6	40	-25.2	20.0	ESE	0.33	21.7	ESE	-26.4	-14.8	-26.6	739.0	0.023	0.000	21.1	6	-18.0	17.8	1.55	 .0727	23	1	100.0	1
02/24/24	18:31	-14.6	-14.6	-14.6	40	-25.3	20.0	ESE	0.33	21.7	ESE	-26.4	-14.8	-26.7	739.0	0.023	0.000	21.1	6	-18.0	17.8	1.55	 .0727	23	1	100.0	1
02/24/24	18:32	-14.6	-14.6	-14.6	40	-25.3	20.9	ESE	0.35	23.5	ESE	-26.7	-14.8	-26.9	739.0	0.023	0.000	21.1	6	-18.0	17.8	1.55	 .0727	24	1	100.0	1
02/24/24	18:33	-14.7	-14.6	-14.7	40	-25.3	20.9	ESE	0.35	21.7	ESE	-26.7	-14.9	-26.9	739.0	0.023	0.000	21.2	6	-17.9	17.9	1.55	 .0727	23	1	100.0	1
02/24/24	18:34	-14.8	-14.7	-14.8	40	-25.4	20.9	ESE	0.35	20.9	ESE	-26.9	-15.0	-27.1	739.0	0.023	0.000	21.2	6	-17.9	17.9	1.55	 .0727	24	1	100.0	1
02/24/24	18:35	-14.9	-14.8	-14.9	41	-25.3	20.0	ESE	0.33	20.9	ESE	-26.9	-15.2	-27.1	739.0	0.023	0.000	21.2	6	-17.9	17.9	1.55	 .0727	23	1	100.0	1
02/24/24	18:36	-15.1	-14.9	-15.1	41	-25.4	20.0	ESE	0.33	20.9	ESE	-27.1	-15.3	-27.3	739.0	0.023	0.000	21.2	6	-17.9	17.9	1.55	 .0727	24	1	100.0	1
02/24/24	18:37	-15.1	-15.1	-15.1	41	-25.4	20.0	ESE	0.33	21.7	ESE	-27.1	-15.3	-27.3	739.0	0.023	0.000	21.2	6	-17.9	18.0	1.55	 .0727	23	1	100.0	1
02/24/24	18:38	-15.2	-15.1	-15.2	42	-25.2	20.9	ESE	0.35	20.9	ESE	-27.4	-15.3	-27.6	739.0	0.023	0.000	21.2	6	-17.9	18.0	1.55	 .0727	23	1	100.0	1
02/24/24	18:39	-15.2	-15.2	-15.2	42	-25.2	20.0	ESE	0.33	20.9	ESE	-27.2	-15.3	-27.4	739.1	0.023	0.000	21.2	6	-17.9	18.0	1.55	 .0727	24	1	100.0	1
02/24/24	18:40	-15.1	-15.1	-15.2	42	-25.2	20.0	ESE	0.33	20.9	ESE	-27.1	-15.3	-27.3	739.0	0.023	0.000	21.2	6	-17.9	18.0	1.55	 .0727	23	1	100.0	1
02/24/24	18:41	-15.1	-15.1	-15.1	42	-25.2	20.0	ESE	0.33	21.7	ESE	-27.1	-15.3	-27.3	739.1	0.023	0.000	21.2	6	-17.9	18.0	1.55	 .0727	24	1	100.0	1
02/24/24	18:42	-15.1	-15.1	-15.1	42	-25.1	20.0	ESE	0.33	20.9	ESE	-27.1	-15.3	-27.3	739.0	0.023	0.000	21.2	6	-17.9	18.0	1.55	 .0727	23	1	100.0	1
02/24/24	18:43	-15.1	-15.1	-15.1	42	-25.1	20.0	ESE	0.33	20.9	ESE	-27.1	-15.3	-27.3	739.0	0.023	0.000	21.2	6	-17.9	18.0	1.55	 .0727	23	1	100.0	1
02/24/24	18:44	-14.9	-14.9	-15.0	42	-25.0	20.0	ESE	0.33	20.9	ESE	-26.9	-15.2	-27.1	739.1	0.023	0.000	21.2	6	-17.9	18.0	1.55	 .0727	24	1	100.0	1
02/24/24	18:45	-14.8	-14.8	-14.9	42	-24.9	20.0	ESE	0.33	20.9	ESE	-26.8	-15.1	-27.0	739.1	0.023	0.000	21.2	6	-17.9	18.0	1.55	 .0727	23	1	100.0	1
02/24/24	18:46	-14.7	-14.7	-14.8	42	-24.8	20.0	ESE	0.33	20.9	ESE	-26.6	-14.9	-26.8	739.0	0.023	0.000	21.2	6	-17.9	18.0	1.55	 .0727	24	1	100.0	1
02/24/24	18:47	-14.6	-14.6	-14.7	41	-25.0	20.0	ESE	0.33	21.7	ESE	-26.4	-14.8	-26.7	739.1	0.023	0.000	21.2	6	-17.9	18.0	1.55	 .0727	23	1	100.0	1
02/24/24	18:48	-14.6	-14.6	-14.6	41	-25.0	19.1	ESE	0.32	20.9	ESE	-26.2	-14.8	-26.4	739.1	0.023	0.000	21.2	6	-17.9	18.0	1.55	 .0727	23	1	100.0	1
02/24/24	18:49	-14.7	-14.6	-14.7	41	-25.0	20.0	ESE	0.33	20.9	ESE	-26.6	-14.9	-26.8	739.0	0.023	0.000	21.2	6	-17.9	18.0	1.55	 .0727	24	1	100.0	1
02/24/24	18:50	-14.6	-14.6	-14.7	41	-24.9	20.9	ESE	0.35	22.6	ESE	-26.6	-14.8	-26.8	739.0	0.023	0.000	21.2	6	-17.9	17.9	1.55	 .0727	23	1	100.0	1
02/24/24	18:51	-14.4	-14.4	-14.5	40	-25.1	19.1	ESE	0.32	20.0	ESE	-26.0	-14.7	-26.2	739.1	0.023	0.000	21.2	6	-17.9	17.9	1.55	 .0727	24	1	100.0	1
02/24/24	18:52	-14.4	-14.4	-14.4	40	-25.1	19.1	ESE	0.32	20.9	ESE	-26.0	-14.7	-26.2	739.0	0.023	0.000	21.2	6	-17.9	17.9	1.55	 .0727	23	1	100.0	1
02/24/24	18:53	-14.5	-14.4	-14.5	41	-24.9	20.0	ESE	0.33	20.9	ESE	-26.3	-14.7	-26.6	739.0	0.023	0.000	21.2	6	-17.9	17.9	1.55	 .0727	24	1	100.0	1
02/24/24	18:54	-14.6	-14.5	-14.6	41	-24.9	20.0	ESE	0.33	21.7	ESE	-26.4	-14.8	-26.6	739.0	0.023	0.000	21.2	6	-17.9	17.9	1.55	 .0727	23	1	100.0	1
02/24/24	18:55	-14.6	-14.6	-14.6	41	-25.0	20.0	ESE	0.33	20.9	ESE	-26.4	-14.8	-26.7	739.0	0.023	0.000	21.1	6	-18.0	17.8	1.55	 .0727	23	1	100.0	1
02/24/24	18:56	-14.7	-14.6	-14.7	41	-25.0	19.1	ESE	0.32	20.0	ESE	-26.3	-14.9	-26.6	739.1	0.023	0.000	21.1	6	-18.0	17.8	1.55	 .0728	24	1	100.0	1
02/24/24	18:57	-14.6	-14.6	-14.7	41	-25.0	19.1	ESE	0.32	20.9	ESE	-26.2	-14.8	-26.4	739.1	0.023	0.000	21.1	6	-18.0	17.8	1.55	 .0727	23	1	100.0	1
02/24/24	18:58	-14.6	-14.6	-14.6	41	-24.9	20.0	ESE	0.33	20.9	ESE	-26.4	-14.8	-26.6	739.1	0.023	0.000	21.1	6	-18.0	17.8	1.55	 .0727	24	1	100.0	1
02/24/24	18:59	-14.5	-14.5	-14.5	40	-25.2	19.1	ESE	0.32	20.9	ESE	-26.1	-14.7	-26.3	739.0	0.023	0.000	21.1	6	-18.0	17.8	1.55	 .0727	23	1	100.0	1
02/24/24	19:00	-14.5	-14.5	-14.5	40	-25.2	19.1	ESE	0.32	20.0	ESE	-26.1	-14.7	-26.3	739.1	0.023	0.000	21.1	6	-18.0	17.8	1.55	 .0728	23	1	100.0	1
02/24/24	19:01	-14.6	-14.5	-14.6	39	-25.5	19.1	ESE	0.32	20.9	ESE	-26.2	-14.8	-26.4	739.1	0.023	0.000	21.1	6	-18.0	17.8	1.55	 .0728	24	1	100.0	1
02/24/24	19:02	-14.7	-14.6	-14.7	40	-25.3	20.0	ESE	0.33	20.9	ESE	-26.6	-14.9	-26.8	739.0	0.023	0.000	21.1	6	-18.0	17.8	1.55	 .0728	23	1	100.0	1
02/24/24	19:03	-14.7	-14.7	-14.7	40	-25.4	20.0	ESE	0.33	21.7	ESE	-26.6	-14.9	-26.8	739.1	0.023	0.000	21.1	6	-18.0	17.8	1.55	 .0728	24	1	100.0	1
02/24/24	19:04	-14.7	-14.7	-14.7	40	-25.3	19.1	ESE	0.32	20.9	ESE	-26.3	-14.9	-26.6	739.0	0.023	0.000	21.1	6	-18.0	17.8	1.55	 .0728	23	1	100.0	1
02/24/24	19:05	-14.6	-14.6	-14.7	40	-25.3	20.0	ESE	0.33	21.7	ESE	-26.4	-14.8	-26.7	739.0	0.023	0.000	21.1	6	-18.0	17.8	1.55	 .0728	24	1	100.0	1
02/24/24	19:06	-14.6	-14.6	-14.7	40	-25.3	20.9	ESE	0.35	21.7	ESE	-26.7	-14.8	-26.9	739.0	0.023	0.000	21.1	6	-18.0	17.8	1.55	 .0728	23	1	100.0	1
02/24/24	19:07	-14.6	-14.6	-14.6	40	-25.3	20.0	ESE	0.33	21.7	ESE	-26.4	-14.8	-26.7	739.0	0.023	0.000	21.1	6	-18.0	17.8	1.55	 .0728	23	1	100.0	1
02/24/24	19:08	-14.6	-14.6	-14.6	40	-25.2	20.0	ESE	0.33	21.7	ESE	-26.4	-14.8	-26.6	739.0	0.023	0.000	21.1	6	-18.0	17.8	1.55	 .0728	24	1	100.0	1
02/24/24	19:09	-14.6	-14.6	-14.6	40	-25.2	20.9	ESE	0.35	22.6	ESE	-26.6	-14.8	-26.8	739.0	0.023	0.000	21.1	6	-18.0	17.8	1.55	 .0728	23	1	100.0	1
02/24/24	19:10	-14.6	-14.6	-14.6	40	-25.3	21.7	ESE	0.36	22.6	ESE	-26.9	-14.8	-27.1	739.0	0.023	0.000	21.1	6	-18.0	17.8	1.55	 .0728	24	1	100.0	1
02/24/24	19:11	-14.4	-14.4	-14.6	40	-25.1	20.9	ESE	0.35	21.7	ESE	-26.4	-14.7	-26.7	739.0	0.023	0.000	21.1	6	-18.0	17.8	1.55	 .0727	23	1	100.0	1
02/24/24	19:12	-14.5	-14.4	-14.5	40	-25.2	19.1	ESE	0.32	20.9	ESE	-26.1	-14.7	-26.3	739.0	0.023	0.000	21.1	6	-18.0	17.8	1.55	 .0727	23	1	100.0	1
02/24/24	19:13	-14.6	-14.6	-14.6	40	-25.2	20.9	ESE	0.35	22.6	ESE	-26.6	-14.8	-26.8	739.0	0.023	0.000	21.1	6	-18.0	17.8	1.55	 .0727	24	1	100.0	1
02/24/24	19:14	-14.5	-14.5	-14.6	40	-25.2	20.0	ESE	0.33	21.7	ESE	-26.3	-14.7	-26.6	739.0	0.023	0.000	21.1	6	-18.0	17.8	1.55	 .0727	23	1	100.0	1
02/24/24	19:15	-14.4	-14.4	-14.5	40	-25.1	20.9	ESE	0.35	22.6	ESE	-26.4	-14.7	-26.7	739.0	0.023	0.000	21.1	6	-18.0	17.8	1.55	 .0727	24	1	100.0	1
02/24/24	19:16	-14.4	-14.4	-14.4	40	-25.1	20.0	ESE	0.33	20.9	ESE	-26.2	-14.7	-26.4	739.0	0.023	0.000	21.2	6	-17.9	17.9	1.55	 .0727	23	1	100.0	1
02/24/24	19:17	-14.6	-14.4	-14.6	40	-25.2	19.1	ESE	0.32	20.9	ESE	-26.2	-14.8	-26.4	739.0	0.023	0.000	21.2	6	-17.9	17.9	1.55	 .0727	24	1	100.0	1
02/24/24	19:18	-14.7	-14.6	-14.7	40	-25.3	20.9	ESE	0.35	22.6	ESE	-26.7	-14.9	-26.9	739.0	0.023	0.000	21.2	6	-17.9	17.9	1.55	 .0727	23	1	100.0	1
02/24/24	19:19	-14.7	-14.6	-14.7	40	-25.3	20.9	ESE	0.35	21.7	ESE	-26.7	-14.9	-26.9	739.0	0.023	0.000	21.2	6	-17.9	17.9	1.55	 .0727	23	1	100.0	1
02/24/24	19:20	-14.8	-14.7	-14.8	41	-25.1	20.9	ESE	0.35	21.7	ESE	-26.9	-15.0	-27.1	739.0	0.023	0.000	21.2	6	-17.9	18.0	1.55	 .0727	24	1	100.0	1
02/24/24	19:21	-14.8	-14.8	-14.8	41	-25.2	20.9	ESE	0.35	21.7	ESE	-26.9	-15.1	-27.2	739.0	0.023	0.000	21.2	6	-17.9	17.9	1.55	 .0727	23	1	100.0	1
02/24/24	19:22	-14.8	-14.8	-14.8	42	-24.9	22.6	ESE	0.38	23.5	ESE	-27.3	-15.0	-27.5	738.9	0.023	0.000	21.2	6	-17.9	18.0	1.55	 .0727	24	1	100.0	1
02/24/24	19:23	-14.7	-14.7	-14.8	41	-25.1	21.7	ESE	0.36	22.6	ESE	-27.0	-14.9	-27.2	738.9	0.023	0.000	21.2	6	-17.9	18.0	1.55	 .0727	23	1	100.0	1
02/24/24	19:24	-14.7	-14.7	-14.7	41	-25.0	21.7	ESE	0.36	22.6	ESE	-26.9	-14.9	-27.2	739.0	0.023	0.000	21.2	6	-17.9	18.0	1.55	 .0727	23	1	100.0	1
02/24/24	19:25	-14.6	-14.6	-14.7	41	-25.0	21.7	ESE	0.36	22.6	ESE	-26.9	-14.8	-27.1	738.9	0.023	0.000	21.2	6	-17.9	18.0	1.55	 .0727	24	1	100.0	1
02/24/24	19:26	-14.6	-14.6	-14.6	41	-24.9	21.7	ESE	0.36	22.6	ESE	-26.8	-14.8	-27.0	738.9	0.023	0.000	21.2	6	-17.9	18.0	1.55	 .0727	23	1	100.0	1
02/24/24	19:27	-14.6	-14.6	-14.6	41	-24.9	20.9	ESE	0.35	21.7	ESE	-26.6	-14.8	-26.8	738.9	0.023	0.000	21.2	6	-17.9	18.0	1.55	 .0727	24	1	100.0	1
02/24/24	19:28	-14.6	-14.6	-14.6	41	-24.9	21.7	ESE	0.36	23.5	ESE	-26.8	-14.8	-27.0	738.9	0.023	0.000	21.2	6	-17.9	18.0	1.55	 .0727	23	1	100.0	1
02/24/24	19:29	-14.6	-14.6	-14.6	41	-24.9	20.9	ESE	0.35	22.6	ESE	-26.6	-14.8	-26.8	738.9	0.023	0.000	21.2	6	-17.9	18.0	1.55	 .0727	23	1	100.0	1
02/24/24	19:30	-14.6	-14.6	-14.6	41	-25.0	20.9	ESE	0.35	21.7	ESE	-26.7	-14.8	-26.9	738.9	0.023	0.000	21.2	6	-17.9	18.0	1.55	 .0727	24	1	100.0	1
02/24/24	19:31	-14.7	-14.6	-14.7	42	-24.8	21.7	ESE	0.36	22.6	ESE	-26.9	-14.9	-27.2	739.0	0.023	0.000	21.2	6	-17.9	18.0	1.55	 .0727	23	1	100.0	1
02/24/24	19:32	-14.8	-14.7	-14.8	42	-24.9	21.7	ESE	0.36	23.5	ESE	-27.1	-15.0	-27.3	738.9	0.023	0.000	21.2	6	-17.9	18.0	1.55	 .0727	24	1	100.0	1
02/24/24	19:33	-14.7	-14.7	-14.8	42	-24.8	21.7	ESE	0.36	24.3	ESE	-26.9	-14.9	-27.2	738.9	0.023	0.000	21.2	6	-17.9	17.9	1.55	 .0727	23	1	100.0	1
02/24/24	19:34	-14.6	-14.6	-14.6	42	-24.7	20.9	ESE	0.35	21.7	ESE	-26.7	-14.8	-26.9	738.9	0.023	0.000	21.2	6	-17.9	17.9	1.55	 .0727	24	1	100.0	1
02/24/24	19:35	-14.6	-14.6	-14.6	41	-24.9	21.7	ESE	0.36	23.5	ESE	-26.8	-14.8	-27.0	738.9	0.023	0.000	21.2	6	-17.9	17.9	1.55	 .0727	23	1	100.0	1
02/24/24	19:36	-14.7	-14.6	-14.7	41	-25.0	20.9	ESE	0.35	22.6	ESE	-26.7	-14.9	-26.9	738.9	0.023	0.000	21.2	6	-17.9	17.9	1.55	 .0727	23	1	100.0	1
02/24/24	19:37	-14.7	-14.7	-14.7	42	-24.8	21.7	ESE	0.36	22.6	ESE	-27.0	-14.9	-27.2	738.9	0.023	0.000	21.2	6	-17.9	17.9	1.55	 .0727	24	1	100.0	1
02/24/24	19:38	-14.6	-14.6	-14.7	43	-24.4	20.9	ESE	0.35	21.7	ESE	-26.6	-14.7	-26.8	738.9	0.023	0.000	21.1	6	-18.0	17.8	1.55	 .0727	23	1	100.0	1
02/24/24	19:39	-14.6	-14.6	-14.6	43	-24.4	20.9	ESE	0.35	21.7	ESE	-26.6	-14.7	-26.8	738.9	0.023	0.000	21.1	6	-18.0	17.8	1.55	 .0727	24	1	100.0	1
02/24/24	19:40	-14.6	-14.6	-14.6	43	-24.5	21.7	ESE	0.36	22.6	ESE	-26.9	-14.8	-27.1	738.9	0.023	0.000	21.1	6	-18.0	17.8	1.55	 .0727	23	1	100.0	1
02/24/24	19:41	-14.7	-14.7	-14.7	43	-24.6	21.7	ESE	0.36	22.6	ESE	-27.0	-14.9	-27.2	738.9	0.023	0.000	21.1	6	-18.0	17.8	1.55	 .0727	24	1	100.0	1
02/24/24	19:42	-14.8	-14.7	-14.8	43	-24.6	21.7	ESE	0.36	22.6	ESE	-27.1	-14.9	-27.3	738.9	0.023	0.000	21.1	6	-18.0	17.8	1.55	 .0727	23	1	100.0	1
02/24/24	19:43	-14.7	-14.7	-14.8	43	-24.6	21.7	ESE	0.36	22.6	ESE	-27.0	-14.9	-27.2	738.9	0.023	0.000	21.1	6	-18.0	17.8	1.55	 .0727	23	1	100.0	1
02/24/24	19:44	-14.7	-14.7	-14.7	43	-24.6	21.7	ESE	0.36	22.6	ESE	-27.0	-14.9	-27.2	738.8	0.023	0.000	21.1	6	-18.0	17.8	1.55	 .0727	24	1	100.0	1
02/24/24	19:45	-14.8	-14.7	-14.8	43	-24.6	21.7	ESE	0.36	22.6	ESE	-27.1	-14.9	-27.3	738.9	0.023	0.000	21.1	6	-18.0	17.8	1.55	 .0727	23	1	100.0	1
02/24/24	19:46	-14.8	-14.8	-14.8	43	-24.6	21.7	ESE	0.36	23.5	ESE	-27.1	-14.9	-27.3	738.8	0.023	0.000	21.0	6	-18.0	17.7	1.55	 .0728	24	1	100.0	1
02/24/24	19:47	-14.8	-14.8	-14.8	44	-24.4	21.7	ESE	0.36	23.5	ESE	-27.1	-14.9	-27.3	738.8	0.023	0.000	21.0	6	-18.0	17.7	1.55	 .0728	23	1	100.0	1
02/24/24	19:48	-14.7	-14.7	-14.8	44	-24.3	21.7	ESE	0.36	23.5	E	-27.0	-14.9	-27.2	738.8	0.023	0.000	21.0	6	-18.0	17.7	1.55	 .0728	23	1	100.0	1
02/24/24	19:49	-14.8	-14.7	-14.8	44	-24.4	21.7	ESE	0.36	22.6	ESE	-27.1	-14.9	-27.3	738.8	0.023	0.000	21.0	6	-18.0	17.7	1.55	 .0728	24	1	100.0	1
02/24/24	19:50	-14.8	-14.8	-14.8	44	-24.4	21.7	ESE	0.36	22.6	ESE	-27.1	-14.9	-27.3	738.8	0.023	0.000	21.0	6	-18.0	17.7	1.55	 .0728	23	1	100.0	1
02/24/24	19:51	-14.7	-14.7	-14.8	44	-24.3	21.7	ESE	0.36	22.6	ESE	-27.0	-14.9	-27.2	738.8	0.023	0.000	21.0	6	-18.0	17.7	1.55	 .0728	24	1	100.0	1
02/24/24	19:52	-14.7	-14.7	-14.7	44	-24.2	20.9	ESE	0.35	22.6	ESE	-26.7	-14.8	-26.9	738.8	0.023	0.000	21.0	6	-18.0	17.7	1.55	 .0728	23	1	100.0	1
02/24/24	19:53	-14.8	-14.7	-14.8	44	-24.4	21.7	ESE	0.36	22.6	ESE	-27.1	-14.9	-27.3	738.9	0.023	0.000	21.1	6	-18.0	17.8	1.55	 .0727	23	1	100.0	1
02/24/24	19:54	-14.8	-14.8	-14.8	44	-24.4	21.7	ESE	0.36	22.6	ESE	-27.1	-14.9	-27.3	738.9	0.023	0.000	21.1	6	-18.0	17.8	1.55	 .0727	24	1	100.0	1
02/24/24	19:55	-14.8	-14.8	-14.8	44	-24.4	21.7	ESE	0.36	22.6	ESE	-27.1	-14.9	-27.3	738.9	0.023	0.000	21.1	6	-18.0	17.8	1.55	 .0727	23	1	100.0	1
02/24/24	19:56	-14.8	-14.8	-14.8	44	-24.4	21.7	ESE	0.36	21.7	ESE	-27.1	-14.9	-27.3	738.8	0.023	0.000	21.1	6	-18.0	17.8	1.55	 .0727	24	1	100.0	1
02/24/24	19:57	-14.7	-14.7	-14.8	45	-24.0	20.9	ESE	0.35	21.7	ESE	-26.8	-14.9	-27.0	738.8	0.023	0.000	21.1	6	-18.0	17.8	1.55	 .0727	23	1	100.0	1
02/24/24	19:58	-14.6	-14.6	-14.7	44	-24.2	20.9	ESE	0.35	21.7	ESE	-26.7	-14.8	-26.8	738.9	0.023	0.000	21.1	6	-18.0	17.8	1.55	 .0727	24	1	100.0	1
02/24/24	19:59	-14.6	-14.6	-14.6	43	-24.4	20.9	ESE	0.35	21.7	ESE	-26.6	-14.7	-26.8	738.9	0.023	0.000	21.1	6	-18.0	17.8	1.55	 .0727	23	1	100.0	1
02/24/24	20:00	-14.4	-14.4	-14.6	44	-24.0	20.9	ESE	0.35	21.7	ESE	-26.4	-14.6	-26.6	738.9	0.023	0.000	21.1	6	-18.0	17.8	1.55	 .0727	23	1	100.0	1
02/24/24	20:01	-14.4	-14.4	-14.4	43	-24.3	21.7	ESE	0.36	23.5	ESE	-26.6	-14.6	-26.7	738.9	0.023	0.000	21.1	6	-18.0	17.8	1.55	 .0727	24	1	100.0	1
02/24/24	20:02	-14.3	-14.3	-14.4	43	-24.2	20.0	ESE	0.33	22.6	ESE	-26.1	-14.6	-26.3	738.9	0.023	0.000	21.1	6	-18.0	17.8	1.55	 .0727	23	1	100.0	1
02/24/24	20:03	-14.2	-14.2	-14.3	43	-24.0	20.9	E	0.35	24.3	ESE	-26.1	-14.4	-26.3	738.9	0.023	0.000	21.1	6	-18.0	17.8	1.55	 .0727	24	1	100.0	1
02/24/24	20:04	-14.0	-14.0	-14.2	43	-23.9	20.9	ESE	0.35	22.6	E	-25.8	-14.2	-26.1	738.9	0.022	0.000	21.2	6	-17.9	17.9	1.55	 .0727	23	1	100.0	1
02/24/24	20:05	-13.9	-13.9	-14.0	42	-24.1	19.1	ESE	0.32	21.7	ESE	-25.4	-14.2	-25.6	738.9	0.022	0.000	21.2	6	-17.9	17.9	1.55	 .0727	23	1	100.0	1
02/24/24	20:06	-14.1	-13.9	-14.1	42	-24.2	18.3	ESE	0.30	20.0	ESE	-25.3	-14.3	-25.5	738.9	0.022	0.000	21.2	6	-17.9	17.9	1.55	 .0727	24	1	100.0	1
02/24/24	20:07	-14.2	-14.1	-14.2	43	-24.0	19.1	ESE	0.32	20.9	ESE	-25.7	-14.4	-25.9	738.9	0.023	0.000	21.2	6	-17.9	17.9	1.55	 .0727	23	1	100.0	1
02/24/24	20:08	-14.3	-14.2	-14.3	43	-24.1	20.0	ESE	0.33	20.9	E	-26.0	-14.5	-26.2	738.9	0.023	0.000	21.2	6	-17.9	17.9	1.55	 .0727	24	1	100.0	1
02/24/24	20:09	-14.3	-14.3	-14.3	43	-24.2	20.0	ESE	0.33	20.9	ESE	-26.1	-14.6	-26.3	738.9	0.023	0.000	21.2	6	-17.9	18.0	1.55	 .0727	23	1	100.0	1
02/24/24	20:10	-14.3	-14.3	-14.4	43	-24.2	20.9	ESE	0.35	21.7	ESE	-26.3	-14.6	-26.5	738.9	0.023	0.000	21.2	6	-17.9	18.0	1.55	 .0727	24	1	100.0	1
02/24/24	20:11	-14.3	-14.3	-14.3	43	-24.2	18.3	ESE	0.30	20.0	ESE	-25.7	-14.6	-25.9	738.9	0.023	0.000	21.2	6	-17.9	18.0	1.55	 .0727	23	1	100.0	1
02/24/24	20:12	-14.4	-14.4	-14.4	43	-24.3	18.3	ESE	0.30	20.9	ESE	-25.8	-14.6	-25.9	739.0	0.023	0.000	21.2	6	-17.9	18.0	1.55	 .0727	23	1	100.0	1
02/24/24	20:13	-14.4	-14.4	-14.4	43	-24.3	19.1	ESE	0.32	20.9	ESE	-25.9	-14.6	-26.1	738.9	0.023	0.000	21.3	6	-17.8	18.1	1.54	 .0727	24	1	100.0	1
02/24/24	20:14	-14.4	-14.3	-14.4	43	-24.3	18.3	ESE	0.30	20.0	ESE	-25.7	-14.6	-25.9	739.0	0.023	0.000	21.2	6	-17.9	18.0	1.55	 .0727	23	1	100.0	1
02/24/24	20:15	-14.4	-14.4	-14.4	43	-24.3	18.3	ESE	0.30	20.0	ESE	-25.8	-14.6	-25.9	739.0	0.023	0.000	21.3	6	-17.8	18.1	1.54	 .0727	24	1	100.0	1
02/24/24	20:16	-14.4	-14.4	-14.4	43	-24.3	18.3	ESE	0.30	20.0	ESE	-25.8	-14.6	-25.9	739.0	0.023	0.000	21.3	6	-17.8	18.1	1.54	 .0727	23	1	100.0	1
02/24/24	20:17	-14.2	-14.2	-14.4	44	-23.8	18.3	ESE	0.30	20.9	ESE	-25.5	-14.4	-25.7	738.9	0.023	0.000	21.3	6	-17.8	18.1	1.54	 .0727	23	1	100.0	1
02/24/24	20:18	-14.1	-14.1	-14.2	44	-23.7	17.4	ESE	0.29	19.1	ESE	-25.1	-14.3	-25.3	738.9	0.022	0.000	21.3	6	-17.8	18.1	1.54	 .0727	24	1	100.0	1
02/24/24	20:19	-14.0	-14.0	-14.1	43	-23.9	17.4	ESE	0.29	20.0	E	-25.0	-14.2	-25.2	739.0	0.022	0.000	21.3	6	-17.8	18.1	1.54	 .0727	23	1	100.0	1
02/24/24	20:20	-14.0	-14.0	-14.0	43	-23.9	17.4	ESE	0.29	20.0	E	-25.0	-14.2	-25.2	738.9	0.022	0.000	21.3	6	-17.8	18.1	1.54	 .0727	24	1	100.0	1
02/24/24	20:21	-14.0	-14.0	-14.0	43	-23.9	17.4	ESE	0.29	19.1	ESE	-25.0	-14.2	-25.2	738.9	0.022	0.000	21.2	6	-17.9	18.0	1.55	 .0727	23	1	100.0	1
02/24/24	20:22	-14.1	-14.0	-14.1	43	-23.9	17.4	ESE	0.29	19.1	ESE	-25.1	-14.3	-25.3	738.9	0.022	0.000	21.3	6	-17.8	18.1	1.54	 .0727	23	1	100.0	1
02/24/24	20:23	-14.2	-14.1	-14.2	43	-24.1	17.4	ESE	0.29	19.1	ESE	-25.3	-14.4	-25.5	739.0	0.023	0.000	21.2	6	-17.9	18.0	1.55	 .0727	24	1	100.0	1
02/24/24	20:24	-14.4	-14.3	-14.4	43	-24.3	18.3	ESE	0.30	19.1	ESE	-25.7	-14.6	-25.9	738.9	0.023	0.000	21.2	6	-17.9	18.0	1.55	 .0727	23	1	100.0	1
02/24/24	20:25	-14.4	-14.4	-14.4	43	-24.3	17.4	ESE	0.29	19.1	ESE	-25.6	-14.6	-25.7	738.9	0.023	0.000	21.2	6	-17.9	18.0	1.55	 .0727	24	1	100.0	1
02/24/24	20:26	-14.5	-14.4	-14.5	44	-24.1	17.4	ESE	0.29	17.4	ESE	-25.7	-14.7	-25.8	738.9	0.023	0.000	21.2	6	-17.9	18.0	1.55	 .0727	23	1	100.0	1
02/24/24	20:27	-14.6	-14.5	-14.6	45	-23.9	16.5	ESE	0.28	17.4	ESE	-25.6	-14.8	-25.7	738.9	0.023	0.000	21.2	6	-17.9	18.0	1.55	 .0727	24	1	100.0	1
02/24/24	20:28	-14.8	-14.6	-14.8	45	-24.2	17.4	ESE	0.29	19.1	ESE	-26.1	-15.0	-26.2	738.9	0.023	0.000	21.2	6	-17.9	18.0	1.55	 .0727	23	1	100.0	1
02/24/24	20:29	-14.9	-14.8	-14.9	44	-24.5	18.3	ESE	0.30	20.0	ESE	-26.4	-15.1	-26.6	738.9	0.023	0.000	21.2	6	-17.9	17.9	1.55	 .0727	23	1	100.0	1
02/24/24	20:30	-15.0	-14.9	-15.0	44	-24.6	17.4	ESE	0.29	18.3	ESE	-26.3	-15.2	-26.4	738.9	0.023	0.000	21.2	6	-17.9	17.9	1.55	 .0727	24	1	100.0	1
02/24/24	20:31	-15.1	-15.1	-15.1	44	-24.6	18.3	ESE	0.30	20.0	ESE	-26.6	-15.2	-26.8	738.9	0.023	0.000	21.2	6	-17.9	17.9	1.55	 .0727	23	1	100.0	1
02/24/24	20:32	-14.9	-14.9	-15.0	45	-24.3	20.0	ESE	0.33	20.9	ESE	-26.9	-15.1	-27.1	738.9	0.023	0.000	21.2	6	-17.9	17.9	1.55	 .0727	24	1	100.0	1
02/24/24	20:33	-14.7	-14.7	-14.9	45	-24.0	19.1	ESE	0.32	20.0	ESE	-26.4	-14.9	-26.6	738.9	0.023	0.000	21.2	6	-17.9	17.9	1.55	 .0727	23	1	100.0	1
02/24/24	20:34	-14.6	-14.6	-14.7	45	-23.9	19.1	ESE	0.32	20.0	ESE	-26.2	-14.7	-26.3	738.8	0.023	0.000	21.2	6	-17.9	17.9	1.55	 .0727	23	1	100.0	1
02/24/24	20:35	-14.5	-14.5	-14.6	45	-23.8	20.0	ESE	0.33	20.9	ESE	-26.3	-14.7	-26.5	738.8	0.023	0.000	21.1	6	-18.0	17.8	1.55	 .0727	24	1	100.0	1
02/24/24	20:36	-14.5	-14.5	-14.5	44	-24.1	20.9	ESE	0.35	21.7	ESE	-26.5	-14.7	-26.7	738.8	0.023	0.000	21.1	6	-18.0	17.8	1.55	 .0727	23	1	100.0	1
02/24/24	20:37	-14.4	-14.4	-14.4	44	-24.0	20.0	ESE	0.33	20.9	ESE	-26.2	-14.6	-26.4	738.8	0.023	0.000	21.1	6	-18.0	17.8	1.55	 .0727	24	1	100.0	1
02/24/24	20:38	-14.4	-14.4	-14.4	44	-24.0	20.9	ESE	0.35	21.7	ESE	-26.4	-14.6	-26.6	738.8	0.023	0.000	21.1	6	-18.0	17.8	1.55	 .0727	23	1	100.0	1
02/24/24	20:39	-14.4	-14.4	-14.4	44	-24.0	20.9	ESE	0.35	21.7	ESE	-26.4	-14.6	-26.6	738.8	0.023	0.000	21.1	6	-18.0	17.8	1.55	 .0727	24	1	100.0	1
02/24/24	20:40	-14.5	-14.4	-14.5	44	-24.1	20.0	ESE	0.33	21.7	ESE	-26.3	-14.7	-26.5	738.8	0.023	0.000	21.2	6	-17.9	17.9	1.55	 .0727	23	1	100.0	1
02/24/24	20:41	-14.6	-14.5	-14.6	45	-23.9	20.9	ESE	0.35	21.7	ESE	-26.6	-14.7	-26.8	738.8	0.023	0.000	21.2	6	-17.9	17.9	1.55	 .0727	23	1	100.0	1
02/24/24	20:42	-14.6	-14.6	-14.6	45	-23.9	20.9	ESE	0.35	21.7	ESE	-26.6	-14.7	-26.8	738.8	0.023	0.000	21.2	6	-17.9	17.9	1.55	 .0727	24	1	100.0	1
02/24/24	20:43	-14.7	-14.6	-14.7	44	-24.2	20.9	ESE	0.35	21.7	ESE	-26.7	-14.8	-26.9	738.8	0.023	0.000	21.2	6	-17.9	17.9	1.55	 .0727	23	1	100.0	1
02/24/24	20:44	-14.7	-14.7	-14.7	45	-24.0	20.9	ESE	0.35	20.9	ESE	-26.8	-14.9	-27.0	738.8	0.023	0.000	21.2	6	-17.9	17.9	1.55	 .0727	24	1	100.0	1
02/24/24	20:45	-14.8	-14.7	-14.8	46	-23.9	20.0	ESE	0.33	21.7	ESE	-26.7	-14.9	-26.8	738.8	0.023	0.000	21.2	6	-17.9	17.9	1.55	 .0727	23	1	100.0	1
02/24/24	20:46	-14.9	-14.8	-14.9	46	-24.0	20.9	ESE	0.35	21.7	ESE	-27.1	-15.1	-27.2	738.8	0.023	0.000	21.2	6	-17.9	17.9	1.55	 .0727	23	1	100.0	1
02/24/24	20:47	-14.9	-14.9	-14.9	46	-24.0	20.9	ESE	0.35	21.7	ESE	-27.1	-15.1	-27.3	738.8	0.023	0.000	21.2	6	-17.9	17.9	1.55	 .0727	24	1	100.0	1
02/24/24	20:48	-14.9	-14.9	-14.9	47	-23.8	20.9	ESE	0.35	21.7	E	-27.1	-15.1	-27.3	738.8	0.023	0.000	21.2	6	-17.9	18.0	1.55	 .0727	23	1	100.0	1
02/24/24	20:49	-15.1	-14.9	-15.1	47	-23.9	20.9	ESE	0.35	21.7	ESE	-27.3	-15.2	-27.4	738.7	0.023	0.000	21.2	6	-17.9	18.0	1.55	 .0727	24	1	100.0	1
02/24/24	20:50	-15.1	-15.1	-15.1	47	-23.9	20.9	ESE	0.35	21.7	ESE	-27.3	-15.2	-27.4	738.8	0.023	0.000	21.2	6	-17.9	18.0	1.55	 .0727	23	1	100.0	1
02/24/24	20:51	-15.1	-15.1	-15.1	47	-23.9	20.9	ESE	0.35	22.6	ESE	-27.3	-15.2	-27.4	738.8	0.023	0.000	21.2	6	-17.9	18.0	1.55	 .0727	24	1	100.0	1
02/24/24	20:52	-15.0	-15.0	-15.1	47	-23.8	20.9	ESE	0.35	22.6	ESE	-27.2	-15.2	-27.3	738.7	0.023	0.000	21.3	6	-17.8	18.1	1.54	 .0727	23	1	100.0	1
02/24/24	20:53	-15.1	-15.0	-15.1	47	-23.9	21.7	ESE	0.36	23.5	ESE	-27.4	-15.2	-27.6	738.7	0.023	0.000	21.3	6	-17.8	18.1	1.54	 .0727	23	1	100.0	1
02/24/24	20:54	-15.1	-15.0	-15.1	47	-23.9	21.7	ESE	0.36	22.6	ESE	-27.4	-15.2	-27.6	738.8	0.023	0.000	21.3	6	-17.8	18.1	1.54	 .0727	24	1	100.0	1
02/24/24	20:55	-15.1	-15.1	-15.1	47	-23.9	21.7	ESE	0.36	22.6	E	-27.4	-15.2	-27.6	738.7	0.023	0.000	21.3	6	-17.8	18.1	1.54	 .0727	23	1	100.0	1
02/24/24	20:56	-15.1	-15.1	-15.1	47	-23.9	21.7	ESE	0.36	23.5	ESE	-27.4	-15.2	-27.6	738.7	0.023	0.000	21.3	6	-17.8	18.1	1.54	 .0727	24	1	100.0	1
02/24/24	20:57	-15.1	-15.1	-15.1	47	-23.9	20.0	ESE	0.33	21.7	ESE	-27.1	-15.2	-27.2	738.8	0.023	0.000	21.3	6	-17.8	18.1	1.54	 .0727	23	1	100.0	1
02/24/24	20:58	-15.1	-15.1	-15.1	47	-23.9	20.0	ESE	0.33	20.9	ESE	-27.1	-15.2	-27.2	738.8	0.023	0.000	21.3	6	-17.8	18.1	1.54	 .0727	23	1	100.0	1
02/24/24	20:59	-15.1	-15.1	-15.1	48	-23.6	19.1	ESE	0.32	20.9	ESE	-26.8	-15.2	-27.0	738.8	0.023	0.000	21.3	6	-17.8	18.1	1.54	 .0727	24	1	100.0	1
02/24/24	21:00	-15.1	-15.1	-15.1	48	-23.6	20.0	ESE	0.33	20.9	ESE	-27.1	-15.2	-27.2	738.8	0.023	0.000	21.3	6	-17.8	18.1	1.54	 .0727	23	1	100.0	1
02/24/24	21:01	-15.0	-15.0	-15.1	47	-23.8	20.0	E	0.33	21.7	E	-27.0	-15.2	-27.2	738.8	0.023	0.000	21.3	6	-17.8	18.2	1.54	 .0727	24	1	100.0	1
02/24/24	21:02	-14.9	-14.9	-14.9	47	-23.7	20.9	ESE	0.35	21.7	E	-27.1	-15.1	-27.2	738.7	0.023	0.000	21.3	6	-17.8	18.2	1.54	 .0727	23	1	100.0	1
02/24/24	21:03	-14.8	-14.8	-14.8	47	-23.6	20.0	ESE	0.33	21.7	ESE	-26.7	-14.9	-26.8	738.7	0.023	0.000	21.3	6	-17.8	18.1	1.54	 .0727	23	1	100.0	1
02/24/24	21:04	-14.6	-14.6	-14.7	47	-23.4	19.1	ESE	0.32	20.9	ESE	-26.2	-14.7	-26.3	738.7	0.023	0.000	21.3	6	-17.8	18.1	1.54	 .0727	24	1	100.0	1
02/24/24	21:05	-14.5	-14.5	-14.6	48	-23.1	20.9	ESE	0.35	22.6	ESE	-26.5	-14.7	-26.7	738.7	0.023	0.000	21.3	6	-17.8	18.1	1.54	 .0727	23	1	100.0	1
02/24/24	21:06	-14.4	-14.4	-14.4	47	-23.3	19.1	ESE	0.32	21.7	E	-25.9	-14.6	-26.1	738.7	0.023	0.000	21.3	6	-17.8	18.1	1.54	 .0727	24	1	100.0	1
02/24/24	21:07	-14.4	-14.4	-14.4	47	-23.3	20.0	ESE	0.33	20.9	ESE	-26.2	-14.6	-26.3	738.7	0.023	0.000	21.3	6	-17.8	18.1	1.54	 .0727	23	1	100.0	1
02/24/24	21:08	-14.3	-14.3	-14.4	47	-23.2	20.0	ESE	0.33	21.7	ESE	-26.1	-14.5	-26.3	738.7	0.023	0.000	21.2	6	-17.9	18.0	1.55	 .0727	24	1	100.0	1
02/24/24	21:09	-14.2	-14.2	-14.3	47	-23.0	20.9	ESE	0.35	23.5	ESE	-26.1	-14.3	-26.2	738.8	0.023	0.000	21.2	6	-17.9	18.0	1.55	 .0727	23	1	100.0	1
02/24/24	21:10	-14.1	-14.1	-14.2	46	-23.2	20.0	ESE	0.33	22.6	ESE	-25.7	-14.3	-25.9	738.7	0.022	0.000	21.2	6	-17.9	18.0	1.55	 .0727	23	1	100.0	1
02/24/24	21:11	-13.9	-13.9	-14.1	46	-23.1	19.1	ESE	0.32	20.9	ESE	-25.4	-14.2	-25.6	738.7	0.022	0.000	21.2	6	-17.9	18.0	1.55	 .0727	24	1	100.0	1
02/24/24	21:12	-13.9	-13.9	-13.9	46	-23.1	19.1	ESE	0.32	20.9	ESE	-25.4	-14.2	-25.6	738.8	0.022	0.000	21.2	6	-17.9	18.0	1.55	 .0727	23	1	100.0	1
02/24/24	21:13	-13.9	-13.9	-13.9	46	-23.1	20.0	ESE	0.33	22.6	ESE	-25.6	-14.2	-25.8	738.7	0.022	0.000	21.2	6	-17.9	17.9	1.55	 .0727	24	1	100.0	1
02/24/24	21:14	-13.9	-13.9	-13.9	47	-22.8	19.1	ESE	0.32	20.9	E	-25.4	-14.2	-25.6	738.7	0.022	0.000	21.2	6	-17.9	17.9	1.55	 .0727	23	1	100.0	1
02/24/24	21:15	-13.9	-13.9	-13.9	48	-22.6	18.3	ESE	0.30	20.9	ESE	-25.2	-14.1	-25.3	738.7	0.022	0.000	21.2	6	-17.9	17.9	1.55	 .0727	23	1	100.0	1
02/24/24	21:16	-13.7	-13.7	-13.9	49	-22.2	20.9	ESE	0.35	25.2	ESE	-25.5	-13.9	-25.7	738.8	0.022	0.000	21.1	6	-18.0	17.8	1.55	 .0727	24	1	100.0	1
02/24/24	21:17	-13.6	-13.6	-13.7	50	-21.8	19.1	ESE	0.32	21.7	ESE	-24.9	-13.8	-25.1	738.7	0.022	0.000	21.1	6	-18.0	17.8	1.55	 .0727	23	1	100.0	1
02/24/24	21:18	-13.5	-13.5	-13.6	49	-22.0	19.1	ESE	0.32	20.0	ESE	-24.8	-13.7	-24.9	738.7	0.022	0.000	21.1	6	-18.0	17.8	1.55	 .0727	24	1	100.0	1
02/24/24	21:19	-13.6	-13.5	-13.6	48	-22.2	20.0	ESE	0.33	22.6	ESE	-25.1	-13.7	-25.2	738.7	0.022	0.000	21.1	6	-18.0	17.8	1.55	 .0727	23	1	100.0	1
02/24/24	21:20	-13.5	-13.5	-13.6	49	-22.0	21.7	ESE	0.36	23.5	ESE	-25.4	-13.7	-25.6	738.7	0.022	0.000	21.1	6	-18.0	17.8	1.55	 .0727	24	1	100.0	1
02/24/24	21:21	-13.6	-13.6	-13.6	49	-22.0	20.9	ESE	0.35	22.6	ESE	-25.3	-13.7	-25.4	738.7	0.022	0.000	21.1	6	-18.0	17.8	1.55	 .0727	23	1	100.0	1
02/24/24	21:22	-13.6	-13.6	-13.6	49	-22.0	22.6	ESE	0.38	25.2	ESE	-25.7	-13.7	-25.8	738.6	0.022	0.000	21.1	6	-18.0	17.8	1.55	 .0727	23	1	100.0	1
02/24/24	21:23	-13.6	-13.6	-13.6	48	-22.2	21.7	ESE	0.36	23.5	ESE	-25.4	-13.7	-25.6	738.6	0.022	0.000	21.1	6	-18.0	17.8	1.55	 .0727	24	1	100.0	1
02/24/24	21:24	-13.6	-13.6	-13.6	48	-22.3	20.9	ESE	0.35	22.6	ESE	-25.3	-13.8	-25.5	738.6	0.022	0.000	21.1	6	-18.0	17.8	1.55	 .0727	23	1	100.0	1
02/24/24	21:25	-13.8	-13.7	-13.8	48	-22.4	21.7	ESE	0.36	22.6	ESE	-25.8	-13.9	-25.9	738.6	0.022	0.000	21.1	6	-18.0	17.8	1.55	 .0727	24	1	100.0	1
02/24/24	21:26	-13.9	-13.8	-13.9	48	-22.6	22.6	ESE	0.38	24.3	ESE	-26.2	-14.1	-26.3	738.6	0.022	0.000	21.1	6	-18.0	17.8	1.55	 .0727	23	1	100.0	1
02/24/24	21:27	-14.1	-13.9	-14.1	48	-22.7	22.6	ESE	0.38	24.3	ESE	-26.3	-14.2	-26.5	738.6	0.022	0.000	21.1	6	-18.0	17.8	1.55	 .0727	23	1	100.0	1
02/24/24	21:28	-14.1	-14.1	-14.1	47	-23.0	21.7	ESE	0.36	23.5	ESE	-26.2	-14.3	-26.4	738.6	0.023	0.000	21.1	6	-18.0	17.8	1.55	 .0727	24	1	100.0	1
02/24/24	21:29	-14.1	-14.1	-14.1	48	-22.8	22.6	ESE	0.38	25.2	ESE	-26.4	-14.3	-26.6	738.6	0.023	0.000	21.1	6	-18.0	17.8	1.55	 .0727	23	1	100.0	1
02/24/24	21:30	-13.9	-13.9	-14.1	49	-22.4	23.5	ESE	0.39	27.0	ESE	-26.3	-14.1	-26.5	738.5	0.022	0.000	21.2	6	-17.9	17.9	1.55	 .0727	24	1	100.0	1
02/24/24	21:31	-13.8	-13.8	-13.9	48	-22.5	21.7	ESE	0.36	23.5	ESE	-25.8	-14.0	-26.0	738.6	0.022	0.000	21.2	6	-17.9	17.9	1.55	 .0727	23	1	100.0	1
02/24/24	21:32	-13.9	-13.8	-13.9	46	-23.0	21.7	ESE	0.36	23.5	ESE	-25.9	-14.1	-26.1	738.6	0.022	0.000	21.2	6	-17.9	17.9	1.55	 .0727	24	1	100.0	1
02/24/24	21:33	-14.1	-13.9	-14.1	45	-23.4	21.7	ESE	0.36	23.5	ESE	-26.1	-14.3	-26.3	738.6	0.022	0.000	21.2	6	-17.9	17.9	1.55	 .0727	23	1	100.0	1
02/24/24	21:34	-14.3	-14.1	-14.3	46	-23.4	20.0	ESE	0.33	23.5	ESE	-26.0	-14.4	-26.2	738.7	0.023	0.000	21.2	6	-17.9	17.9	1.55	 .0727	23	1	100.0	1
02/24/24	21:35	-14.3	-14.3	-14.3	47	-23.1	20.9	ESE	0.35	22.6	ESE	-26.2	-14.4	-26.4	738.6	0.023	0.000	21.2	6	-17.9	17.9	1.55	 .0727	24	1	100.0	1
02/24/24	21:36	-14.3	-14.3	-14.3	48	-23.0	20.0	ESE	0.33	21.7	ESE	-26.1	-14.5	-26.3	738.7	0.023	0.000	21.2	6	-17.9	17.9	1.55	 .0727	23	1	100.0	1
02/24/24	21:37	-14.4	-14.3	-14.4	47	-23.3	20.9	ESE	0.35	21.7	ESE	-26.4	-14.6	-26.6	738.7	0.023	0.000	21.2	6	-17.9	18.0	1.55	 .0727	24	1	100.0	1
02/24/24	21:38	-14.4	-14.4	-14.4	46	-23.5	19.1	ESE	0.32	21.7	ESE	-26.0	-14.6	-26.2	738.7	0.023	0.000	21.2	6	-17.9	18.0	1.55	 .0727	23	1	100.0	1
02/24/24	21:39	-14.2	-14.2	-14.4	47	-23.1	20.0	ESE	0.33	23.5	ESE	-25.9	-14.4	-26.1	738.7	0.023	0.000	21.2	6	-17.9	18.0	1.55	 .0727	23	1	100.0	1
02/24/24	21:40	-14.1	-14.1	-14.2	48	-22.7	19.1	ESE	0.32	22.6	ESE	-25.5	-14.2	-25.7	738.6	0.022	0.000	21.2	6	-17.9	18.0	1.55	 .0727	24	1	100.0	1
02/24/24	21:41	-13.9	-13.9	-14.0	49	-22.4	19.1	ESE	0.32	22.6	ESE	-25.4	-14.1	-25.6	738.7	0.022	0.000	21.3	6	-17.8	18.1	1.54	 .0727	23	1	100.0	1
02/24/24	21:42	-13.9	-13.9	-13.9	48	-22.6	19.1	ESE	0.32	20.0	ESE	-25.4	-14.1	-25.6	738.7	0.022	0.000	21.3	6	-17.8	18.1	1.54	 .0727	24	1	100.0	1
02/24/24	21:43	-13.9	-13.9	-13.9	47	-22.8	19.1	ESE	0.32	21.7	ESE	-25.3	-14.1	-25.5	738.7	0.022	0.000	21.3	6	-17.8	18.1	1.54	 .0727	23	1	100.0	1
02/24/24	21:44	-13.9	-13.9	-13.9	48	-22.6	19.1	ESE	0.32	20.9	ESE	-25.3	-14.1	-25.4	738.7	0.022	0.000	21.3	6	-17.8	18.1	1.54	 .0727	23	1	100.0	1
02/24/24	21:45	-13.9	-13.8	-13.9	48	-22.6	18.3	ESE	0.30	20.0	ESE	-25.1	-14.1	-25.2	738.7	0.022	0.000	21.3	6	-17.8	18.1	1.54	 .0727	24	1	100.0	1
02/24/24	21:46	-13.9	-13.9	-13.9	48	-22.6	17.4	ESE	0.29	19.1	ESE	-24.8	-14.1	-25.0	738.7	0.022	0.000	21.3	6	-17.8	18.1	1.54	 .0727	23	1	100.0	1
02/24/24	21:47	-13.8	-13.8	-13.9	49	-22.3	18.3	ESE	0.30	20.0	ESE	-25.0	-14.0	-25.2	738.7	0.022	0.000	21.3	6	-17.8	18.1	1.54	 .0727	24	1	100.0	1
02/24/24	21:48	-13.8	-13.8	-13.8	50	-22.0	18.3	ESE	0.30	20.9	ESE	-25.0	-14.0	-25.2	738.7	0.022	0.000	21.3	6	-17.8	18.1	1.54	 .0727	23	1	100.0	1
02/24/24	21:49	-13.8	-13.8	-13.8	50	-22.0	17.4	ESE	0.29	19.1	ESE	-24.7	-13.9	-24.8	738.7	0.022	0.000	21.3	6	-17.8	18.1	1.54	 .0727	24	1	100.0	1
02/24/24	21:50	-13.8	-13.8	-13.8	50	-22.0	18.3	ESE	0.30	19.1	ESE	-24.9	-13.9	-25.1	738.7	0.022	0.000	21.3	6	-17.8	18.1	1.54	 .0727	23	1	100.0	1
02/24/24	21:51	-13.8	-13.8	-13.8	49	-22.3	17.4	ESE	0.29	19.1	ESE	-24.8	-14.0	-24.9	738.7	0.022	0.000	21.3	6	-17.8	18.1	1.54	 .0727	23	1	100.0	1
02/24/24	21:52	-13.9	-13.8	-13.9	50	-22.1	17.4	ESE	0.29	20.0	ESE	-24.8	-14.1	-25.0	738.7	0.022	0.000	21.3	6	-17.8	18.1	1.54	 .0727	24	1	100.0	1
02/24/24	21:53	-13.9	-13.9	-13.9	50	-22.1	17.4	ESE	0.29	19.1	ESE	-24.9	-14.1	-25.1	738.7	0.022	0.000	21.3	6	-17.8	18.1	1.54	 .0727	23	1	100.0	1
02/24/24	21:54	-13.9	-13.9	-13.9	51	-21.9	17.4	ESE	0.29	20.9	ESE	-24.9	-14.1	-25.1	738.7	0.022	0.000	21.3	6	-17.8	18.1	1.54	 .0727	24	1	100.0	1
02/24/24	21:55	-13.9	-13.9	-13.9	52	-21.6	18.3	ESE	0.30	20.0	ESE	-25.1	-14.1	-25.2	738.7	0.022	0.000	21.3	6	-17.8	18.1	1.54	 .0727	23	1	100.0	1
02/24/24	21:56	-13.9	-13.9	-13.9	51	-21.9	19.1	ESE	0.32	20.9	ESE	-25.4	-14.1	-25.6	738.7	0.022	0.000	21.2	6	-17.9	18.0	1.55	 .0727	23	1	100.0	1
02/24/24	21:57	-14.0	-13.9	-14.0	51	-22.0	19.1	ESE	0.32	20.0	ESE	-25.4	-14.2	-25.6	738.7	0.022	0.000	21.3	6	-17.8	18.1	1.54	 .0727	24	1	100.0	1
02/24/24	21:58	-14.1	-14.1	-14.1	50	-22.3	18.3	ESE	0.30	20.0	ESE	-25.4	-14.3	-25.6	738.7	0.023	0.000	21.2	6	-17.9	18.0	1.55	 .0727	23	1	100.0	1
02/24/24	21:59	-14.1	-14.1	-14.1	50	-22.3	18.3	ESE	0.30	20.0	E	-25.4	-14.3	-25.6	738.7	0.023	0.000	21.2	6	-17.9	18.0	1.55	 .0727	24	1	100.0	1
02/24/24	22:00	-14.2	-14.2	-14.2	51	-22.1	18.3	ESE	0.30	20.0	ESE	-25.4	-14.3	-25.6	738.7	0.023	0.000	21.2	6	-17.9	18.0	1.55	 .0727	23	1	100.0	1
02/24/24	22:01	-14.2	-14.2	-14.2	52	-22.0	20.0	ESE	0.33	20.9	ESE	-25.9	-14.4	-26.1	738.7	0.023	0.000	21.2	6	-17.9	18.0	1.55	 .0727	24	1	100.0	1
02/24/24	22:02	-14.2	-14.2	-14.2	52	-22.0	18.3	ESE	0.30	20.0	ESE	-25.5	-14.4	-25.7	738.7	0.023	0.000	21.2	6	-17.9	18.0	1.55	 .0727	23	1	100.0	1
02/24/24	22:03	-14.2	-14.2	-14.2	52	-22.0	18.3	ESE	0.30	20.0	ESE	-25.5	-14.4	-25.7	738.7	0.023	0.000	21.2	6	-17.9	17.9	1.55	 .0727	23	1	100.0	1
02/24/24	22:04	-14.3	-14.2	-14.3	52	-22.0	17.4	ESE	0.29	19.1	ESE	-25.3	-14.4	-25.5	738.7	0.023	0.000	21.2	6	-17.9	17.9	1.55	 .0727	24	1	100.0	1
02/24/24	22:05	-14.3	-14.3	-14.3	53	-21.8	18.3	ESE	0.30	20.0	ESE	-25.6	-14.4	-25.7	738.7	0.023	0.000	21.2	6	-17.9	17.9	1.55	 .0727	23	1	100.0	1
02/24/24	22:06	-14.3	-14.3	-14.3	53	-21.8	18.3	ESE	0.30	20.0	ESE	-25.7	-14.5	-25.8	738.7	0.023	0.000	21.2	6	-17.9	17.9	1.55	 .0727	24	1	100.0	1
02/24/24	22:07	-14.3	-14.3	-14.3	54	-21.6	19.1	ESE	0.32	21.7	ESE	-25.9	-14.5	-26.1	738.6	0.023	0.000	21.2	6	-17.9	17.9	1.55	 .0727	23	1	100.0	1
02/24/24	22:08	-14.3	-14.3	-14.3	54	-21.6	20.0	ESE	0.33	20.9	ESE	-26.1	-14.5	-26.3	738.6	0.023	0.000	21.2	6	-17.9	17.9	1.55	 .0727	23	1	100.0	1
02/24/24	22:09	-14.3	-14.3	-14.3	54	-21.6	20.0	ESE	0.33	21.7	ESE	-26.1	-14.5	-26.3	738.6	0.023	0.000	21.2	6	-17.9	17.9	1.55	 .0727	24	1	100.0	1
02/24/24	22:10	-14.3	-14.3	-14.4	55	-21.4	20.9	ESE	0.35	21.7	ESE	-26.3	-14.5	-26.4	738.6	0.023	0.000	21.2	6	-17.9	17.9	1.55	 .0727	23	1	100.0	1
02/24/24	22:11	-14.3	-14.3	-14.4	55	-21.4	20.9	ESE	0.35	21.7	ESE	-26.3	-14.5	-26.4	738.7	0.023	0.000	21.2	6	-17.9	17.9	1.55	 .0727	24	1	100.0	1
02/24/24	22:12	-14.3	-14.3	-14.3	56	-21.2	20.9	ESE	0.35	21.7	ESE	-26.3	-14.5	-26.4	738.7	0.023	0.000	21.2	6	-17.9	17.9	1.55	 .0727	23	1	100.0	1
02/24/24	22:13	-14.3	-14.3	-14.3	57	-21.0	19.1	ESE	0.32	20.9	ESE	-25.9	-14.5	-26.1	738.7	0.023	0.000	21.2	6	-17.9	17.9	1.55	 .0727	24	1	100.0	1
02/24/24	22:14	-14.3	-14.2	-14.3	57	-20.9	19.1	ESE	0.32	20.9	ESE	-25.8	-14.4	-26.0	738.6	0.023	0.000	21.2	6	-17.9	17.9	1.55	 .0727	23	1	100.0	1
02/24/24	22:15	-14.3	-14.2	-14.3	57	-20.9	20.0	ESE	0.33	20.9	ESE	-26.0	-14.4	-26.2	738.6	0.023	0.000	21.2	6	-17.9	17.9	1.55	 .0727	23	1	100.0	1
02/24/24	22:16	-14.3	-14.3	-14.3	57	-20.9	20.0	ESE	0.33	20.9	ESE	-26.0	-14.4	-26.2	738.7	0.023	0.000	21.2	6	-17.9	17.9	1.55	 .0727	24	1	100.0	1
02/24/24	22:17	-14.3	-14.3	-14.3	57	-20.9	19.1	ESE	0.32	20.0	ESE	-25.8	-14.4	-26.0	738.7	0.023	0.000	21.2	6	-17.9	17.9	1.55	 .0727	23	1	100.0	1
02/24/24	22:18	-14.2	-14.2	-14.3	58	-20.7	18.3	ESE	0.30	19.1	ESE	-25.5	-14.4	-25.7	738.6	0.023	0.000	21.2	6	-17.9	18.0	1.55	 .0727	24	1	100.0	1
02/24/24	22:19	-14.3	-14.3	-14.3	58	-20.7	19.1	ESE	0.32	20.0	ESE	-25.8	-14.4	-26.0	738.7	0.023	0.000	21.2	6	-17.9	18.0	1.55	 .0727	23	1	100.0	1
02/24/24	22:20	-14.3	-14.3	-14.3	59	-20.6	19.1	ESE	0.32	20.9	ESE	-25.8	-14.4	-26.0	738.6	0.023	0.000	21.2	6	-17.9	18.0	1.55	 .0727	23	1	100.0	1
02/24/24	22:21	-14.2	-14.2	-14.3	59	-20.5	20.0	ESE	0.33	20.9	ESE	-25.9	-14.4	-26.1	738.6	0.023	0.000	21.3	6	-17.8	18.1	1.54	 .0727	24	1	100.0	1
02/24/24	22:22	-14.2	-14.2	-14.2	60	-20.3	19.1	ESE	0.32	20.0	ESE	-25.7	-14.3	-25.8	738.7	0.023	0.000	21.2	6	-17.9	18.0	1.55	 .0727	23	1	100.0	1
02/24/24	22:23	-14.1	-14.1	-14.1	60	-20.2	19.1	ESE	0.32	20.0	ESE	-25.6	-14.3	-25.8	738.7	0.023	0.000	21.3	6	-17.8	18.1	1.54	 .0727	24	1	100.0	1
02/24/24	22:24	-14.1	-14.1	-14.1	60	-20.1	18.3	ESE	0.30	20.0	ESE	-25.3	-14.2	-25.4	738.7	0.022	0.000	21.3	6	-17.8	18.1	1.54	 .0727	23	1	100.0	1
02/24/24	22:25	-14.1	-14.1	-14.1	61	-20.0	18.3	ESE	0.30	19.1	ESE	-25.3	-14.2	-25.4	738.6	0.022	0.000	21.3	6	-17.8	18.1	1.54	 .0727	23	1	100.0	1
02/24/24	22:26	-14.0	-14.0	-14.1	61	-19.9	18.3	ESE	0.30	20.0	ESE	-25.2	-14.2	-25.4	738.7	0.022	0.000	21.3	6	-17.8	18.1	1.54	 .0727	24	1	100.0	1
02/24/24	22:27	-14.0	-14.0	-14.0	61	-19.9	17.4	ESE	0.29	19.1	ESE	-25.0	-14.2	-25.2	738.7	0.022	0.000	21.3	6	-17.8	18.2	1.54	 .0727	23	1	100.0	1
02/24/24	22:28	-13.9	-13.9	-14.0	61	-19.8	17.4	ESE	0.29	19.1	ESE	-24.9	-14.1	-25.1	738.7	0.022	0.000	21.3	6	-17.8	18.2	1.54	 .0727	24	1	100.0	1
02/24/24	22:29	-14.0	-14.0	-14.0	61	-19.9	17.4	ESE	0.29	19.1	ESE	-25.0	-14.2	-25.2	738.7	0.022	0.000	21.3	6	-17.8	18.2	1.54	 .0727	23	1	100.0	1
02/24/24	22:30	-14.0	-14.0	-14.1	61	-19.9	17.4	ESE	0.29	19.1	ESE	-25.0	-14.2	-25.2	738.7	0.022	0.000	21.3	6	-17.8	18.2	1.54	 .0727	24	1	100.0	1
02/24/24	22:31	-14.0	-14.0	-14.1	61	-19.9	17.4	ESE	0.29	19.1	ESE	-25.0	-14.2	-25.2	738.7	0.022	0.000	21.3	6	-17.8	18.2	1.54	 .0727	23	1	100.0	1
02/24/24	22:32	-14.0	-14.0	-14.1	61	-19.9	17.4	ESE	0.29	19.1	ESE	-25.0	-14.2	-25.2	738.7	0.022	0.000	21.3	6	-17.8	18.2	1.54	 .0727	23	1	100.0	1
02/24/24	22:33	-14.0	-14.0	-14.0	61	-19.9	17.4	ESE	0.29	19.1	ESE	-25.0	-14.2	-25.2	738.7	0.022	0.000	21.3	6	-17.8	18.2	1.54	 .0727	24	1	100.0	1
02/24/24	22:34	-13.9	-13.9	-14.0	61	-19.8	17.4	ESE	0.29	19.1	ESE	-24.9	-14.1	-25.1	738.7	0.022	0.000	21.3	6	-17.8	18.2	1.54	 .0727	23	1	100.0	1
02/24/24	22:35	-13.9	-13.9	-13.9	61	-19.8	17.4	ESE	0.29	17.4	ESE	-24.9	-14.1	-25.1	738.7	0.022	0.000	21.3	6	-17.8	18.2	1.54	 .0727	24	1	100.0	1
02/24/24	22:36	-13.9	-13.9	-13.9	61	-19.8	16.5	ESE	0.28	17.4	ESE	-24.7	-14.1	-24.8	738.7	0.022	0.000	21.3	6	-17.8	18.2	1.54	 .0727	23	1	100.0	1
02/24/24	22:37	-13.9	-13.9	-13.9	61	-19.8	16.5	ESE	0.28	17.4	ESE	-24.7	-14.1	-24.8	738.7	0.022	0.000	21.3	6	-17.8	18.2	1.54	 .0727	24	1	100.0	1
02/24/24	22:38	-14.0	-13.9	-14.0	61	-19.9	16.5	ESE	0.28	17.4	ESE	-24.7	-14.2	-24.9	738.7	0.022	0.000	21.3	6	-17.8	18.2	1.54	 .0727	23	1	100.0	1
02/24/24	22:39	-14.1	-14.0	-14.1	61	-20.0	16.5	ESE	0.28	17.4	ESE	-24.8	-14.2	-25.0	738.8	0.022	0.000	21.3	6	-17.8	18.1	1.54	 .0727	23	1	100.0	1
02/24/24	22:40	-14.0	-14.0	-14.1	62	-19.7	16.5	ESE	0.28	17.4	ESE	-24.7	-14.2	-24.9	738.7	0.022	0.000	21.3	6	-17.8	18.1	1.54	 .0727	24	1	100.0	1
02/24/24	22:41	-14.0	-14.0	-14.0	62	-19.7	16.5	ESE	0.28	17.4	ESE	-24.7	-14.2	-24.9	738.7	0.022	0.000	21.3	6	-17.8	18.1	1.54	 .0727	23	1	100.0	1
02/24/24	22:42	-14.0	-14.0	-14.1	63	-19.5	17.4	ESE	0.29	19.1	ESE	-25.0	-14.1	-25.1	738.8	0.022	0.000	21.3	6	-17.8	18.1	1.54	 .0727	24	1	100.0	1
02/24/24	22:43	-14.0	-14.0	-14.1	63	-19.5	17.4	ESE	0.29	20.0	ESE	-25.0	-14.1	-25.1	738.8	0.022	0.000	21.3	6	-17.8	18.1	1.54	 .0727	23	1	100.0	1
02/24/24	22:44	-13.9	-13.9	-14.0	64	-19.3	17.4	ESE	0.29	19.1	ESE	-24.9	-14.1	-25.0	738.7	0.022	0.000	21.3	6	-17.8	18.1	1.54	 .0727	23	1	100.0	1
02/24/24	22:45	-13.8	-13.8	-13.9	64	-19.1	16.5	ESE	0.28	19.1	ESE	-24.4	-13.9	-24.6	738.7	0.022	0.000	21.2	6	-17.9	18.0	1.55	 .0727	24	1	100.0	1
02/24/24	22:46	-13.7	-13.7	-13.8	64	-19.1	16.5	ESE	0.28	19.1	ESE	-24.4	-13.8	-24.5	738.7	0.022	0.000	21.2	6	-17.9	18.0	1.55	 .0727	23	1	100.0	1
02/24/24	22:47	-13.7	-13.7	-13.7	64	-19.0	15.7	ESE	0.26	17.4	ESE	-24.1	-13.8	-24.2	738.8	0.022	0.000	21.2	6	-17.9	18.0	1.55	 .0727	24	1	100.0	1
02/24/24	22:48	-13.6	-13.6	-13.7	64	-19.0	15.7	ESE	0.26	18.3	ESE	-24.0	-13.7	-24.1	738.7	0.022	0.000	21.2	6	-17.9	17.9	1.55	 .0727	23	1	100.0	1
02/24/24	22:49	-13.6	-13.6	-13.6	64	-18.9	15.7	ESE	0.26	16.5	ESE	-23.9	-13.7	-24.0	738.8	0.022	0.000	21.2	6	-17.9	17.9	1.55	 .0727	23	1	100.0	1
02/24/24	22:50	-13.5	-13.5	-13.6	64	-18.9	15.7	ESE	0.26	17.4	E	-23.8	-13.6	-23.9	738.7	0.022	0.000	21.2	6	-17.9	17.9	1.55	 .0727	24	1	100.0	1
02/24/24	22:51	-13.4	-13.4	-13.5	64	-18.8	15.7	E	0.26	16.5	ESE	-23.8	-13.6	-23.9	738.8	0.022	0.000	21.2	6	-17.9	17.9	1.55	 .0727	23	1	100.0	1
02/24/24	22:52	-13.3	-13.3	-13.4	64	-18.7	14.8	E	0.25	17.4	ESE	-23.4	-13.4	-23.5	738.7	0.022	0.000	21.2	6	-17.9	17.9	1.55	 .0727	24	1	100.0	1
02/24/24	22:53	-13.3	-13.3	-13.3	63	-18.8	14.8	E	0.25	16.5	E	-23.3	-13.4	-23.4	738.7	0.022	0.000	21.2	6	-17.9	17.9	1.55	 .0727	23	1	100.0	1
02/24/24	22:54	-13.3	-13.2	-13.3	63	-18.8	14.8	ESE	0.25	16.5	E	-23.3	-13.4	-23.4	738.8	0.022	0.000	21.1	6	-18.0	17.8	1.55	 .0727	24	1	100.0	1
02/24/24	22:55	-13.3	-13.3	-13.3	63	-18.8	14.8	ESE	0.25	17.4	ESE	-23.3	-13.4	-23.4	738.8	0.022	0.000	21.1	6	-18.0	17.8	1.55	 .0727	23	1	100.0	1
02/24/24	22:56	-13.3	-13.3	-13.3	63	-18.9	14.8	ESE	0.25	15.7	ESE	-23.4	-13.4	-23.5	738.8	0.022	0.000	21.2	6	-17.9	17.9	1.55	 .0727	23	1	100.0	1
02/24/24	22:57	-13.3	-13.3	-13.3	63	-18.9	14.8	ESE	0.25	15.7	E	-23.4	-13.4	-23.5	738.8	0.022	0.000	21.2	6	-17.9	17.9	1.55	 .0727	24	1	100.0	1
02/24/24	22:58	-13.4	-13.4	-13.4	63	-19.0	13.9	ESE	0.23	14.8	ESE	-23.2	-13.6	-23.3	738.8	0.022	0.000	21.2	6	-17.9	17.9	1.55	 .0727	23	1	100.0	1
02/24/24	22:59	-13.5	-13.4	-13.5	63	-19.0	13.9	ESE	0.23	14.8	ESE	-23.3	-13.6	-23.4	738.8	0.022	0.000	21.2	6	-17.9	17.9	1.55	 .0727	24	1	100.0	1
02/24/24	23:00	-13.6	-13.5	-13.6	63	-19.1	13.9	ESE	0.23	14.8	ESE	-23.4	-13.7	-23.5	738.8	0.022	0.000	21.2	6	-17.9	17.9	1.55	 .0727	23	1	100.0	1
02/24/24	23:01	-13.6	-13.6	-13.6	63	-19.2	13.9	ESE	0.23	15.7	E	-23.4	-13.7	-23.6	738.8	0.022	0.000	21.2	6	-17.9	17.9	1.55	 .0727	23	1	100.0	1
02/24/24	23:02	-13.6	-13.6	-13.6	64	-19.0	15.7	ESE	0.26	16.5	ESE	-24.0	-13.7	-24.1	738.8	0.022	0.000	21.2	6	-17.9	17.9	1.55	 .0727	24	1	100.0	1
02/24/24	23:03	-13.6	-13.6	-13.6	64	-19.0	14.8	ESE	0.25	15.7	ESE	-23.7	-13.7	-23.8	738.8	0.022	0.000	21.2	6	-17.9	17.9	1.55	 .0727	23	1	100.0	1
02/24/24	23:04	-13.6	-13.6	-13.6	64	-18.9	14.8	ESE	0.25	15.7	E	-23.7	-13.7	-23.8	738.8	0.022	0.000	21.2	6	-17.9	17.9	1.55	 .0727	24	1	100.0	1
02/24/24	23:05	-13.6	-13.6	-13.6	64	-18.9	14.8	ESE	0.25	15.7	ESE	-23.7	-13.7	-23.8	738.8	0.022	0.000	21.2	6	-17.9	18.0	1.55	 .0727	23	1	100.0	1
02/24/24	23:06	-13.6	-13.6	-13.6	64	-18.9	13.9	ESE	0.23	14.8	ESE	-23.4	-13.7	-23.5	738.8	0.022	0.000	21.2	6	-17.9	18.0	1.55	 .0727	24	1	100.0	1
02/24/24	23:07	-13.6	-13.6	-13.6	64	-18.9	13.9	ESE	0.23	14.8	ESE	-23.4	-13.7	-23.5	738.8	0.022	0.000	21.2	6	-17.9	18.0	1.55	 .0727	23	1	100.0	1
02/24/24	23:08	-13.5	-13.5	-13.6	64	-18.9	13.0	ESE	0.22	13.9	ESE	-23.0	-13.6	-23.1	738.8	0.022	0.000	21.3	6	-17.8	18.1	1.54	 .0727	23	1	100.0	1
02/24/24	23:09	-13.5	-13.5	-13.5	64	-18.9	13.0	ESE	0.22	13.9	ESE	-23.0	-13.6	-23.1	738.8	0.022	0.000	21.3	6	-17.8	18.1	1.54	 .0727	24	1	100.0	1
02/24/24	23:10	-13.6	-13.6	-13.6	64	-19.0	13.0	ESE	0.22	13.9	ESE	-23.2	-13.7	-23.3	738.8	0.022	0.000	21.3	6	-17.8	18.1	1.54	 .0727	23	1	100.0	1
02/24/24	23:11	-13.7	-13.6	-13.7	64	-19.0	13.0	ESE	0.22	13.9	ESE	-23.2	-13.8	-23.3	738.8	0.022	0.000	21.3	6	-17.8	18.1	1.54	 .0727	24	1	100.0	1
02/24/24	23:12	-13.7	-13.7	-13.7	64	-19.0	13.0	ESE	0.22	13.9	ESE	-23.2	-13.8	-23.3	738.8	0.022	0.000	21.3	6	-17.8	18.1	1.54	 .0727	23	1	100.0	1
02/24/24	23:13	-13.7	-13.7	-13.7	64	-19.0	13.0	ESE	0.22	13.9	ESE	-23.2	-13.8	-23.3	738.8	0.022	0.000	21.3	6	-17.8	18.1	1.54	 .0727	23	1	100.0	1
02/24/24	23:14	-13.7	-13.7	-13.7	65	-18.8	13.0	ESE	0.22	13.9	ESE	-23.2	-13.8	-23.3	738.8	0.022	0.000	21.3	6	-17.8	18.1	1.54	 .0727	24	1	100.0	1
02/24/24	23:15	-13.7	-13.6	-13.7	65	-18.8	12.2	ESE	0.20	13.9	ESE	-22.9	-13.8	-23.1	738.8	0.022	0.000	21.3	6	-17.8	18.2	1.54	 .0727	23	1	100.0	1
02/24/24	23:16	-13.6	-13.6	-13.6	65	-18.8	12.2	ESE	0.20	13.0	ESE	-22.8	-13.7	-22.9	738.8	0.022	0.000	21.3	6	-17.8	18.2	1.54	 .0727	24	1	100.0	1
02/24/24	23:17	-13.6	-13.6	-13.6	65	-18.8	12.2	ESE	0.20	13.0	ESE	-22.8	-13.7	-22.9	738.8	0.022	0.000	21.3	6	-17.8	18.2	1.54	 .0727	23	1	100.0	1
02/24/24	23:18	-13.6	-13.6	-13.6	65	-18.8	13.0	ESE	0.22	13.9	ESE	-23.2	-13.7	-23.3	738.8	0.022	0.000	21.3	6	-17.8	18.2	1.54	 .0727	23	1	100.0	1
02/24/24	23:19	-13.6	-13.6	-13.6	65	-18.7	13.0	ESE	0.22	13.0	ESE	-23.1	-13.7	-23.2	738.8	0.022	0.000	21.3	6	-17.8	18.2	1.54	 .0727	24	1	100.0	1
02/24/24	23:20	-13.6	-13.6	-13.6	65	-18.7	13.0	ESE	0.22	13.9	ESE	-23.1	-13.7	-23.2	738.8	0.022	0.000	21.4	6	-17.8	18.3	1.54	 .0727	23	1	100.0	1
02/24/24	23:21	-13.6	-13.6	-13.6	65	-18.7	13.0	ESE	0.22	13.9	ESE	-23.1	-13.7	-23.2	738.8	0.022	0.000	21.4	6	-17.8	18.3	1.54	 .0727	24	1	100.0	1
02/24/24	23:22	-13.5	-13.5	-13.6	65	-18.7	13.0	ESE	0.22	13.9	ESE	-23.0	-13.6	-23.1	738.8	0.022	0.000	21.4	6	-17.8	18.3	1.54	 .0726	23	1	100.0	1
02/24/24	23:23	-13.5	-13.5	-13.5	66	-18.5	13.0	ESE	0.22	13.9	ESE	-23.0	-13.6	-23.1	738.8	0.022	0.000	21.4	6	-17.8	18.3	1.54	 .0727	24	1	100.0	1
02/24/24	23:24	-13.4	-13.4	-13.5	65	-18.6	13.0	ESE	0.22	13.9	ESE	-22.9	-13.6	-23.1	738.8	0.022	0.000	21.4	6	-17.8	18.3	1.54	 .0726	23	1	100.0	1
02/24/24	23:25	-13.4	-13.4	-13.4	65	-18.6	12.2	ESE	0.20	13.0	ESE	-22.7	-13.6	-22.8	738.8	0.022	0.000	21.4	6	-17.8	18.3	1.54	 .0727	23	1	100.0	1
02/24/24	23:26	-13.4	-13.4	-13.4	66	-18.4	12.2	ESE	0.20	13.0	ESE	-22.6	-13.5	-22.7	738.8	0.022	0.000	21.4	6	-17.8	18.3	1.54	 .0727	24	1	100.0	1
02/24/24	23:27	-13.4	-13.4	-13.4	65	-18.6	12.2	ESE	0.20	13.0	ESE	-22.6	-13.5	-22.7	738.8	0.022	0.000	21.4	6	-17.8	18.3	1.54	 .0727	23	1	100.0	1
02/24/24	23:28	-13.4	-13.4	-13.4	65	-18.6	11.3	ESE	0.19	12.2	ESE	-22.3	-13.6	-22.4	738.8	0.022	0.000	21.4	6	-17.8	18.3	1.54	 .0727	24	1	100.0	1
02/24/24	23:29	-13.4	-13.4	-13.4	65	-18.6	11.3	ESE	0.19	12.2	ESE	-22.3	-13.6	-22.4	738.8	0.022	0.000	21.4	6	-17.8	18.3	1.54	 .0727	23	1	100.0	1
02/24/24	23:30	-13.4	-13.4	-13.4	65	-18.6	11.3	ESE	0.19	12.2	ESE	-22.2	-13.5	-22.3	738.8	0.022	0.000	21.4	6	-17.8	18.3	1.54	 .0727	23	1	100.0	1
02/24/24	23:31	-13.4	-13.4	-13.4	65	-18.6	11.3	ESE	0.19	12.2	ESE	-22.2	-13.5	-22.3	738.8	0.022	0.000	21.4	6	-17.8	18.3	1.54	 .0727	24	1	100.0	1
02/24/24	23:32	-13.4	-13.4	-13.4	65	-18.6	11.3	ESE	0.19	12.2	ESE	-22.2	-13.5	-22.3	738.9	0.022	0.000	21.4	6	-17.8	18.3	1.54	 .0727	23	1	100.0	1
02/24/24	23:33	-13.4	-13.4	-13.4	65	-18.6	12.2	ESE	0.20	12.2	ESE	-22.7	-13.6	-22.8	738.8	0.022	0.000	21.4	6	-17.8	18.3	1.54	 .0727	24	1	100.0	1
02/24/24	23:34	-13.4	-13.4	-13.4	65	-18.6	12.2	ESE	0.20	12.2	ESE	-22.7	-13.6	-22.8	738.8	0.022	0.000	21.3	6	-17.8	18.2	1.54	 .0727	23	1	100.0	1
02/24/24	23:35	-13.4	-13.4	-13.4	65	-18.6	12.2	ESE	0.20	12.2	ESE	-22.7	-13.6	-22.8	738.8	0.022	0.000	21.3	6	-17.8	18.2	1.54	 .0727	24	1	100.0	1
02/24/24	23:36	-13.4	-13.4	-13.4	66	-18.4	11.3	ESE	0.19	12.2	ESE	-22.2	-13.5	-22.3	738.9	0.022	0.000	21.3	6	-17.8	18.1	1.54	 .0727	23	1	100.0	1
02/24/24	23:37	-13.3	-13.3	-13.4	66	-18.3	11.3	ESE	0.19	12.2	ESE	-22.2	-13.4	-22.3	738.8	0.022	0.000	21.3	6	-17.8	18.1	1.54	 .0727	23	1	100.0	1
02/24/24	23:38	-13.3	-13.3	-13.3	66	-18.3	11.3	ESE	0.19	11.3	ESE	-22.2	-13.4	-22.3	738.9	0.022	0.000	21.3	6	-17.8	18.1	1.54	 .0727	24	1	100.0	1
02/24/24	23:39	-13.3	-13.3	-13.3	66	-18.3	11.3	ESE	0.19	12.2	ESE	-22.1	-13.4	-22.2	738.9	0.022	0.000	21.3	6	-17.8	18.1	1.54	 .0727	23	1	100.0	1
02/24/24	23:40	-13.3	-13.3	-13.3	66	-18.3	10.4	ESE	0.17	11.3	ESE	-21.8	-13.4	-21.9	738.9	0.022	0.000	21.3	6	-17.8	18.1	1.54	 .0727	24	1	100.0	1
02/24/24	23:41	-13.3	-13.3	-13.3	66	-18.3	11.3	ESE	0.19	11.3	ESE	-22.2	-13.4	-22.3	738.8	0.022	0.000	21.3	6	-17.8	18.1	1.54	 .0727	23	1	100.0	1
02/24/24	23:42	-13.3	-13.3	-13.3	66	-18.3	10.4	ESE	0.17	11.3	ESE	-21.8	-13.4	-21.9	738.9	0.022	0.000	21.2	6	-17.9	18.0	1.55	 .0727	23	1	100.0	1
02/24/24	23:43	-13.2	-13.2	-13.3	66	-18.2	10.4	ESE	0.17	11.3	ESE	-21.7	-13.3	-21.8	738.9	0.022	0.000	21.2	6	-17.9	18.0	1.55	 .0727	24	1	100.0	1
02/24/24	23:44	-13.2	-13.2	-13.2	66	-18.2	11.3	ESE	0.19	11.3	ESE	-22.1	-13.3	-22.2	738.9	0.022	0.000	21.2	6	-17.9	18.0	1.55	 .0727	23	1	100.0	1
02/24/24	23:45	-13.2	-13.2	-13.2	65	-18.4	11.3	ESE	0.19	11.3	ESE	-21.9	-13.3	-22.1	738.9	0.022	0.000	21.2	6	-17.9	17.9	1.55	 .0727	24	1	100.0	1
02/24/24	23:46	-13.2	-13.2	-13.2	64	-18.5	10.4	ESE	0.17	11.3	ESE	-21.6	-13.3	-21.7	738.9	0.022	0.000	21.2	6	-17.9	17.9	1.55	 .0727	23	1	100.0	1
02/24/24	23:47	-13.2	-13.2	-13.2	64	-18.6	10.4	ESE	0.17	11.3	ESE	-21.7	-13.3	-21.8	738.9	0.022	0.000	21.2	6	-17.9	17.9	1.55	 .0727	24	1	100.0	1
02/24/24	23:48	-13.2	-13.2	-13.2	64	-18.6	10.4	ESE	0.17	10.4	ESE	-21.7	-13.3	-21.8	738.8	0.022	0.000	21.2	6	-17.9	17.9	1.55	 .0727	23	1	100.0	1
02/24/24	23:49	-13.2	-13.2	-13.2	64	-18.6	10.4	ESE	0.17	10.4	ESE	-21.7	-13.3	-21.8	738.9	0.022	0.000	21.2	6	-17.9	17.9	1.55	 .0727	23	1	100.0	1
02/24/24	23:50	-13.2	-13.2	-13.2	64	-18.6	10.4	ESE	0.17	11.3	ESE	-21.7	-13.3	-21.8	738.9	0.022	0.000	21.2	6	-17.9	17.9	1.55	 .0727	24	1	100.0	1
02/24/24	23:51	-13.2	-13.2	-13.2	65	-18.4	11.3	ESE	0.19	11.3	ESE	-22.1	-13.3	-22.2	738.9	0.022	0.000	21.2	6	-17.9	17.9	1.55	 .0727	23	1	100.0	1
02/24/24	23:52	-13.2	-13.2	-13.2	65	-18.4	11.3	ESE	0.19	12.2	ESE	-21.9	-13.3	-22.1	738.8	0.022	0.000	21.2	6	-17.9	17.9	1.55	 .0727	24	1	100.0	1
02/24/24	23:53	-13.2	-13.2	-13.2	65	-18.4	11.3	ESE	0.19	12.2	ESE	-21.9	-13.3	-22.1	738.8	0.022	0.000	21.2	6	-17.9	17.9	1.55	 .0727	23	1	100.0	1
02/24/24	23:54	-13.2	-13.2	-13.2	64	-18.5	11.3	ESE	0.19	12.2	ESE	-21.9	-13.3	-22.1	738.9	0.022	0.000	21.2	6	-17.9	18.0	1.55	 .0727	23	1	100.0	1
02/24/24	23:55	-13.2	-13.2	-13.2	64	-18.5	11.3	ESE	0.19	12.2	ESE	-21.9	-13.3	-22.1	738.9	0.022	0.000	21.2	6	-17.9	18.0	1.55	 .0727	24	1	100.0	1
02/24/24	23:56	-13.1	-13.1	-13.2	64	-18.5	11.3	ESE	0.19	11.3	ESE	-21.9	-13.2	-22.0	738.9	0.022	0.000	21.2	6	-17.9	18.0	1.55	 .0727	23	1	100.0	1
02/24/24	23:57	-13.1	-13.1	-13.1	64	-18.4	11.3	ESE	0.19	11.3	ESE	-21.8	-13.2	-21.9	738.9	0.022	0.000	21.2	6	-17.9	18.0	1.55	 .0727	24	1	100.0	1
02/24/24	23:58	-13.1	-13.1	-13.1	64	-18.4	10.4	ESE	0.17	10.4	SE	-21.5	-13.2	-21.6	738.8	0.022	0.000	21.2	6	-17.9	18.0	1.55	 .0727	23	1	100.0	1
02/24/24	23:59	-13.1	-13.1	-13.1	64	-18.4	10.4	ESE	0.17	12.2	ESE	-21.5	-13.2	-21.6	738.9	0.022	0.000	21.2	6	-17.9	18.0	1.55	 .0727	23	1	100.0	1
02/25/24	00:00	-12.9	-12.9	-13.0	64	-18.3	10.4	SE	0.17	11.3	SE	-21.3	-13.1	-21.4	738.9	0.022	0.000	21.3	6	-17.8	18.1	1.54	 .0727	24	1	100.0	1
02/25/24	0:01	-12.8	-12.8	-12.9	64	-18.2	9.6	SE	0.16	10.4	SE	-20.8	-12.9	-20.9	738.9	0.022	0.000	21.3	6	-17.8	18.1	1.54	 .0727	22	1	95.7	1
02/25/24	0:02	-12.8	-12.8	-12.8	64	-18.2	8.7	SE	0.14	10.4	SE	-20.4	-12.9	-20.6	738.9	0.022	0.000	21.3	6	-17.8	18.1	1.54	 .0727	23	1	100.0	1
02/25/24	0:03	-12.8	-12.8	-12.8	64	-18.2	9.6	SE	0.16	10.4	SE	-20.8	-12.9	-20.9	738.8	0.022	0.000	21.3	6	-17.8	18.1	1.54	 .0727	23	1	100.0	1
02/25/24	0:04	-12.7	-12.7	-12.8	64	-18.1	8.7	SE	0.14	10.4	SE	-20.2	-12.8	-20.3	738.8	0.022	0.000	21.3	6	-17.8	18.1	1.54	 .0727	24	1	100.0	1
02/25/24	0:05	-12.6	-12.6	-12.6	64	-18.0	9.6	SE	0.16	10.4	SE	-20.5	-12.7	-20.7	738.8	0.021	0.000	21.3	6	-17.8	18.1	1.54	 .0727	23	1	100.0	1
02/25/24	0:06	-12.4	-12.4	-12.5	64	-17.8	9.6	SE	0.16	11.3	SE	-20.3	-12.6	-20.4	738.8	0.021	0.000	21.3	6	-17.8	18.2	1.54	 .0727	24	1	100.0	1
02/25/24	0:07	-12.3	-12.3	-12.4	63	-17.9	9.6	SE	0.16	10.4	SE	-20.2	-12.4	-20.3	738.8	0.021	0.000	21.3	6	-17.8	18.2	1.54	 .0727	23	1	100.0	1
02/25/24	0:08	-12.3	-12.3	-12.3	63	-17.9	10.4	SE	0.17	12.2	SE	-20.5	-12.4	-20.7	738.8	0.021	0.000	21.3	6	-17.8	18.2	1.54	 .0727	24	1	100.0	1
02/25/24	0:09	-12.2	-12.2	-12.3	63	-17.8	10.4	SE	0.17	11.3	SE	-20.4	-12.4	-20.6	738.8	0.021	0.000	21.3	6	-17.8	18.2	1.54	 .0727	23	1	100.0	1
02/25/24	0:10	-12.2	-12.2	-12.2	63	-17.8	9.6	SE	0.16	10.4	SE	-20.1	-12.4	-20.2	738.8	0.021	0.000	21.4	6	-17.8	18.3	1.54	 .0727	23	1	100.0	1
02/25/24	0:11	-12.2	-12.2	-12.2	63	-17.8	10.4	SE	0.17	11.3	SE	-20.4	-12.3	-20.6	738.8	0.021	0.000	21.3	6	-17.8	18.2	1.54	 .0727	24	1	100.0	1
02/25/24	0:12	-12.2	-12.2	-12.2	63	-17.8	10.4	SE	0.17	11.3	SE	-20.4	-12.3	-20.6	738.8	0.021	0.000	21.4	6	-17.8	18.3	1.54	 .0727	23	1	100.0	1
02/25/24	0:13	-12.2	-12.2	-12.2	62	-18.0	9.6	SE	0.16	10.4	SE	-20.0	-12.3	-20.2	738.8	0.021	0.000	21.4	6	-17.8	18.3	1.54	 .0726	24	1	100.0	1
02/25/24	0:14	-12.2	-12.2	-12.2	63	-17.8	9.6	SE	0.16	10.4	SE	-20.0	-12.3	-20.2	738.8	0.021	0.000	21.4	6	-17.8	18.3	1.54	 .0726	23	1	100.0	1
02/25/24	0:15	-12.2	-12.2	-12.2	62	-18.0	8.7	ESE	0.14	9.6	ESE	-19.7	-12.4	-19.8	738.8	0.021	0.000	21.4	6	-17.8	18.3	1.54	 .0726	23	1	100.0	1
02/25/24	0:16	-12.4	-12.3	-12.4	62	-18.2	9.6	SE	0.16	10.4	ESE	-20.3	-12.6	-20.4	738.8	0.021	0.000	21.4	6	-17.8	18.3	1.54	 .0726	24	1	100.0	1
02/25/24	0:17	-12.5	-12.4	-12.5	62	-18.3	10.4	SE	0.17	11.3	SE	-20.8	-12.7	-20.9	738.8	0.021	0.000	21.4	6	-17.8	18.3	1.54	 .0727	23	1	100.0	1
02/25/24	0:18	-12.4	-12.4	-12.5	63	-18.0	10.4	SE	0.17	12.2	SE	-20.7	-12.6	-20.9	738.8	0.021	0.000	21.4	6	-17.8	18.3	1.54	 .0727	24	1	100.0	1
02/25/24	0:19	-12.4	-12.4	-12.4	63	-18.0	10.4	SE	0.17	11.3	SE	-20.7	-12.6	-20.9	738.8	0.021	0.000	21.4	6	-17.8	18.3	1.54	 .0727	23	1	100.0	1
02/25/24	0:20	-12.4	-12.4	-12.4	63	-18.0	11.3	SE	0.19	12.2	SE	-21.0	-12.6	-21.2	738.8	0.021	0.000	21.4	6	-17.8	18.3	1.54	 .0727	24	1	100.0	1
02/25/24	0:21	-12.3	-12.3	-12.4	63	-17.9	11.3	SE	0.19	12.2	SE	-20.8	-12.4	-21.0	738.8	0.021	0.000	21.4	6	-17.8	18.3	1.54	 .0726	23	1	100.0	1
02/25/24	0:22	-12.2	-12.2	-12.3	62	-18.0	11.3	SE	0.19	12.2	SE	-20.8	-12.4	-20.9	738.8	0.021	0.000	21.4	6	-17.8	18.3	1.54	 .0726	23	1	100.0	1
02/25/24	0:23	-12.2	-12.2	-12.2	62	-18.0	11.3	SE	0.19	12.2	SE	-20.7	-12.3	-20.9	738.8	0.021	0.000	21.4	6	-17.8	18.3	1.54	 .0726	24	1	100.0	1
02/25/24	0:24	-12.1	-12.1	-12.2	62	-17.9	11.3	SE	0.19	13.0	SE	-20.6	-12.3	-20.8	738.8	0.021	0.000	21.4	6	-17.8	18.3	1.54	 .0727	23	1	100.0	1
02/25/24	0:25	-12.1	-12.1	-12.2	62	-17.9	10.4	SE	0.17	13.0	SE	-20.3	-12.3	-20.4	738.8	0.021	0.000	21.3	6	-17.8	18.2	1.54	 .0727	24	1	100.0	1
02/25/24	0:26	-12.2	-12.1	-12.2	61	-18.2	10.4	SE	0.17	11.3	SE	-20.4	-12.3	-20.6	738.7	0.021	0.000	21.3	6	-17.8	18.2	1.54	 .0727	23	1	100.0	1
02/25/24	0:27	-12.2	-12.1	-12.2	61	-18.2	9.6	SE	0.16	10.4	SE	-20.0	-12.3	-20.2	738.8	0.021	0.000	21.3	6	-17.8	18.2	1.54	 .0727	23	1	100.0	1
02/25/24	0:28	-12.2	-12.1	-12.2	62	-18.0	9.6	SE	0.16	10.4	SE	-20.0	-12.3	-20.2	738.8	0.021	0.000	21.3	6	-17.8	18.2	1.54	 .0727	24	1	100.0	1
02/25/24	0:29	-12.2	-12.2	-12.2	62	-18.0	9.6	SE	0.16	10.4	SE	-20.1	-12.4	-20.2	738.8	0.021	0.000	21.3	6	-17.8	18.2	1.54	 .0727	23	1	100.0	1
02/25/24	0:30	-12.2	-12.2	-12.2	63	-17.8	10.4	SE	0.17	11.3	SE	-20.4	-12.3	-20.6	738.8	0.021	0.000	21.3	6	-17.8	18.1	1.54	 .0727	24	1	100.0	1
02/25/24	0:31	-12.1	-12.1	-12.2	63	-17.7	10.4	SE	0.17	11.3	SE	-20.3	-12.3	-20.4	738.8	0.021	0.000	21.3	6	-17.8	18.1	1.54	 .0727	23	1	100.0	1
02/25/24	0:32	-12.1	-12.1	-12.1	63	-17.7	10.4	SE	0.17	11.3	SE	-20.3	-12.3	-20.4	738.8	0.021	0.000	21.3	6	-17.8	18.1	1.54	 .0727	24	1	100.0	1
02/25/24	0:33	-12.1	-12.1	-12.1	62	-17.9	9.6	ESE	0.16	10.4	SE	-19.9	-12.3	-20.1	738.8	0.021	0.000	21.3	6	-17.8	18.1	1.54	 .0727	23	1	100.0	1
02/25/24	0:34	-12.2	-12.1	-12.2	62	-18.0	10.4	SE	0.17	11.3	SE	-20.4	-12.4	-20.6	738.9	0.021	0.000	21.3	6	-17.8	18.1	1.54	 .0727	23	1	100.0	1
02/25/24	0:35	-12.3	-12.3	-12.3	62	-18.1	9.6	SE	0.16	11.3	SE	-20.2	-12.5	-20.4	738.9	0.021	0.000	21.3	6	-17.8	18.1	1.54	 .0727	24	1	100.0	1
02/25/24	0:36	-12.3	-12.3	-12.3	62	-18.1	9.6	SE	0.16	10.4	SE	-20.2	-12.5	-20.4	738.8	0.021	0.000	21.3	6	-17.8	18.1	1.54	 .0727	23	1	100.0	1
02/25/24	0:37	-12.3	-12.3	-12.3	63	-17.9	8.7	ESE	0.14	9.6	ESE	-19.8	-12.5	-20.0	738.9	0.021	0.000	21.3	6	-17.8	18.1	1.54	 .0727	24	1	100.0	1
02/25/24	0:38	-12.4	-12.4	-12.4	63	-18.0	9.6	SE	0.16	10.4	SE	-20.3	-12.6	-20.5	738.9	0.021	0.000	21.3	6	-17.8	18.1	1.54	 .0727	23	1	100.0	1
02/25/24	0:39	-12.4	-12.4	-12.4	63	-18.0	10.4	SE	0.17	11.3	SE	-20.7	-12.6	-20.8	738.9	0.021	0.000	21.3	6	-17.8	18.1	1.54	 .0727	23	1	100.0	1
02/25/24	0:40	-12.3	-12.3	-12.4	63	-17.9	10.4	SE	0.17	11.3	SE	-20.6	-12.5	-20.7	738.9	0.021	0.000	21.3	6	-17.8	18.1	1.54	 .0727	24	1	100.0	1
02/25/24	0:41	-12.3	-12.3	-12.3	63	-17.9	10.4	SE	0.17	11.3	SE	-20.6	-12.5	-20.7	738.8	0.021	0.000	21.3	6	-17.8	18.1	1.54	 .0727	23	1	100.0	1
02/25/24	0:42	-12.3	-12.3	-12.3	63	-17.9	10.4	SE	0.17	12.2	SE	-20.6	-12.5	-20.7	738.8	0.021	0.000	21.3	6	-17.8	18.1	1.54	 .0727	24	1	100.0	1
02/25/24	0:43	-12.3	-12.3	-12.3	63	-17.9	11.3	SE	0.19	11.3	SE	-20.8	-12.4	-21.0	738.8	0.021	0.000	21.3	6	-17.8	18.1	1.54	 .0727	23	1	100.0	1
02/25/24	0:44	-12.3	-12.3	-12.3	63	-17.9	11.3	SE	0.19	12.2	SE	-20.8	-12.4	-21.0	738.8	0.021	0.000	21.3	6	-17.8	18.2	1.54	 .0727	24	1	100.0	1
02/25/24	0:45	-12.2	-12.2	-12.3	62	-18.0	9.6	SE	0.16	10.4	SE	-20.1	-12.4	-20.2	738.8	0.021	0.000	21.3	6	-17.8	18.2	1.54	 .0727	23	1	100.0	1
02/25/24	0:46	-12.2	-12.2	-12.2	62	-18.0	9.6	SE	0.16	10.4	SE	-20.1	-12.4	-20.2	738.8	0.021	0.000	21.3	6	-17.8	18.2	1.54	 .0727	23	1	100.0	1
02/25/24	0:47	-12.2	-12.2	-12.2	62	-18.0	9.6	SE	0.16	9.6	SE	-20.1	-12.4	-20.2	738.8	0.021	0.000	21.3	6	-17.8	18.2	1.54	 .0727	24	1	100.0	1
02/25/24	0:48	-12.2	-12.2	-12.2	62	-18.0	9.6	SE	0.16	10.4	SE	-20.1	-12.4	-20.2	738.8	0.021	0.000	21.4	6	-17.8	18.3	1.54	 .0727	23	1	100.0	1
02/25/24	0:49	-12.2	-12.2	-12.2	62	-18.0	9.6	SE	0.16	10.4	SE	-20.0	-12.3	-20.2	738.8	0.021	0.000	21.4	6	-17.8	18.3	1.54	 .0727	24	1	100.0	1
02/25/24	0:50	-12.2	-12.2	-12.2	62	-18.0	10.4	SE	0.17	11.3	SE	-20.4	-12.3	-20.6	738.8	0.021	0.000	21.4	6	-17.8	18.3	1.54	 .0727	23	1	100.0	1
02/25/24	0:51	-12.2	-12.2	-12.2	62	-18.0	10.4	SE	0.17	11.3	SE	-20.4	-12.4	-20.6	738.8	0.021	0.000	21.4	6	-17.8	18.3	1.54	 .0727	23	1	100.0	1
02/25/24	0:52	-12.2	-12.2	-12.2	62	-18.0	9.6	SE	0.16	10.4	SE	-20.1	-12.4	-20.2	738.8	0.021	0.000	21.4	6	-17.8	18.3	1.54	 .0727	24	1	100.0	1
02/25/24	0:53	-12.2	-12.2	-12.2	63	-17.8	8.7	ESE	0.14	9.6	SE	-19.6	-12.3	-19.8	738.8	0.021	0.000	21.4	6	-17.8	18.3	1.54	 .0727	23	1	100.0	1
02/25/24	0:54	-12.2	-12.2	-12.2	63	-17.8	8.7	ESE	0.14	9.6	SE	-19.7	-12.4	-19.8	738.8	0.021	0.000	21.4	6	-17.7	18.4	1.54	 .0726	24	1	100.0	1
02/25/24	0:55	-12.3	-12.2	-12.3	64	-17.8	9.6	ESE	0.16	10.4	ESE	-20.2	-12.5	-20.4	738.8	0.021	0.000	21.4	6	-17.8	18.3	1.54	 .0727	23	1	100.0	1
02/25/24	0:56	-12.4	-12.3	-12.4	63	-18.0	10.4	ESE	0.17	10.4	ESE	-20.7	-12.6	-20.9	738.8	0.021	0.000	21.4	6	-17.7	18.4	1.54	 .0726	23	1	100.0	1
02/25/24	0:57	-12.6	-12.5	-12.6	63	-18.2	9.6	ESE	0.16	11.3	ESE	-20.6	-12.8	-20.7	738.8	0.021	0.000	21.4	6	-17.7	18.4	1.54	 .0726	24	1	100.0	1
02/25/24	0:58	-12.7	-12.6	-12.7	63	-18.3	10.4	ESE	0.17	10.4	ESE	-21.0	-12.8	-21.2	738.8	0.022	0.000	21.4	6	-17.7	18.4	1.54	 .0726	23	1	100.0	1
02/25/24	0:59	-12.7	-12.7	-12.7	63	-18.3	9.6	ESE	0.16	10.4	ESE	-20.7	-12.8	-20.8	738.8	0.022	0.000	21.4	6	-17.7	18.4	1.54	 .0726	24	1	100.0	1
02/25/24	1:00	-12.7	-12.7	-12.7	63	-18.3	10.4	ESE	0.17	10.4	ESE	-21.1	-12.8	-21.2	738.8	0.022	0.000	21.4	6	-17.7	18.4	1.54	 .0726	23	1	100.0	1
02/25/24	1:01	-12.8	-12.8	-12.8	63	-18.4	10.4	ESE	0.17	11.3	ESE	-21.1	-12.9	-21.2	738.8	0.022	0.000	21.4	6	-17.7	18.4	1.54	 .0726	24	1	100.0	1
02/25/24	1:02	-12.8	-12.8	-12.8	63	-18.4	10.4	ESE	0.17	10.4	ESE	-21.1	-12.9	-21.2	738.9	0.022	0.000	21.4	6	-17.7	18.4	1.54	 .0726	23	1	100.0	1
02/25/24	1:03	-12.8	-12.8	-12.8	63	-18.4	10.4	ESE	0.17	10.4	ESE	-21.1	-12.9	-21.2	738.8	0.022	0.000	21.5	6	-17.7	18.5	1.54	 .0726	23	1	100.0	1
02/25/24	1:04	-12.8	-12.8	-12.8	63	-18.4	9.6	ESE	0.16	10.4	ESE	-20.8	-12.9	-20.9	738.8	0.022	0.000	21.5	6	-17.7	18.5	1.54	 .0726	24	1	100.0	1
02/25/24	1:05	-12.8	-12.8	-12.8	63	-18.4	10.4	ESE	0.17	10.4	ESE	-21.2	-12.9	-21.3	738.8	0.022	0.000	21.4	6	-17.7	18.4	1.54	 .0726	23	1	100.0	1
02/25/24	1:06	-12.9	-12.8	-12.9	64	-18.3	10.4	ESE	0.17	11.3	ESE	-21.3	-13.0	-21.4	738.8	0.022	0.000	21.4	6	-17.7	18.4	1.54	 .0726	24	1	100.0	1
02/25/24	1:07	-12.9	-12.9	-12.9	64	-18.3	10.4	ESE	0.17	11.3	ESE	-21.3	-13.1	-21.4	738.9	0.022	0.000	21.4	6	-17.7	18.4	1.54	 .0726	23	1	100.0	1
02/25/24	1:08	-12.9	-12.9	-12.9	64	-18.3	10.4	ESE	0.17	11.3	ESE	-21.3	-13.1	-21.4	738.8	0.022	0.000	21.4	6	-17.7	18.4	1.54	 .0726	23	1	100.0	1
02/25/24	1:09	-13.0	-12.9	-13.0	64	-18.4	11.3	ESE	0.19	11.3	ESE	-21.8	-13.1	-21.9	738.8	0.022	0.000	21.4	6	-17.7	18.4	1.54	 .0726	24	1	100.0	1
02/25/24	1:10	-13.0	-13.0	-13.0	64	-18.4	10.4	ESE	0.17	11.3	ESE	-21.4	-13.1	-21.5	738.8	0.022	0.000	21.4	6	-17.8	18.3	1.54	 .0727	23	1	100.0	1
02/25/24	1:11	-13.1	-13.0	-13.1	64	-18.4	10.4	ESE	0.17	11.3	ESE	-21.5	-13.2	-21.6	738.9	0.022	0.000	21.4	6	-17.8	18.3	1.54	 .0727	24	1	100.0	1
02/25/24	1:12	-13.0	-13.0	-13.1	64	-18.4	9.6	ESE	0.16	10.4	ESE	-21.1	-13.1	-21.2	738.8	0.022	0.000	21.4	6	-17.8	18.3	1.54	 .0727	23	1	100.0	1
02/25/24	1:13	-13.0	-13.0	-13.0	64	-18.4	10.4	ESE	0.17	11.3	ESE	-21.4	-13.1	-21.5	738.8	0.022	0.000	21.4	6	-17.8	18.3	1.54	 .0727	24	1	100.0	1
02/25/24	1:14	-13.0	-13.0	-13.0	64	-18.4	10.4	ESE	0.17	11.3	ESE	-21.4	-13.1	-21.5	738.8	0.022	0.000	21.4	6	-17.8	18.3	1.54	 .0727	23	1	100.0	1
02/25/24	1:15	-13.0	-13.0	-13.0	64	-18.4	10.4	ESE	0.17	11.3	ESE	-21.4	-13.1	-21.5	738.8	0.022	0.000	21.4	6	-17.8	18.3	1.54	 .0727	23	1	100.0	1
02/25/24	1:16	-13.0	-13.0	-13.0	64	-18.4	10.4	ESE	0.17	11.3	ESE	-21.4	-13.1	-21.5	738.8	0.022	0.000	21.4	6	-17.8	18.3	1.54	 .0727	24	1	100.0	1
02/25/24	1:17	-13.0	-13.0	-13.0	64	-18.4	10.4	ESE	0.17	11.3	ESE	-21.4	-13.1	-21.5	738.8	0.022	0.000	21.4	6	-17.8	18.3	1.54	 .0727	23	1	100.0	1
02/25/24	1:18	-13.0	-13.0	-13.0	64	-18.4	11.3	ESE	0.19	11.3	ESE	-21.8	-13.1	-21.9	738.8	0.022	0.000	21.3	6	-17.8	18.2	1.54	 .0727	24	1	100.0	1
02/25/24	1:19	-13.1	-13.1	-13.1	64	-18.4	11.3	ESE	0.19	11.3	ESE	-21.8	-13.2	-21.9	738.8	0.022	0.000	21.3	6	-17.8	18.2	1.54	 .0727	23	1	100.0	1
02/25/24	1:20	-13.1	-13.1	-13.1	64	-18.4	11.3	ESE	0.19	12.2	ESE	-21.8	-13.2	-21.9	738.8	0.022	0.000	21.3	6	-17.8	18.2	1.54	 .0727	23	1	100.0	1
02/25/24	1:21	-13.1	-13.1	-13.1	64	-18.4	11.3	ESE	0.19	12.2	ESE	-21.8	-13.2	-21.9	738.8	0.022	0.000	21.3	6	-17.8	18.2	1.54	 .0727	24	1	100.0	1
02/25/24	1:22	-13.1	-13.1	-13.1	65	-18.3	11.3	ESE	0.19	12.2	ESE	-21.9	-13.2	-22.0	738.8	0.022	0.000	21.3	6	-17.8	18.2	1.54	 .0727	23	1	100.0	1
02/25/24	1:23	-13.1	-13.1	-13.1	65	-18.3	11.3	ESE	0.19	12.2	ESE	-21.8	-13.2	-21.9	738.8	0.022	0.000	21.3	6	-17.8	18.2	1.54	 .0727	24	1	100.0	1
02/25/24	1:24	-13.1	-13.1	-13.1	65	-18.3	11.3	ESE	0.19	12.2	ESE	-21.8	-13.2	-21.9	738.8	0.022	0.000	21.3	6	-17.8	18.1	1.54	 .0727	23	1	100.0	1
02/25/24	1:25	-13.1	-13.1	-13.1	65	-18.3	11.3	ESE	0.19	12.2	ESE	-21.9	-13.2	-22.0	738.8	0.022	0.000	21.3	6	-17.8	18.1	1.54	 .0727	24	1	100.0	1
02/25/24	1:26	-13.1	-13.1	-13.2	64	-18.5	11.3	ESE	0.19	12.2	ESE	-21.9	-13.2	-22.0	738.8	0.022	0.000	21.3	6	-17.8	18.1	1.54	 .0727	23	1	100.0	1
02/25/24	1:27	-13.2	-13.2	-13.2	64	-18.5	11.3	ESE	0.19	11.3	ESE	-21.9	-13.3	-22.1	738.8	0.022	0.000	21.3	6	-17.8	18.1	1.54	 .0727	23	1	100.0	1
02/25/24	1:28	-13.2	-13.2	-13.2	65	-18.4	11.3	ESE	0.19	12.2	ESE	-21.9	-13.3	-22.1	738.8	0.022	0.000	21.3	6	-17.8	18.1	1.54	 .0727	24	1	100.0	1
02/25/24	1:29	-13.2	-13.2	-13.2	65	-18.4	11.3	ESE	0.19	11.3	ESE	-21.9	-13.3	-22.1	738.8	0.022	0.000	21.3	6	-17.8	18.1	1.54	 .0727	23	1	100.0	1
02/25/24	1:30	-13.2	-13.2	-13.2	65	-18.4	11.3	ESE	0.19	12.2	ESE	-21.9	-13.3	-22.1	738.8	0.022	0.000	21.3	6	-17.8	18.1	1.54	 .0727	24	1	100.0	1
02/25/24	1:31	-13.1	-13.1	-13.2	65	-18.3	11.3	ESE	0.19	11.3	ESE	-21.9	-13.2	-22.0	738.8	0.022	0.000	21.3	6	-17.8	18.1	1.54	 .0727	23	1	100.0	1
02/25/24	1:32	-13.1	-13.1	-13.1	66	-18.1	11.3	ESE	0.19	11.3	ESE	-21.8	-13.2	-21.9	738.8	0.022	0.000	21.3	6	-17.8	18.1	1.54	 .0727	23	1	100.0	1
02/25/24	1:33	-13.0	-13.0	-13.1	66	-18.0	10.4	ESE	0.17	11.3	ESE	-21.4	-13.1	-21.5	738.7	0.022	0.000	21.3	6	-17.8	18.1	1.54	 .0727	24	1	100.0	1
02/25/24	1:34	-12.9	-12.9	-13.0	66	-18.0	10.4	ESE	0.17	11.3	ESE	-21.3	-13.1	-21.4	738.7	0.022	0.000	21.3	6	-17.8	18.2	1.54	 .0727	23	1	100.0	1
02/25/24	1:35	-12.9	-12.9	-12.9	66	-17.9	10.4	ESE	0.17	11.3	ESE	-21.3	-13.0	-21.4	738.7	0.022	0.000	21.3	6	-17.8	18.2	1.54	 .0727	24	1	100.0	1
02/25/24	1:36	-12.9	-12.9	-12.9	66	-17.9	11.3	ESE	0.19	11.3	ESE	-21.6	-13.0	-21.7	738.7	0.022	0.000	21.3	6	-17.8	18.2	1.54	 .0727	23	1	100.0	1
02/25/24	1:37	-12.9	-12.9	-12.9	66	-17.9	11.3	ESE	0.19	12.2	ESE	-21.6	-13.0	-21.7	738.7	0.022	0.000	21.4	6	-17.8	18.3	1.54	 .0726	24	1	100.0	1
02/25/24	1:38	-12.8	-12.8	-12.9	66	-17.9	11.3	ESE	0.19	12.2	ESE	-21.6	-12.9	-21.7	738.7	0.022	0.000	21.4	6	-17.8	18.3	1.54	 .0726	23	1	100.0	1
02/25/24	1:39	-12.9	-12.9	-12.9	66	-17.9	11.3	ESE	0.19	12.2	ESE	-21.6	-13.0	-21.7	738.7	0.022	0.000	21.4	6	-17.8	18.3	1.54	 .0726	23	1	100.0	1
02/25/24	1:40	-12.8	-12.8	-12.9	66	-17.9	11.3	ESE	0.19	11.3	ESE	-21.6	-12.9	-21.7	738.7	0.022	0.000	21.4	6	-17.8	18.3	1.54	 .0726	24	1	100.0	1
02/25/24	1:41	-12.8	-12.8	-12.9	66	-17.9	11.3	ESE	0.19	11.3	ESE	-21.6	-12.9	-21.7	738.7	0.022	0.000	21.4	6	-17.7	18.4	1.54	 .0726	23	1	100.0	1
02/25/24	1:42	-12.8	-12.8	-12.8	66	-17.9	11.3	ESE	0.19	11.3	ESE	-21.6	-12.9	-21.7	738.7	0.022	0.000	21.4	6	-17.7	18.4	1.54	 .0726	24	1	100.0	1
02/25/24	1:43	-12.9	-12.8	-12.9	66	-17.9	10.4	ESE	0.17	12.2	ESE	-21.3	-13.0	-21.4	738.7	0.022	0.000	21.4	6	-17.7	18.4	1.54	 .0726	23	1	100.0	1
02/25/24	1:44	-12.8	-12.8	-12.9	66	-17.9	10.4	ESE	0.17	11.3	ESE	-21.2	-12.9	-21.3	738.7	0.022	0.000	21.5	6	-17.7	18.5	1.54	 .0726	23	1	100.0	1
02/25/24	1:45	-12.8	-12.8	-12.9	65	-18.0	11.3	ESE	0.19	11.3	ESE	-21.6	-12.9	-21.7	738.7	0.022	0.000	21.5	6	-17.7	18.5	1.54	 .0726	24	1	100.0	1
02/25/24	1:46	-12.8	-12.8	-12.8	66	-17.9	11.3	ESE	0.19	12.2	ESE	-21.6	-12.9	-21.7	738.7	0.022	0.000	21.5	6	-17.7	18.5	1.54	 .0726	23	1	100.0	1
02/25/24	1:47	-12.8	-12.8	-12.8	65	-18.0	11.3	ESE	0.19	12.2	ESE	-21.6	-12.9	-21.7	738.7	0.022	0.000	21.5	6	-17.7	18.5	1.54	 .0726	24	1	100.0	1
02/25/24	1:48	-12.8	-12.8	-12.8	65	-18.0	11.3	ESE	0.19	11.3	ESE	-21.6	-12.9	-21.7	738.7	0.022	0.000	21.5	6	-17.7	18.5	1.54	 .0726	23	1	100.0	1
02/25/24	1:49	-12.8	-12.8	-12.8	65	-18.0	11.3	ESE	0.19	11.3	ESE	-21.6	-12.9	-21.7	738.7	0.022	0.000	21.5	6	-17.7	18.5	1.54	 .0726	23	1	100.0	1
02/25/24	1:50	-12.8	-12.8	-12.8	65	-18.0	11.3	ESE	0.19	12.2	ESE	-21.6	-12.9	-21.7	738.7	0.022	0.000	21.5	6	-17.7	18.5	1.54	 .0726	24	1	100.0	1
02/25/24	1:51	-12.8	-12.8	-12.8	65	-18.0	11.3	ESE	0.19	11.3	ESE	-21.5	-12.9	-21.6	738.7	0.022	0.000	21.5	6	-17.7	18.5	1.54	 .0726	23	1	100.0	1
02/25/24	1:52	-12.8	-12.8	-12.8	65	-18.0	10.4	ESE	0.17	11.3	ESE	-21.2	-12.9	-21.3	738.7	0.022	0.000	21.5	6	-17.7	18.5	1.54	 .0726	24	1	100.0	1
02/25/24	1:53	-12.8	-12.8	-12.8	65	-18.0	10.4	ESE	0.17	11.3	ESE	-21.2	-12.9	-21.3	738.7	0.022	0.000	21.5	6	-17.7	18.5	1.54	 .0726	23	1	100.0	1
02/25/24	1:54	-12.8	-12.8	-12.8	65	-18.0	10.4	ESE	0.17	11.3	ESE	-21.2	-12.9	-21.3	738.7	0.022	0.000	21.5	6	-17.7	18.5	1.54	 .0726	24	1	100.0	1
02/25/24	1:55	-12.8	-12.8	-12.8	65	-18.0	10.4	ESE	0.17	11.3	ESE	-21.2	-12.9	-21.3	738.7	0.022	0.000	21.5	6	-17.7	18.5	1.54	 .0726	23	1	100.0	1
02/25/24	1:56	-12.8	-12.8	-12.9	65	-18.0	10.4	ESE	0.17	11.3	ESE	-21.2	-12.9	-21.3	738.7	0.022	0.000	21.5	6	-17.7	18.5	1.54	 .0726	23	1	100.0	1
02/25/24	1:57	-12.9	-12.8	-12.9	65	-18.1	10.4	ESE	0.17	11.3	ESE	-21.3	-13.0	-21.4	738.7	0.022	0.000	21.5	6	-17.7	18.5	1.54	 .0726	24	1	100.0	1
02/25/24	1:58	-12.8	-12.8	-12.9	65	-18.0	10.4	ESE	0.17	12.2	ESE	-21.2	-12.9	-21.3	738.7	0.022	0.000	21.5	6	-17.7	18.5	1.54	 .0726	23	1	100.0	1
02/25/24	1:59	-12.8	-12.8	-12.8	65	-18.0	11.3	ESE	0.19	12.2	ESE	-21.6	-12.9	-21.7	738.6	0.022	0.000	21.5	6	-17.7	18.5	1.54	 .0726	24	1	100.0	1
02/25/24	2:00	-12.8	-12.8	-12.9	65	-18.0	10.4	ESE	0.17	12.2	ESE	-21.2	-12.9	-21.3	738.6	0.022	0.000	21.4	7	-15.9	18.4	1.84	 .0726	23	1	100.0	1
02/25/24	2:01	-12.8	-12.8	-12.8	65	-18.0	10.4	ESE	0.17	11.3	ESE	-21.2	-12.9	-21.3	738.6	0.022	0.000	21.4	7	-15.9	18.4	1.84	 .0726	23	1	100.0	1
02/25/24	2:02	-12.8	-12.8	-12.8	65	-18.0	10.4	ESE	0.17	12.2	ESE	-21.2	-12.9	-21.3	738.6	0.022	0.000	21.4	7	-15.9	18.4	1.84	 .0726	24	1	100.0	1
02/25/24	2:03	-12.8	-12.8	-12.8	65	-18.0	11.3	ESE	0.19	12.2	ESE	-21.6	-12.9	-21.7	738.6	0.022	0.000	21.4	7	-15.9	18.4	1.84	 .0726	23	1	100.0	1
02/25/24	2:04	-12.8	-12.8	-12.9	65	-18.0	11.3	ESE	0.19	12.2	ESE	-21.6	-12.9	-21.7	738.6	0.022	0.000	21.4	7	-15.9	18.4	1.84	 .0726	24	1	100.0	1
02/25/24	2:05	-12.9	-12.8	-12.9	65	-18.1	12.2	E	0.20	13.9	E	-21.9	-13.0	-22.1	738.6	0.022	0.000	21.5	7	-15.8	18.5	1.84	 .0726	23	1	100.0	1
02/25/24	2:06	-12.9	-12.9	-12.9	65	-18.1	11.3	E	0.19	13.9	E	-21.6	-13.0	-21.7	738.6	0.022	0.000	21.4	7	-15.9	18.4	1.84	 .0726	24	1	100.0	1
02/25/24	2:07	-12.9	-12.9	-12.9	65	-18.2	12.2	E	0.20	13.0	E	-22.0	-13.1	-22.1	738.6	0.022	0.000	21.4	7	-15.9	18.4	1.84	 .0726	23	1	100.0	1
02/25/24	2:08	-12.9	-12.9	-12.9	64	-18.3	12.2	E	0.20	13.0	E	-22.0	-13.1	-22.1	738.6	0.022	0.000	21.4	7	-15.9	18.4	1.84	 .0726	23	1	100.0	1
02/25/24	2:09	-13.0	-13.0	-13.0	64	-18.4	12.2	E	0.20	13.0	E	-22.1	-13.1	-22.2	738.6	0.022	0.000	21.5	7	-15.8	18.5	1.84	 .0726	24	1	100.0	1
02/25/24	2:10	-13.1	-13.0	-13.1	64	-18.5	11.3	E	0.19	13.0	E	-21.9	-13.2	-22.0	738.7	0.022	0.000	21.4	7	-15.9	18.4	1.84	 .0726	23	1	100.0	1
02/25/24	2:11	-13.2	-13.1	-13.2	64	-18.5	12.2	E	0.20	13.0	E	-22.3	-13.3	-22.4	738.6	0.022	0.000	21.5	7	-15.8	18.5	1.84	 .0726	24	1	100.0	1
02/25/24	2:12	-13.3	-13.2	-13.3	64	-18.7	11.3	E	0.19	12.2	E	-22.1	-13.4	-22.2	738.6	0.022	0.000	21.4	7	-15.9	18.4	1.84	 .0726	23	1	100.0	1
02/25/24	2:13	-13.3	-13.3	-13.3	64	-18.7	11.3	E	0.19	13.0	E	-22.2	-13.4	-22.3	738.6	0.022	0.000	21.4	7	-15.9	18.4	1.84	 .0726	23	1	100.0	1
02/25/24	2:14	-13.4	-13.3	-13.4	65	-18.6	11.3	E	0.19	12.2	E	-22.2	-13.5	-22.3	738.6	0.022	0.000	21.4	7	-15.9	18.4	1.84	 .0726	24	1	100.0	1
02/25/24	2:15	-13.4	-13.4	-13.4	65	-18.6	12.2	E	0.20	13.0	E	-22.6	-13.5	-22.7	738.6	0.022	0.000	21.4	7	-15.9	18.4	1.84	 .0726	23	1	100.0	1
02/25/24	2:16	-13.4	-13.4	-13.4	65	-18.6	11.3	E	0.19	12.2	E	-22.3	-13.6	-22.4	738.6	0.022	0.000	21.4	7	-15.9	18.4	1.84	 .0726	24	1	100.0	1
02/25/24	2:17	-13.4	-13.4	-13.4	65	-18.6	11.3	E	0.19	13.0	E	-22.3	-13.6	-22.4	738.6	0.022	0.000	21.4	7	-15.9	18.4	1.84	 .0726	23	1	100.0	1
02/25/24	2:18	-13.5	-13.4	-13.5	65	-18.7	11.3	E	0.19	12.2	E	-22.4	-13.6	-22.5	738.6	0.022	0.000	21.4	7	-15.9	18.4	1.84	 .0726	24	1	100.0	1
02/25/24	2:19	-13.6	-13.5	-13.6	65	-18.7	12.2	E	0.20	12.2	E	-22.8	-13.7	-22.9	738.6	0.022	0.000	21.4	7	-15.9	18.4	1.84	 .0726	23	1	100.0	1
02/25/24	2:20	-13.6	-13.6	-13.6	64	-19.0	12.2	E	0.20	13.0	E	-22.8	-13.7	-22.9	738.6	0.022	0.000	21.4	7	-15.9	18.4	1.84	 .0726	23	1	100.0	1
02/25/24	2:21	-13.7	-13.7	-13.7	62	-19.4	12.2	ENE	0.20	13.0	ENE	-23.0	-13.9	-23.2	738.6	0.022	0.000	21.4	7	-15.9	18.4	1.84	 .0726	24	1	100.0	1
02/25/24	2:22	-13.8	-13.7	-13.8	60	-19.9	12.2	ENE	0.20	13.9	ENE	-23.2	-14.0	-23.3	738.6	0.022	0.000	21.4	7	-15.9	18.4	1.84	 .0726	23	1	100.0	1
02/25/24	2:23	-13.9	-13.8	-13.9	58	-20.4	12.2	E	0.20	13.0	E	-23.2	-14.1	-23.4	738.6	0.022	0.000	21.4	7	-15.9	18.4	1.84	 .0726	24	1	100.0	1
02/25/24	2:24	-13.9	-13.9	-13.9	59	-20.2	12.2	ENE	0.20	13.0	ENE	-23.3	-14.1	-23.4	738.6	0.022	0.000	21.5	7	-15.8	18.5	1.84	 .0726	23	1	100.0	1
02/25/24	2:25	-13.9	-13.9	-13.9	57	-20.6	11.3	E	0.19	12.2	E	-22.9	-14.1	-23.1	738.6	0.022	0.000	21.5	8	-14.2	18.6	2.04	 .0726	23	1	100.0	1
02/25/24	2:26	-13.9	-13.9	-13.9	58	-20.4	12.2	E	0.20	13.9	E	-23.3	-14.1	-23.4	738.6	0.022	0.000	21.6	8	-14.2	18.7	2.03	 .0726	24	1	100.0	1
02/25/24	2:27	-13.9	-13.9	-13.9	58	-20.4	11.3	ENE	0.19	12.2	E	-22.9	-14.1	-23.1	738.6	0.022	0.000	21.6	8	-14.2	18.7	2.03	 .0726	23	1	100.0	1
02/25/24	2:28	-13.9	-13.9	-13.9	57	-20.6	9.6	ENE	0.16	10.4	ENE	-22.2	-14.1	-22.4	738.6	0.022	0.000	21.6	8	-14.1	18.7	2.03	 .0725	24	1	100.0	1
02/25/24	2:29	-13.9	-13.9	-13.9	58	-20.4	12.2	ENE	0.20	13.9	ENE	-23.3	-14.1	-23.4	738.6	0.022	0.000	21.6	8	-14.1	18.7	2.03	 .0725	23	1	100.0	1
02/25/24	2:30	-13.9	-13.9	-13.9	57	-20.6	13.0	ENE	0.22	13.9	ENE	-23.6	-14.1	-23.8	738.6	0.022	0.000	21.7	8	-14.1	18.8	2.03	 .0725	23	1	100.0	1
02/25/24	2:31	-13.9	-13.9	-13.9	56	-20.8	12.2	ENE	0.20	13.0	ENE	-23.2	-14.1	-23.4	738.6	0.022	0.000	21.7	8	-14.1	18.8	2.03	 .0725	24	1	100.0	1
02/25/24	2:32	-13.9	-13.9	-13.9	55	-21.0	13.0	ENE	0.22	13.9	ENE	-23.5	-14.1	-23.7	738.6	0.022	0.000	21.7	8	-14.0	18.9	2.03	 .0725	23	1	100.0	1
02/25/24	2:33	-13.8	-13.8	-13.8	54	-21.2	11.3	ENE	0.19	12.2	ENE	-22.8	-14.0	-23.0	738.6	0.022	0.000	21.8	8	-14.0	18.9	2.03	 .0725	24	1	100.0	1
02/25/24	2:34	-13.8	-13.8	-13.8	55	-20.9	13.0	ENE	0.22	13.9	E	-23.4	-14.0	-23.6	738.6	0.022	0.000	21.8	8	-14.0	18.9	2.03	 .0725	23	1	100.0	1
02/25/24	2:35	-13.8	-13.8	-13.8	56	-20.7	12.2	ENE	0.20	13.9	ENE	-23.2	-14.0	-23.3	738.5	0.022	0.000	21.8	8	-14.0	19.0	2.02	 .0725	24	1	100.0	1
02/25/24	2:36	-13.8	-13.8	-13.8	56	-20.7	11.3	ENE	0.19	12.2	ENE	-22.7	-13.9	-22.9	738.6	0.022	0.000	21.8	8	-14.0	19.0	2.02	 .0725	23	1	100.0	1
02/25/24	2:37	-13.8	-13.8	-13.8	56	-20.7	10.4	E	0.17	12.2	ENE	-22.4	-13.9	-22.6	738.6	0.022	0.000	21.9	8	-13.9	19.1	2.02	 .0725	23	1	100.0	1
02/25/24	2:38	-13.7	-13.7	-13.7	57	-20.4	13.0	ENE	0.22	14.8	ENE	-23.3	-13.9	-23.4	738.6	0.022	0.000	21.9	8	-13.9	19.1	2.02	 .0725	24	1	100.0	1
02/25/24	2:39	-13.7	-13.7	-13.7	57	-20.4	13.0	ENE	0.22	13.9	ENE	-23.3	-13.9	-23.4	738.6	0.022	0.000	21.9	8	-13.9	19.1	2.02	 .0724	23	1	100.0	1
02/25/24	2:40	-13.7	-13.7	-13.7	58	-20.2	12.2	ENE	0.20	14.8	ENE	-23.0	-13.9	-23.2	738.5	0.022	0.000	22.0	8	-13.8	19.2	2.02	 .0724	24	1	100.0	1
02/25/24	2:41	-13.7	-13.7	-13.7	58	-20.2	11.3	ENE	0.19	13.0	ENE	-22.6	-13.8	-22.8	738.6	0.022	0.000	22.0	8	-13.8	19.2	2.02	 .0724	23	1	100.0	1
02/25/24	2:42	-13.7	-13.7	-13.7	57	-20.4	8.7	ENE	0.14	10.4	ENE	-21.5	-13.8	-21.7	738.6	0.022	0.000	22.0	8	-13.8	19.2	2.02	 .0724	23	1	100.0	1
02/25/24	2:43	-13.7	-13.7	-13.7	58	-20.2	13.0	ENE	0.22	14.8	ENE	-23.2	-13.8	-23.4	738.6	0.022	0.000	22.0	8	-13.8	19.2	2.02	 .0724	24	1	100.0	1
02/25/24	2:44	-13.7	-13.7	-13.7	58	-20.2	13.9	ENE	0.23	14.8	ENE	-23.5	-13.8	-23.7	738.5	0.022	0.000	22.0	8	-13.8	19.2	2.02	 .0724	23	1	100.0	1
02/25/24	2:45	-13.6	-13.6	-13.7	58	-20.1	12.2	ENE	0.20	13.9	ENE	-22.8	-13.8	-23.0	738.5	0.022	0.000	22.0	8	-13.8	19.2	2.02	 .0724	24	1	100.0	1
02/25/24	2:46	-13.6	-13.6	-13.6	58	-20.1	9.6	ENE	0.16	11.3	ENE	-21.8	-13.8	-22.0	738.6	0.022	0.000	22.1	8	-13.8	19.3	2.02	 .0724	23	1	100.0	1
02/25/24	2:47	-13.6	-13.6	-13.6	58	-20.1	10.4	ENE	0.17	14.8	E	-22.2	-13.8	-22.3	738.5	0.022	0.000	22.0	8	-13.8	19.2	2.02	 .0724	24	1	100.0	1
02/25/24	2:48	-13.6	-13.6	-13.7	59	-19.9	13.9	ENE	0.23	14.8	ENE	-23.4	-13.8	-23.6	738.5	0.022	0.000	22.0	8	-13.8	19.2	2.02	 .0724	23	1	100.0	1
02/25/24	2:49	-13.6	-13.6	-13.6	59	-19.9	12.2	ENE	0.20	13.9	ENE	-22.8	-13.8	-23.0	738.5	0.022	0.000	22.0	8	-13.8	19.2	2.02	 .0724	23	1	100.0	1
02/25/24	2:50	-13.7	-13.7	-13.7	59	-20.0	10.4	ENE	0.17	11.3	ENE	-22.3	-13.8	-22.4	738.5	0.022	0.000	22.0	8	-13.8	19.2	2.02	 .0724	24	1	100.0	1
02/25/24	2:51	-13.8	-13.7	-13.8	59	-20.1	11.3	ENE	0.19	12.2	E	-22.7	-13.9	-22.9	738.5	0.022	0.000	22.0	8	-13.8	19.2	2.02	 .0724	23	1	100.0	1
02/25/24	2:52	-13.8	-13.8	-13.8	60	-19.9	11.3	ENE	0.19	13.0	ENE	-22.7	-13.9	-22.9	738.5	0.022	0.000	22.0	8	-13.8	19.2	2.02	 .0724	24	1	100.0	1
02/25/24	2:53	-13.8	-13.8	-13.8	61	-19.7	12.2	ENE	0.20	13.0	ENE	-23.1	-13.9	-23.2	738.5	0.022	0.000	22.0	8	-13.8	19.2	2.02	 .0724	23	1	100.0	1
02/25/24	2:54	-13.8	-13.8	-13.8	61	-19.7	11.3	ENE	0.19	12.2	ENE	-22.7	-13.9	-22.9	738.5	0.022	0.000	22.0	8	-13.8	19.2	2.02	 .0724	23	1	100.0	1
02/25/24	2:55	-13.8	-13.8	-13.8	61	-19.7	10.4	ENE	0.17	12.2	ENE	-22.4	-14.0	-22.6	738.5	0.022	0.000	22.0	8	-13.8	19.2	2.02	 .0724	24	1	100.0	1
02/25/24	2:56	-13.9	-13.8	-13.9	61	-19.8	11.3	ENE	0.19	12.2	ENE	-22.9	-14.1	-23.1	738.5	0.022	0.000	22.0	8	-13.8	19.2	2.02	 .0724	23	1	100.0	1
02/25/24	2:57	-13.9	-13.9	-13.9	61	-19.8	12.2	ENE	0.20	13.0	ENE	-23.2	-14.1	-23.4	738.5	0.022	0.000	22.0	8	-13.8	19.2	2.02	 .0724	24	1	100.0	1
02/25/24	2:58	-13.9	-13.9	-13.9	62	-19.6	11.3	ENE	0.19	12.2	ENE	-22.9	-14.1	-23.1	738.5	0.022	0.000	22.0	8	-13.8	19.2	2.02	 .0724	23	1	100.0	1
02/25/24	2:59	-13.9	-13.9	-13.9	62	-19.6	11.3	ENE	0.19	12.2	ENE	-22.9	-14.1	-23.1	738.5	0.022	0.000	22.0	8	-13.8	19.2	2.02	 .0724	24	1	100.0	1
02/25/24	3:00	-13.8	-13.8	-13.9	62	-19.6	10.4	ENE	0.17	11.3	ENE	-22.4	-14.0	-22.6	738.5	0.022	0.000	22.0	8	-13.8	19.2	2.02	 .0724	23	1	100.0	1
02/25/24	3:01	-13.8	-13.8	-13.9	63	-19.4	11.3	ENE	0.19	12.2	ENE	-22.8	-13.9	-22.9	738.5	0.022	0.000	22.0	8	-13.8	19.2	2.02	 .0724	23	1	100.0	1
02/25/24	3:02	-13.8	-13.8	-13.9	63	-19.4	11.3	ENE	0.19	12.2	ENE	-22.8	-13.9	-22.9	738.5	0.022	0.000	22.1	8	-13.8	19.3	2.02	 .0724	24	1	100.0	1
02/25/24	3:03	-13.8	-13.8	-13.8	63	-19.4	10.4	ENE	0.17	11.3	ENE	-22.4	-13.9	-22.6	738.5	0.022	0.000	22.0	8	-13.8	19.2	2.02	 .0724	23	1	100.0	1
02/25/24	3:04	-13.8	-13.8	-13.8	63	-19.3	11.3	ENE	0.19	12.2	ENE	-22.7	-13.9	-22.8	738.5	0.022	0.000	22.0	8	-13.8	19.2	2.02	 .0724	24	1	100.0	1
02/25/24	3:05	-13.7	-13.7	-13.8	63	-19.3	11.3	ENE	0.19	12.2	ENE	-22.7	-13.8	-22.8	738.5	0.022	0.000	22.0	8	-13.8	19.2	2.02	 .0724	23	1	100.0	1
02/25/24	3:06	-13.7	-13.7	-13.7	63	-19.3	11.3	ENE	0.19	12.2	ENE	-22.7	-13.8	-22.8	738.5	0.022	0.000	22.0	8	-13.8	19.2	2.02	 .0724	23	1	100.0	1
02/25/24	3:07	-13.7	-13.7	-13.7	63	-19.3	10.4	ENE	0.17	12.2	ENE	-22.3	-13.8	-22.4	738.5	0.022	0.000	22.0	8	-13.8	19.2	2.02	 .0724	24	1	100.0	1
02/25/24	3:08	-13.8	-13.7	-13.8	63	-19.3	12.2	ENE	0.20	13.9	ENE	-23.1	-13.9	-23.2	738.4	0.022	0.000	22.0	8	-13.8	19.2	2.02	 .0724	23	1	100.0	1
02/25/24	3:09	-13.8	-13.8	-13.8	63	-19.3	12.2	ENE	0.20	13.0	ENE	-23.1	-13.9	-23.2	738.4	0.022	0.000	22.0	8	-13.8	19.2	2.02	 .0724	24	1	100.0	1
02/25/24	3:10	-13.8	-13.8	-13.8	63	-19.3	11.3	ENE	0.19	12.2	ENE	-22.7	-13.9	-22.8	738.5	0.022	0.000	22.1	8	-13.8	19.3	2.02	 .0724	23	1	100.0	1
02/25/24	3:11	-13.7	-13.7	-13.8	64	-19.0	10.4	ENE	0.17	12.2	ENE	-22.3	-13.8	-22.4	738.5	0.022	0.000	22.0	8	-13.8	19.2	2.02	 .0724	24	1	100.0	1
02/25/24	3:12	-13.6	-13.6	-13.7	64	-19.0	12.2	ENE	0.20	13.0	ENE	-22.8	-13.7	-22.9	738.4	0.022	0.000	22.0	8	-13.8	19.2	2.02	 .0724	23	1	100.0	1
02/25/24	3:13	-13.6	-13.6	-13.6	64	-18.9	11.3	ENE	0.19	12.2	ENE	-22.4	-13.7	-22.6	738.4	0.022	0.000	22.1	8	-13.8	19.3	2.02	 .0724	23	1	100.0	1
02/25/24	3:14	-13.6	-13.6	-13.6	64	-18.9	11.3	ENE	0.19	13.0	ENE	-22.4	-13.7	-22.6	738.5	0.022	0.000	22.1	8	-13.8	19.3	2.02	 .0724	24	1	100.0	1
02/25/24	3:15	-13.5	-13.5	-13.6	64	-18.9	11.3	ENE	0.19	12.2	ENE	-22.4	-13.6	-22.5	738.5	0.022	0.000	22.1	8	-13.8	19.3	2.02	 .0724	23	1	100.0	1
02/25/24	3:16	-13.4	-13.4	-13.5	64	-18.8	11.3	ENE	0.19	12.2	ENE	-22.3	-13.6	-22.4	738.5	0.022	0.000	22.1	8	-13.8	19.3	2.02	 .0724	24	1	100.0	1
02/25/24	3:17	-13.4	-13.4	-13.4	64	-18.8	10.4	ENE	0.17	12.2	ENE	-22.0	-13.6	-22.1	738.4	0.022	0.000	22.1	8	-13.8	19.3	2.02	 .0724	23	1	100.0	1
02/25/24	3:18	-13.4	-13.4	-13.4	64	-18.8	11.3	ENE	0.19	13.0	ENE	-22.2	-13.5	-22.3	738.5	0.022	0.000	22.1	8	-13.8	19.3	2.02	 .0724	23	1	100.0	1
02/25/24	3:19	-13.3	-13.3	-13.4	65	-18.5	11.3	ENE	0.19	13.0	ENE	-22.2	-13.4	-22.3	738.5	0.022	0.000	22.1	8	-13.8	19.3	2.02	 .0724	24	1	100.0	1
02/25/24	3:20	-13.3	-13.3	-13.3	65	-18.5	10.4	ENE	0.17	11.3	ENE	-21.8	-13.4	-21.9	738.5	0.022	0.000	22.1	8	-13.8	19.3	2.02	 .0724	23	1	100.0	1
02/25/24	3:21	-13.2	-13.2	-13.3	65	-18.4	10.4	ENE	0.17	12.2	ENE	-21.7	-13.3	-21.8	738.5	0.022	0.000	22.1	8	-13.8	19.3	2.02	 .0724	24	1	100.0	1
02/25/24	3:22	-13.2	-13.2	-13.2	65	-18.4	10.4	ENE	0.17	11.3	ENE	-21.6	-13.3	-21.7	738.5	0.022	0.000	22.1	8	-13.8	19.3	2.02	 .0724	23	1	100.0	1
02/25/24	3:23	-13.2	-13.2	-13.2	65	-18.4	7.8	ENE	0.13	10.4	ENE	-20.4	-13.3	-20.6	738.5	0.022	0.000	22.1	8	-13.8	19.3	2.01	 .0724	23	1	100.0	1
02/25/24	3:24	-13.2	-13.2	-13.2	65	-18.4	10.4	ENE	0.17	11.3	ENE	-21.6	-13.3	-21.7	738.5	0.022	0.000	22.1	8	-13.8	19.3	2.01	 .0724	24	1	100.0	1
02/25/24	3:25	-13.1	-13.1	-13.2	65	-18.3	10.4	ENE	0.17	11.3	ENE	-21.6	-13.2	-21.7	738.4	0.022	0.000	22.1	8	-13.8	19.3	2.01	 .0724	23	1	100.0	1
02/25/24	3:26	-13.1	-13.1	-13.2	65	-18.3	11.3	ENE	0.19	11.3	ENE	-21.9	-13.2	-22.0	738.5	0.022	0.000	22.1	8	-13.8	19.3	2.01	 .0724	24	1	100.0	1
02/25/24	3:27	-13.1	-13.1	-13.1	65	-18.3	10.4	ENE	0.17	10.4	ENE	-21.5	-13.2	-21.6	738.4	0.022	0.000	22.1	8	-13.8	19.3	2.01	 .0724	23	1	100.0	1
02/25/24	3:28	-13.0	-13.0	-13.1	65	-18.2	9.6	ENE	0.16	11.3	ENE	-21.1	-13.1	-21.2	738.5	0.022	0.000	22.1	8	-13.8	19.3	2.01	 .0724	24	1	100.0	1
02/25/24	3:29	-13.0	-13.0	-13.0	65	-18.2	9.6	ENE	0.16	9.6	ENE	-21.1	-13.1	-21.2	738.4	0.022	0.000	22.1	8	-13.8	19.3	2.01	 .0724	23	1	100.0	1
02/25/24	3:30	-12.9	-12.9	-13.0	64	-18.3	9.6	ENE	0.16	10.4	ENE	-21.0	-13.1	-21.1	738.5	0.022	0.000	22.2	8	-13.7	19.4	2.01	 .0724	23	1	100.0	1
02/25/24	3:31	-12.9	-12.9	-12.9	64	-18.3	9.6	ENE	0.16	10.4	ENE	-21.0	-13.1	-21.1	738.5	0.022	0.000	22.2	8	-13.7	19.4	2.01	 .0724	24	1	100.0	1
02/25/24	3:32	-12.9	-12.9	-12.9	64	-18.3	9.6	ENE	0.16	10.4	ENE	-21.0	-13.1	-21.1	738.5	0.022	0.000	22.2	8	-13.7	19.4	2.01	 .0724	23	1	100.0	1
02/25/24	3:33	-12.9	-12.9	-12.9	64	-18.3	10.4	ENE	0.17	11.3	ENE	-21.3	-13.0	-21.4	738.5	0.022	0.000	22.2	8	-13.7	19.4	2.01	 .0724	24	1	100.0	1
02/25/24	3:34	-12.9	-12.8	-12.9	65	-18.1	10.4	ENE	0.17	11.3	ENE	-21.3	-13.0	-21.4	738.5	0.022	0.000	22.2	8	-13.7	19.4	2.01	 .0724	23	1	100.0	1
02/25/24	3:35	-12.9	-12.8	-12.9	64	-18.3	9.6	ENE	0.16	10.4	ENE	-20.9	-13.0	-21.0	738.5	0.022	0.000	22.2	8	-13.7	19.4	2.01	 .0724	23	1	100.0	1
02/25/24	3:36	-12.9	-12.9	-12.9	64	-18.3	9.6	ENE	0.16	10.4	ENE	-20.9	-13.0	-21.0	738.5	0.022	0.000	22.2	9	-12.2	19.6	2.27	 .0724	24	1	100.0	1
02/25/24	3:37	-12.9	-12.9	-12.9	64	-18.3	10.4	ENE	0.17	10.4	ENE	-21.3	-13.0	-21.4	738.5	0.022	0.000	22.2	9	-12.2	19.6	2.27	 .0724	23	1	100.0	1
02/25/24	3:38	-12.9	-12.9	-12.9	64	-18.3	8.7	ENE	0.14	9.6	ENE	-20.6	-13.1	-20.7	738.5	0.022	0.000	22.2	9	-12.2	19.6	2.27	 .0724	24	1	100.0	1
02/25/24	3:39	-12.9	-12.9	-12.9	64	-18.3	8.7	ENE	0.14	9.6	ENE	-20.6	-13.1	-20.7	738.5	0.022	0.000	22.2	9	-12.2	19.6	2.27	 .0724	23	1	100.0	1
02/25/24	3:40	-12.9	-12.9	-12.9	64	-18.3	9.6	ENE	0.16	12.2	ENE	-21.0	-13.1	-21.1	738.5	0.022	0.000	22.2	9	-12.2	19.6	2.27	 .0724	24	1	100.0	1
02/25/24	3:41	-12.9	-12.9	-13.0	64	-18.3	10.4	ENE	0.17	12.2	ENE	-21.3	-13.1	-21.4	738.5	0.022	0.000	22.2	9	-12.2	19.6	2.27	 .0723	23	1	100.0	1
02/25/24	3:42	-12.9	-12.9	-12.9	64	-18.3	8.7	ENE	0.14	9.6	ENE	-20.6	-13.1	-20.7	738.5	0.022	0.000	22.2	9	-12.2	19.6	2.27	 .0724	23	1	100.0	1
02/25/24	3:43	-12.9	-12.9	-12.9	65	-18.2	10.4	ENE	0.17	11.3	ENE	-21.3	-13.1	-21.4	738.5	0.022	0.000	22.3	9	-12.2	19.6	2.27	 .0723	24	1	100.0	1
02/25/24	3:44	-12.9	-12.9	-12.9	64	-18.3	9.6	ENE	0.16	10.4	ENE	-21.0	-13.1	-21.1	738.5	0.022	0.000	22.3	9	-12.2	19.6	2.27	 .0723	23	1	100.0	1
02/25/24	3:45	-12.9	-12.9	-12.9	65	-18.2	9.6	ENE	0.16	10.4	ENE	-21.0	-13.1	-21.1	738.5	0.022	0.000	22.3	9	-12.2	19.6	2.27	 .0723	24	1	100.0	1
02/25/24	3:46	-12.9	-12.9	-12.9	65	-18.2	9.6	ENE	0.16	11.3	ENE	-21.0	-13.1	-21.1	738.5	0.022	0.000	22.3	9	-12.2	19.6	2.27	 .0723	23	1	100.0	1
02/25/24	3:47	-12.9	-12.9	-12.9	64	-18.3	10.4	ENE	0.17	11.3	ENE	-21.3	-13.1	-21.4	738.5	0.022	0.000	22.3	9	-12.2	19.6	2.27	 .0723	23	1	100.0	1
02/25/24	3:48	-13.0	-12.9	-13.0	64	-18.4	9.6	ENE	0.16	11.3	ENE	-21.1	-13.1	-21.2	738.5	0.022	0.000	22.3	9	-12.2	19.6	2.27	 .0723	24	1	100.0	1
02/25/24	3:49	-13.0	-13.0	-13.1	65	-18.2	10.4	ENE	0.17	11.3	ENE	-21.4	-13.1	-21.5	738.5	0.022	0.000	22.3	9	-12.2	19.6	2.27	 .0723	23	1	100.0	1
02/25/24	3:50	-13.0	-13.0	-13.0	65	-18.2	9.6	ENE	0.16	10.4	ENE	-21.1	-13.1	-21.2	738.5	0.022	0.000	22.3	9	-12.1	19.7	2.26	 .0723	24	1	100.0	1
02/25/24	3:51	-13.0	-13.0	-13.1	65	-18.2	9.6	ENE	0.16	11.3	ENE	-21.1	-13.1	-21.2	738.5	0.022	0.000	22.3	9	-12.1	19.7	2.26	 .0723	23	1	100.0	1
02/25/24	3:52	-13.1	-13.0	-13.1	65	-18.3	10.4	ENE	0.17	11.3	ENE	-21.5	-13.2	-21.6	738.5	0.022	0.000	22.3	9	-12.1	19.7	2.26	 .0723	24	1	100.0	1
02/25/24	3:53	-13.1	-13.1	-13.1	65	-18.3	10.4	ENE	0.17	11.3	ENE	-21.5	-13.2	-21.6	738.5	0.022	0.000	22.3	9	-12.1	19.7	2.26	 .0723	23	1	100.0	1
02/25/24	3:54	-13.1	-13.1	-13.1	65	-18.3	10.4	ENE	0.17	10.4	ENE	-21.5	-13.2	-21.6	738.5	0.022	0.000	22.3	9	-12.1	19.7	2.26	 .0723	23	1	100.0	1
02/25/24	3:55	-13.1	-13.0	-13.1	65	-18.3	9.6	ENE	0.16	10.4	ENE	-21.1	-13.2	-21.2	738.5	0.022	0.000	22.3	9	-12.1	19.7	2.26	 .0723	24	1	100.0	1
02/25/24	3:56	-13.0	-13.0	-13.0	65	-18.2	9.6	ENE	0.16	10.4	ENE	-21.1	-13.1	-21.2	738.5	0.022	0.000	22.3	9	-12.1	19.7	2.26	 .0723	23	1	100.0	1
02/25/24	3:57	-13.0	-13.0	-13.0	66	-18.0	10.4	ENE	0.17	11.3	ENE	-21.4	-13.1	-21.5	738.4	0.022	0.000	22.3	9	-12.1	19.7	2.26	 .0723	24	1	100.0	1
02/25/24	3:58	-13.0	-13.0	-13.0	66	-18.0	9.6	ENE	0.16	11.3	ENE	-21.1	-13.1	-21.2	738.4	0.022	0.000	22.3	9	-12.1	19.7	2.26	 .0723	23	1	100.0	1
02/25/24	3:59	-12.9	-12.9	-13.0	65	-18.2	9.6	ENE	0.16	10.4	ENE	-21.0	-13.1	-21.1	738.4	0.022	0.000	22.3	9	-12.1	19.7	2.26	 .0723	23	1	100.0	1
02/25/24	4:00	-13.0	-12.9	-13.0	65	-18.2	9.6	ENE	0.16	10.4	ENE	-21.1	-13.1	-21.2	738.4	0.022	0.000	22.3	9	-12.1	19.7	2.26	 .0723	24	1	100.0	1
02/25/24	4:01	-13.0	-13.0	-13.0	65	-18.2	9.6	ENE	0.16	10.4	ENE	-21.1	-13.1	-21.2	738.4	0.022	0.000	22.3	9	-12.1	19.7	2.26	 .0723	23	1	100.0	1
02/25/24	4:02	-13.0	-13.0	-13.1	66	-18.0	9.6	ENE	0.16	10.4	ENE	-21.1	-13.1	-21.2	738.5	0.022	0.000	22.3	9	-12.1	19.7	2.26	 .0723	24	1	100.0	1
02/25/24	4:03	-13.1	-13.1	-13.1	66	-18.1	9.6	ENE	0.16	9.6	ENE	-21.1	-13.2	-21.2	738.4	0.022	0.000	22.3	9	-12.1	19.7	2.26	 .0723	23	1	100.0	1
02/25/24	4:04	-13.1	-13.1	-13.1	65	-18.3	9.6	ENE	0.16	10.4	ENE	-21.1	-13.2	-21.2	738.4	0.022	0.000	22.3	9	-12.1	19.7	2.26	 .0723	23	1	100.0	1
02/25/24	4:05	-13.1	-13.1	-13.1	65	-18.3	9.6	ENE	0.16	10.4	ENE	-21.2	-13.2	-21.3	738.4	0.022	0.000	22.3	9	-12.1	19.7	2.26	 .0723	24	1	100.0	1
02/25/24	4:06	-13.2	-13.1	-13.2	65	-18.4	8.7	ENE	0.14	10.4	ENE	-20.8	-13.3	-20.9	738.5	0.022	0.000	22.3	9	-12.1	19.7	2.26	 .0723	23	1	100.0	1
02/25/24	4:07	-13.2	-13.2	-13.2	66	-18.2	9.6	ENE	0.16	10.4	ENE	-21.3	-13.3	-21.4	738.5	0.022	0.000	22.3	9	-12.1	19.7	2.26	 .0723	24	1	100.0	1
02/25/24	4:08	-13.2	-13.2	-13.2	66	-18.2	8.7	ENE	0.14	10.4	ENE	-20.8	-13.3	-20.9	738.5	0.022	0.000	22.3	9	-12.1	19.7	2.26	 .0723	23	1	100.0	1
02/25/24	4:09	-13.1	-13.1	-13.2	66	-18.1	9.6	ENE	0.16	10.4	ENE	-21.2	-13.2	-21.3	738.5	0.022	0.000	22.3	9	-12.1	19.7	2.26	 .0723	24	1	100.0	1
02/25/24	4:10	-13.1	-13.1	-13.1	66	-18.1	8.7	ENE	0.14	9.6	ENE	-20.7	-13.2	-20.8	738.5	0.022	0.000	22.3	9	-12.1	19.7	2.26	 .0723	23	1	100.0	1
02/25/24	4:11	-13.1	-13.1	-13.1	66	-18.1	8.7	ENE	0.14	9.6	ENE	-20.7	-13.2	-20.8	738.5	0.022	0.000	22.3	9	-12.1	19.7	2.26	 .0723	23	1	100.0	1
02/25/24	4:12	-13.0	-13.0	-13.1	66	-18.0	8.7	ENE	0.14	9.6	ENE	-20.7	-13.1	-20.8	738.5	0.022	0.000	22.3	9	-12.1	19.7	2.26	 .0723	24	1	100.0	1
02/25/24	4:13	-12.9	-12.9	-13.0	66	-18.0	8.7	ENE	0.14	9.6	ENE	-20.6	-13.1	-20.7	738.4	0.022	0.000	22.3	9	-12.1	19.7	2.26	 .0723	23	1	100.0	1
02/25/24	4:14	-12.9	-12.9	-12.9	66	-18.0	9.6	ENE	0.16	10.4	ENE	-21.0	-13.1	-21.1	738.5	0.022	0.000	22.3	9	-12.1	19.7	2.26	 .0723	24	1	100.0	1
02/25/24	4:15	-12.9	-12.9	-12.9	66	-18.0	9.6	ENE	0.16	9.6	ENE	-21.0	-13.1	-21.1	738.5	0.022	0.000	22.3	9	-12.1	19.7	2.26	 .0723	23	1	100.0	1
02/25/24	4:16	-12.9	-12.9	-12.9	66	-17.9	8.7	ENE	0.14	9.6	ENE	-20.5	-13.0	-20.6	738.5	0.022	0.000	22.3	9	-12.1	19.7	2.26	 .0723	23	1	100.0	1
02/25/24	4:17	-12.8	-12.8	-12.9	66	-17.9	8.7	ENE	0.14	9.6	ENE	-20.4	-12.9	-20.6	738.5	0.022	0.000	22.3	9	-12.1	19.7	2.26	 .0723	24	1	100.0	1
02/25/24	4:18	-12.8	-12.8	-12.8	66	-17.9	9.6	ENE	0.16	10.4	ENE	-20.8	-12.9	-20.9	738.5	0.022	0.000	22.3	9	-12.1	19.7	2.26	 .0723	23	1	100.0	1
02/25/24	4:19	-12.8	-12.8	-12.8	66	-17.9	9.6	ENE	0.16	10.4	ENE	-20.8	-12.9	-20.9	738.5	0.022	0.000	22.3	9	-12.1	19.7	2.26	 .0723	24	1	100.0	1
02/25/24	4:20	-12.9	-12.8	-12.9	66	-17.9	8.7	ENE	0.14	9.6	ENE	-20.5	-13.0	-20.6	738.5	0.022	0.000	22.3	9	-12.1	19.7	2.26	 .0723	23	1	100.0	1
02/25/24	4:21	-12.9	-12.8	-12.9	66	-17.9	9.6	ENE	0.16	9.6	ENE	-20.9	-13.0	-21.0	738.5	0.022	0.000	22.4	9	-12.1	19.8	2.26	 .0723	24	1	100.0	1
02/25/24	4:22	-12.9	-12.9	-12.9	66	-17.9	7.8	ENE	0.13	9.6	ENE	-20.1	-13.0	-20.2	738.5	0.022	0.000	22.4	9	-12.1	19.8	2.26	 .0723	23	1	100.0	1
02/25/24	4:23	-12.9	-12.9	-12.9	66	-18.0	7.8	ENE	0.13	8.7	ENE	-20.2	-13.1	-20.3	738.5	0.022	0.000	22.4	9	-12.1	19.8	2.26	 .0723	23	1	100.0	1
02/25/24	4:24	-12.9	-12.9	-12.9	66	-18.0	8.7	ENE	0.14	9.6	ENE	-20.6	-13.1	-20.7	738.5	0.022	0.000	22.4	9	-12.1	19.8	2.26	 .0723	24	1	100.0	1
02/25/24	4:25	-12.9	-12.9	-13.0	66	-18.0	9.6	ENE	0.16	9.6	ENE	-21.0	-13.1	-21.1	738.5	0.022	0.000	22.4	9	-12.1	19.8	2.26	 .0723	23	1	100.0	1
02/25/24	4:26	-13.0	-12.9	-13.0	66	-18.0	8.7	ENE	0.14	9.6	ENE	-20.7	-13.1	-20.8	738.5	0.022	0.000	22.4	9	-12.1	19.8	2.26	 .0723	24	1	100.0	1
02/25/24	4:27	-12.9	-12.9	-13.0	66	-18.0	8.7	ENE	0.14	9.6	ENE	-20.6	-13.1	-20.7	738.5	0.022	0.000	22.4	9	-12.1	19.8	2.26	 .0723	23	1	100.0	1
02/25/24	4:28	-12.9	-12.9	-12.9	66	-18.0	8.7	ENE	0.14	9.6	ENE	-20.6	-13.1	-20.7	738.5	0.022	0.000	22.4	9	-12.1	19.8	2.26	 .0723	23	1	100.0	1
02/25/24	4:29	-12.9	-12.9	-12.9	66	-18.0	8.7	ENE	0.14	8.7	ENE	-20.6	-13.1	-20.7	738.4	0.022	0.000	22.4	9	-12.1	19.8	2.26	 .0723	24	1	100.0	1
02/25/24	4:30	-12.9	-12.9	-12.9	66	-17.9	8.7	ENE	0.14	9.6	ENE	-20.5	-13.0	-20.6	738.5	0.022	0.000	22.4	9	-12.0	19.8	2.25	 .0723	23	1	100.0	1
02/25/24	4:31	-12.9	-12.9	-12.9	66	-17.9	8.7	ENE	0.14	9.6	ENE	-20.5	-13.0	-20.6	738.5	0.022	0.000	22.4	9	-12.1	19.8	2.26	 .0723	24	1	100.0	1
02/25/24	4:32	-12.9	-12.9	-12.9	66	-17.9	8.7	ENE	0.14	9.6	NE	-20.5	-13.0	-20.6	738.5	0.022	0.000	22.4	9	-12.1	19.8	2.26	 .0723	23	1	100.0	1
02/25/24	4:33	-12.8	-12.8	-12.9	66	-17.9	8.7	ENE	0.14	9.6	ENE	-20.4	-12.9	-20.6	738.5	0.022	0.000	22.4	9	-12.1	19.8	2.26	 .0723	24	1	100.0	1
02/25/24	4:34	-12.8	-12.8	-12.8	66	-17.8	7.8	ENE	0.13	8.7	ENE	-19.9	-12.9	-20.1	738.5	0.022	0.000	22.4	9	-12.0	19.8	2.25	 .0723	23	1	100.0	1
02/25/24	4:35	-12.8	-12.8	-12.8	66	-17.8	7.8	ENE	0.13	8.7	ENE	-19.9	-12.9	-20.1	738.5	0.022	0.000	22.4	9	-12.0	19.8	2.25	 .0723	23	1	100.0	1
02/25/24	4:36	-12.7	-12.7	-12.7	66	-17.8	8.7	ENE	0.14	9.6	ENE	-20.3	-12.8	-20.4	738.5	0.022	0.000	22.4	9	-12.0	19.8	2.25	 .0723	24	1	100.0	1
02/25/24	4:37	-12.7	-12.7	-12.7	66	-17.8	7.8	ENE	0.13	9.6	ENE	-19.9	-12.8	-20.0	738.5	0.022	0.000	22.4	9	-12.0	19.8	2.25	 .0723	23	1	100.0	1
02/25/24	4:38	-12.7	-12.7	-12.7	66	-17.7	8.7	ENE	0.14	9.6	ENE	-20.2	-12.8	-20.3	738.5	0.022	0.000	22.4	9	-12.0	19.8	2.25	 .0723	24	1	100.0	1
02/25/24	4:39	-12.7	-12.7	-12.7	66	-17.7	8.7	ENE	0.14	9.6	ENE	-20.2	-12.8	-20.3	738.5	0.022	0.000	22.4	9	-12.0	19.8	2.25	 .0723	23	1	100.0	1
02/25/24	4:40	-12.6	-12.6	-12.7	66	-17.7	8.7	ENE	0.14	9.6	ENE	-20.2	-12.7	-20.3	738.5	0.021	0.000	22.4	9	-12.0	19.8	2.25	 .0723	23	1	100.0	1
02/25/24	4:41	-12.7	-12.7	-12.7	65	-17.9	8.7	ENE	0.14	9.6	ENE	-20.2	-12.8	-20.3	738.5	0.022	0.000	22.4	9	-12.0	19.8	2.25	 .0723	24	1	100.0	1
02/25/24	4:42	-12.7	-12.7	-12.7	65	-17.9	8.7	ENE	0.14	9.6	ENE	-20.2	-12.8	-20.3	738.5	0.022	0.000	22.4	9	-12.1	19.8	2.26	 .0723	23	1	100.0	1
02/25/24	4:43	-12.7	-12.7	-12.7	64	-18.1	8.7	ENE	0.14	9.6	ENE	-20.3	-12.8	-20.4	738.5	0.022	0.000	22.4	9	-12.0	19.8	2.25	 .0723	24	1	100.0	1
02/25/24	4:44	-12.7	-12.7	-12.7	64	-18.1	8.7	ENE	0.14	9.6	ENE	-20.3	-12.8	-20.4	738.5	0.022	0.000	22.4	9	-12.0	19.8	2.25	 .0723	23	1	100.0	1
02/25/24	4:45	-12.8	-12.7	-12.8	64	-18.2	8.7	ENE	0.14	9.6	ENE	-20.4	-12.9	-20.5	738.5	0.022	0.000	22.4	9	-12.0	19.8	2.25	 .0723	24	1	100.0	1
02/25/24	4:46	-12.8	-12.8	-12.8	65	-18.0	8.7	ENE	0.14	9.6	ENE	-20.4	-12.9	-20.5	738.5	0.022	0.000	22.4	9	-12.0	19.8	2.25	 .0723	23	1	100.0	1
02/25/24	4:47	-12.8	-12.8	-12.8	65	-18.0	9.6	ENE	0.16	10.4	ENE	-20.8	-12.9	-20.9	738.5	0.022	0.000	22.4	9	-12.1	19.8	2.26	 .0723	23	1	100.0	1
02/25/24	4:48	-12.7	-12.7	-12.8	65	-17.9	8.7	ENE	0.14	9.6	ENE	-20.3	-12.8	-20.4	738.4	0.022	0.000	22.4	9	-12.0	19.8	2.25	 .0723	24	1	100.0	1
02/25/24	4:49	-12.7	-12.7	-12.7	65	-17.9	9.6	ENE	0.16	10.4	ENE	-20.7	-12.8	-20.8	738.4	0.022	0.000	22.4	9	-12.1	19.8	2.26	 .0723	23	1	100.0	1
02/25/24	4:50	-12.7	-12.7	-12.7	65	-17.9	8.7	ENE	0.14	10.4	ENE	-20.3	-12.8	-20.4	738.4	0.022	0.000	22.4	9	-12.1	19.8	2.26	 .0723	24	1	100.0	1
02/25/24	4:51	-12.8	-12.7	-12.8	65	-18.0	8.7	ENE	0.14	9.6	ENE	-20.4	-12.9	-20.5	738.4	0.022	0.000	22.4	9	-12.0	19.8	2.25	 .0723	23	1	100.0	1
02/25/24	4:52	-12.8	-12.8	-12.8	65	-18.0	8.7	ENE	0.14	9.6	ENE	-20.4	-12.9	-20.5	738.5	0.022	0.000	22.4	9	-12.1	19.8	2.26	 .0723	23	1	100.0	1
02/25/24	4:53	-12.8	-12.8	-12.8	65	-18.0	7.8	ENE	0.13	9.6	ENE	-19.9	-12.9	-20.1	738.4	0.022	0.000	22.4	9	-12.1	19.8	2.26	 .0723	24	1	100.0	1
02/25/24	4:54	-12.8	-12.8	-12.8	65	-18.0	6.1	ENE	0.10	8.7	ENE	-19.0	-12.9	-19.1	738.4	0.022	0.000	22.4	9	-12.1	19.8	2.26	 .0723	23	1	100.0	1
02/25/24	4:55	-12.8	-12.8	-12.8	65	-18.0	8.7	ENE	0.14	10.4	ENE	-20.4	-12.9	-20.6	738.5	0.022	0.000	22.4	9	-12.1	19.8	2.26	 .0723	24	1	100.0	1
02/25/24	4:56	-12.8	-12.8	-12.8	65	-18.0	9.6	ENE	0.16	10.4	ENE	-20.8	-12.9	-20.9	738.4	0.022	0.000	22.4	9	-12.1	19.8	2.26	 .0723	23	1	100.0	1
02/25/24	4:57	-12.7	-12.7	-12.8	66	-17.8	8.7	ENE	0.14	9.6	ENE	-20.3	-12.8	-20.4	738.4	0.022	0.000	22.4	9	-12.1	19.8	2.26	 .0723	23	1	100.0	1
02/25/24	4:58	-12.7	-12.7	-12.7	66	-17.8	8.7	ENE	0.14	9.6	ENE	-20.3	-12.8	-20.4	738.5	0.022	0.000	22.4	9	-12.1	19.8	2.26	 .0723	24	1	100.0	1
02/25/24	4:59	-12.7	-12.7	-12.7	66	-17.7	7.8	ENE	0.13	8.7	ENE	-19.8	-12.8	-19.9	738.5	0.022	0.000	22.4	9	-12.1	19.8	2.26	 .0723	23	1	100.0	1
02/25/24	5:00	-12.7	-12.7	-12.7	66	-17.7	7.0	ENE	0.12	7.8	ENE	-19.3	-12.8	-19.4	738.5	0.022	0.000	22.4	9	-12.1	19.8	2.26	 .0723	24	1	100.0	1
02/25/24	5:01	-12.6	-12.6	-12.7	66	-17.7	5.2	ENE	0.09	7.8	ENE	-18.2	-12.7	-18.3	738.5	0.021	0.000	22.4	9	-12.1	19.8	2.26	 .0723	23	1	100.0	1
02/25/24	5:02	-12.6	-12.6	-12.6	66	-17.6	7.8	ENE	0.13	9.6	ENE	-19.7	-12.7	-19.8	738.5	0.021	0.000	22.4	9	-12.1	19.8	2.26	 .0723	24	1	100.0	1
02/25/24	5:03	-12.6	-12.6	-12.6	67	-17.4	9.6	ENE	0.16	9.6	ENE	-20.5	-12.7	-20.6	738.5	0.021	0.000	22.4	9	-12.1	19.8	2.26	 .0723	23	1	100.0	1
02/25/24	5:04	-12.5	-12.5	-12.6	67	-17.4	8.7	ENE	0.14	9.6	ENE	-20.1	-12.6	-20.2	738.5	0.021	0.000	22.4	9	-12.1	19.8	2.26	 .0723	23	1	100.0	1
02/25/24	5:05	-12.5	-12.5	-12.5	67	-17.4	8.7	ENE	0.14	9.6	ENE	-20.1	-12.6	-20.2	738.5	0.021	0.000	22.4	9	-12.1	19.8	2.26	 .0723	24	1	100.0	1
02/25/24	5:06	-12.5	-12.5	-12.5	67	-17.4	8.7	ENE	0.14	8.7	ENE	-20.1	-12.6	-20.2	738.4	0.021	0.000	22.4	9	-12.1	19.8	2.26	 .0723	23	1	100.0	1
02/25/24	5:07	-12.4	-12.4	-12.5	67	-17.3	6.1	ENE	0.10	7.8	ENE	-18.6	-12.6	-18.7	738.5	0.021	0.000	22.4	9	-12.1	19.8	2.26	 .0723	24	1	100.0	1
02/25/24	5:08	-12.4	-12.4	-12.5	67	-17.3	6.1	ENE	0.10	9.6	ENE	-18.6	-12.6	-18.7	738.4	0.021	0.000	22.4	9	-12.1	19.8	2.26	 .0723	23	1	100.0	1
02/25/24	5:09	-12.4	-12.4	-12.4	67	-17.3	9.6	ENE	0.16	10.4	ENE	-20.3	-12.5	-20.4	738.4	0.021	0.000	22.4	9	-12.1	19.8	2.26	 .0723	23	1	100.0	1
02/25/24	5:10	-12.4	-12.4	-12.4	67	-17.3	7.8	ENE	0.13	7.8	ENE	-19.4	-12.5	-19.6	738.5	0.021	0.000	22.4	9	-12.1	19.8	2.26	 .0723	24	1	100.0	1
02/25/24	5:11	-12.4	-12.3	-12.4	67	-17.3	7.0	ENE	0.12	7.8	ENE	-19.0	-12.5	-19.1	738.5	0.021	0.000	22.4	9	-12.1	19.8	2.26	 .0723	23	1	100.0	1
02/25/24	5:12	-12.3	-12.3	-12.3	67	-17.2	6.1	ENE	0.10	7.0	ENE	-18.4	-12.4	-18.6	738.5	0.021	0.000	22.4	9	-12.1	19.8	2.26	 .0723	24	1	100.0	1
02/25/24	5:13	-12.3	-12.3	-12.3	67	-17.2	6.1	ENE	0.10	7.8	ENE	-18.4	-12.4	-18.6	738.4	0.021	0.000	22.4	9	-12.1	19.8	2.26	 .0723	23	1	100.0	1
02/25/24	5:14	-12.3	-12.3	-12.3	67	-17.2	7.8	E	0.13	8.7	E	-19.4	-12.4	-19.5	738.4	0.021	0.000	22.4	9	-12.1	19.8	2.26	 .0723	24	1	100.0	1
02/25/24	5:15	-12.3	-12.3	-12.3	67	-17.2	8.7	E	0.14	9.6	E	-19.8	-12.4	-19.9	738.4	0.021	0.000	22.4	9	-12.1	19.8	2.26	 .0723	23	1	100.0	1
02/25/24	5:16	-12.3	-12.3	-12.3	67	-17.2	7.8	E	0.13	8.7	E	-19.3	-12.4	-19.5	738.4	0.021	0.000	22.4	10	-10.8	19.8	2.46	 .0723	23	1	100.0	1
02/25/24	5:17	-12.2	-12.2	-12.3	67	-17.1	7.0	E	0.12	7.8	E	-18.8	-12.4	-18.9	738.4	0.021	0.000	22.4	10	-10.8	19.8	2.46	 .0723	24	1	100.0	1
02/25/24	5:18	-12.2	-12.2	-12.2	67	-17.1	7.8	E	0.13	8.7	E	-19.3	-12.4	-19.4	738.4	0.021	0.000	22.4	10	-10.8	19.8	2.46	 .0723	23	1	100.0	1
02/25/24	5:19	-12.2	-12.2	-12.2	67	-17.1	7.0	E	0.12	7.8	E	-18.8	-12.4	-18.9	738.4	0.021	0.000	22.4	9	-12.0	19.8	2.25	 .0723	24	1	100.0	1
02/25/24	5:20	-12.3	-12.2	-12.3	67	-17.2	7.0	E	0.12	8.7	E	-18.9	-12.4	-19.1	738.4	0.021	0.000	22.4	9	-12.0	19.8	2.25	 .0723	23	1	100.0	1
02/25/24	5:21	-12.3	-12.3	-12.3	67	-17.2	7.8	E	0.13	8.7	E	-19.3	-12.4	-19.5	738.4	0.021	0.000	22.4	9	-12.0	19.8	2.25	 .0723	23	1	100.0	1
02/25/24	5:22	-12.3	-12.3	-12.3	67	-17.2	7.8	ENE	0.13	8.7	E	-19.4	-12.4	-19.5	738.4	0.021	0.000	22.4	9	-12.0	19.8	2.25	 .0723	24	1	100.0	1
02/25/24	5:23	-12.3	-12.3	-12.3	67	-17.2	7.8	ENE	0.13	7.8	ENE	-19.4	-12.4	-19.5	738.4	0.021	0.000	22.4	9	-12.0	19.8	2.25	 .0723	23	1	100.0	1
02/25/24	5:24	-12.4	-12.3	-12.4	67	-17.3	7.8	ENE	0.13	8.7	ENE	-19.4	-12.5	-19.6	738.4	0.021	0.000	22.4	9	-12.0	19.8	2.25	 .0723	24	1	100.0	1
02/25/24	5:25	-12.4	-12.4	-12.4	67	-17.3	6.1	ENE	0.10	7.8	ENE	-18.5	-12.5	-18.6	738.4	0.021	0.000	22.4	9	-12.0	19.8	2.25	 .0723	23	1	100.0	1
02/25/24	5:26	-12.4	-12.4	-12.4	67	-17.3	7.0	ENE	0.12	7.8	ENE	-19.0	-12.5	-19.1	738.4	0.021	0.000	22.4	9	-12.0	19.8	2.25	 .0723	24	1	100.0	1
02/25/24	5:27	-12.4	-12.4	-12.4	67	-17.3	6.1	ENE	0.10	7.0	ENE	-18.5	-12.5	-18.6	738.4	0.021	0.000	22.4	9	-12.0	19.8	2.25	 .0723	23	1	100.0	1
02/25/24	5:28	-12.4	-12.4	-12.4	67	-17.3	7.8	ENE	0.13	8.7	ENE	-19.4	-12.5	-19.6	738.4	0.021	0.000	22.4	9	-12.0	19.8	2.25	 .0723	23	1	100.0	1
02/25/24	5:29	-12.4	-12.4	-12.4	68	-17.1	7.8	ENE	0.13	8.7	ENE	-19.4	-12.5	-19.6	738.5	0.021	0.000	22.4	9	-12.0	19.8	2.25	 .0723	24	1	100.0	1
02/25/24	5:30	-12.4	-12.4	-12.4	67	-17.3	7.0	ENE	0.12	7.8	ENE	-19.0	-12.5	-19.1	738.4	0.021	0.000	22.4	9	-12.0	19.8	2.25	 .0723	23	1	100.0	1
02/25/24	5:31	-12.4	-12.4	-12.4	67	-17.3	7.8	ENE	0.13	7.8	ENE	-19.6	-12.6	-19.7	738.5	0.021	0.000	22.4	10	-10.7	19.9	2.45	 .0723	24	1	100.0	1
02/25/24	5:32	-12.4	-12.4	-12.5	67	-17.3	7.8	ENE	0.13	8.7	ENE	-19.6	-12.6	-19.7	738.5	0.021	0.000	22.4	10	-10.7	19.9	2.45	 .0723	23	1	100.0	1
02/25/24	5:33	-12.4	-12.4	-12.5	67	-17.3	7.8	ENE	0.13	8.7	ENE	-19.6	-12.6	-19.7	738.4	0.021	0.000	22.4	9	-12.0	19.8	2.25	 .0723	23	1	100.0	1
02/25/24	5:34	-12.4	-12.4	-12.4	68	-17.1	7.8	ENE	0.13	9.6	ENE	-19.6	-12.6	-19.7	738.5	0.021	0.000	22.4	9	-12.0	19.8	2.25	 .0723	24	1	100.0	1
02/25/24	5:35	-12.4	-12.4	-12.4	68	-17.1	7.8	ENE	0.13	9.6	ENE	-19.6	-12.6	-19.7	738.4	0.021	0.000	22.4	9	-12.0	19.8	2.25	 .0723	23	1	100.0	1
02/25/24	5:36	-12.4	-12.4	-12.4	67	-17.3	7.8	ENE	0.13	8.7	ENE	-19.6	-12.6	-19.7	738.5	0.021	0.000	22.4	9	-12.1	19.8	2.26	 .0723	24	1	100.0	1
02/25/24	5:37	-12.5	-12.4	-12.5	67	-17.4	7.8	ENE	0.13	8.7	ENE	-19.6	-12.6	-19.7	738.5	0.021	0.000	22.4	10	-10.7	19.9	2.45	 .0723	23	1	100.0	1
02/25/24	5:38	-12.5	-12.5	-12.5	67	-17.4	8.7	ENE	0.14	10.4	ENE	-20.1	-12.6	-20.2	738.5	0.021	0.000	22.4	9	-12.0	19.8	2.25	 .0723	23	1	100.0	1
02/25/24	5:39	-12.6	-12.5	-12.6	67	-17.4	8.7	ENE	0.14	9.6	ENE	-20.1	-12.7	-20.2	738.5	0.021	0.000	22.4	10	-10.7	19.9	2.45	 .0723	24	1	100.0	1
02/25/24	5:40	-12.6	-12.6	-12.6	67	-17.5	8.7	ENE	0.14	10.4	ENE	-20.2	-12.7	-20.3	738.5	0.021	0.000	22.4	10	-10.8	19.8	2.46	 .0723	23	1	100.0	1
02/25/24	5:41	-12.7	-12.6	-12.7	67	-17.5	7.0	ENE	0.12	8.7	ENE	-19.3	-12.8	-19.4	738.5	0.022	0.000	22.4	10	-10.8	19.8	2.46	 .0723	24	1	100.0	1
02/25/24	5:42	-12.7	-12.7	-12.7	67	-17.5	6.1	ENE	0.10	7.8	ENE	-18.8	-12.8	-18.9	738.5	0.022	0.000	22.4	10	-10.8	19.8	2.46	 .0723	23	1	100.0	1
02/25/24	5:43	-12.7	-12.7	-12.7	67	-17.6	7.0	NE	0.12	9.6	NE	-19.4	-12.8	-19.5	738.5	0.022	0.000	22.4	10	-10.8	19.8	2.46	 .0723	24	1	100.0	1
02/25/24	5:44	-12.7	-12.7	-12.7	68	-17.4	8.7	NE	0.14	10.4	NE	-20.3	-12.8	-20.4	738.5	0.022	0.000	22.4	10	-10.8	19.8	2.46	 .0723	23	1	100.0	1
02/25/24	5:45	-12.7	-12.7	-12.7	68	-17.4	8.7	NE	0.14	9.6	NE	-20.3	-12.8	-20.4	738.5	0.022	0.000	22.4	10	-10.8	19.8	2.46	 .0723	23	1	100.0	1
02/25/24	5:46	-12.7	-12.7	-12.7	68	-17.4	7.8	NE	0.13	9.6	NE	-19.8	-12.8	-19.9	738.5	0.022	0.000	22.4	10	-10.8	19.8	2.46	 .0723	24	1	100.0	1
02/25/24	5:47	-12.6	-12.6	-12.7	68	-17.3	7.8	NE	0.13	8.7	NE	-19.7	-12.7	-19.8	738.5	0.021	0.000	22.4	9	-12.1	19.8	2.26	 .0723	23	1	100.0	1
02/25/24	5:48	-12.6	-12.6	-12.6	68	-17.2	7.8	NE	0.13	8.7	NE	-19.7	-12.7	-19.8	738.5	0.021	0.000	22.4	9	-12.1	19.8	2.26	 .0723	24	1	100.0	1
02/25/24	5:49	-12.5	-12.5	-12.6	68	-17.2	7.8	ENE	0.13	8.7	NE	-19.6	-12.6	-19.7	738.5	0.021	0.000	22.4	9	-12.1	19.8	2.26	 .0723	23	1	100.0	1
02/25/24	5:50	-12.4	-12.4	-12.5	68	-17.1	7.0	ENE	0.12	7.8	ENE	-19.1	-12.6	-19.2	738.5	0.021	0.000	22.3	9	-12.1	19.7	2.26	 .0723	23	1	100.0	1
02/25/24	5:51	-12.4	-12.4	-12.4	68	-17.1	7.8	ENE	0.13	8.7	ENE	-19.6	-12.6	-19.7	738.5	0.021	0.000	22.3	9	-12.1	19.7	2.26	 .0723	24	1	100.0	1
02/25/24	5:52	-12.4	-12.4	-12.4	68	-17.1	7.0	ENE	0.12	7.8	ENE	-19.0	-12.5	-19.1	738.5	0.021	0.000	22.3	9	-12.1	19.7	2.26	 .0723	23	1	100.0	1
02/25/24	5:53	-12.4	-12.4	-12.4	67	-17.3	7.0	ENE	0.12	8.7	ENE	-19.1	-12.6	-19.2	738.5	0.021	0.000	22.3	9	-12.1	19.7	2.26	 .0723	24	1	100.0	1
02/25/24	5:54	-12.4	-12.4	-12.4	67	-17.3	7.0	ENE	0.12	8.7	ENE	-19.1	-12.6	-19.2	738.5	0.021	0.000	22.3	9	-12.1	19.7	2.26	 .0723	23	1	100.0	1
02/25/24	5:55	-12.4	-12.4	-12.4	67	-17.3	7.8	ENE	0.13	8.7	ENE	-19.6	-12.6	-19.7	738.4	0.021	0.000	22.3	9	-12.1	19.7	2.26	 .0723	24	1	100.0	1
02/25/24	5:56	-12.4	-12.4	-12.4	67	-17.3	7.8	ENE	0.13	8.7	ENE	-19.6	-12.6	-19.7	738.4	0.021	0.000	22.3	9	-12.1	19.7	2.26	 .0723	23	1	100.0	1
02/25/24	5:57	-12.4	-12.4	-12.4	67	-17.3	7.0	ENE	0.12	7.8	ENE	-19.1	-12.6	-19.2	738.4	0.021	0.000	22.3	9	-12.1	19.7	2.26	 .0723	23	1	100.0	1
02/25/24	5:58	-12.4	-12.4	-12.4	67	-17.3	7.8	ENE	0.13	8.7	ENE	-19.6	-12.6	-19.7	738.4	0.021	0.000	22.3	9	-12.2	19.6	2.27	 .0723	24	1	100.0	1
02/25/24	5:59	-12.4	-12.4	-12.4	67	-17.3	8.7	ENE	0.14	9.6	ENE	-19.9	-12.6	-20.1	738.4	0.021	0.000	22.3	9	-12.1	19.7	2.26	 .0723	23	1	100.0	1
02/25/24	6:00	-12.5	-12.5	-12.5	67	-17.4	8.7	ENE	0.14	9.6	ENE	-20.1	-12.6	-20.2	738.4	0.021	0.000	22.3	9	-12.2	19.6	2.27	 .0723	24	1	100.0	1
02/25/24	6:01	-12.6	-12.6	-12.6	67	-17.4	8.7	ENE	0.14	9.6	ENE	-20.1	-12.7	-20.2	738.4	0.021	0.000	22.3	9	-12.2	19.6	2.27	 .0723	23	1	100.0	1
02/25/24	6:02	-12.6	-12.6	-12.6	67	-17.5	9.6	ENE	0.16	10.4	ENE	-20.6	-12.7	-20.7	738.4	0.021	0.000	22.3	9	-12.2	19.6	2.27	 .0723	23	1	100.0	1
02/25/24	6:03	-12.6	-12.6	-12.6	67	-17.5	8.7	ENE	0.14	9.6	E	-20.2	-12.7	-20.3	738.4	0.021	0.000	22.3	9	-12.2	19.6	2.27	 .0723	24	1	100.0	1
02/25/24	6:04	-12.7	-12.6	-12.7	67	-17.5	9.6	ENE	0.16	10.4	ENE	-20.6	-12.8	-20.7	738.4	0.022	0.000	22.3	9	-12.2	19.6	2.27	 .0723	23	1	100.0	1
02/25/24	6:05	-12.7	-12.7	-12.7	67	-17.6	8.7	ENE	0.14	9.6	ENE	-20.3	-12.8	-20.4	738.4	0.022	0.000	22.3	9	-12.2	19.6	2.27	 .0723	24	1	100.0	1
02/25/24	6:06	-12.7	-12.7	-12.7	67	-17.6	7.0	ENE	0.12	10.4	ENE	-19.4	-12.8	-19.5	738.4	0.022	0.000	22.3	9	-12.2	19.6	2.27	 .0723	23	1	100.0	1
02/25/24	6:07	-12.8	-12.7	-12.8	67	-17.7	9.6	ENE	0.16	11.3	ENE	-20.8	-12.9	-20.9	738.4	0.022	0.000	22.3	9	-12.2	19.6	2.27	 .0723	24	1	100.0	1
02/25/24	6:08	-12.9	-12.8	-12.9	67	-17.8	9.6	ENE	0.16	10.4	ENE	-21.0	-13.1	-21.1	738.4	0.022	0.000	22.2	9	-12.2	19.6	2.27	 .0723	23	1	100.0	1
02/25/24	6:09	-13.0	-12.9	-13.0	67	-17.8	9.6	ENE	0.16	10.4	ENE	-21.1	-13.1	-21.2	738.4	0.022	0.000	22.2	9	-12.2	19.6	2.27	 .0723	23	1	100.0	1
02/25/24	6:10	-13.1	-13.0	-13.1	67	-17.9	7.8	ENE	0.13	9.6	ENE	-20.3	-13.2	-20.4	738.4	0.022	0.000	22.2	9	-12.2	19.6	2.27	 .0723	24	1	100.0	1
02/25/24	6:11	-13.0	-13.0	-13.1	67	-17.8	8.7	ENE	0.14	11.3	E	-20.7	-13.1	-20.8	738.4	0.022	0.000	22.2	9	-12.2	19.6	2.27	 .0723	23	1	100.0	1
02/25/24	6:12	-12.9	-12.9	-13.0	68	-17.6	8.7	ENE	0.14	10.4	ENE	-20.5	-13.0	-20.6	738.4	0.022	0.000	22.2	9	-12.2	19.6	2.27	 .0723	24	1	100.0	1
02/25/24	6:13	-12.8	-12.8	-12.8	68	-17.5	8.7	ENE	0.14	9.6	ENE	-20.4	-12.9	-20.6	738.4	0.022	0.000	22.2	9	-12.2	19.6	2.27	 .0723	23	1	100.0	1
02/25/24	6:14	-12.8	-12.8	-12.8	68	-17.5	8.7	ENE	0.14	11.3	ENE	-20.4	-12.9	-20.6	738.4	0.022	0.000	22.2	9	-12.2	19.6	2.27	 .0723	23	1	100.0	1
02/25/24	6:15	-12.8	-12.8	-12.8	68	-17.5	7.8	ENE	0.13	9.6	ENE	-19.9	-12.9	-20.1	738.4	0.022	0.000	22.2	9	-12.2	19.6	2.27	 .0723	24	1	100.0	1
02/25/24	6:16	-12.7	-12.7	-12.8	68	-17.4	7.0	ENE	0.12	8.7	ENE	-19.4	-12.8	-19.5	738.4	0.022	0.000	22.2	9	-12.2	19.6	2.27	 .0723	23	1	100.0	1
02/25/24	6:17	-12.7	-12.7	-12.7	68	-17.4	8.7	ENE	0.14	9.6	ENE	-20.2	-12.8	-20.3	738.4	0.022	0.000	22.2	9	-12.3	19.4	2.27	 .0724	24	1	100.0	1
02/25/24	6:18	-12.7	-12.7	-12.7	67	-17.5	7.8	ENE	0.13	8.7	ENE	-19.8	-12.8	-19.9	738.4	0.022	0.000	22.2	9	-12.3	19.4	2.27	 .0724	23	1	100.0	1
02/25/24	6:19	-12.7	-12.7	-12.7	67	-17.5	7.8	ENE	0.13	8.7	ENE	-19.8	-12.8	-19.9	738.4	0.022	0.000	22.2	9	-12.3	19.4	2.27	 .0724	24	1	100.0	1
02/25/24	6:20	-12.7	-12.7	-12.7	67	-17.6	7.8	ENE	0.13	9.6	ENE	-19.9	-12.8	-20.0	738.4	0.022	0.000	22.2	9	-12.3	19.4	2.27	 .0724	23	1	100.0	1
02/25/24	6:21	-12.7	-12.7	-12.7	67	-17.6	7.8	ENE	0.13	10.4	ENE	-19.9	-12.8	-20.0	738.4	0.022	0.000	22.2	9	-12.3	19.4	2.27	 .0724	23	1	100.0	1
02/25/24	6:22	-12.7	-12.7	-12.7	67	-17.6	8.7	ENE	0.14	9.6	ENE	-20.3	-12.8	-20.4	738.4	0.022	0.000	22.2	9	-12.3	19.4	2.27	 .0724	24	1	100.0	1
02/25/24	6:23	-12.7	-12.7	-12.8	67	-17.6	7.8	ENE	0.13	9.6	ENE	-19.9	-12.8	-20.0	738.4	0.022	0.000	22.1	9	-12.3	19.4	2.28	 .0724	23	1	100.0	1
02/25/24	6:24	-12.8	-12.7	-12.8	67	-17.6	7.8	ENE	0.13	8.7	ENE	-19.9	-12.9	-20.1	738.4	0.022	0.000	22.1	9	-12.3	19.4	2.28	 .0724	24	1	100.0	1
02/25/24	6:25	-12.8	-12.8	-12.8	67	-17.6	8.7	ENE	0.14	9.6	ENE	-20.4	-12.9	-20.5	738.4	0.022	0.000	22.1	9	-12.3	19.4	2.28	 .0724	23	1	100.0	1
02/25/24	6:26	-12.8	-12.8	-12.8	68	-17.5	8.7	ENE	0.14	9.6	ENE	-20.4	-12.9	-20.5	738.4	0.022	0.000	22.1	9	-12.3	19.4	2.28	 .0724	23	1	100.0	1
02/25/24	6:27	-12.7	-12.7	-12.8	68	-17.4	8.7	ENE	0.14	8.7	ENE	-20.3	-12.8	-20.4	738.4	0.022	0.000	22.1	9	-12.3	19.3	2.28	 .0724	24	1	100.0	1
02/25/24	6:28	-12.8	-12.7	-12.8	67	-17.6	7.0	ENE	0.12	8.7	ENE	-19.5	-12.9	-19.6	738.4	0.022	0.000	22.1	9	-12.3	19.3	2.28	 .0724	23	1	100.0	1
02/25/24	6:29	-12.8	-12.8	-12.8	67	-17.7	8.7	ENE	0.14	10.4	ENE	-20.4	-12.9	-20.6	738.4	0.022	0.000	22.1	9	-12.3	19.3	2.28	 .0724	24	1	100.0	1
02/25/24	6:30	-12.8	-12.8	-12.8	67	-17.7	7.8	ENE	0.13	9.6	ENE	-20.0	-12.9	-20.1	738.4	0.022	0.000	22.1	9	-12.3	19.3	2.28	 .0724	23	1	100.0	1
02/25/24	6:31	-12.9	-12.8	-12.9	67	-17.7	8.7	ENE	0.14	10.4	ENE	-20.5	-13.0	-20.6	738.4	0.022	0.000	22.1	9	-12.3	19.3	2.28	 .0724	23	1	100.0	1
02/25/24	6:32	-12.8	-12.8	-12.8	67	-17.6	8.7	ENE	0.14	9.6	ENE	-20.4	-12.9	-20.5	738.4	0.022	0.000	22.0	9	-12.4	19.3	2.29	 .0724	24	1	100.0	1
02/25/24	6:33	-12.8	-12.8	-12.8	68	-17.5	8.7	ENE	0.14	10.4	ENE	-20.4	-12.9	-20.5	738.4	0.022	0.000	22.0	9	-12.4	19.3	2.29	 .0724	23	1	100.0	1
02/25/24	6:34	-12.7	-12.7	-12.7	67	-17.6	7.8	ENE	0.13	8.7	ENE	-19.9	-12.8	-20.0	738.4	0.022	0.000	22.0	9	-12.4	19.3	2.29	 .0724	24	1	100.0	1
02/25/24	6:35	-12.8	-12.7	-12.8	67	-17.6	7.8	ENE	0.13	9.6	ENE	-19.9	-12.9	-20.1	738.5	0.022	0.000	21.9	9	-12.4	19.2	2.29	 .0724	23	1	100.0	1
02/25/24	6:36	-12.8	-12.8	-12.8	67	-17.6	8.7	ENE	0.14	8.7	ENE	-20.4	-12.9	-20.5	738.4	0.022	0.000	21.9	9	-12.4	19.2	2.29	 .0724	24	1	100.0	1
02/25/24	6:37	-12.7	-12.7	-12.8	67	-17.6	6.1	NE	0.10	7.8	ENE	-18.9	-12.8	-19.0	738.5	0.022	0.000	21.9	9	-12.4	19.2	2.29	 .0724	23	1	100.0	1
02/25/24	6:38	-12.7	-12.7	-12.7	67	-17.6	8.7	ENE	0.14	9.6	ENE	-20.3	-12.8	-20.4	738.5	0.022	0.000	21.9	9	-12.4	19.2	2.29	 .0724	23	1	100.0	1
02/25/24	6:39	-12.7	-12.7	-12.7	67	-17.5	8.7	ENE	0.14	9.6	ENE	-20.2	-12.8	-20.3	738.4	0.022	0.000	21.9	9	-12.4	19.2	2.29	 .0724	24	1	100.0	1
02/25/24	6:40	-12.6	-12.6	-12.7	67	-17.5	7.8	ENE	0.13	9.6	ENE	-19.7	-12.7	-19.8	738.4	0.021	0.000	21.9	9	-12.5	19.1	2.29	 .0724	23	1	100.0	1
02/25/24	6:41	-12.5	-12.5	-12.6	67	-17.4	6.1	ENE	0.10	7.0	ENE	-18.6	-12.6	-18.7	738.4	0.021	0.000	21.9	9	-12.5	19.1	2.29	 .0724	24	1	100.0	1
02/25/24	6:42	-12.5	-12.5	-12.5	66	-17.5	5.2	NE	0.09	7.0	ENE	-18.1	-12.6	-18.2	738.4	0.021	0.000	21.9	9	-12.4	19.2	2.29	 .0724	23	1	100.0	1
02/25/24	6:43	-12.4	-12.4	-12.5	66	-17.5	7.8	ENE	0.13	8.7	ENE	-19.6	-12.6	-19.7	738.4	0.021	0.000	21.9	9	-12.4	19.2	2.29	 .0724	23	1	100.0	1
02/25/24	6:44	-12.4	-12.4	-12.4	66	-17.5	7.8	ENE	0.13	8.7	ENE	-19.6	-12.6	-19.7	738.4	0.021	0.000	21.9	9	-12.4	19.2	2.29	 .0724	24	1	100.0	1
02/25/24	6:45	-12.4	-12.4	-12.4	66	-17.4	7.0	NE	0.12	8.7	NE	-19.0	-12.6	-19.2	738.4	0.021	0.000	21.9	9	-12.4	19.2	2.29	 .0724	23	1	100.0	1
02/25/24	6:46	-12.4	-12.4	-12.4	65	-17.6	7.0	ENE	0.12	8.7	ENE	-19.0	-12.6	-19.2	738.4	0.021	0.000	21.9	9	-12.4	19.2	2.29	 .0724	24	1	100.0	1
02/25/24	6:47	-12.4	-12.4	-12.4	65	-17.6	6.1	ENE	0.10	7.8	ENE	-18.5	-12.6	-18.7	738.4	0.021	0.000	21.9	9	-12.4	19.2	2.29	 .0724	23	1	100.0	1
02/25/24	6:48	-12.4	-12.4	-12.4	65	-17.6	6.1	ENE	0.10	7.0	ENE	-18.5	-12.6	-18.7	738.4	0.021	0.000	21.9	9	-12.4	19.2	2.29	 .0724	24	1	100.0	1
02/25/24	6:49	-12.4	-12.4	-12.4	65	-17.6	5.2	NE	0.09	6.1	NE	-17.9	-12.6	-18.1	738.4	0.021	0.000	21.9	9	-12.4	19.2	2.29	 .0724	23	1	100.0	1
02/25/24	6:50	-12.3	-12.3	-12.4	65	-17.6	6.1	ENE	0.10	7.8	ENE	-18.4	-12.5	-18.6	738.4	0.021	0.000	21.9	9	-12.4	19.2	2.29	 .0724	23	1	100.0	1
02/25/24	6:51	-12.3	-12.3	-12.4	64	-17.8	7.0	ENE	0.12	7.8	ENE	-18.9	-12.5	-19.1	738.4	0.021	0.000	21.9	9	-12.4	19.2	2.29	 .0724	24	1	100.0	1
02/25/24	6:52	-12.3	-12.3	-12.3	64	-17.8	6.1	ENE	0.10	7.8	ENE	-18.4	-12.5	-18.6	738.4	0.021	0.000	21.9	9	-12.4	19.2	2.29	 .0724	23	1	100.0	1
02/25/24	6:53	-12.3	-12.3	-12.3	64	-17.8	7.0	ENE	0.12	7.8	ENE	-18.9	-12.5	-19.1	738.4	0.021	0.000	21.9	9	-12.4	19.2	2.29	 .0724	24	1	100.0	1
02/25/24	6:54	-12.3	-12.3	-12.3	63	-17.9	6.1	ENE	0.10	7.0	ENE	-18.3	-12.4	-18.5	738.4	0.021	0.000	21.9	9	-12.4	19.2	2.29	 .0724	23	1	100.0	1
02/25/24	6:55	-12.3	-12.3	-12.3	63	-17.9	5.2	ENE	0.09	7.0	ENE	-17.8	-12.4	-17.9	738.4	0.021	0.000	21.9	9	-12.4	19.2	2.29	 .0724	23	1	100.0	1
02/25/24	6:56	-12.2	-12.2	-12.3	63	-17.8	6.1	ENE	0.10	7.0	ENE	-18.3	-12.4	-18.4	738.4	0.021	0.000	21.9	9	-12.4	19.2	2.29	 .0724	24	1	100.0	1
02/25/24	6:57	-12.2	-12.2	-12.2	63	-17.8	6.1	ENE	0.10	7.0	ENE	-18.3	-12.4	-18.4	738.4	0.021	0.000	21.9	9	-12.4	19.2	2.29	 .0724	23	1	100.0	1
02/25/24	6:58	-12.2	-12.2	-12.2	63	-17.8	5.2	ENE	0.09	7.0	ENE	-17.8	-12.4	-17.9	738.4	0.021	0.000	21.9	9	-12.4	19.2	2.29	 .0724	24	1	100.0	1
02/25/24	6:59	-12.2	-12.2	-12.2	63	-17.8	6.1	ENE	0.10	7.8	ENE	-18.2	-12.3	-18.4	738.4	0.021	0.000	21.9	9	-12.4	19.2	2.29	 .0724	23	1	100.0	1
02/25/24	7:00	-12.2	-12.2	-12.2	62	-18.0	6.1	ENE	0.10	7.8	ENE	-18.2	-12.3	-18.4	738.4	0.021	0.000	21.9	9	-12.4	19.2	2.29	 .0724	24	1	100.0	1
02/25/24	7:01	-12.2	-12.2	-12.2	62	-18.0	7.8	ENE	0.13	7.8	ENE	-19.3	-12.4	-19.4	738.4	0.021	0.000	21.9	9	-12.5	19.1	2.29	 .0724	23	1	100.0	1
02/25/24	7:02	-12.2	-12.2	-12.2	62	-18.0	7.0	ENE	0.12	7.8	ENE	-18.8	-12.4	-18.9	738.4	0.021	0.000	21.9	9	-12.5	19.1	2.29	 .0724	23	1	100.0	1
02/25/24	7:03	-12.2	-12.2	-12.2	62	-18.0	7.8	ENE	0.13	7.8	ENE	-19.3	-12.4	-19.4	738.4	0.021	0.000	21.9	9	-12.5	19.1	2.29	 .0724	24	1	100.0	1
02/25/24	7:04	-12.2	-12.2	-12.2	62	-18.0	7.0	ENE	0.12	7.8	ENE	-18.8	-12.4	-18.9	738.4	0.021	0.000	21.9	9	-12.5	19.1	2.29	 .0724	23	1	100.0	1
02/25/24	7:05	-12.2	-12.2	-12.2	62	-18.0	7.0	ENE	0.12	7.0	ENE	-18.8	-12.4	-18.9	738.4	0.021	0.000	21.9	9	-12.5	19.1	2.29	 .0724	24	1	100.0	1
02/25/24	7:06	-12.2	-12.2	-12.2	62	-18.0	5.2	ENE	0.09	7.0	ENE	-17.8	-12.4	-17.9	738.4	0.021	0.000	21.9	9	-12.5	19.1	2.29	 .0724	23	1	100.0	1
02/25/24	7:07	-12.2	-12.2	-12.2	62	-18.0	6.1	ENE	0.10	7.0	ENE	-18.3	-12.4	-18.4	738.4	0.021	0.000	21.9	9	-12.5	19.1	2.29	 .0724	23	1	100.0	1
02/25/24	7:08	-12.2	-12.2	-12.2	61	-18.2	4.3	ENE	0.07	6.1	ENE	-17.0	-12.3	-17.2	738.4	0.021	0.000	21.9	9	-12.5	19.1	2.29	 .0724	24	1	100.0	1
02/25/24	7:09	-12.1	-12.1	-12.2	61	-18.1	4.3	ENE	0.07	5.2	NE	-16.9	-12.3	-17.1	738.4	0.021	0.000	21.8	9	-12.5	19.1	2.30	 .0724	23	1	100.0	1
02/25/24	7:10	-12.1	-12.1	-12.1	61	-18.1	4.3	ENE	0.07	5.2	ENE	-16.9	-12.3	-17.1	738.4	0.021	0.000	21.8	9	-12.5	19.1	2.30	 .0724	24	1	100.0	1
02/25/24	7:11	-12.1	-12.1	-12.1	61	-18.1	6.1	ENE	0.10	7.8	ENE	-18.1	-12.2	-18.3	738.4	0.021	0.000	21.8	9	-12.5	19.1	2.30	 .0724	23	1	100.0	1
02/25/24	7:12	-12.1	-12.1	-12.1	61	-18.1	5.2	ENE	0.09	7.0	ENE	-17.6	-12.2	-17.7	738.4	0.021	0.000	21.8	9	-12.5	19.1	2.30	 .0724	24	1	100.0	1
02/25/24	7:13	-12.1	-12.1	-12.1	61	-18.1	5.2	ENE	0.09	7.0	E	-17.6	-12.2	-17.7	738.4	0.021	0.000	21.8	9	-12.5	19.1	2.30	 .0724	23	1	100.0	1
02/25/24	7:14	-12.1	-12.0	-12.1	60	-18.3	4.3	ENE	0.07	4.3	ENE	-16.9	-12.2	-17.1	738.3	0.021	0.000	21.8	9	-12.5	19.1	2.30	 .0724	23	1	100.0	1
02/25/24	7:15	-12.0	-12.0	-12.1	60	-18.2	3.5	ENE	0.06	4.3	E	-16.1	-12.2	-16.2	738.4	0.021	0.000	21.8	9	-12.5	19.1	2.30	 .0724	24	1	100.0	1
02/25/24	7:16	-12.0	-12.0	-12.0	60	-18.2	3.5	ENE	0.06	4.3	ENE	-16.1	-12.2	-16.2	738.4	0.021	0.000	21.8	9	-12.6	19.0	2.30	 .0725	23	1	100.0	1
02/25/24	7:17	-12.0	-12.0	-12.0	60	-18.2	4.3	ENE	0.07	6.1	ENE	-16.8	-12.2	-17.0	738.4	0.021	0.000	21.8	9	-12.6	19.0	2.30	 .0725	24	1	100.0	1
02/25/24	7:18	-12.0	-12.0	-12.0	60	-18.2	4.3	ENE	0.07	6.1	ENE	-16.8	-12.2	-17.0	738.4	0.021	0.000	21.8	9	-12.5	19.1	2.30	 .0724	23	1	100.0	1
02/25/24	7:19	-12.0	-12.0	-12.0	60	-18.2	4.3	ENE	0.07	7.0	ENE	-16.8	-12.2	-17.0	738.4	0.021	0.000	21.8	9	-12.6	19.0	2.30	 .0725	23	1	100.0	1
02/25/24	7:20	-12.0	-12.0	-12.0	60	-18.2	5.2	ENE	0.09	5.2	ENE	-17.5	-12.2	-17.7	738.4	0.021	0.000	21.8	9	-12.6	19.0	2.30	 .0725	24	1	100.0	1
02/25/24	7:21	-12.0	-12.0	-12.0	60	-18.2	4.3	ENE	0.07	5.2	ENE	-16.8	-12.2	-17.0	738.4	0.021	0.000	21.8	9	-12.6	19.0	2.30	 .0725	23	1	100.0	1
02/25/24	7:22	-12.0	-12.0	-12.0	60	-18.2	4.3	ENE	0.07	5.2	ENE	-16.8	-12.2	-17.0	738.4	0.021	0.000	21.8	9	-12.6	19.0	2.30	 .0725	24	1	100.0	1
02/25/24	7:23	-12.0	-12.0	-12.0	60	-18.2	5.2	ENE	0.09	5.2	ENE	-17.5	-12.2	-17.7	738.4	0.021	0.000	21.8	9	-12.6	19.0	2.30	 .0725	23	1	100.0	1
02/25/24	7:24	-12.1	-12.0	-12.1	60	-18.3	5.2	ENE	0.09	7.0	ENE	-17.6	-12.2	-17.7	738.4	0.021	0.000	21.8	9	-12.6	19.0	2.30	 .0725	23	1	100.0	1
02/25/24	7:25	-12.1	-12.1	-12.1	60	-18.3	5.2	ENE	0.09	7.0	ENE	-17.6	-12.2	-17.7	738.3	0.021	0.000	21.8	9	-12.6	19.0	2.30	 .0725	24	1	100.0	1
02/25/24	7:26	-12.1	-12.1	-12.2	60	-18.3	6.1	ENE	0.10	7.0	ENE	-18.2	-12.3	-18.3	738.4	0.021	0.000	21.8	9	-12.6	19.0	2.30	 .0725	23	1	100.0	1
02/25/24	7:27	-12.2	-12.2	-12.2	60	-18.4	5.2	ENE	0.09	7.0	ENE	-17.8	-12.4	-17.9	738.4	0.021	0.000	21.8	9	-12.6	19.0	2.30	 .0725	24	1	100.0	1
02/25/24	7:28	-12.3	-12.2	-12.3	60	-18.5	5.2	ENE	0.09	7.0	ENE	-17.8	-12.4	-17.9	738.4	0.021	0.000	21.7	9	-12.6	18.9	2.31	 .0725	23	1	100.0	1
02/25/24	7:29	-12.3	-12.3	-12.3	61	-18.3	4.3	ENE	0.07	5.2	ENE	-17.2	-12.4	-17.3	738.4	0.021	0.000	21.7	9	-12.6	18.9	2.31	 .0725	24	1	100.0	1
02/25/24	7:30	-12.3	-12.3	-12.3	61	-18.3	5.2	ENE	0.09	5.2	ENE	-17.8	-12.5	-18.0	738.3	0.021	0.000	21.7	9	-12.6	18.9	2.31	 .0725	23	1	100.0	1
02/25/24	7:31	-12.3	-12.3	-12.3	61	-18.3	4.3	ENE	0.07	5.2	ENE	-17.2	-12.5	-17.4	738.4	0.021	0.000	21.7	9	-12.6	18.9	2.31	 .0725	23	1	100.0	1
02/25/24	7:32	-12.3	-12.3	-12.3	61	-18.3	5.2	ENE	0.09	6.1	ENE	-17.8	-12.5	-18.0	738.4	0.021	0.000	21.7	9	-12.6	18.8	2.31	 .0725	24	1	100.0	1
02/25/24	7:33	-12.3	-12.3	-12.3	61	-18.3	4.3	ENE	0.07	6.1	ENE	-17.2	-12.5	-17.4	738.3	0.021	0.000	21.7	9	-12.6	18.8	2.31	 .0725	23	1	100.0	1
02/25/24	7:34	-12.3	-12.3	-12.3	61	-18.3	6.1	ENE	0.10	7.0	ENE	-18.3	-12.4	-18.5	738.4	0.021	0.000	21.7	9	-12.6	18.8	2.31	 .0725	24	1	100.0	1
02/25/24	7:35	-12.3	-12.3	-12.3	61	-18.3	4.3	ENE	0.07	7.0	ENE	-17.2	-12.4	-17.3	738.3	0.021	0.000	21.7	9	-12.6	18.8	2.31	 .0725	23	1	100.0	1
02/25/24	7:36	-12.3	-12.3	-12.3	61	-18.3	4.3	ENE	0.07	5.2	ENE	-17.2	-12.5	-17.4	738.3	0.021	0.000	21.7	9	-12.6	18.8	2.31	 .0725	23	1	100.0	1
02/25/24	7:37	-12.3	-12.3	-12.3	61	-18.3	5.2	ENE	0.09	5.2	ENE	-17.8	-12.5	-18.0	738.3	0.021	0.000	21.7	9	-12.6	18.8	2.31	 .0725	24	1	100.0	1
02/25/24	7:38	-12.4	-12.3	-12.4	61	-18.4	6.1	ENE	0.10	7.8	ENE	-18.6	-12.6	-18.7	738.3	0.021	0.000	21.7	9	-12.6	18.8	2.31	 .0725	23	1	100.0	1
02/25/24	7:39	-12.6	-12.4	-12.6	61	-18.6	7.8	ENE	0.13	8.7	ENE	-19.7	-12.8	-19.9	738.3	0.021	0.000	21.7	9	-12.6	18.8	2.31	 .0725	24	1	100.0	1
02/25/24	7:40	-12.7	-12.6	-12.7	61	-18.7	7.8	ENE	0.13	8.7	ENE	-19.9	-12.9	-20.1	738.3	0.022	0.000	21.6	9	-12.7	18.8	2.31	 .0725	23	1	100.0	1
02/25/24	7:41	-12.8	-12.7	-12.8	61	-18.8	7.8	ENE	0.13	7.8	ENE	-20.0	-13.0	-20.2	738.3	0.022	0.000	21.6	9	-12.7	18.8	2.31	 .0725	24	1	100.0	1
02/25/24	7:42	-12.8	-12.8	-12.8	62	-18.6	7.8	ENE	0.13	8.7	ENE	-20.0	-13.0	-20.2	738.3	0.022	0.000	21.6	9	-12.7	18.8	2.31	 .0725	23	1	100.0	1
02/25/24	7:43	-12.8	-12.8	-12.9	62	-18.6	7.8	ENE	0.13	8.7	ENE	-20.0	-13.0	-20.2	738.3	0.022	0.000	21.6	9	-12.7	18.8	2.31	 .0725	23	1	100.0	1
02/25/24	7:44	-12.8	-12.8	-12.8	62	-18.6	7.8	ENE	0.13	8.7	ENE	-20.0	-13.0	-20.2	738.3	0.022	0.000	21.6	9	-12.7	18.8	2.31	 .0725	24	1	100.0	1
02/25/24	7:45	-12.8	-12.8	-12.8	62	-18.6	7.0	ENE	0.12	7.8	ENE	-19.6	-13.0	-19.7	738.3	0.022	0.000	21.6	9	-12.7	18.7	2.32	 .0725	23	1	100.0	1
02/25/24	7:46	-12.8	-12.8	-12.8	62	-18.5	7.8	ENE	0.13	8.7	ENE	-19.9	-12.9	-20.1	738.3	0.022	0.000	21.6	9	-12.7	18.8	2.31	 .0725	24	1	100.0	1
02/25/24	7:47	-12.7	-12.7	-12.8	62	-18.5	7.0	ENE	0.12	7.8	ENE	-19.4	-12.9	-19.6	738.3	0.022	0.000	21.6	9	-12.7	18.8	2.31	 .0725	23	1	100.0	1
02/25/24	7:48	-12.7	-12.7	-12.7	62	-18.5	7.0	ENE	0.12	7.8	ENE	-19.4	-12.9	-19.6	738.3	0.022	0.000	21.6	9	-12.7	18.7	2.32	 .0725	23	1	100.0	1
02/25/24	7:49	-12.7	-12.7	-12.7	62	-18.5	7.0	ENE	0.12	7.0	ENE	-19.4	-12.9	-19.6	738.3	0.022	0.000	21.6	9	-12.7	18.8	2.31	 .0725	24	1	100.0	1
02/25/24	7:50	-12.7	-12.7	-12.7	62	-18.5	5.2	ENE	0.09	6.1	ENE	-18.3	-12.9	-18.4	738.3	0.022	0.000	21.6	9	-12.7	18.8	2.31	 .0725	23	1	100.0	1
02/25/24	7:51	-12.7	-12.7	-12.7	62	-18.4	6.1	ENE	0.10	7.0	ENE	-18.8	-12.8	-19.0	738.3	0.022	0.000	21.6	9	-12.7	18.8	2.31	 .0725	24	1	100.0	1
02/25/24	7:52	-12.7	-12.7	-12.7	62	-18.4	5.2	ENE	0.09	7.0	ENE	-18.2	-12.8	-18.4	738.3	0.022	0.000	21.6	9	-12.7	18.8	2.31	 .0725	23	1	100.0	1
02/25/24	7:53	-12.7	-12.7	-12.7	62	-18.5	6.1	ENE	0.10	7.0	ENE	-18.9	-12.9	-19.1	738.3	0.022	0.000	21.6	9	-12.7	18.8	2.31	 .0725	23	1	100.0	1
02/25/24	7:54	-12.7	-12.7	-12.7	62	-18.5	7.0	ENE	0.12	7.8	ENE	-19.4	-12.9	-19.6	738.3	0.022	0.000	21.6	9	-12.7	18.8	2.31	 .0725	24	1	100.0	1
02/25/24	7:55	-12.8	-12.7	-12.8	62	-18.5	7.0	ENE	0.12	7.8	ENE	-19.5	-12.9	-19.7	738.3	0.022	0.000	21.6	9	-12.7	18.8	2.31	 .0725	23	1	100.0	1
02/25/24	7:56	-12.8	-12.8	-12.8	62	-18.5	7.0	ENE	0.12	7.8	ENE	-19.5	-12.9	-19.7	738.3	0.022	0.000	21.6	9	-12.7	18.8	2.31	 .0725	24	1	100.0	1
02/25/24	7:57	-12.8	-12.8	-12.8	62	-18.6	7.8	ENE	0.13	7.8	ENE	-20.0	-13.0	-20.2	738.3	0.022	0.000	21.7	9	-12.6	18.8	2.31	 .0725	23	1	100.0	1
02/25/24	7:58	-12.9	-12.9	-12.9	62	-18.7	7.0	ENE	0.12	7.8	ENE	-19.7	-13.1	-19.8	738.3	0.022	0.000	21.7	9	-12.6	18.8	2.31	 .0725	24	1	100.0	1
02/25/24	7:59	-12.9	-12.9	-12.9	62	-18.7	7.0	ENE	0.12	7.8	ENE	-19.7	-13.1	-19.8	738.3	0.022	0.000	21.7	9	-12.6	18.8	2.31	 .0725	23	1	100.0	1
02/25/24	8:00	-12.9	-12.9	-12.9	62	-18.7	7.8	ENE	0.13	7.8	ENE	-20.2	-13.1	-20.3	738.3	0.022	0.000	21.7	9	-12.6	18.8	2.31	 .0725	23	1	100.0	1
02/25/24	8:01	-12.9	-12.9	-12.9	63	-18.5	7.0	ENE	0.12	7.8	ENE	-19.7	-13.1	-19.8	738.3	0.022	0.000	21.7	9	-12.6	18.8	2.31	 .0725	24	1	100.0	1
02/25/24	8:02	-12.8	-12.8	-12.9	63	-18.4	6.1	ENE	0.10	7.0	ENE	-19.0	-12.9	-19.1	738.3	0.022	0.000	21.7	9	-12.6	18.9	2.31	 .0725	23	1	100.0	1
02/25/24	8:03	-12.8	-12.8	-12.8	63	-18.4	6.1	ENE	0.10	7.0	ENE	-18.9	-12.9	-19.1	738.3	0.022	0.000	21.7	9	-12.6	18.9	2.31	 .0725	24	1	100.0	1
02/25/24	8:04	-12.7	-12.7	-12.8	63	-18.3	7.0	ENE	0.12	7.8	ENE	-19.4	-12.8	-19.5	738.3	0.022	0.000	21.7	9	-12.6	18.9	2.31	 .0725	23	1	100.0	1
02/25/24	8:05	-12.7	-12.7	-12.7	63	-18.3	6.1	ENE	0.10	7.8	ENE	-18.8	-12.8	-19.0	738.3	0.022	0.000	21.8	9	-12.6	19.0	2.30	 .0724	23	1	100.0	1
02/25/24	8:06	-12.7	-12.7	-12.7	63	-18.3	7.0	ENE	0.12	7.8	ENE	-19.3	-12.8	-19.5	738.3	0.022	0.000	21.8	9	-12.6	19.0	2.30	 .0724	24	1	100.0	1
02/25/24	8:07	-12.7	-12.7	-12.7	62	-18.4	7.0	ENE	0.12	8.7	ENE	-19.3	-12.8	-19.5	738.3	0.022	0.000	21.8	9	-12.6	19.0	2.30	 .0724	23	1	100.0	1
02/25/24	8:08	-12.7	-12.7	-12.7	62	-18.5	7.0	ENE	0.12	7.8	ENE	-19.4	-12.9	-19.6	738.2	0.022	0.000	21.8	9	-12.6	19.0	2.30	 .0724	24	1	100.0	1
02/25/24	8:09	-12.7	-12.7	-12.7	62	-18.5	7.0	ENE	0.12	7.8	ENE	-19.4	-12.9	-19.6	738.3	0.022	0.000	21.8	9	-12.6	19.0	2.30	 .0724	23	1	100.0	1
02/25/24	8:10	-12.8	-12.7	-12.8	62	-18.5	7.0	ENE	0.12	7.8	ENE	-19.5	-12.9	-19.7	738.3	0.022	0.000	21.8	9	-12.5	19.1	2.30	 .0724	24	1	100.0	1
02/25/24	8:11	-12.8	-12.8	-12.8	62	-18.5	7.0	ENE	0.12	7.8	ENE	-19.5	-12.9	-19.7	738.2	0.022	0.000	21.8	9	-12.5	19.1	2.30	 .0724	23	1	100.0	1
02/25/24	8:12	-12.8	-12.8	-12.8	62	-18.6	7.8	ENE	0.13	8.7	ENE	-20.0	-13.0	-20.2	738.2	0.022	0.000	21.8	9	-12.5	19.1	2.30	 .0724	23	1	100.0	1
02/25/24	8:13	-12.9	-12.9	-12.9	63	-18.5	7.8	ENE	0.13	8.7	ENE	-20.2	-13.1	-20.3	738.2	0.022	0.000	21.8	9	-12.5	19.1	2.30	 .0724	24	1	100.0	1
02/25/24	8:14	-13.1	-13.0	-13.1	63	-18.6	7.8	ENE	0.13	8.7	ENE	-20.3	-13.2	-20.4	738.3	0.022	0.000	21.8	9	-12.5	19.1	2.30	 .0724	23	1	100.0	1
02/25/24	8:15	-13.2	-13.1	-13.2	63	-18.7	7.8	ENE	0.13	9.6	ENE	-20.4	-13.3	-20.6	738.2	0.022	0.000	21.8	9	-12.5	19.1	2.30	 .0724	24	1	100.0	1
02/25/24	8:16	-13.3	-13.2	-13.3	64	-18.7	7.8	ENE	0.13	9.6	ENE	-20.6	-13.4	-20.7	738.2	0.022	0.000	21.8	9	-12.5	19.1	2.30	 .0724	23	1	100.0	1
02/25/24	8:17	-13.3	-13.3	-13.3	64	-18.7	9.6	ENE	0.16	10.4	ENE	-21.4	-13.4	-21.6	738.2	0.022	0.000	21.8	9	-12.5	19.1	2.30	 .0724	23	1	100.0	1
02/25/24	8:18	-13.3	-13.3	-13.4	64	-18.7	9.6	ENE	0.16	10.4	ENE	-21.4	-13.4	-21.6	738.3	0.022	0.000	21.8	9	-12.5	19.1	2.30	 .0724	24	1	100.0	1
02/25/24	8:19	-13.4	-13.4	-13.4	65	-18.6	8.7	ENE	0.14	9.6	ENE	-21.1	-13.5	-21.2	738.2	0.022	0.000	21.8	9	-12.5	19.1	2.30	 .0724	23	1	100.0	1
02/25/24	8:20	-13.4	-13.4	-13.4	65	-18.6	8.7	ENE	0.14	9.6	ENE	-21.2	-13.6	-21.3	738.3	0.022	0.000	21.8	9	-12.5	19.1	2.30	 .0724	24	1	100.0	1
02/25/24	8:21	-13.4	-13.4	-13.4	65	-18.6	7.8	ENE	0.13	8.7	ENE	-20.7	-13.5	-20.8	738.3	0.022	0.000	21.8	9	-12.6	19.0	2.30	 .0724	23	1	100.0	1
02/25/24	8:22	-13.4	-13.4	-13.4	65	-18.6	8.7	ENE	0.14	9.6	ENE	-21.2	-13.6	-21.3	738.3	0.022	0.000	21.8	9	-12.6	19.0	2.30	 .0724	24	1	100.0	1
02/25/24	8:23	-13.5	-13.4	-13.5	64	-18.9	8.7	ENE	0.14	10.4	ENE	-21.3	-13.6	-21.4	738.3	0.022	0.000	21.8	9	-12.6	19.0	2.30	 .0724	23	1	100.0	1
02/25/24	8:24	-13.5	-13.5	-13.5	65	-18.7	8.7	ENE	0.14	8.7	ENE	-21.3	-13.6	-21.4	738.2	0.022	0.000	21.8	9	-12.6	19.0	2.30	 .0724	23	1	100.0	1
02/25/24	8:25	-13.4	-13.4	-13.5	65	-18.6	7.8	ENE	0.13	9.6	ENE	-20.8	-13.6	-20.9	738.2	0.022	0.000	21.8	9	-12.6	19.0	2.30	 .0724	24	1	100.0	1
02/25/24	8:26	-13.4	-13.4	-13.4	65	-18.6	7.0	ENE	0.12	8.7	ENE	-20.2	-13.5	-20.3	738.2	0.022	0.000	21.8	9	-12.6	19.0	2.30	 .0724	23	1	100.0	1
02/25/24	8:27	-13.4	-13.4	-13.4	65	-18.6	7.8	ENE	0.13	8.7	ENE	-20.7	-13.5	-20.8	738.3	0.022	0.000	21.8	9	-12.6	19.0	2.30	 .0724	24	1	100.0	1
02/25/24	8:28	-13.4	-13.4	-13.4	65	-18.6	7.8	ENE	0.13	8.7	ENE	-20.8	-13.6	-20.9	738.2	0.022	0.000	21.8	9	-12.6	19.0	2.30	 .0724	23	1	100.0	1
02/25/24	8:29	-13.4	-13.4	-13.4	65	-18.6	8.7	ENE	0.14	9.6	ENE	-21.2	-13.6	-21.3	738.2	0.022	0.000	21.7	9	-12.6	18.9	2.31	 .0725	23	1	100.0	1
02/25/24	8:30	-13.3	-13.3	-13.4	65	-18.5	7.8	ENE	0.13	8.7	ENE	-20.6	-13.4	-20.7	738.3	0.022	0.000	21.7	9	-12.6	18.9	2.31	 .0725	24	1	100.0	1
02/25/24	8:31	-13.3	-13.3	-13.3	64	-18.7	7.8	ENE	0.13	8.7	ENE	-20.6	-13.4	-20.7	738.3	0.022	0.000	21.7	9	-12.6	18.9	2.31	 .0725	23	1	100.0	1
02/25/24	8:32	-13.3	-13.3	-13.3	64	-18.7	8.7	ENE	0.14	9.6	ENE	-21.1	-13.4	-21.2	738.3	0.022	0.000	21.7	9	-12.6	18.9	2.31	 .0725	24	1	100.0	1
02/25/24	8:33	-13.4	-13.3	-13.4	64	-18.8	8.7	ENE	0.14	9.6	ENE	-21.1	-13.5	-21.2	738.3	0.022	0.000	21.7	9	-12.6	18.9	2.31	 .0725	23	1	100.0	1
02/25/24	8:34	-13.4	-13.4	-13.4	64	-18.8	9.6	ENE	0.16	10.4	ENE	-21.6	-13.5	-21.7	738.3	0.022	0.000	21.7	9	-12.6	18.8	2.31	 .0725	24	1	100.0	1
02/25/24	8:35	-13.5	-13.4	-13.5	64	-18.9	8.7	ENE	0.14	9.6	ENE	-21.3	-13.6	-21.4	738.3	0.022	0.000	21.7	9	-12.6	18.8	2.31	 .0725	23	1	100.0	1
02/25/24	8:36	-13.6	-13.5	-13.6	64	-18.9	9.6	ENE	0.16	11.3	ENE	-21.7	-13.7	-21.8	738.3	0.022	0.000	21.7	9	-12.6	18.8	2.31	 .0725	23	1	100.0	1
02/25/24	8:37	-13.6	-13.6	-13.6	64	-19.0	10.4	ENE	0.17	10.4	ENE	-22.2	-13.7	-22.3	738.3	0.022	0.000	21.7	9	-12.6	18.8	2.31	 .0725	24	1	100.0	1
02/25/24	8:38	-13.6	-13.6	-13.6	64	-18.9	9.6	ENE	0.16	10.4	ENE	-21.7	-13.7	-21.8	738.2	0.022	0.000	21.7	9	-12.6	18.8	2.31	 .0725	23	1	100.0	1
02/25/24	8:39	-13.4	-13.4	-13.6	64	-18.8	9.6	ENE	0.16	10.4	ENE	-21.6	-13.6	-21.7	738.2	0.022	0.000	21.6	9	-12.7	18.8	2.31	 .0725	24	1	100.0	1
02/25/24	8:40	-13.4	-13.4	-13.5	64	-18.8	9.6	ENE	0.16	9.6	ENE	-21.6	-13.6	-21.7	738.2	0.022	0.000	21.6	9	-12.7	18.8	2.31	 .0725	23	1	100.0	1
02/25/24	8:41	-13.3	-13.3	-13.4	64	-18.7	9.6	ENE	0.16	10.4	ENE	-21.4	-13.4	-21.6	738.2	0.022	0.000	21.6	9	-12.7	18.8	2.31	 .0725	23	1	100.0	1
02/25/24	8:42	-13.3	-13.3	-13.3	64	-18.7	9.6	ENE	0.16	9.6	ENE	-21.4	-13.4	-21.5	738.2	0.022	0.000	21.6	9	-12.7	18.8	2.31	 .0725	24	1	100.0	1
02/25/24	8:43	-13.2	-13.2	-13.3	64	-18.6	8.7	ENE	0.14	9.6	ENE	-20.9	-13.3	-21.1	738.2	0.022	0.000	21.6	9	-12.7	18.8	2.31	 .0725	23	1	100.0	1
02/25/24	8:44	-13.2	-13.2	-13.2	63	-18.8	8.7	ENE	0.14	9.6	ENE	-20.9	-13.3	-21.1	738.2	0.022	0.000	21.6	9	-12.7	18.7	2.32	 .0725	24	1	100.0	1
02/25/24	8:45	-13.2	-13.2	-13.2	63	-18.8	7.8	ENE	0.13	8.7	ENE	-20.5	-13.3	-20.6	738.2	0.022	0.000	21.6	9	-12.7	18.7	2.32	 .0725	23	1	100.0	1
02/25/24	8:46	-13.2	-13.2	-13.2	63	-18.8	7.8	ENE	0.13	8.7	ENE	-20.5	-13.3	-20.6	738.2	0.022	0.000	21.6	9	-12.7	18.7	2.32	 .0725	24	1	100.0	1
02/25/24	8:47	-13.2	-13.2	-13.2	63	-18.8	7.0	ENE	0.12	7.8	ENE	-20.0	-13.3	-20.1	738.2	0.022	0.000	21.6	9	-12.7	18.7	2.32	 .0725	23	1	100.0	1
02/25/24	8:48	-13.2	-13.2	-13.2	63	-18.8	7.0	ENE	0.12	7.8	NE	-20.0	-13.3	-20.1	738.2	0.022	0.000	21.6	9	-12.7	18.7	2.32	 .0725	23	1	100.0	1
02/25/24	8:49	-13.2	-13.2	-13.2	63	-18.8	7.8	ENE	0.13	8.7	ENE	-20.5	-13.3	-20.6	738.2	0.022	0.000	21.6	9	-12.7	18.7	2.32	 .0725	24	1	100.0	1
02/25/24	8:50	-13.3	-13.2	-13.3	63	-18.8	7.0	ENE	0.12	7.8	ENE	-20.1	-13.4	-20.2	738.2	0.022	0.000	21.6	9	-12.7	18.7	2.32	 .0725	23	1	100.0	1
02/25/24	8:51	-13.3	-13.3	-13.3	63	-18.9	8.7	ENE	0.14	8.7	ENE	-21.1	-13.4	-21.2	738.2	0.022	0.000	21.6	9	-12.7	18.7	2.32	 .0725	24	1	100.0	1
02/25/24	8:52	-13.3	-13.3	-13.3	63	-18.9	7.8	ENE	0.13	8.7	NE	-20.6	-13.4	-20.7	738.2	0.022	0.000	21.6	9	-12.7	18.7	2.32	 .0725	23	1	100.0	1
02/25/24	8:53	-13.3	-13.3	-13.3	63	-18.9	7.0	ENE	0.12	7.8	ENE	-20.2	-13.4	-20.3	738.2	0.022	0.000	21.6	9	-12.7	18.8	2.31	 .0725	23	1	100.0	1
02/25/24	8:54	-13.3	-13.3	-13.3	63	-18.8	7.0	ENE	0.12	7.8	ENE	-20.1	-13.4	-20.2	738.2	0.022	0.000	21.6	9	-12.7	18.8	2.31	 .0725	24	1	100.0	1
02/25/24	8:55	-13.3	-13.3	-13.3	63	-18.8	7.0	ENE	0.12	7.8	ENE	-20.1	-13.4	-20.2	738.1	0.022	0.000	21.6	9	-12.7	18.8	2.31	 .0725	23	1	100.0	1
02/25/24	8:56	-13.2	-13.2	-13.3	63	-18.8	6.1	ENE	0.10	7.0	ENE	-19.5	-13.3	-19.6	738.1	0.022	0.000	21.6	9	-12.7	18.8	2.31	 .0725	24	1	100.0	1
02/25/24	8:57	-13.2	-13.2	-13.2	63	-18.7	6.1	ENE	0.10	7.8	ENE	-19.4	-13.3	-19.6	738.2	0.022	0.000	21.6	9	-12.7	18.8	2.31	 .0725	23	1	100.0	1
02/25/24	8:58	-13.1	-13.1	-13.1	63	-18.6	6.1	ENE	0.10	7.8	ENE	-19.3	-13.2	-19.4	738.2	0.022	0.000	21.6	9	-12.7	18.8	2.31	 .0725	23	1	100.0	1
02/25/24	8:59	-12.9	-12.9	-13.0	63	-18.5	6.1	ENE	0.10	7.0	ENE	-19.1	-13.0	-19.2	738.2	0.022	0.000	21.6	9	-12.7	18.8	2.31	 .0725	24	1	100.0	1
02/25/24	9:00	-12.8	-12.8	-12.9	63	-18.4	5.2	ENE	0.09	5.2	ENE	-18.4	-12.9	-18.5	738.1	0.022	0.000	21.7	9	-12.6	18.8	2.31	 .0725	23	1	100.0	1
02/25/24	9:01	-12.7	-12.7	-12.8	63	-18.3	6.1	ENE	0.10	7.0	ENE	-18.9	-12.8	-19.0	738.1	0.022	0.000	21.7	9	-12.6	18.8	2.31	 .0725	24	1	100.0	1
02/25/24	9:02	-12.7	-12.7	-12.7	62	-18.4	5.2	ENE	0.09	6.1	ENE	-18.2	-12.8	-18.4	738.1	0.022	0.000	21.7	9	-12.6	18.8	2.31	 .0725	23	1	100.0	1
02/25/24	9:03	-12.6	-12.6	-12.6	62	-18.4	5.2	ENE	0.09	6.1	ENE	-18.2	-12.8	-18.3	738.1	0.021	0.000	21.7	9	-12.6	18.8	2.31	 .0725	24	1	100.0	1
02/25/24	9:04	-12.6	-12.6	-12.6	61	-18.5	4.3	ENE	0.07	5.2	ENE	-17.5	-12.7	-17.7	738.1	0.021	0.000	21.7	9	-12.6	18.8	2.31	 .0725	23	1	100.0	1
02/25/24	9:05	-12.6	-12.6	-12.6	61	-18.5	5.2	ENE	0.09	5.2	ENE	-18.1	-12.7	-18.3	738.1	0.021	0.000	21.7	9	-12.6	18.8	2.31	 .0725	23	1	100.0	1
02/25/24	9:06	-12.5	-12.5	-12.6	61	-18.5	4.3	ENE	0.07	5.2	ENE	-17.4	-12.7	-17.6	738.1	0.021	0.000	21.7	9	-12.6	18.8	2.31	 .0725	24	1	100.0	1
02/25/24	9:07	-12.5	-12.5	-12.5	61	-18.5	4.3	ENE	0.07	5.2	ENE	-17.4	-12.7	-17.6	738.1	0.021	0.000	21.7	9	-12.6	18.8	2.31	 .0725	23	1	100.0	1
02/25/24	9:08	-12.4	-12.4	-12.5	61	-18.4	5.2	ENE	0.09	5.2	ENE	-17.9	-12.6	-18.1	738.1	0.021	0.000	21.7	9	-12.6	18.8	2.31	 .0725	24	1	100.0	1
02/25/24	9:09	-12.4	-12.4	-12.4	61	-18.4	5.2	ENE	0.09	5.2	ENE	-17.9	-12.6	-18.1	738.1	0.021	0.000	21.7	9	-12.6	18.8	2.31	 .0725	23	1	100.0	1
02/25/24	9:10	-12.3	-12.3	-12.4	60	-18.5	5.2	ENE	0.09	5.2	ENE	-17.8	-12.5	-18.0	738.1	0.021	0.000	21.7	9	-12.6	18.8	2.31	 .0725	23	1	100.0	1
02/25/24	9:11	-12.3	-12.3	-12.3	60	-18.5	5.2	ENE	0.09	6.1	ENE	-17.8	-12.5	-18.0	738.1	0.021	0.000	21.7	9	-12.6	18.8	2.31	 .0725	24	1	100.0	1
02/25/24	9:12	-12.3	-12.3	-12.3	60	-18.5	5.2	ENE	0.09	6.1	ENE	-17.8	-12.5	-18.0	738.1	0.021	0.000	21.7	9	-12.6	18.8	2.31	 .0725	23	1	100.0	1
02/25/24	9:13	-12.3	-12.3	-12.3	59	-18.7	5.2	ENE	0.09	7.0	ENE	-17.8	-12.4	-17.9	738.1	0.021	0.000	21.7	9	-12.6	18.8	2.31	 .0725	24	1	100.0	1
02/25/24	9:14	-12.2	-12.2	-12.3	59	-18.6	4.3	ENE	0.07	6.1	ENE	-17.1	-12.4	-17.3	738.1	0.021	0.000	21.6	9	-12.7	18.8	2.31	 .0725	23	1	100.0	1
02/25/24	9:15	-12.2	-12.2	-12.3	59	-18.6	4.3	ENE	0.07	6.1	ENE	-17.1	-12.4	-17.3	738.1	0.021	0.000	21.7	9	-12.6	18.8	2.31	 .0725	24	1	100.0	1
02/25/24	9:16	-12.2	-12.2	-12.2	59	-18.6	4.3	ENE	0.07	4.3	ENE	-17.1	-12.4	-17.3	738.1	0.021	0.000	21.6	9	-12.7	18.8	2.31	 .0725	23	1	100.0	1
02/25/24	9:17	-12.2	-12.2	-12.2	59	-18.6	4.3	ENE	0.07	5.2	ENE	-17.1	-12.4	-17.3	738.1	0.021	0.000	21.6	9	-12.7	18.8	2.31	 .0725	23	1	100.0	1
02/25/24	9:18	-12.2	-12.2	-12.2	59	-18.6	5.2	NE	0.09	5.2	NE	-17.8	-12.4	-17.9	738.1	0.021	0.000	21.6	9	-12.7	18.8	2.31	 .0725	24	1	100.0	1
02/25/24	9:19	-12.2	-12.2	-12.2	59	-18.6	5.2	NE	0.09	6.1	NE	-17.8	-12.4	-17.9	738.1	0.021	0.000	21.6	9	-12.7	18.8	2.31	 .0725	23	1	100.0	1
02/25/24	9:20	-12.2	-12.2	-12.2	59	-18.6	5.2	ENE	0.09	5.2	NE	-17.8	-12.4	-17.9	738.1	0.021	0.000	21.6	9	-12.7	18.8	2.31	 .0725	24	1	100.0	1
02/25/24	9:21	-12.2	-12.2	-12.2	59	-18.6	4.3	ENE	0.07	5.2	ENE	-17.1	-12.4	-17.3	738.1	0.021	0.000	21.6	9	-12.7	18.8	2.31	 .0725	23	1	100.0	1
02/25/24	9:22	-12.2	-12.2	-12.2	59	-18.6	4.3	ENE	0.07	5.2	ENE	-17.0	-12.3	-17.2	738.1	0.021	0.000	21.6	9	-12.7	18.8	2.31	 .0725	23	1	100.0	1
02/25/24	9:23	-12.2	-12.2	-12.2	58	-18.8	4.3	ENE	0.07	5.2	ENE	-17.0	-12.3	-17.2	738.1	0.021	0.000	21.6	9	-12.7	18.7	2.32	 .0725	24	1	100.0	1
02/25/24	9:24	-12.2	-12.2	-12.2	58	-18.8	4.3	ENE	0.07	4.3	ENE	-17.0	-12.3	-17.2	738.1	0.021	0.000	21.6	9	-12.7	18.7	2.32	 .0725	23	1	100.0	1
02/25/24	9:25	-12.2	-12.2	-12.2	58	-18.8	4.3	ENE	0.07	4.3	ENE	-17.0	-12.3	-17.2	738.1	0.021	0.000	21.6	9	-12.7	18.7	2.32	 .0725	24	1	100.0	1
02/25/24	9:26	-12.2	-12.2	-12.2	58	-18.8	4.3	ENE	0.07	4.3	ENE	-17.0	-12.3	-17.2	738.1	0.021	0.000	21.6	9	-12.7	18.7	2.32	 .0725	23	1	100.0	1
02/25/24	9:27	-12.2	-12.2	-12.2	58	-18.8	4.3	ENE	0.07	5.2	ENE	-17.0	-12.3	-17.2	738.1	0.021	0.000	21.6	9	-12.7	18.7	2.32	 .0725	24	1	100.0	1
02/25/24	9:28	-12.2	-12.2	-12.2	58	-18.8	4.3	ENE	0.07	4.3	ENE	-17.0	-12.3	-17.2	738.0	0.021	0.000	21.5	9	-12.8	18.6	2.32	 .0725	23	1	100.0	1
02/25/24	9:29	-12.2	-12.2	-12.2	58	-18.8	4.3	ENE	0.07	4.3	ENE	-17.0	-12.3	-17.2	738.0	0.021	0.000	21.5	9	-12.8	18.6	2.32	 .0725	23	1	100.0	1
02/25/24	9:30	-12.2	-12.2	-12.2	58	-18.8	4.3	NE	0.07	4.3	ENE	-17.0	-12.3	-17.2	738.0	0.021	0.000	21.5	9	-12.8	18.6	2.32	 .0725	24	1	100.0	1
02/25/24	9:31	-12.2	-12.2	-12.2	58	-18.8	4.3	NE	0.07	5.2	NE	-17.0	-12.3	-17.2	738.0	0.021	0.000	21.5	9	-12.8	18.6	2.32	 .0725	23	1	100.0	1
02/25/24	9:32	-12.2	-12.2	-12.2	58	-18.8	4.3	NE	0.07	5.2	NE	-17.0	-12.3	-17.2	738.0	0.021	0.000	21.5	9	-12.8	18.6	2.32	 .0725	24	1	100.0	1
02/25/24	9:33	-12.2	-12.2	-12.2	59	-18.6	4.3	NE	0.07	5.2	NE	-17.0	-12.3	-17.2	738.0	0.021	0.000	21.5	9	-12.8	18.6	2.32	 .0725	23	1	100.0	1
02/25/24	9:34	-12.1	-12.1	-12.2	59	-18.5	4.3	ENE	0.07	4.3	NE	-16.9	-12.3	-17.1	738.0	0.021	0.000	21.4	9	-12.8	18.5	2.33	 .0725	23	1	100.0	1
02/25/24	9:35	-12.1	-12.1	-12.2	58	-18.7	3.5	ENE	0.06	4.3	ENE	-16.2	-12.3	-16.3	738.0	0.021	0.000	21.4	9	-12.8	18.5	2.33	 .0725	24	1	100.0	1
02/25/24	9:36	-12.1	-12.1	-12.1	59	-18.4	3.5	ENE	0.06	4.3	ENE	-16.1	-12.2	-16.3	738.0	0.021	0.000	21.4	9	-12.8	18.5	2.33	 .0725	23	1	100.0	1
02/25/24	9:37	-12.1	-12.1	-12.1	58	-18.7	3.5	ENE	0.06	4.3	ENE	-16.1	-12.2	-16.3	738.1	0.021	0.000	21.4	9	-12.8	18.5	2.33	 .0725	24	1	100.0	1
02/25/24	9:38	-12.1	-12.1	-12.1	58	-18.7	3.5	ENE	0.06	4.3	ENE	-16.1	-12.2	-16.3	738.1	0.021	0.000	21.4	9	-12.8	18.5	2.33	 .0725	23	1	100.0	1
02/25/24	9:39	-12.0	-12.0	-12.1	58	-18.6	3.5	ENE	0.06	4.3	ENE	-16.1	-12.2	-16.2	738.0	0.021	0.000	21.4	9	-12.8	18.5	2.33	 .0725	24	1	100.0	1
02/25/24	9:40	-12.0	-12.0	-12.1	58	-18.6	3.5	ENE	0.06	4.3	ENE	-16.1	-12.2	-16.2	738.0	0.021	0.000	21.4	9	-12.8	18.5	2.33	 .0725	23	1	100.0	1
02/25/24	9:41	-12.0	-12.0	-12.0	58	-18.6	2.6	ENE	0.04	3.5	ENE	-15.1	-12.2	-15.2	738.1	0.021	0.000	21.4	9	-12.8	18.5	2.33	 .0725	23	1	100.0	1
02/25/24	9:42	-11.9	-11.9	-11.9	58	-18.5	3.5	ENE	0.06	3.5	ENE	-16.0	-12.1	-16.2	738.0	0.021	0.000	21.4	9	-12.8	18.5	2.33	 .0725	24	1	100.0	1
02/25/24	9:43	-11.9	-11.9	-11.9	58	-18.5	3.5	NE	0.06	4.3	NE	-16.0	-12.1	-16.2	738.0	0.021	0.000	21.5	9	-12.8	18.6	2.32	 .0725	23	1	100.0	1
02/25/24	9:44	-11.9	-11.9	-11.9	58	-18.5	3.5	NE	0.06	4.3	NE	-16.0	-12.1	-16.2	738.1	0.021	0.000	21.5	9	-12.8	18.6	2.32	 .0725	24	1	100.0	1
02/25/24	9:45	-11.9	-11.9	-11.9	58	-18.5	3.5	NE	0.06	3.5	NE	-16.0	-12.1	-16.2	738.0	0.021	0.000	21.5	9	-12.8	18.6	2.32	 .0725	23	1	100.0	1
02/25/24	9:46	-11.9	-11.9	-11.9	58	-18.5	2.6	NE	0.04	3.5	NE	-15.0	-12.1	-15.2	738.1	0.021	0.000	21.5	9	-12.8	18.6	2.32	 .0725	23	1	100.0	1
02/25/24	9:47	-11.9	-11.9	-11.9	58	-18.5	3.5	NE	0.06	3.5	NE	-16.0	-12.1	-16.2	738.1	0.021	0.000	21.5	9	-12.8	18.6	2.32	 .0725	24	1	100.0	1
02/25/24	9:48	-11.9	-11.9	-11.9	58	-18.5	3.5	NE	0.06	3.5	NE	-15.9	-12.1	-16.1	738.0	0.021	0.000	21.5	9	-12.8	18.6	2.32	 .0725	23	1	100.0	1
02/25/24	9:49	-11.9	-11.9	-11.9	58	-18.5	3.5	NE	0.06	3.5	NE	-15.9	-12.1	-16.1	738.1	0.021	0.000	21.6	9	-12.7	18.7	2.32	 .0725	24	1	100.0	1
02/25/24	9:50	-11.9	-11.9	-11.9	58	-18.5	3.5	NE	0.06	3.5	NE	-15.9	-12.1	-16.1	738.0	0.021	0.000	21.6	9	-12.7	18.7	2.32	 .0725	23	1	100.0	1
02/25/24	9:51	-11.8	-11.8	-11.9	58	-18.4	3.5	NE	0.06	3.5	NE	-15.8	-12.0	-16.0	738.0	0.021	0.000	21.6	9	-12.7	18.7	2.32	 .0725	23	1	100.0	1
02/25/24	9:52	-11.8	-11.8	-11.8	58	-18.4	2.6	NE	0.04	3.5	NE	-14.9	-12.0	-15.1	738.0	0.021	0.000	21.6	9	-12.7	18.7	2.32	 .0725	24	1	100.0	1
02/25/24	9:53	-11.8	-11.8	-11.8	57	-18.6	2.6	NE	0.04	3.5	NE	-14.9	-12.0	-15.1	738.0	0.021	0.000	21.6	9	-12.7	18.8	2.31	 .0725	23	1	100.0	1
02/25/24	9:54	-11.8	-11.8	-11.8	58	-18.4	2.6	NE	0.04	3.5	NE	-14.9	-12.0	-15.1	738.0	0.021	0.000	21.6	9	-12.7	18.8	2.31	 .0725	24	1	100.0	1
02/25/24	9:55	-11.8	-11.8	-11.8	58	-18.4	2.6	NE	0.04	3.5	NE	-14.8	-11.9	-15.0	738.0	0.021	0.000	21.6	9	-12.7	18.8	2.31	 .0725	23	1	100.0	1
02/25/24	9:56	-11.8	-11.8	-11.8	58	-18.4	2.6	NE	0.04	3.5	NE	-14.8	-11.9	-15.0	738.1	0.021	0.000	21.6	9	-12.7	18.8	2.31	 .0725	24	1	100.0	1
02/25/24	9:57	-11.8	-11.8	-11.8	58	-18.4	2.6	NE	0.04	3.5	NE	-14.8	-11.9	-15.0	738.0	0.021	0.000	21.6	9	-12.7	18.8	2.31	 .0725	23	1	100.0	1
02/25/24	9:58	-11.8	-11.8	-11.8	58	-18.4	2.6	NE	0.04	3.5	NE	-14.8	-11.9	-15.0	738.0	0.021	0.000	21.6	9	-12.7	18.8	2.31	 .0725	23	1	100.0	1
02/25/24	9:59	-11.8	-11.8	-11.8	58	-18.4	3.5	NE	0.06	3.5	NE	-15.8	-11.9	-15.9	738.1	0.021	0.000	21.6	9	-12.7	18.8	2.31	 .0725	24	1	100.0	1
02/25/24	10:00	-11.8	-11.8	-11.8	58	-18.4	2.6	NE	0.04	3.5	NE	-14.8	-11.9	-15.0	738.1	0.021	0.000	21.6	9	-12.7	18.8	2.31	 .0725	23	1	100.0	1
02/25/24	10:01	-11.8	-11.8	-11.8	59	-18.2	2.6	NE	0.04	3.5	NE	-14.8	-11.9	-15.0	738.1	0.021	0.000	21.6	9	-12.7	18.8	2.31	 .0725	24	1	100.0	1
02/25/24	10:02	-11.8	-11.8	-11.8	59	-18.2	2.6	NE	0.04	3.5	NE	-14.8	-11.9	-15.0	738.0	0.021	0.000	21.6	9	-12.7	18.8	2.31	 .0725	23	1	100.0	1
02/25/24	10:03	-11.8	-11.8	-11.8	60	-18.0	2.6	NE	0.04	3.5	NE	-14.8	-11.9	-15.0	738.0	0.021	0.000	21.6	9	-12.7	18.8	2.31	 .0725	23	1	100.0	1
02/25/24	10:04	-11.8	-11.8	-11.8	61	-17.8	2.6	NE	0.04	3.5	NE	-14.8	-11.9	-15.0	738.0	0.021	0.000	21.6	9	-12.7	18.8	2.31	 .0725	24	1	100.0	1
02/25/24	10:05	-11.8	-11.8	-11.8	61	-17.8	1.7	NE	0.03	2.6	NE	-13.5	-11.9	-13.7	738.0	0.021	0.000	21.6	9	-12.7	18.7	2.32	 .0725	23	1	100.0	1
02/25/24	10:06	-11.8	-11.8	-11.8	62	-17.6	1.7	NE	0.03	2.6	NE	-13.5	-11.9	-13.7	738.0	0.021	0.000	21.6	9	-12.7	18.8	2.31	 .0725	24	1	100.0	1
02/25/24	10:07	-11.8	-11.8	-11.8	62	-17.6	2.6	NE	0.04	2.6	NE	-14.8	-11.9	-15.0	738.0	0.021	0.000	21.6	9	-12.7	18.8	2.31	 .0725	23	1	100.0	1
02/25/24	10:08	-11.8	-11.8	-11.8	63	-17.4	2.6	NE	0.04	3.5	NE	-14.8	-11.9	-15.0	738.0	0.021	0.000	21.6	9	-12.7	18.7	2.32	 .0725	24	1	100.0	1
02/25/24	10:09	-11.8	-11.8	-11.8	63	-17.4	2.6	NE	0.04	3.5	NE	-14.8	-11.9	-15.0	738.0	0.021	0.000	21.6	9	-12.7	18.7	2.32	 .0725	23	1	100.0	1
02/25/24	10:10	-11.8	-11.8	-11.8	63	-17.4	2.6	NE	0.04	3.5	NE	-14.8	-11.9	-15.0	738.0	0.021	0.000	21.6	9	-12.7	18.7	2.32	 .0725	23	1	100.0	1
02/25/24	10:11	-11.8	-11.7	-11.8	63	-17.4	2.6	NE	0.04	3.5	NE	-14.8	-11.9	-15.0	738.0	0.021	0.000	21.6	9	-12.7	18.7	2.32	 .0725	24	1	100.0	1
02/25/24	10:12	-11.8	-11.7	-11.8	63	-17.4	2.6	NE	0.04	3.5	NE	-14.8	-11.9	-15.0	738.0	0.021	0.000	21.6	9	-12.7	18.7	2.32	 .0725	23	1	100.0	1
02/25/24	10:13	-11.8	-11.7	-11.8	63	-17.4	2.6	NNE	0.04	3.5	NNE	-14.8	-11.9	-15.0	738.0	0.021	0.000	21.6	9	-12.7	18.7	2.32	 .0725	24	1	100.0	1
02/25/24	10:14	-11.8	-11.8	-11.8	63	-17.4	3.5	NNE	0.06	4.3	NNE	-15.8	-11.9	-15.9	737.9	0.021	0.000	21.6	9	-12.7	18.7	2.32	 .0725	23	1	100.0	1
02/25/24	10:15	-11.8	-11.8	-11.8	63	-17.4	3.5	N	0.06	3.5	NNE	-15.8	-11.9	-15.9	738.0	0.021	0.000	21.6	9	-12.7	18.7	2.32	 .0725	23	1	100.0	1
02/25/24	10:16	-11.8	-11.7	-11.8	63	-17.4	3.5	N	0.06	3.5	N	-15.8	-11.9	-15.9	737.9	0.021	0.000	21.5	9	-12.8	18.6	2.32	 .0725	24	1	100.0	1
02/25/24	10:17	-11.8	-11.8	-11.8	63	-17.4	3.5	N	0.06	4.3	N	-15.8	-11.9	-15.9	737.9	0.021	0.000	21.5	9	-12.8	18.6	2.32	 .0725	23	1	100.0	1
02/25/24	10:18	-11.8	-11.8	-11.8	63	-17.4	4.3	NNW	0.07	5.2	NNW	-16.6	-11.9	-16.7	738.0	0.021	0.000	21.5	9	-12.8	18.6	2.32	 .0725	24	1	100.0	1
02/25/24	10:19	-11.7	-11.7	-11.8	63	-17.4	4.3	NNW	0.07	5.2	NNW	-16.5	-11.9	-16.7	737.9	0.021	0.000	21.5	9	-12.8	18.6	2.32	 .0725	23	1	100.0	1
02/25/24	10:20	-11.8	-11.7	-11.8	63	-17.4	4.3	NNW	0.07	5.2	NNW	-16.6	-11.9	-16.7	737.9	0.021	0.000	21.5	9	-12.8	18.6	2.32	 .0725	23	1	100.0	1
02/25/24	10:21	-11.8	-11.8	-11.8	63	-17.4	4.3	NNW	0.07	5.2	NNW	-16.6	-11.9	-16.7	737.9	0.021	0.000	21.5	9	-12.8	18.6	2.32	 .0725	24	1	100.0	1
02/25/24	10:22	-11.8	-11.8	-11.8	63	-17.4	4.3	NNW	0.07	5.2	N	-16.6	-11.9	-16.7	738.0	0.021	0.000	21.4	9	-12.8	18.5	2.33	 .0725	23	1	100.0	1
02/25/24	10:23	-11.8	-11.8	-11.8	63	-17.4	4.3	N	0.07	4.3	N	-16.6	-11.9	-16.7	737.9	0.021	0.000	21.4	9	-12.8	18.5	2.33	 .0725	24	1	100.0	1
02/25/24	10:24	-11.8	-11.8	-11.8	63	-17.4	4.3	N	0.07	5.2	N	-16.6	-11.9	-16.7	738.0	0.021	0.000	21.4	9	-12.8	18.5	2.33	 .0725	23	1	100.0	1
02/25/24	10:25	-11.8	-11.7	-11.8	63	-17.4	4.3	N	0.07	4.3	N	-16.6	-11.9	-16.7	738.0	0.021	0.000	21.4	9	-12.8	18.5	2.33	 .0725	24	1	100.0	1
02/25/24	10:26	-11.8	-11.8	-11.8	63	-17.4	4.3	N	0.07	4.3	N	-16.6	-11.9	-16.7	737.9	0.021	0.000	21.4	9	-12.8	18.5	2.33	 .0725	23	1	100.0	1
02/25/24	10:27	-11.7	-11.7	-11.8	63	-17.4	4.3	N	0.07	5.2	N	-16.5	-11.9	-16.7	737.9	0.021	0.000	21.4	9	-12.8	18.5	2.33	 .0725	23	1	100.0	1
02/25/24	10:28	-11.7	-11.7	-11.8	63	-17.4	4.3	N	0.07	5.2	N	-16.5	-11.9	-16.7	737.9	0.021	0.000	21.4	9	-12.8	18.4	2.33	 .0725	24	1	100.0	1
02/25/24	10:29	-11.7	-11.7	-11.7	63	-17.4	4.3	N	0.07	4.3	N	-16.5	-11.9	-16.7	737.9	0.021	0.000	21.4	9	-12.8	18.4	2.33	 .0725	23	1	100.0	1
02/25/24	10:30	-11.7	-11.7	-11.7	63	-17.4	4.3	N	0.07	5.2	N	-16.5	-11.9	-16.7	737.9	0.021	0.000	21.4	9	-12.8	18.4	2.33	 .0725	24	1	100.0	1
02/25/24	10:31	-11.7	-11.7	-11.7	63	-17.4	4.3	N	0.07	5.2	N	-16.5	-11.9	-16.7	737.9	0.021	0.000	21.4	9	-12.8	18.4	2.33	 .0725	23	1	100.0	1
02/25/24	10:32	-11.7	-11.7	-11.7	63	-17.4	4.3	N	0.07	4.3	N	-16.5	-11.9	-16.7	737.9	0.021	0.000	21.4	9	-12.8	18.5	2.33	 .0725	23	1	100.0	1
02/25/24	10:33	-11.7	-11.7	-11.7	63	-17.3	4.3	NNW	0.07	7.0	NNW	-16.4	-11.8	-16.6	737.9	0.021	0.000	21.4	9	-12.8	18.5	2.33	 .0725	24	1	100.0	1
02/25/24	10:34	-11.7	-11.7	-11.7	63	-17.4	3.5	NNW	0.06	5.2	NNW	-15.7	-11.9	-15.9	737.9	0.021	0.000	21.4	9	-12.8	18.5	2.33	 .0725	23	1	100.0	1
02/25/24	10:35	-11.7	-11.7	-11.7	64	-17.1	4.3	NNW	0.07	5.2	NNW	-16.4	-11.8	-16.6	737.9	0.021	0.000	21.4	9	-12.8	18.5	2.33	 .0725	24	1	100.0	1
02/25/24	10:36	-11.7	-11.7	-11.7	64	-17.1	4.3	NNW	0.07	5.2	NNW	-16.4	-11.8	-16.6	737.9	0.021	0.000	21.4	9	-12.8	18.5	2.33	 .0725	23	1	100.0	1
02/25/24	10:37	-11.7	-11.7	-11.7	64	-17.1	3.5	NNW	0.06	4.3	NNW	-15.7	-11.8	-15.8	737.9	0.021	0.000	21.5	9	-12.8	18.6	2.32	 .0725	24	1	100.0	1
02/25/24	10:38	-11.7	-11.7	-11.7	64	-17.2	3.5	NNW	0.06	4.3	NNW	-15.7	-11.9	-15.9	737.9	0.021	0.000	21.5	9	-12.8	18.6	2.32	 .0725	23	1	100.0	1
02/25/24	10:39	-11.7	-11.7	-11.7	64	-17.2	3.5	NNW	0.06	4.3	NNW	-15.7	-11.9	-15.9	737.9	0.021	0.000	21.5	9	-12.8	18.6	2.32	 .0725	23	1	100.0	1
02/25/24	10:40	-11.7	-11.7	-11.7	64	-17.2	2.6	NNW	0.04	3.5	NNW	-14.8	-11.9	-14.9	737.9	0.021	0.000	21.5	9	-12.8	18.6	2.32	 .0725	24	1	100.0	1
02/25/24	10:41	-11.8	-11.7	-11.8	64	-17.2	3.5	NNW	0.06	4.3	NNW	-15.8	-11.9	-15.9	737.9	0.021	0.000	21.5	9	-12.8	18.6	2.32	 .0725	23	1	100.0	1
02/25/24	10:42	-11.8	-11.8	-11.8	64	-17.2	3.5	NNW	0.06	4.3	NNW	-15.8	-11.9	-15.9	737.9	0.021	0.000	21.5	9	-12.8	18.6	2.32	 .0725	24	1	100.0	1
02/25/24	10:43	-11.8	-11.8	-11.8	64	-17.2	3.5	NNW	0.06	3.5	NNW	-15.8	-11.9	-15.9	737.9	0.021	0.000	21.5	9	-12.8	18.6	2.32	 .0725	23	1	100.0	1
02/25/24	10:44	-11.8	-11.8	-11.8	64	-17.2	2.6	N	0.04	3.5	NNW	-14.8	-11.9	-15.0	737.9	0.021	0.000	21.6	9	-12.7	18.7	2.32	 .0725	23	1	100.0	1
02/25/24	10:45	-11.8	-11.8	-11.8	64	-17.2	2.6	NNW	0.04	3.5	NNW	-14.8	-11.9	-15.0	737.9	0.021	0.000	21.6	9	-12.7	18.7	2.32	 .0725	24	1	100.0	1
02/25/24	10:46	-11.8	-11.8	-11.8	64	-17.2	2.6	NNW	0.04	3.5	NNW	-14.8	-11.9	-15.0	737.8	0.021	0.000	21.6	9	-12.7	18.7	2.32	 .0725	23	1	100.0	1
02/25/24	10:47	-11.8	-11.8	-11.8	64	-17.2	3.5	NNW	0.06	3.5	NNW	-15.8	-11.9	-15.9	737.9	0.021	0.000	21.6	9	-12.7	18.7	2.32	 .0725	24	1	100.0	1
02/25/24	10:48	-11.8	-11.8	-11.8	64	-17.2	2.6	NNW	0.04	3.5	NNW	-14.8	-11.9	-15.0	737.8	0.021	0.000	21.6	9	-12.7	18.7	2.32	 .0725	23	1	100.0	1
02/25/24	10:49	-11.8	-11.8	-11.8	64	-17.2	3.5	NNW	0.06	4.3	NNW	-15.8	-11.9	-15.9	737.8	0.021	0.000	21.6	9	-12.7	18.7	2.32	 .0725	24	1	100.0	1
02/25/24	10:50	-11.7	-11.7	-11.8	64	-17.2	3.5	NNW	0.06	3.5	NNW	-15.7	-11.9	-15.9	737.9	0.021	0.000	21.6	9	-12.7	18.7	2.32	 .0725	23	1	100.0	1
02/25/24	10:51	-11.7	-11.7	-11.7	64	-17.2	2.6	NNW	0.04	3.5	NNW	-14.8	-11.9	-14.9	737.8	0.021	0.000	21.6	9	-12.7	18.7	2.32	 .0725	23	1	100.0	1
02/25/24	10:52	-11.7	-11.7	-11.7	64	-17.2	2.6	NNW	0.04	3.5	NNW	-14.8	-11.9	-14.9	737.8	0.021	0.000	21.6	9	-12.7	18.8	2.31	 .0724	24	1	100.0	1
02/25/24	10:53	-11.7	-11.7	-11.7	64	-17.1	3.5	NNW	0.06	4.3	NNW	-15.7	-11.8	-15.8	737.8	0.021	0.000	21.6	9	-12.7	18.8	2.31	 .0724	23	1	100.0	1
02/25/24	10:54	-11.7	-11.7	-11.7	64	-17.1	2.6	NNW	0.04	4.3	NNW	-14.7	-11.8	-14.8	737.9	0.021	0.000	21.6	9	-12.7	18.7	2.32	 .0725	24	1	100.0	1
02/25/24	10:55	-11.7	-11.7	-11.7	64	-17.2	3.5	NNW	0.06	4.3	NNW	-15.7	-11.9	-15.9	737.8	0.021	0.000	21.6	9	-12.7	18.7	2.32	 .0725	23	1	100.0	1
02/25/24	10:56	-11.7	-11.7	-11.7	64	-17.1	2.6	NNW	0.04	3.5	NNW	-14.7	-11.8	-14.8	737.8	0.021	0.000	21.6	9	-12.7	18.7	2.32	 .0725	23	1	100.0	1
02/25/24	10:57	-11.7	-11.7	-11.7	64	-17.1	3.5	NNW	0.06	3.5	NNW	-15.7	-11.8	-15.8	737.8	0.021	0.000	21.6	9	-12.7	18.7	2.32	 .0725	24	1	100.0	1
02/25/24	10:58	-11.7	-11.7	-11.7	64	-17.1	2.6	NNW	0.04	3.5	NNW	-14.7	-11.8	-14.8	737.9	0.021	0.000	21.6	9	-12.7	18.7	2.32	 .0725	23	1	100.0	1
02/25/24	10:59	-11.7	-11.7	-11.7	64	-17.2	3.5	NNW	0.06	4.3	NNW	-15.7	-11.9	-15.9	737.9	0.021	0.000	21.6	9	-12.7	18.7	2.32	 .0725	24	1	100.0	1
02/25/24	11:00	-11.7	-11.7	-11.7	64	-17.2	3.5	N	0.06	4.3	N	-15.7	-11.9	-15.9	737.8	0.021	0.000	21.6	9	-12.7	18.7	2.32	 .0725	23	1	100.0	1
02/25/24	11:01	-11.7	-11.7	-11.7	64	-17.1	4.3	N	0.07	4.3	N	-16.4	-11.8	-16.6	737.8	0.021	0.000	21.6	9	-12.7	18.7	2.32	 .0725	23	1	100.0	1
02/25/24	11:02	-11.7	-11.7	-11.7	64	-17.1	4.3	N	0.07	4.3	N	-16.4	-11.8	-16.6	737.9	0.021	0.000	21.6	9	-12.7	18.7	2.32	 .0725	24	1	100.0	1
02/25/24	11:03	-11.7	-11.7	-11.7	64	-17.1	4.3	N	0.07	5.2	N	-16.4	-11.8	-16.6	737.9	0.021	0.000	21.6	9	-12.7	18.7	2.32	 .0725	23	1	100.0	1
02/25/24	11:04	-11.6	-11.6	-11.7	64	-17.1	4.3	N	0.07	4.3	N	-16.4	-11.8	-16.6	737.9	0.021	0.000	21.6	9	-12.7	18.7	2.32	 .0725	24	1	100.0	1
02/25/24	11:05	-11.6	-11.6	-11.6	64	-17.1	4.3	N	0.07	4.3	N	-16.4	-11.8	-16.6	737.8	0.021	0.000	21.5	9	-12.8	18.6	2.32	 .0725	23	1	100.0	1
02/25/24	11:06	-11.6	-11.6	-11.6	64	-17.1	4.3	NNE	0.07	4.3	NNE	-16.4	-11.8	-16.6	737.8	0.021	0.000	21.5	9	-12.8	18.6	2.32	 .0725	24	1	100.0	1
02/25/24	11:07	-11.6	-11.6	-11.6	64	-17.1	3.5	NNE	0.06	4.3	NNE	-15.6	-11.8	-15.8	737.8	0.021	0.000	21.5	9	-12.8	18.6	2.32	 .0725	23	1	100.0	1
02/25/24	11:08	-11.6	-11.6	-11.6	64	-17.0	3.5	NNE	0.06	4.3	NNE	-15.6	-11.7	-15.7	737.8	0.021	0.000	21.5	9	-12.8	18.6	2.32	 .0725	23	1	100.0	1
02/25/24	11:09	-11.6	-11.6	-11.6	64	-17.0	3.5	N	0.06	4.3	N	-15.6	-11.7	-15.7	737.8	0.021	0.000	21.5	9	-12.8	18.6	2.32	 .0725	24	1	100.0	1
02/25/24	11:10	-11.6	-11.6	-11.6	64	-17.0	3.5	N	0.06	4.3	N	-15.6	-11.7	-15.7	737.8	0.021	0.000	21.5	9	-12.8	18.6	2.32	 .0725	23	1	100.0	1
02/25/24	11:11	-11.6	-11.6	-11.6	64	-17.0	3.5	N	0.06	4.3	N	-15.6	-11.7	-15.7	737.8	0.021	0.000	21.5	9	-12.8	18.6	2.32	 .0725	24	1	100.0	1
02/25/24	11:12	-11.6	-11.6	-11.6	64	-17.0	3.5	N	0.06	3.5	N	-15.6	-11.7	-15.7	737.8	0.021	0.000	21.4	9	-12.8	18.5	2.33	 .0725	23	1	100.0	1
02/25/24	11:13	-11.6	-11.6	-11.6	65	-16.8	2.6	N	0.04	3.5	N	-14.6	-11.7	-14.7	737.8	0.021	0.000	21.4	9	-12.8	18.5	2.33	 .0725	23	1	100.0	1
02/25/24	11:14	-11.5	-11.5	-11.6	65	-16.8	2.6	N	0.04	3.5	N	-14.5	-11.7	-14.7	737.8	0.021	0.000	21.4	9	-12.8	18.5	2.33	 .0725	24	1	100.0	1
02/25/24	11:15	-11.5	-11.5	-11.5	65	-16.8	2.6	NNW	0.04	3.5	NNW	-14.5	-11.7	-14.7	737.7	0.021	0.000	21.4	9	-12.8	18.5	2.33	 .0725	23	1	100.0	1
02/25/24	11:16	-11.4	-11.4	-11.5	65	-16.7	2.6	NNW	0.04	3.5	NNW	-14.4	-11.6	-14.6	737.8	0.021	0.000	21.4	9	-12.8	18.5	2.33	 .0725	24	1	100.0	1
02/25/24	11:17	-11.4	-11.4	-11.4	66	-16.5	2.6	NNW	0.04	3.5	NNW	-14.4	-11.6	-14.6	737.8	0.021	0.000	21.4	9	-12.8	18.5	2.33	 .0725	23	1	100.0	1
02/25/24	11:18	-11.4	-11.4	-11.4	66	-16.5	2.6	NNW	0.04	3.5	NNW	-14.4	-11.6	-14.6	737.8	0.021	0.000	21.4	9	-12.8	18.5	2.33	 .0725	24	1	100.0	1
02/25/24	11:19	-11.4	-11.4	-11.4	66	-16.5	2.6	NNW	0.04	2.6	NNW	-14.4	-11.6	-14.6	737.8	0.021	0.000	21.4	9	-12.8	18.5	2.33	 .0725	23	1	100.0	1
02/25/24	11:20	-11.4	-11.4	-11.4	66	-16.5	3.5	NNW	0.06	4.3	NNW	-15.3	-11.6	-15.5	737.8	0.021	0.000	21.4	9	-12.8	18.5	2.33	 .0725	23	1	100.0	1
02/25/24	11:21	-11.3	-11.3	-11.4	66	-16.4	5.2	NW	0.09	7.0	NW	-16.7	-11.5	-16.9	737.8	0.021	0.000	21.4	9	-12.8	18.5	2.33	 .0725	24	1	100.0	1
02/25/24	11:22	-11.3	-11.3	-11.4	67	-16.2	5.2	NW	0.09	7.0	NW	-16.7	-11.5	-16.9	737.8	0.021	0.000	21.4	9	-12.8	18.5	2.33	 .0725	23	1	100.0	1
02/25/24	11:23	-11.3	-11.3	-11.3	66	-16.4	5.2	NNW	0.09	5.2	NW	-16.7	-11.5	-16.9	737.8	0.021	0.000	21.4	9	-12.8	18.5	2.33	 .0725	24	1	100.0	1
02/25/24	11:24	-11.3	-11.3	-11.3	66	-16.4	4.3	NNW	0.07	5.2	NNW	-16.0	-11.4	-16.2	737.8	0.021	0.000	21.4	9	-12.8	18.5	2.33	 .0725	23	1	100.0	1
02/25/24	11:25	-11.3	-11.3	-11.3	66	-16.4	5.2	NNW	0.09	7.0	NNW	-16.6	-11.4	-16.8	737.8	0.021	0.000	21.4	9	-12.8	18.5	2.33	 .0725	23	1	100.0	1
02/25/24	11:26	-11.3	-11.3	-11.3	66	-16.4	7.0	NNW	0.12	8.7	NNW	-17.7	-11.4	-17.9	737.8	0.021	0.000	21.4	9	-12.8	18.5	2.33	 .0725	24	1	100.0	1
02/25/24	11:27	-11.2	-11.2	-11.3	67	-16.1	7.8	NW	0.13	8.7	NW	-18.1	-11.4	-18.2	737.8	0.021	0.000	21.4	9	-12.8	18.5	2.33	 .0725	23	1	100.0	1
02/25/24	11:28	-11.2	-11.2	-11.2	67	-16.1	7.0	NW	0.12	7.8	NW	-17.6	-11.3	-17.7	737.8	0.020	0.000	21.4	9	-12.8	18.5	2.33	 .0725	24	1	100.0	1
02/25/24	11:29	-11.2	-11.2	-11.2	68	-15.9	7.8	NNW	0.13	8.7	NNW	-17.9	-11.3	-18.1	737.8	0.020	0.000	21.4	9	-12.8	18.5	2.33	 .0725	23	1	100.0	1
02/25/24	11:30	-11.2	-11.2	-11.2	68	-15.9	7.8	NNW	0.13	9.6	NW	-17.9	-11.3	-18.1	737.8	0.020	0.000	21.4	9	-12.8	18.5	2.33	 .0725	24	1	100.0	1
02/25/24	11:31	-11.2	-11.1	-11.2	68	-15.9	7.8	NNW	0.13	10.4	NNW	-17.9	-11.3	-18.1	737.8	0.020	0.000	21.5	9	-12.8	18.6	2.32	 .0725	23	1	100.0	1
02/25/24	11:32	-11.1	-11.1	-11.2	68	-15.8	9.6	NNW	0.16	11.3	NNW	-18.6	-11.2	-18.7	737.7	0.020	0.000	21.5	9	-12.8	18.6	2.32	 .0725	23	1	100.0	1
02/25/24	11:33	-11.0	-11.0	-11.1	68	-15.8	8.7	NW	0.14	9.6	NW	-18.2	-11.2	-18.3	737.7	0.020	0.000	21.5	9	-12.8	18.6	2.32	 .0725	24	1	100.0	1
02/25/24	11:34	-10.9	-10.9	-11.0	68	-15.7	9.6	NNW	0.16	11.3	NNW	-18.5	-11.1	-18.7	737.7	0.020	0.000	21.5	9	-12.8	18.6	2.32	 .0725	23	1	100.0	1
02/25/24	11:35	-10.9	-10.9	-10.9	68	-15.7	9.6	NNW	0.16	10.4	NNW	-18.5	-11.1	-18.7	737.7	0.020	0.000	21.5	9	-12.8	18.6	2.32	 .0725	24	1	100.0	1
02/25/24	11:36	-10.9	-10.9	-10.9	68	-15.7	9.6	NNW	0.16	10.4	NNW	-18.5	-11.1	-18.7	737.7	0.020	0.000	21.5	9	-12.8	18.6	2.32	 .0725	23	1	100.0	1
02/25/24	11:37	-10.9	-10.9	-10.9	68	-15.6	8.7	NNW	0.14	10.4	NNW	-18.1	-11.1	-18.2	737.8	0.020	0.000	21.5	9	-12.8	18.6	2.32	 .0725	23	1	100.0	1
02/25/24	11:38	-10.9	-10.9	-10.9	68	-15.7	9.6	NW	0.16	11.3	NNW	-18.5	-11.1	-18.7	737.7	0.020	0.000	21.6	9	-12.7	18.7	2.32	 .0725	24	1	100.0	1
02/25/24	11:39	-10.9	-10.9	-10.9	68	-15.6	10.4	NNW	0.17	13.0	NW	-18.8	-11.1	-18.9	737.7	0.020	0.000	21.5	9	-12.8	18.6	2.32	 .0725	23	1	100.0	1
02/25/24	11:40	-10.8	-10.8	-10.8	69	-15.4	11.3	NNW	0.19	13.9	NW	-18.9	-10.9	-19.1	737.7	0.020	0.000	21.5	9	-12.8	18.6	2.32	 .0725	24	1	100.0	1
02/25/24	11:41	-10.7	-10.7	-10.8	69	-15.3	10.4	NNW	0.17	12.2	NW	-18.6	-10.9	-18.7	737.7	0.020	0.000	21.5	9	-12.8	18.6	2.32	 .0725	23	1	100.0	1
02/25/24	11:42	-10.7	-10.7	-10.7	69	-15.3	10.4	NNW	0.17	13.0	NNW	-18.5	-10.8	-18.7	737.8	0.020	0.000	21.5	9	-12.8	18.6	2.32	 .0725	23	1	100.0	1
02/25/24	11:43	-10.7	-10.7	-10.7	69	-15.3	11.3	NNW	0.19	13.0	NNW	-18.8	-10.8	-18.9	737.7	0.020	0.000	21.5	9	-12.8	18.6	2.32	 .0725	24	1	100.0	1
02/25/24	11:44	-10.6	-10.6	-10.7	69	-15.2	11.3	NNW	0.19	13.0	NNW	-18.7	-10.8	-18.9	737.7	0.020	0.000	21.5	9	-12.8	18.6	2.32	 .0725	23	1	100.0	1
02/25/24	11:45	-10.6	-10.6	-10.6	69	-15.1	11.3	NNW	0.19	14.8	NNW	-18.7	-10.7	-18.8	737.7	0.020	0.000	21.5	9	-12.8	18.6	2.32	 .0725	24	1	100.0	1
02/25/24	11:46	-10.5	-10.5	-10.6	69	-15.1	13.0	NNW	0.22	17.4	NNW	-19.2	-10.7	-19.3	737.7	0.020	0.000	21.5	9	-12.8	18.6	2.32	 .0725	23	1	100.0	1
02/25/24	11:47	-10.4	-10.4	-10.5	69	-15.0	11.3	NNW	0.19	17.4	NNW	-18.5	-10.6	-18.7	737.7	0.020	0.000	21.5	9	-12.8	18.6	2.32	 .0725	24	1	100.0	1
02/25/24	11:48	-10.4	-10.4	-10.4	69	-15.0	13.0	NNW	0.22	14.8	NW	-19.1	-10.6	-19.3	737.7	0.020	0.000	21.5	9	-12.8	18.6	2.32	 .0725	23	1	100.0	1
02/25/24	11:49	-10.4	-10.4	-10.4	69	-15.0	12.2	NNW	0.20	16.5	NNW	-18.8	-10.6	-19.0	737.7	0.020	0.000	21.5	9	-12.8	18.6	2.32	 .0725	23	1	100.0	1
02/25/24	11:50	-10.4	-10.4	-10.4	69	-15.0	11.3	NNW	0.19	13.0	N	-18.5	-10.6	-18.7	737.7	0.020	0.000	21.4	9	-12.8	18.5	2.33	 .0725	24	1	100.0	1
02/25/24	11:51	-10.5	-10.4	-10.5	69	-15.1	9.6	NNW	0.16	11.3	NNW	-17.9	-10.7	-18.1	737.7	0.020	0.000	21.4	9	-12.8	18.5	2.33	 .0725	23	1	100.0	1
02/25/24	11:52	-10.6	-10.5	-10.6	69	-15.1	10.4	NNW	0.17	12.2	N	-18.3	-10.7	-18.5	737.7	0.020	0.000	21.4	9	-12.8	18.5	2.33	 .0725	24	1	100.0	1
02/25/24	11:53	-10.6	-10.6	-10.6	69	-15.1	11.3	NNW	0.19	12.2	NNW	-18.7	-10.7	-18.8	737.7	0.020	0.000	21.4	9	-12.8	18.5	2.33	 .0725	23	1	100.0	1
02/25/24	11:54	-10.6	-10.6	-10.6	70	-15.0	11.3	N	0.19	13.0	NNW	-18.7	-10.7	-18.8	737.7	0.020	0.000	21.4	9	-12.8	18.4	2.33	 .0725	23	1	100.0	1
02/25/24	11:55	-10.6	-10.6	-10.6	70	-15.0	12.2	NNW	0.20	14.8	N	-18.9	-10.7	-19.1	737.7	0.020	0.000	21.4	9	-12.8	18.4	2.33	 .0725	24	1	100.0	1
02/25/24	11:56	-10.6	-10.6	-10.6	70	-15.0	10.4	NNW	0.17	12.2	NNW	-18.3	-10.7	-18.5	737.7	0.020	0.000	21.4	9	-12.8	18.4	2.33	 .0725	23	1	100.0	1
02/25/24	11:57	-10.6	-10.6	-10.6	70	-15.0	10.4	NNW	0.17	12.2	NNW	-18.3	-10.7	-18.5	737.7	0.020	0.000	21.4	9	-12.8	18.4	2.33	 .0725	24	1	100.0	1
02/25/24	11:58	-10.6	-10.6	-10.6	70	-15.0	13.0	NNW	0.22	14.8	NNW	-19.2	-10.7	-19.4	737.7	0.020	0.000	21.4	9	-12.8	18.4	2.33	 .0725	23	1	100.0	1
02/25/24	11:59	-10.6	-10.6	-10.6	70	-15.0	12.2	NNW	0.20	13.9	NNW	-18.9	-10.7	-19.1	737.6	0.020	0.000	21.4	9	-12.8	18.4	2.33	 .0725	24	1	100.0	1
02/25/24	12:00	-10.6	-10.6	-10.6	70	-15.0	12.2	NNW	0.20	13.0	NNW	-18.9	-10.7	-19.1	737.7	0.020	0.000	21.4	9	-12.8	18.4	2.33	 .0725	23	1	100.0	1
02/25/24	12:01	-10.6	-10.5	-10.6	70	-15.0	10.4	NNW	0.17	12.2	NNW	-18.3	-10.7	-18.5	737.7	0.020	0.000	21.3	9	-12.9	18.3	2.33	 .0725	23	1	100.0	1
02/25/24	12:02	-10.6	-10.6	-10.6	70	-15.0	9.6	NNW	0.16	11.3	NNW	-18.0	-10.7	-18.2	737.7	0.020	0.000	21.3	9	-12.9	18.3	2.33	 .0725	24	1	100.0	1
02/25/24	12:03	-10.6	-10.6	-10.6	70	-15.0	9.6	NNW	0.16	10.4	NNW	-18.0	-10.7	-18.2	737.7	0.020	0.000	21.3	9	-12.9	18.3	2.33	 .0725	23	1	100.0	1
02/25/24	12:04	-10.6	-10.6	-10.6	70	-15.0	9.6	NNW	0.16	10.4	NNW	-18.0	-10.7	-18.2	737.7	0.020	0.000	21.3	9	-12.9	18.3	2.33	 .0725	24	1	100.0	1
02/25/24	12:05	-10.6	-10.6	-10.6	70	-15.0	10.4	NNW	0.17	11.3	NNW	-18.3	-10.7	-18.5	737.7	0.020	0.000	21.3	9	-12.9	18.3	2.33	 .0725	23	1	100.0	1
02/25/24	12:06	-10.6	-10.6	-10.6	70	-15.0	11.3	NNW	0.19	12.2	NNW	-18.7	-10.7	-18.8	737.7	0.020	0.000	21.3	9	-12.9	18.3	2.33	 .0725	23	1	100.0	1
02/25/24	12:07	-10.6	-10.6	-10.6	70	-15.0	10.4	NNW	0.17	12.2	NNW	-18.3	-10.7	-18.5	737.7	0.020	0.000	21.3	9	-12.9	18.3	2.33	 .0725	24	1	100.0	1
02/25/24	12:08	-10.6	-10.6	-10.6	70	-15.0	11.3	NNW	0.19	13.0	NNW	-18.7	-10.7	-18.8	737.7	0.020	0.000	21.3	9	-12.9	18.3	2.33	 .0725	23	1	100.0	1
02/25/24	12:09	-10.6	-10.6	-10.6	71	-14.9	12.2	NNW	0.20	13.9	NNW	-19.1	-10.8	-19.2	737.7	0.020	0.000	21.3	9	-12.9	18.3	2.33	 .0725	24	1	100.0	1
02/25/24	12:10	-10.6	-10.6	-10.6	71	-14.8	11.3	NNW	0.19	13.0	NNW	-18.7	-10.7	-18.8	737.6	0.020	0.000	21.3	9	-12.9	18.3	2.33	 .0725	23	1	100.0	1
02/25/24	12:11	-10.6	-10.6	-10.6	71	-14.8	12.2	NNW	0.20	15.7	NNW	-18.9	-10.7	-19.1	737.6	0.020	0.000	21.4	9	-12.8	18.4	2.33	 .0725	24	1	100.0	1
02/25/24	12:12	-10.5	-10.5	-10.6	71	-14.7	14.8	NNW	0.25	16.5	NNW	-19.7	-10.7	-19.9	737.6	0.020	0.000	21.4	9	-12.8	18.4	2.33	 .0725	23	1	100.0	1
02/25/24	12:13	-10.4	-10.4	-10.4	71	-14.6	13.9	NNW	0.23	15.7	NNW	-19.3	-10.6	-19.4	737.7	0.020	0.000	21.4	9	-12.8	18.4	2.33	 .0725	23	1	100.0	1
02/25/24	12:14	-10.3	-10.3	-10.4	71	-14.6	11.3	NNW	0.19	12.2	NNW	-18.4	-10.5	-18.6	737.6	0.020	0.000	21.4	9	-12.8	18.4	2.33	 .0725	24	1	100.0	1
02/25/24	12:15	-10.3	-10.3	-10.3	71	-14.5	10.4	NNW	0.17	13.0	N	-18.0	-10.4	-18.2	737.6	0.020	0.000	21.4	9	-12.8	18.4	2.33	 .0725	23	1	100.0	1
02/25/24	12:16	-10.2	-10.2	-10.3	71	-14.5	13.0	NW	0.22	16.5	NNW	-18.8	-10.4	-19.0	737.6	0.020	0.000	21.4	9	-12.8	18.4	2.33	 .0725	24	1	100.0	1
02/25/24	12:17	-10.2	-10.2	-10.2	71	-14.5	12.2	NNW	0.20	13.9	NNW	-18.6	-10.4	-18.7	737.6	0.020	0.000	21.4	8	-14.3	18.4	2.04	 .0725	23	1	100.0	1
02/25/24	12:18	-10.2	-10.2	-10.2	71	-14.4	12.2	NW	0.20	13.9	NNW	-18.4	-10.3	-18.6	737.6	0.020	0.000	21.4	8	-14.3	18.4	2.04	 .0725	23	1	100.0	1
02/25/24	12:19	-10.2	-10.2	-10.2	71	-14.4	11.3	NNW	0.19	13.9	NNW	-18.2	-10.3	-18.3	737.6	0.020	0.000	21.4	8	-14.3	18.4	2.04	 .0725	24	1	100.0	1
02/25/24	12:20	-10.1	-10.1	-10.2	71	-14.3	15.7	NW	0.26	20.0	NW	-19.4	-10.2	-19.6	737.5	0.020	0.000	21.4	8	-14.3	18.4	2.04	 .0725	23	1	100.0	1
02/25/24	12:21	-9.9	-9.9	-10.1	72	-14.0	18.3	NW	0.30	21.7	NW	-19.9	-10.1	-20.1	737.5	0.020	0.000	21.4	8	-14.3	18.4	2.04	 .0725	24	1	100.0	1
02/25/24	12:22	-9.8	-9.8	-9.9	72	-13.9	20.9	NNW	0.35	25.2	NNW	-20.2	-9.9	-20.4	737.5	0.020	0.000	21.4	8	-14.3	18.4	2.04	 .0725	23	1	100.0	1
02/25/24	12:23	-9.6	-9.6	-9.7	72	-13.7	23.5	NW	0.39	25.2	NNW	-20.4	-9.7	-20.6	737.3	0.019	0.000	21.4	8	-14.3	18.4	2.04	 .0725	24	1	100.0	1
02/25/24	12:24	-9.4	-9.4	-9.6	71	-13.7	21.7	NW	0.36	25.2	NNW	-19.9	-9.6	-20.1	737.4	0.019	0.000	21.4	8	-14.3	18.4	2.04	 .0725	23	1	100.0	1
02/25/24	12:25	-9.4	-9.4	-9.4	71	-13.7	22.6	NNW	0.38	26.1	NNW	-20.1	-9.6	-20.2	737.4	0.019	0.000	21.4	8	-14.3	18.4	2.04	 .0725	23	1	100.0	1
02/25/24	12:26	-9.3	-9.3	-9.4	70	-13.8	22.6	NNW	0.38	26.1	NNW	-20.0	-9.5	-20.2	737.3	0.019	0.000	21.4	8	-14.3	18.4	2.04	 .0725	24	1	100.0	1
02/25/24	12:27	-9.3	-9.3	-9.3	70	-13.7	20.9	NNW	0.35	26.1	NNW	-19.6	-9.4	-19.7	737.4	0.019	0.000	21.4	8	-14.3	18.4	2.04	 .0725	23	1	100.0	1
02/25/24	12:28	-9.2	-9.2	-9.2	70	-13.7	20.0	NNW	0.33	22.6	NNW	-19.3	-9.4	-19.5	737.4	0.019	0.000	21.4	8	-14.3	18.4	2.04	 .0725	24	1	100.0	1
02/25/24	12:29	-9.2	-9.2	-9.3	70	-13.7	21.7	NNW	0.36	24.3	NNW	-19.7	-9.4	-19.8	737.4	0.019	0.000	21.4	8	-14.3	18.4	2.04	 .0725	23	1	100.0	1
02/25/24	12:30	-9.2	-9.2	-9.3	70	-13.7	22.6	NNW	0.38	24.3	NNW	-19.8	-9.4	-20.0	737.4	0.019	0.000	21.4	8	-14.3	18.4	2.04	 .0725	23	1	100.0	1
02/25/24	12:31	-9.2	-9.2	-9.3	70	-13.7	21.7	NNW	0.36	23.5	NNW	-19.7	-9.4	-19.8	737.4	0.019	0.000	21.4	8	-14.3	18.4	2.04	 .0725	24	1	100.0	1
02/25/24	12:32	-9.2	-9.2	-9.2	70	-13.7	22.6	NNW	0.38	24.3	NNW	-19.8	-9.4	-20.0	737.4	0.019	0.000	21.4	8	-14.3	18.4	2.04	 .0725	23	1	100.0	1
02/25/24	12:33	-9.3	-9.2	-9.3	70	-13.7	20.9	NW	0.35	23.5	NW	-19.6	-9.4	-19.7	737.4	0.019	0.000	21.4	8	-14.3	18.4	2.04	 .0725	24	1	100.0	1
02/25/24	12:34	-9.2	-9.2	-9.2	70	-13.7	22.6	NNW	0.38	25.2	NW	-19.8	-9.4	-20.0	737.4	0.019	0.000	21.3	8	-14.3	18.3	2.04	 .0725	23	1	100.0	1
02/25/24	12:35	-9.2	-9.2	-9.2	70	-13.7	23.5	NW	0.39	27.0	NW	-20.0	-9.4	-20.2	737.3	0.019	0.000	21.3	8	-14.3	18.3	2.04	 .0725	24	1	100.0	1
02/25/24	12:36	-9.2	-9.2	-9.2	70	-13.6	22.6	NW	0.38	25.2	NNW	-19.8	-9.3	-19.9	737.4	0.019	0.000	21.3	8	-14.3	18.3	2.04	 .0725	23	1	100.0	1
02/25/24	12:37	-9.2	-9.2	-9.2	71	-13.5	22.6	NW	0.38	27.0	NNW	-19.8	-9.3	-19.9	737.4	0.019	0.000	21.3	8	-14.4	18.2	2.04	 .0725	23	1	100.0	1
02/25/24	12:38	-9.2	-9.2	-9.2	71	-13.5	27.0	NW	0.45	29.6	NW	-20.6	-9.3	-20.7	737.3	0.019	0.000	21.3	8	-14.4	18.2	2.04	 .0725	24	1	100.0	1
02/25/24	12:39	-9.2	-9.2	-9.2	70	-13.6	24.3	NW	0.41	29.6	NNW	-20.1	-9.3	-20.3	737.3	0.019	0.000	21.3	8	-14.4	18.2	2.04	 .0725	23	1	100.0	1
02/25/24	12:40	-9.1	-9.1	-9.2	71	-13.4	22.6	NW	0.38	25.2	NW	-19.7	-9.3	-19.8	737.3	0.019	0.000	21.3	8	-14.4	18.2	2.04	 .0725	24	1	100.0	1
02/25/24	12:41	-9.1	-9.1	-9.1	71	-13.4	22.6	NW	0.38	25.2	NW	-19.7	-9.3	-19.8	737.4	0.019	0.000	21.2	8	-14.4	18.1	2.05	 .0725	23	1	100.0	1
02/25/24	12:42	-9.1	-9.1	-9.1	71	-13.4	21.7	NW	0.36	25.2	NW	-19.5	-9.3	-19.7	737.4	0.019	0.000	21.2	8	-14.4	18.1	2.05	 .0725	23	1	100.0	1
02/25/24	12:43	-9.1	-9.1	-9.1	71	-13.4	23.5	NNW	0.39	26.1	NNW	-19.8	-9.3	-20.0	737.4	0.019	0.000	21.2	8	-14.4	18.1	2.05	 .0725	24	1	100.0	1
02/25/24	12:44	-9.1	-9.1	-9.1	70	-13.6	22.6	NNW	0.38	25.2	NW	-19.7	-9.3	-19.8	737.4	0.019	0.000	21.2	8	-14.4	18.1	2.05	 .0725	23	1	100.0	1
02/25/24	12:45	-9.1	-9.1	-9.1	69	-13.8	22.6	NW	0.38	25.2	NW	-19.7	-9.3	-19.8	737.4	0.019	0.000	21.2	8	-14.4	18.1	2.05	 .0725	24	1	100.0	1
02/25/24	12:46	-9.1	-9.1	-9.1	70	-13.6	21.7	NW	0.36	27.0	NW	-19.5	-9.3	-19.7	737.4	0.019	0.000	21.2	8	-14.4	18.1	2.05	 .0725	23	1	100.0	1
02/25/24	12:47	-9.1	-9.1	-9.1	70	-13.6	22.6	NW	0.38	27.8	NW	-19.7	-9.3	-19.8	737.3	0.019	0.000	21.2	8	-14.4	18.1	2.05	 .0725	23	1	100.0	1
02/25/24	12:48	-9.1	-9.1	-9.1	69	-13.8	21.7	NW	0.36	25.2	NNW	-19.5	-9.3	-19.7	737.4	0.019	0.000	21.2	8	-14.4	18.1	2.05	 .0725	24	1	100.0	1
02/25/24	12:49	-9.1	-9.1	-9.1	69	-13.8	23.5	NNW	0.39	27.8	NW	-19.8	-9.3	-20.0	737.4	0.019	0.000	21.2	8	-14.5	18.1	2.05	 .0725	23	1	100.0	1
02/25/24	12:50	-9.1	-9.1	-9.1	69	-13.8	22.6	NNW	0.38	26.1	NNW	-19.7	-9.3	-19.8	737.3	0.019	0.000	21.2	8	-14.4	18.1	2.05	 .0725	24	1	100.0	1
02/25/24	12:51	-9.1	-9.1	-9.1	69	-13.8	20.9	NNW	0.35	23.5	NNW	-19.3	-9.3	-19.5	737.4	0.019	0.000	21.2	8	-14.4	18.1	2.05	 .0725	23	1	100.0	1
02/25/24	12:52	-9.2	-9.1	-9.2	69	-13.8	20.9	NW	0.35	23.5	NW	-19.4	-9.3	-19.6	737.4	0.019	0.000	21.2	8	-14.5	18.1	2.05	 .0725	24	1	100.0	1
02/25/24	12:53	-9.1	-9.1	-9.2	69	-13.8	19.1	NW	0.32	22.6	NW	-19.0	-9.3	-19.2	737.3	0.019	0.000	21.2	8	-14.4	18.1	2.05	 .0725	23	1	100.0	1
02/25/24	12:54	-9.2	-9.1	-9.2	70	-13.6	21.7	NNW	0.36	24.3	NNW	-19.6	-9.3	-19.8	737.4	0.019	0.000	21.2	8	-14.4	18.1	2.05	 .0725	23	1	100.0	1
02/25/24	12:55	-9.2	-9.2	-9.2	70	-13.6	22.6	NNW	0.38	25.2	NW	-19.8	-9.3	-19.9	737.4	0.019	0.000	21.2	8	-14.4	18.1	2.05	 .0725	24	1	100.0	1
02/25/24	12:56	-9.1	-9.1	-9.2	69	-13.8	21.7	NW	0.36	23.5	NNW	-19.5	-9.3	-19.7	737.4	0.019	0.000	21.2	8	-14.4	18.1	2.05	 .0725	23	1	100.0	1
02/25/24	12:57	-9.1	-9.1	-9.2	70	-13.5	25.2	NW	0.42	28.7	NW	-20.1	-9.2	-20.3	737.3	0.019	0.000	21.2	8	-14.5	18.1	2.05	 .0725	24	1	100.0	1
02/25/24	12:58	-9.1	-9.1	-9.1	70	-13.5	23.5	NNW	0.39	25.2	NW	-19.8	-9.2	-19.9	737.3	0.019	0.000	21.2	8	-14.4	18.1	2.05	 .0725	23	1	100.0	1
02/25/24	12:59	-9.1	-9.0	-9.1	70	-13.5	22.6	NNW	0.38	26.1	NNW	-19.6	-9.2	-19.8	737.4	0.019	0.000	21.2	8	-14.4	18.1	2.05	 .0725	23	1	100.0	1
02/25/24	13:00	-9.1	-9.1	-9.1	70	-13.5	21.7	NNW	0.36	24.3	NNW	-19.4	-9.2	-19.6	737.4	0.019	0.000	21.2	8	-14.4	18.1	2.05	 .0725	24	1	100.0	1
02/25/24	13:01	-9.1	-9.1	-9.1	70	-13.5	22.6	NNW	0.38	24.3	NNW	-19.6	-9.2	-19.8	737.4	0.019	0.000	21.2	8	-14.4	18.1	2.05	 .0725	23	1	100.0	1
02/25/24	13:02	-9.1	-9.1	-9.1	70	-13.5	23.5	NNW	0.39	26.1	NW	-19.8	-9.2	-19.9	737.3	0.019	0.000	21.2	8	-14.4	18.1	2.05	 .0725	24	1	100.0	1
02/25/24	13:03	-9.1	-9.1	-9.1	70	-13.5	20.9	NNW	0.35	25.2	NNW	-19.3	-9.2	-19.4	737.4	0.019	0.000	21.2	8	-14.4	18.1	2.05	 .0725	23	1	100.0	1
02/25/24	13:04	-9.1	-9.1	-9.1	70	-13.6	22.6	NNW	0.38	25.2	NNW	-19.7	-9.3	-19.8	737.4	0.019	0.000	21.2	8	-14.4	18.1	2.05	 .0725	24	1	100.0	1
02/25/24	13:05	-9.3	-9.1	-9.3	70	-13.7	19.1	NNW	0.32	21.7	NNW	-19.2	-9.4	-19.3	737.5	0.019	0.000	21.2	8	-14.4	18.1	2.05	 .0725	23	1	100.0	1
02/25/24	13:06	-9.6	-9.3	-9.6	69	-14.2	18.3	NNW	0.30	21.7	NNW	-19.4	-9.7	-19.6	737.5	0.019	0.000	21.2	8	-14.4	18.1	2.05	 .0725	23	1	100.0	1
02/25/24	13:07	-9.7	-9.6	-9.7	69	-14.3	18.3	NNW	0.30	22.6	NNW	-19.6	-9.9	-19.7	737.4	0.019	0.000	21.2	8	-14.4	18.1	2.05	 .0725	24	1	100.0	1
02/25/24	13:08	-9.8	-9.7	-9.8	70	-14.2	19.1	NNW	0.32	20.9	NNW	-19.8	-9.9	-20.0	737.4	0.020	0.000	21.2	8	-14.4	18.1	2.05	 .0725	23	1	100.0	1
02/25/24	13:09	-9.8	-9.8	-9.8	70	-14.3	19.1	NNW	0.32	20.9	NNW	-19.9	-10.0	-20.1	737.4	0.020	0.000	21.2	8	-14.4	18.1	2.05	 .0725	24	1	100.0	1
02/25/24	13:10	-9.8	-9.8	-9.8	70	-14.3	17.4	NNW	0.29	18.3	NNW	-19.5	-10.0	-19.7	737.4	0.020	0.000	21.2	8	-14.4	18.1	2.05	 .0725	23	1	100.0	1
02/25/24	13:11	-9.9	-9.9	-9.9	70	-14.4	18.3	NNW	0.30	20.9	N	-19.9	-10.1	-20.1	737.4	0.020	0.000	21.2	8	-14.5	18.1	2.05	 .0725	23	1	100.0	1
02/25/24	13:12	-10.0	-9.9	-10.0	70	-14.4	19.1	NNW	0.32	20.0	NNW	-20.2	-10.2	-20.3	737.4	0.020	0.000	21.2	8	-14.5	18.1	2.05	 .0725	24	1	100.0	1
02/25/24	13:13	-10.1	-10.0	-10.1	69	-14.7	18.3	NNW	0.30	21.7	NW	-20.0	-10.2	-20.2	737.4	0.020	0.000	21.2	8	-14.5	18.1	2.05	 .0725	23	1	100.0	1
02/25/24	13:14	-10.1	-10.1	-10.1	69	-14.7	20.9	NNW	0.35	23.5	NNW	-20.6	-10.2	-20.8	737.3	0.020	0.000	21.2	8	-14.5	18.1	2.05	 .0725	24	1	100.0	1
02/25/24	13:15	-9.9	-9.9	-10.0	69	-14.5	21.7	NNW	0.36	23.5	NNW	-20.6	-10.1	-20.7	737.4	0.020	0.000	21.1	8	-14.5	17.9	2.05	 .0725	23	1	100.0	1
02/25/24	13:16	-9.8	-9.8	-9.8	69	-14.4	19.1	NNW	0.32	20.9	NNW	-19.8	-9.9	-20.0	737.4	0.020	0.000	21.1	8	-14.5	17.9	2.05	 .0726	24	1	100.0	1
02/25/24	13:17	-9.8	-9.8	-9.8	69	-14.4	17.4	NNW	0.29	18.3	NNW	-19.4	-9.9	-19.6	737.4	0.020	0.000	21.1	8	-14.5	17.9	2.05	 .0725	23	1	100.0	1
02/25/24	13:18	-9.8	-9.8	-9.8	69	-14.5	19.1	NNW	0.32	21.7	NNW	-19.9	-10.0	-20.1	737.5	0.020	0.000	21.1	8	-14.5	17.9	2.05	 .0726	23	1	100.0	1
02/25/24	13:19	-9.8	-9.8	-9.8	69	-14.5	17.4	NNW	0.29	20.9	NNW	-19.5	-10.0	-19.7	737.5	0.020	0.000	21.1	8	-14.5	17.9	2.05	 .0726	24	1	100.0	1
02/25/24	13:20	-9.9	-9.9	-9.9	69	-14.6	15.7	NNW	0.26	18.3	N	-19.2	-10.1	-19.4	737.5	0.020	0.000	21.1	8	-14.5	17.9	2.05	 .0726	23	1	100.0	1
02/25/24	13:21	-10.0	-9.9	-10.0	69	-14.6	20.0	NNW	0.33	24.3	NNW	-20.3	-10.2	-20.5	737.5	0.020	0.000	21.1	8	-14.5	17.9	2.06	 .0726	24	1	100.0	1
02/25/24	13:22	-10.0	-10.0	-10.0	69	-14.6	17.4	NNW	0.29	21.7	NNW	-19.7	-10.2	-19.9	737.5	0.020	0.000	21.1	8	-14.5	17.9	2.06	 .0726	23	1	100.0	1
02/25/24	13:23	-10.0	-10.0	-10.0	69	-14.6	14.8	NNW	0.25	16.5	NNW	-19.1	-10.2	-19.2	737.5	0.020	0.000	21.1	8	-14.5	17.9	2.06	 .0726	23	1	100.0	1
02/25/24	13:24	-10.1	-10.0	-10.1	70	-14.5	14.8	NNW	0.25	17.4	NNW	-19.1	-10.2	-19.3	737.6	0.020	0.000	21.1	8	-14.5	17.9	2.06	 .0726	24	1	100.0	1
02/25/24	13:25	-10.1	-10.0	-10.1	70	-14.5	13.0	NW	0.22	14.8	NW	-18.6	-10.2	-18.8	737.5	0.020	0.000	21.1	8	-14.5	17.9	2.06	 .0726	23	1	100.0	1
02/25/24	13:26	-10.1	-10.1	-10.1	70	-14.5	13.0	NW	0.22	14.8	NW	-18.6	-10.2	-18.8	737.5	0.020	0.000	21.1	8	-14.5	17.9	2.06	 .0726	24	1	100.0	1
02/25/24	13:27	-10.1	-10.1	-10.1	70	-14.5	14.8	NNW	0.25	16.5	NNW	-19.2	-10.3	-19.4	737.5	0.020	0.000	21.1	8	-14.5	17.9	2.06	 .0726	23	1	100.0	1
02/25/24	13:28	-10.1	-10.1	-10.1	69	-14.7	13.9	NNW	0.23	15.7	NNW	-18.9	-10.3	-19.1	737.5	0.020	0.000	21.1	8	-14.5	17.9	2.06	 .0726	24	1	100.0	1
02/25/24	13:29	-10.1	-10.1	-10.1	68	-14.9	14.8	NNW	0.25	16.5	N	-19.2	-10.3	-19.4	737.5	0.020	0.000	21.1	8	-14.5	17.9	2.06	 .0726	23	1	100.0	1
02/25/24	13:30	-10.1	-10.1	-10.1	68	-14.9	17.4	NNW	0.29	20.0	NNW	-19.9	-10.3	-20.1	737.5	0.020	0.000	21.1	8	-14.5	17.9	2.06	 .0726	23	1	100.0	1
02/25/24	13:31	-10.1	-10.1	-10.1	67	-15.1	18.3	NNW	0.30	21.7	NNW	-20.1	-10.3	-20.3	737.4	0.020	0.000	21.1	8	-14.5	17.9	2.06	 .0726	24	1	100.0	1
02/25/24	13:32	-10.1	-10.1	-10.1	67	-15.0	16.5	NNW	0.28	20.0	NNW	-19.6	-10.2	-19.8	737.5	0.020	0.000	21.1	8	-14.5	17.9	2.06	 .0726	23	1	100.0	1
02/25/24	13:33	-10.1	-10.1	-10.1	67	-15.0	18.3	NNW	0.30	20.0	NNW	-20.0	-10.2	-20.2	737.4	0.020	0.000	21.1	8	-14.5	17.9	2.05	 .0726	24	1	100.0	1
02/25/24	13:34	-10.1	-10.1	-10.1	67	-15.1	14.8	NNW	0.25	18.3	NNW	-19.2	-10.3	-19.4	737.4	0.020	0.000	21.1	8	-14.5	17.9	2.05	 .0726	23	1	100.0	1
02/25/24	13:35	-10.2	-10.2	-10.2	67	-15.1	15.7	NNW	0.26	18.3	NNW	-19.5	-10.3	-19.7	737.5	0.020	0.000	21.1	8	-14.5	17.9	2.05	 .0726	23	1	100.0	1
02/25/24	13:36	-10.2	-10.2	-10.2	68	-15.0	18.3	NNW	0.30	20.9	NNW	-20.2	-10.3	-20.3	737.4	0.020	0.000	21.2	8	-14.5	18.1	2.05	 .0725	24	1	100.0	1
02/25/24	13:37	-10.1	-10.1	-10.2	69	-14.7	14.8	NNW	0.25	19.1	NNW	-19.2	-10.3	-19.4	737.5	0.020	0.000	21.2	8	-14.5	18.1	2.05	 .0725	23	1	100.0	1
02/25/24	13:38	-10.1	-10.1	-10.1	68	-14.9	11.3	NNW	0.19	12.2	NNW	-18.1	-10.3	-18.3	737.5	0.020	0.000	21.2	8	-14.5	18.1	2.05	 .0725	24	1	100.0	1
02/25/24	13:39	-10.2	-10.1	-10.2	68	-15.0	13.0	NNW	0.22	14.8	NNW	-18.8	-10.3	-18.9	737.5	0.020	0.000	21.2	8	-14.5	18.1	2.05	 .0725	23	1	100.0	1
02/25/24	13:40	-10.2	-10.2	-10.2	67	-15.1	13.0	NNW	0.22	14.8	NNW	-18.8	-10.3	-18.9	737.5	0.020	0.000	21.2	8	-14.4	18.1	2.05	 .0725	23	1	100.0	1
02/25/24	13:41	-10.2	-10.2	-10.2	67	-15.2	12.2	NNW	0.20	14.8	NNW	-18.6	-10.4	-18.7	737.5	0.020	0.000	21.2	8	-14.4	18.1	2.05	 .0725	24	1	100.0	1
02/25/24	13:42	-10.2	-10.2	-10.2	67	-15.2	15.7	NNW	0.26	17.4	NNW	-19.6	-10.4	-19.7	737.5	0.020	0.000	21.2	8	-14.4	18.1	2.05	 .0725	23	1	100.0	1
02/25/24	13:43	-10.1	-10.1	-10.2	69	-14.7	16.5	NW	0.28	20.0	NNW	-19.6	-10.2	-19.8	737.5	0.020	0.000	21.3	8	-14.4	18.2	2.04	 .0725	24	1	100.0	1
02/25/24	13:44	-9.9	-9.9	-10.1	71	-14.2	11.3	NNW	0.19	13.0	NW	-17.9	-10.1	-18.1	737.5	0.020	0.000	21.3	8	-14.4	18.2	2.04	 .0725	23	1	100.0	1
02/25/24	13:45	-9.9	-9.9	-9.9	70	-14.4	13.9	NNW	0.23	17.4	NNW	-18.7	-10.1	-18.9	737.5	0.020	0.000	21.3	8	-14.4	18.2	2.04	 .0725	24	1	100.0	1
02/25/24	13:46	-9.9	-9.9	-9.9	69	-14.6	14.8	NNW	0.25	17.4	NNW	-19.0	-10.1	-19.2	737.5	0.020	0.000	21.3	8	-14.3	18.3	2.04	 .0725	23	1	100.0	1
02/25/24	13:47	-9.9	-9.9	-9.9	68	-14.7	13.9	NNW	0.23	15.7	NNW	-18.7	-10.1	-18.9	737.5	0.020	0.000	21.3	8	-14.3	18.3	2.04	 .0725	23	1	100.0	1
02/25/24	13:48	-9.9	-9.9	-9.9	67	-14.9	8.7	NW	0.14	10.4	NNW	-16.9	-10.1	-17.1	737.5	0.020	0.000	21.3	8	-14.3	18.3	2.04	 .0725	24	1	100.0	1
02/25/24	13:49	-10.0	-9.9	-10.0	66	-15.2	6.1	NW	0.10	8.7	NNW	-15.7	-10.2	-15.8	737.5	0.020	0.000	21.3	8	-14.3	18.3	2.04	 .0725	23	1	100.0	1
02/25/24	13:50	-10.0	-10.0	-10.0	66	-15.2	11.3	N	0.19	16.5	N	-17.9	-10.2	-18.1	737.6	0.020	0.000	21.3	8	-14.3	18.3	2.04	 .0725	24	1	100.0	1
02/25/24	13:51	-9.9	-9.9	-10.0	66	-15.1	13.0	NNW	0.22	15.7	NNW	-18.4	-10.1	-18.6	737.5	0.020	0.000	21.3	8	-14.3	18.3	2.04	 .0725	23	1	100.0	1
02/25/24	13:52	-10.0	-10.0	-10.0	64	-15.5	9.6	NNW	0.16	10.4	NNW	-17.3	-10.2	-17.5	737.5	0.020	0.000	21.3	8	-14.3	18.3	2.04	 .0725	23	1	100.0	1
02/25/24	13:53	-10.0	-10.0	-10.0	63	-15.7	12.2	NNW	0.20	13.9	N	-18.3	-10.2	-18.4	737.5	0.020	0.000	21.3	8	-14.3	18.3	2.04	 .0725	24	1	100.0	1
02/25/24	13:54	-10.1	-10.1	-10.1	63	-15.8	11.3	N	0.19	13.0	N	-18.1	-10.2	-18.2	737.5	0.020	0.000	21.3	8	-14.3	18.3	2.04	 .0725	23	1	100.0	1
02/25/24	13:55	-10.1	-10.1	-10.1	62	-16.0	9.6	NNW	0.16	11.3	NNW	-17.5	-10.3	-17.7	737.5	0.020	0.000	21.3	8	-14.3	18.3	2.04	 .0725	24	1	100.0	1
02/25/24	13:56	-10.2	-10.1	-10.2	62	-16.1	7.0	NNW	0.12	9.6	NW	-16.3	-10.3	-16.5	737.5	0.020	0.000	21.3	8	-14.3	18.3	2.04	 .0725	23	1	100.0	1
02/25/24	13:57	-10.2	-10.2	-10.2	64	-15.7	10.4	NNW	0.17	13.0	NNW	-17.9	-10.4	-18.1	737.5	0.020	0.000	21.3	8	-14.3	18.3	2.04	 .0725	24	1	100.0	1
02/25/24	13:58	-10.2	-10.2	-10.2	65	-15.5	11.3	NNW	0.19	13.0	NNW	-18.2	-10.3	-18.3	737.5	0.020	0.000	21.3	8	-14.3	18.3	2.04	 .0725	23	1	100.0	1
02/25/24	13:59	-10.1	-10.1	-10.2	66	-15.3	10.4	NNW	0.17	12.2	NNW	-17.8	-10.3	-17.9	737.6	0.020	0.000	21.3	8	-14.3	18.3	2.04	 .0725	23	1	100.0	1
02/25/24	14:00	-10.2	-10.2	-10.2	65	-15.5	8.7	NNW	0.14	11.3	N	-17.2	-10.3	-17.4	737.6	0.020	0.000	21.3	8	-14.3	18.3	2.04	 .0725	24	1	100.0	1
02/25/24	14:01	-10.2	-10.2	-10.2	64	-15.7	10.4	N	0.17	11.3	N	-17.9	-10.4	-18.1	737.5	0.020	0.000	21.3	8	-14.4	18.2	2.04	 .0725	23	1	100.0	1
02/25/24	14:02	-10.3	-10.2	-10.3	65	-15.6	11.3	N	0.19	13.0	N	-18.3	-10.4	-18.5	737.5	0.020	0.000	21.3	8	-14.4	18.2	2.04	 .0725	24	1	100.0	1
02/25/24	14:03	-10.3	-10.3	-10.3	66	-15.4	12.2	N	0.20	13.9	N	-18.6	-10.4	-18.8	737.5	0.020	0.000	21.3	8	-14.3	18.3	2.04	 .0725	23	1	100.0	1
02/25/24	14:04	-10.3	-10.3	-10.3	66	-15.5	9.6	N	0.16	13.0	N	-17.8	-10.5	-17.9	737.5	0.020	0.000	21.3	8	-14.4	18.2	2.04	 .0725	23	1	100.0	1
02/25/24	14:05	-10.4	-10.3	-10.4	65	-15.7	10.4	N	0.17	14.8	N	-18.1	-10.6	-18.3	737.6	0.020	0.000	21.3	8	-14.4	18.2	2.04	 .0725	24	1	100.0	1
02/25/24	14:06	-10.4	-10.4	-10.4	64	-16.0	11.3	N	0.19	13.9	N	-18.5	-10.6	-18.7	737.6	0.020	0.000	21.3	8	-14.4	18.2	2.04	 .0725	23	1	100.0	1
02/25/24	14:07	-10.4	-10.4	-10.4	65	-15.8	9.6	N	0.16	11.3	NNW	-17.8	-10.6	-18.0	737.6	0.020	0.000	21.3	8	-14.4	18.2	2.04	 .0725	24	1	100.0	1
02/25/24	14:08	-10.4	-10.4	-10.4	67	-15.4	9.6	NNW	0.16	11.3	NNW	-17.8	-10.6	-18.0	737.5	0.020	0.000	21.3	8	-14.4	18.2	2.04	 .0725	23	1	100.0	1
02/25/24	14:09	-10.4	-10.4	-10.4	68	-15.2	9.6	NNW	0.16	10.4	NNW	-17.8	-10.6	-17.9	737.5	0.020	0.000	21.3	8	-14.4	18.2	2.04	 .0725	24	1	100.0	1
02/25/24	14:10	-10.3	-10.3	-10.3	68	-15.1	9.6	NNW	0.16	11.3	NNW	-17.8	-10.5	-17.9	737.5	0.020	0.000	21.3	8	-14.4	18.2	2.04	 .0725	23	1	100.0	1
02/25/24	14:11	-10.3	-10.3	-10.3	69	-14.9	9.6	N	0.16	10.4	NNW	-17.7	-10.4	-17.9	737.6	0.020	0.000	21.3	8	-14.4	18.2	2.04	 .0725	23	1	100.0	1
02/25/24	14:12	-10.3	-10.3	-10.3	68	-15.1	9.6	N	0.16	10.4	N	-17.7	-10.4	-17.9	737.5	0.020	0.000	21.3	8	-14.4	18.2	2.04	 .0725	24	1	100.0	1
02/25/24	14:13	-10.3	-10.3	-10.3	66	-15.4	6.1	N	0.10	8.7	N	-16.0	-10.4	-16.2	737.5	0.020	0.000	21.3	8	-14.4	18.2	2.04	 .0725	23	1	100.0	1
02/25/24	14:14	-10.3	-10.3	-10.3	66	-15.4	7.8	N	0.13	9.6	N	-16.9	-10.4	-17.1	737.5	0.020	0.000	21.3	8	-14.4	18.2	2.04	 .0725	24	1	100.0	1
02/25/24	14:15	-10.3	-10.3	-10.3	66	-15.5	10.4	N	0.17	11.3	N	-18.1	-10.5	-18.2	737.5	0.020	0.000	21.3	8	-14.4	18.2	2.04	 .0725	23	1	100.0	1
02/25/24	14:16	-10.4	-10.3	-10.4	65	-15.8	10.4	N	0.17	11.3	N	-18.2	-10.6	-18.4	737.5	0.020	0.000	21.3	8	-14.4	18.2	2.04	 .0725	23	1	100.0	1
02/25/24	14:17	-10.5	-10.4	-10.5	65	-15.8	9.6	N	0.16	11.3	N	-17.9	-10.7	-18.1	737.5	0.020	0.000	21.3	8	-14.4	18.2	2.04	 .0725	24	1	100.0	1
02/25/24	14:18	-10.6	-10.5	-10.6	64	-16.1	9.6	NNW	0.16	11.3	NNW	-18.0	-10.7	-18.2	737.6	0.020	0.000	21.3	8	-14.4	18.2	2.04	 .0725	23	1	100.0	1
02/25/24	14:19	-10.6	-10.6	-10.6	66	-15.7	9.6	NNW	0.16	10.4	NNW	-18.0	-10.7	-18.2	737.5	0.020	0.000	21.3	8	-14.4	18.2	2.04	 .0725	24	1	100.0	1
02/25/24	14:20	-10.6	-10.6	-10.6	67	-15.5	9.6	NNW	0.16	11.3	NNW	-18.0	-10.7	-18.2	737.5	0.020	0.000	21.3	8	-14.4	18.2	2.04	 .0725	23	1	100.0	1
02/25/24	14:21	-10.6	-10.6	-10.6	68	-15.3	8.7	NNW	0.14	9.6	NNW	-17.7	-10.7	-17.8	737.6	0.020	0.000	21.3	8	-14.4	18.2	2.04	 .0725	23	1	100.0	1
02/25/24	14:22	-10.6	-10.5	-10.6	67	-15.5	7.8	NNW	0.13	9.6	N	-17.3	-10.7	-17.4	737.5	0.020	0.000	21.3	8	-14.3	18.3	2.04	 .0725	24	1	100.0	1
02/25/24	14:23	-10.5	-10.5	-10.6	66	-15.6	5.2	N	0.09	7.0	NNW	-15.7	-10.7	-15.9	737.5	0.020	0.000	21.3	8	-14.3	18.3	2.04	 .0725	23	1	100.0	1
02/25/24	14:24	-10.6	-10.5	-10.6	65	-15.9	7.8	N	0.13	11.3	N	-17.3	-10.7	-17.4	737.5	0.020	0.000	21.3	8	-14.3	18.3	2.04	 .0725	24	1	100.0	1
02/25/24	14:25	-10.5	-10.5	-10.6	64	-16.0	10.4	N	0.17	11.3	N	-18.3	-10.7	-18.4	737.5	0.020	0.000	21.3	8	-14.3	18.3	2.04	 .0725	23	1	100.0	1
02/25/24	14:26	-10.5	-10.5	-10.6	63	-16.2	9.6	N	0.16	11.3	N	-17.9	-10.7	-18.1	737.5	0.020	0.000	21.3	8	-14.3	18.3	2.04	 .0725	24	1	100.0	1
02/25/24	14:27	-10.6	-10.6	-10.6	63	-16.2	8.7	N	0.14	10.4	N	-17.7	-10.7	-17.8	737.5	0.020	0.000	21.3	8	-14.3	18.3	2.04	 .0725	23	1	100.0	1
02/25/24	14:28	-10.6	-10.6	-10.6	64	-16.1	9.6	N	0.16	10.4	N	-18.0	-10.7	-18.2	737.6	0.020	0.000	21.4	8	-14.3	18.4	2.04	 .0725	23	1	100.0	1
02/25/24	14:29	-10.6	-10.6	-10.6	64	-16.1	7.8	N	0.13	9.6	N	-17.3	-10.7	-17.4	737.5	0.020	0.000	21.4	8	-14.3	18.4	2.04	 .0725	24	1	100.0	1
02/25/24	14:30	-10.6	-10.6	-10.6	64	-16.1	5.2	N	0.09	7.0	N	-15.8	-10.8	-16.0	737.5	0.020	0.000	21.4	8	-14.3	18.4	2.04	 .0725	23	1	100.0	1
02/25/24	14:31	-10.7	-10.6	-10.7	65	-16.0	6.1	N	0.10	7.8	NNW	-16.4	-10.8	-16.6	737.5	0.020	0.000	21.4	8	-14.3	18.4	2.04	 .0725	24	1	100.0	1
02/25/24	14:32	-10.7	-10.7	-10.7	65	-16.0	7.0	N	0.12	8.7	N	-16.9	-10.8	-17.1	737.5	0.020	0.000	21.4	8	-14.3	18.4	2.04	 .0725	23	1	100.0	1
02/25/24	14:33	-10.7	-10.6	-10.7	66	-15.8	8.7	N	0.14	9.6	N	-17.8	-10.8	-17.9	737.5	0.020	0.000	21.4	8	-14.3	18.4	2.04	 .0725	23	1	100.0	1
02/25/24	14:34	-10.6	-10.6	-10.6	66	-15.7	7.8	NNE	0.13	8.7	N	-17.3	-10.8	-17.5	737.5	0.020	0.000	21.4	8	-14.3	18.4	2.04	 .0725	24	1	100.0	1
02/25/24	14:35	-10.6	-10.6	-10.6	66	-15.7	7.8	NNE	0.13	8.7	N	-17.3	-10.8	-17.5	737.4	0.020	0.000	21.4	8	-14.3	18.4	2.04	 .0725	23	1	100.0	1
02/25/24	14:36	-10.6	-10.6	-10.6	65	-15.9	7.8	N	0.13	8.7	N	-17.3	-10.8	-17.5	737.5	0.020	0.000	21.4	8	-14.3	18.4	2.04	 .0725	24	1	100.0	1
02/25/24	14:37	-10.7	-10.6	-10.7	65	-16.0	8.7	N	0.14	9.6	N	-17.8	-10.8	-17.9	737.5	0.020	0.000	21.4	8	-14.3	18.4	2.04	 .0725	23	1	100.0	1
02/25/24	14:38	-10.6	-10.6	-10.7	65	-15.9	7.0	N	0.12	8.7	N	-16.9	-10.8	-17.1	737.5	0.020	0.000	21.4	8	-14.3	18.4	2.04	 .0725	24	1	100.0	1
02/25/24	14:39	-10.6	-10.6	-10.6	66	-15.7	7.0	N	0.12	7.8	N	-16.9	-10.8	-17.1	737.5	0.020	0.000	21.4	8	-14.3	18.4	2.04	 .0725	23	1	100.0	1
02/25/24	14:40	-10.6	-10.6	-10.6	66	-15.7	7.0	N	0.12	8.7	N	-16.8	-10.7	-17.0	737.5	0.020	0.000	21.4	8	-14.3	18.4	2.04	 .0725	23	1	100.0	1
02/25/24	14:41	-10.5	-10.5	-10.6	66	-15.6	5.2	NNW	0.09	7.0	N	-15.7	-10.7	-15.9	737.5	0.020	0.000	21.4	8	-14.3	18.4	2.04	 .0725	24	1	100.0	1
02/25/24	14:42	-10.4	-10.4	-10.5	67	-15.4	7.0	N	0.12	8.7	N	-16.7	-10.6	-16.8	737.5	0.020	0.000	21.4	8	-14.3	18.4	2.04	 .0725	23	1	100.0	1
02/25/24	14:43	-10.4	-10.4	-10.4	67	-15.3	7.8	N	0.13	8.7	N	-17.1	-10.6	-17.2	737.5	0.020	0.000	21.4	8	-14.3	18.4	2.04	 .0725	24	1	100.0	1
02/25/24	14:44	-10.3	-10.3	-10.4	67	-15.3	6.1	NNW	0.10	7.8	N	-16.1	-10.5	-16.2	737.5	0.020	0.000	21.3	8	-14.3	18.3	2.04	 .0725	23	1	100.0	1
02/25/24	14:45	-10.3	-10.3	-10.3	67	-15.3	5.2	NNW	0.09	7.0	N	-15.5	-10.5	-15.7	737.5	0.020	0.000	21.4	8	-14.3	18.4	2.04	 .0725	23	1	100.0	1
02/25/24	14:46	-10.3	-10.3	-10.3	67	-15.3	5.2	NNW	0.09	7.0	NNW	-15.5	-10.5	-15.7	737.5	0.020	0.000	21.3	8	-14.3	18.3	2.04	 .0725	24	1	100.0	1
02/25/24	14:47	-10.3	-10.3	-10.3	67	-15.3	7.0	NNW	0.12	8.7	NNW	-16.6	-10.5	-16.7	737.5	0.020	0.000	21.3	8	-14.3	18.3	2.04	 .0725	23	1	100.0	1
02/25/24	14:48	-10.3	-10.3	-10.3	67	-15.3	7.8	NNW	0.13	8.7	NNW	-17.0	-10.5	-17.2	737.5	0.020	0.000	21.3	8	-14.3	18.3	2.04	 .0725	24	1	100.0	1
02/25/24	14:49	-10.3	-10.3	-10.3	67	-15.3	7.0	NNW	0.12	7.8	NNW	-16.6	-10.5	-16.7	737.5	0.020	0.000	21.3	8	-14.3	18.3	2.04	 .0725	23	1	100.0	1
02/25/24	14:50	-10.3	-10.3	-10.3	67	-15.3	7.0	NNW	0.12	7.8	NNW	-16.6	-10.5	-16.7	737.5	0.020	0.000	21.3	8	-14.3	18.3	2.04	 .0725	24	1	100.0	1
02/25/24	14:51	-10.3	-10.3	-10.3	67	-15.3	5.2	NNW	0.09	7.0	NNW	-15.5	-10.5	-15.7	737.5	0.020	0.000	21.3	8	-14.4	18.2	2.04	 .0725	23	1	100.0	1
02/25/24	14:52	-10.3	-10.3	-10.3	67	-15.3	6.1	NNW	0.10	7.8	NNW	-16.1	-10.5	-16.2	737.5	0.020	0.000	21.3	8	-14.4	18.2	2.04	 .0725	23	1	100.0	1
02/25/24	14:53	-10.3	-10.3	-10.4	66	-15.5	7.0	NNW	0.12	7.8	NNW	-16.6	-10.5	-16.7	737.5	0.020	0.000	21.3	8	-14.4	18.2	2.04	 .0725	24	1	100.0	1
02/25/24	14:54	-10.3	-10.3	-10.3	66	-15.5	6.1	NNW	0.10	7.8	NNW	-16.1	-10.5	-16.2	737.5	0.020	0.000	21.3	8	-14.4	18.2	2.04	 .0725	23	1	100.0	1
02/25/24	14:55	-10.4	-10.3	-10.4	66	-15.5	5.2	NNW	0.09	7.0	NNW	-15.6	-10.6	-15.7	737.5	0.020	0.000	21.3	8	-14.4	18.2	2.04	 .0725	24	1	100.0	1
02/25/24	14:56	-10.4	-10.3	-10.4	66	-15.5	5.2	N	0.09	7.0	N	-15.6	-10.6	-15.7	737.4	0.020	0.000	21.3	8	-14.4	18.2	2.04	 .0725	23	1	100.0	1
02/25/24	14:57	-10.4	-10.4	-10.4	66	-15.5	6.1	NNW	0.10	7.8	N	-16.1	-10.6	-16.3	737.5	0.020	0.000	21.3	8	-14.4	18.2	2.04	 .0725	23	1	100.0	1
02/25/24	14:58	-10.4	-10.4	-10.4	66	-15.5	5.2	N	0.09	7.0	N	-15.6	-10.6	-15.7	737.5	0.020	0.000	21.3	8	-14.4	18.2	2.04	 .0725	24	1	100.0	1
02/25/24	14:59	-10.4	-10.4	-10.4	66	-15.6	4.3	NNW	0.07	5.2	NNW	-15.0	-10.6	-15.2	737.5	0.020	0.000	21.3	8	-14.4	18.2	2.04	 .0725	23	1	100.0	1
02/25/24	15:00	-10.4	-10.4	-10.4	67	-15.4	4.3	NNW	0.07	5.2	NNW	-15.0	-10.6	-15.2	737.5	0.020	0.000	21.3	8	-14.4	18.2	2.04	 .0725	24	1	100.0	1
02/25/24	15:01	-10.5	-10.4	-10.5	67	-15.5	4.3	NNW	0.07	7.0	NNW	-15.1	-10.7	-15.2	737.5	0.020	0.000	21.3	8	-14.4	18.2	2.04	 .0725	23	1	100.0	1
02/25/24	15:02	-10.5	-10.5	-10.5	68	-15.3	4.3	NNW	0.07	5.2	NNW	-15.1	-10.7	-15.2	737.5	0.020	0.000	21.3	8	-14.4	18.2	2.04	 .0725	24	1	100.0	1
02/25/24	15:03	-10.6	-10.5	-10.6	68	-15.3	5.2	NNW	0.09	7.0	NNW	-15.8	-10.7	-15.9	737.5	0.020	0.000	21.3	8	-14.4	18.2	2.04	 .0725	23	1	100.0	1
02/25/24	15:04	-10.6	-10.6	-10.6	68	-15.3	5.2	NNW	0.09	7.0	NNW	-15.8	-10.7	-15.9	737.5	0.020	0.000	21.3	8	-14.3	18.3	2.04	 .0725	23	1	100.0	1
02/25/24	15:05	-10.6	-10.6	-10.6	68	-15.4	5.2	NNW	0.09	7.0	NNW	-15.8	-10.8	-16.0	737.5	0.020	0.000	21.3	8	-14.3	18.3	2.04	 .0725	24	1	100.0	1
02/25/24	15:06	-10.6	-10.6	-10.6	68	-15.4	4.3	NNW	0.07	5.2	NNW	-15.2	-10.8	-15.4	737.5	0.020	0.000	21.3	8	-14.3	18.3	2.04	 .0725	23	1	100.0	1
02/25/24	15:07	-10.6	-10.6	-10.6	68	-15.4	4.3	NNW	0.07	5.2	NNW	-15.2	-10.8	-15.4	737.5	0.020	0.000	21.3	8	-14.3	18.3	2.04	 .0725	24	1	100.0	1
02/25/24	15:08	-10.6	-10.6	-10.6	68	-15.4	4.3	NNW	0.07	5.2	NNW	-15.2	-10.8	-15.4	737.5	0.020	0.000	21.3	8	-14.3	18.3	2.04	 .0725	23	1	100.0	1
02/25/24	15:09	-10.6	-10.6	-10.6	68	-15.4	4.3	NNW	0.07	5.2	NNW	-15.2	-10.8	-15.4	737.5	0.020	0.000	21.3	8	-14.3	18.3	2.04	 .0725	23	1	100.0	1
02/25/24	15:10	-10.6	-10.6	-10.6	68	-15.3	3.5	NNW	0.06	4.3	NNW	-14.4	-10.7	-14.6	737.4	0.020	0.000	21.4	8	-14.3	18.4	2.04	 .0725	24	1	100.0	1
02/25/24	15:11	-10.6	-10.6	-10.6	68	-15.3	2.6	NNW	0.04	3.5	NNW	-13.4	-10.7	-13.6	737.5	0.020	0.000	21.4	8	-14.3	18.4	2.04	 .0725	23	1	100.0	1
02/25/24	15:12	-10.6	-10.6	-10.6	68	-15.3	2.6	NNW	0.04	4.3	NNW	-13.4	-10.7	-13.6	737.4	0.020	0.000	21.4	8	-14.3	18.4	2.04	 .0725	24	1	100.0	1
02/25/24	15:13	-10.6	-10.6	-10.6	68	-15.3	2.6	NNW	0.04	4.3	NNW	-13.4	-10.7	-13.6	737.5	0.020	0.000	21.4	8	-14.3	18.4	2.04	 .0725	23	1	100.0	1
02/25/24	15:14	-10.6	-10.6	-10.6	68	-15.3	4.3	NNW	0.07	7.0	N	-15.1	-10.7	-15.3	737.5	0.020	0.000	21.4	8	-14.3	18.4	2.04	 .0725	23	1	100.0	1
02/25/24	15:15	-10.6	-10.6	-10.6	68	-15.3	5.2	N	0.09	7.0	NNW	-15.8	-10.7	-15.9	737.5	0.020	0.000	21.4	8	-14.3	18.4	2.04	 .0725	24	1	100.0	1
02/25/24	15:16	-10.6	-10.6	-10.6	68	-15.3	5.2	N	0.09	7.0	NNW	-15.8	-10.7	-15.9	737.5	0.020	0.000	21.4	8	-14.3	18.4	2.04	 .0725	23	1	100.0	1
02/25/24	15:17	-10.6	-10.6	-10.6	68	-15.3	2.6	N	0.04	4.3	N	-13.4	-10.7	-13.6	737.5	0.020	0.000	21.4	8	-14.3	18.4	2.04	 .0725	24	1	100.0	1
02/25/24	15:18	-10.6	-10.6	-10.6	68	-15.3	1.7	NNW	0.03	2.6	NNW	-12.2	-10.7	-12.3	737.5	0.020	0.000	21.4	8	-14.3	18.4	2.04	 .0725	23	1	100.0	1
02/25/24	15:19	-10.6	-10.6	-10.6	68	-15.3	3.5	N	0.06	3.5	N	-14.4	-10.7	-14.6	737.5	0.020	0.000	21.4	8	-14.3	18.4	2.04	 .0725	24	1	100.0	1
02/25/24	15:20	-10.6	-10.6	-10.6	68	-15.3	3.5	N	0.06	6.1	N	-14.4	-10.7	-14.6	737.5	0.020	0.000	21.4	8	-14.3	18.4	2.04	 .0725	23	1	100.0	1
02/25/24	15:21	-10.6	-10.6	-10.6	68	-15.4	4.3	N	0.07	7.0	N	-15.2	-10.8	-15.4	737.5	0.020	0.000	21.4	8	-14.3	18.4	2.04	 .0725	23	1	100.0	1
02/25/24	15:22	-10.6	-10.6	-10.6	68	-15.4	6.1	NNW	0.10	7.8	NNW	-16.4	-10.8	-16.6	737.5	0.020	0.000	21.4	8	-14.3	18.4	2.04	 .0725	24	1	100.0	1
02/25/24	15:23	-10.6	-10.6	-10.6	68	-15.3	4.3	NNW	0.07	5.2	NNW	-15.1	-10.7	-15.3	737.5	0.020	0.000	21.4	8	-14.3	18.4	2.04	 .0725	23	1	100.0	1
02/25/24	15:24	-10.6	-10.6	-10.6	68	-15.3	3.5	NW	0.06	5.2	NW	-14.4	-10.7	-14.6	737.5	0.020	0.000	21.4	8	-14.3	18.4	2.04	 .0725	24	1	100.0	1
02/25/24	15:25	-10.5	-10.5	-10.6	69	-15.1	2.6	NW	0.04	4.3	NW	-13.4	-10.7	-13.6	737.5	0.020	0.000	21.4	8	-14.3	18.4	2.04	 .0725	23	1	100.0	1
02/25/24	15:26	-10.5	-10.5	-10.5	69	-15.1	3.5	NW	0.06	5.2	NNW	-14.3	-10.7	-14.5	737.5	0.020	0.000	21.4	8	-14.3	18.4	2.04	 .0725	23	1	100.0	1
02/25/24	15:27	-10.5	-10.5	-10.5	69	-15.1	1.7	NW	0.03	2.6	NW	-12.1	-10.7	-12.3	737.5	0.020	0.000	21.4	8	-14.3	18.4	2.04	 .0725	24	1	100.0	1
02/25/24	15:28	-10.5	-10.5	-10.5	69	-15.1	1.7	NW	0.03	2.6	NW	-12.1	-10.7	-12.3	737.5	0.020	0.000	21.4	8	-14.3	18.4	2.04	 .0725	23	1	100.0	1
02/25/24	15:29	-10.5	-10.5	-10.5	70	-14.9	2.6	NW	0.04	3.5	W	-13.4	-10.7	-13.6	737.4	0.020	0.000	21.4	8	-14.3	18.4	2.04	 .0725	24	1	100.0	1
02/25/24	15:30	-10.4	-10.4	-10.5	70	-14.9	0.9	SW	0.01	2.6	SW	-10.4	-10.6	-10.6	737.4	0.020	0.000	21.3	8	-14.3	18.3	2.04	 .0725	23	1	100.0	1
02/25/24	15:31	-10.4	-10.4	-10.5	70	-14.9	0.0	SW	0.00	0.9	SW	-10.4	-10.6	-10.6	737.4	0.020	0.000	21.3	8	-14.3	18.3	2.04	 .0725	24	1	100.0	1
02/25/24	15:32	-10.4	-10.4	-10.4	71	-14.7	0.9	SW	0.01	1.7	SW	-10.4	-10.6	-10.6	737.4	0.020	0.000	21.3	8	-14.3	18.3	2.04	 .0725	23	1	100.0	1
02/25/24	15:33	-10.4	-10.4	-10.4	71	-14.7	0.9	SW	0.01	1.7	SW	-10.4	-10.6	-10.6	737.5	0.020	0.000	21.3	8	-14.3	18.3	2.04	 .0725	23	1	100.0	1
02/25/24	15:34	-10.4	-10.4	-10.4	70	-14.9	0.0	---	0.00	0.0	---	-10.4	-10.6	-10.6	737.5	0.020	0.000	21.3	8	-14.3	18.3	2.04	 .0725	24	1	100.0	1
02/25/24	15:35	-10.5	-10.4	-10.5	70	-14.9	0.0	SW	0.00	0.9	SW	-10.5	-10.7	-10.7	737.5	0.020	0.000	21.3	8	-14.3	18.3	2.04	 .0725	23	1	100.0	1
02/25/24	15:36	-10.5	-10.5	-10.5	70	-14.9	0.9	SW	0.01	0.9	SW	-10.5	-10.7	-10.7	737.5	0.020	0.000	21.3	8	-14.3	18.3	2.04	 .0725	24	1	100.0	1
02/25/24	15:37	-10.6	-10.5	-10.6	70	-15.0	1.7	SW	0.03	3.5	SW	-12.2	-10.7	-12.3	737.5	0.020	0.000	21.3	8	-14.4	18.2	2.04	 .0725	23	1	100.0	1
02/25/24	15:38	-10.6	-10.6	-10.6	70	-15.0	1.7	SW	0.03	2.6	SW	-12.2	-10.7	-12.3	737.4	0.020	0.000	21.3	8	-14.4	18.2	2.04	 .0725	23	1	100.0	1
02/25/24	15:39	-10.6	-10.6	-10.6	71	-14.9	1.7	SSW	0.03	1.7	SW	-12.2	-10.8	-12.4	737.4	0.020	0.000	21.3	8	-14.4	18.2	2.04	 .0725	24	1	100.0	1
02/25/24	15:40	-10.7	-10.6	-10.7	71	-14.9	1.7	SSW	0.03	2.6	SSW	-12.3	-10.8	-12.4	737.4	0.020	0.000	21.3	8	-14.4	18.2	2.04	 .0725	23	1	100.0	1
02/25/24	15:41	-10.7	-10.6	-10.7	71	-14.9	1.7	SSW	0.03	2.6	SSW	-12.3	-10.8	-12.4	737.4	0.020	0.000	21.3	8	-14.4	18.2	2.04	 .0725	24	1	100.0	1
02/25/24	15:42	-10.7	-10.7	-10.7	71	-15.0	1.7	SSW	0.03	1.7	SSW	-12.3	-10.9	-12.5	737.4	0.020	0.000	21.3	8	-14.4	18.2	2.04	 .0725	23	1	100.0	1
02/25/24	15:43	-10.7	-10.7	-10.7	71	-15.0	1.7	WSW	0.03	2.6	WSW	-12.3	-10.9	-12.5	737.5	0.020	0.000	21.3	8	-14.4	18.2	2.04	 .0725	24	1	100.0	1
02/25/24	15:44	-10.7	-10.7	-10.7	72	-14.8	3.5	W	0.06	6.1	W	-14.6	-10.8	-14.7	737.4	0.020	0.000	21.3	8	-14.4	18.2	2.04	 .0725	23	1	100.0	1
02/25/24	15:45	-10.7	-10.7	-10.7	72	-14.7	5.2	WNW	0.09	6.1	WNW	-15.9	-10.8	-16.0	737.4	0.020	0.000	21.3	8	-14.4	18.2	2.04	 .0725	23	1	100.0	1
02/25/24	15:46	-10.6	-10.6	-10.7	72	-14.7	4.3	W	0.07	5.2	W	-15.2	-10.8	-15.4	737.5	0.020	0.000	21.3	8	-14.4	18.2	2.04	 .0725	24	1	100.0	1
02/25/24	15:47	-10.6	-10.6	-10.6	72	-14.6	5.2	WNW	0.09	6.1	WNW	-15.8	-10.7	-15.9	737.5	0.020	0.000	21.3	8	-14.4	18.2	2.04	 .0725	23	1	100.0	1
02/25/24	15:48	-10.6	-10.6	-10.6	72	-14.6	4.3	WNW	0.07	6.1	WNW	-15.1	-10.7	-15.3	737.5	0.020	0.000	21.3	8	-14.4	18.2	2.04	 .0725	24	1	100.0	1
02/25/24	15:49	-10.5	-10.5	-10.5	73	-14.4	7.0	WNW	0.12	9.6	WNW	-16.8	-10.6	-16.9	737.5	0.020	0.000	21.3	8	-14.4	18.2	2.04	 .0725	23	1	100.0	1
02/25/24	15:50	-10.4	-10.4	-10.5	72	-14.5	6.1	WNW	0.10	8.7	WNW	-16.2	-10.6	-16.4	737.5	0.020	0.000	21.3	8	-14.4	18.2	2.04	 .0725	23	1	100.0	1
02/25/24	15:51	-10.4	-10.4	-10.4	72	-14.5	7.0	WNW	0.12	7.8	WNW	-16.7	-10.6	-16.8	737.4	0.020	0.000	21.3	8	-14.4	18.2	2.04	 .0725	24	1	100.0	1
02/25/24	15:52	-10.4	-10.4	-10.4	72	-14.5	7.8	W	0.13	8.7	W	-17.1	-10.6	-17.2	737.4	0.020	0.000	21.3	8	-14.3	18.3	2.04	 .0725	23	1	100.0	1
02/25/24	15:53	-10.4	-10.4	-10.4	72	-14.5	6.1	WNW	0.10	9.6	W	-16.1	-10.6	-16.3	737.4	0.020	0.000	21.3	8	-14.4	18.2	2.04	 .0725	24	1	100.0	1
02/25/24	15:54	-10.3	-10.3	-10.4	72	-14.4	7.8	WSW	0.13	9.6	W	-17.0	-10.5	-17.2	737.4	0.020	0.000	21.3	8	-14.3	18.3	2.04	 .0725	23	1	100.0	1
02/25/24	15:55	-10.3	-10.3	-10.4	72	-14.4	7.8	W	0.13	8.7	WSW	-17.0	-10.5	-17.2	737.4	0.020	0.000	21.3	8	-14.3	18.3	2.04	 .0725	23	1	100.0	1
02/25/24	15:56	-10.3	-10.3	-10.3	72	-14.4	7.0	WNW	0.12	7.8	W	-16.6	-10.5	-16.7	737.4	0.020	0.000	21.4	8	-14.3	18.4	2.04	 .0725	24	1	100.0	1
02/25/24	15:57	-10.3	-10.3	-10.3	72	-14.4	7.0	WNW	0.12	10.4	WNW	-16.6	-10.5	-16.7	737.4	0.020	0.000	21.4	8	-14.3	18.4	2.04	 .0725	23	1	100.0	1
02/25/24	15:58	-10.3	-10.3	-10.3	71	-14.6	5.2	WNW	0.09	7.0	WNW	-15.5	-10.5	-15.7	737.4	0.020	0.000	21.4	8	-14.3	18.4	2.04	 .0725	24	1	100.0	1
02/25/24	15:59	-10.3	-10.3	-10.3	71	-14.6	5.2	W	0.09	6.1	W	-15.5	-10.5	-15.7	737.4	0.020	0.000	21.4	8	-14.3	18.4	2.04	 .0725	23	1	100.0	1
02/25/24	16:00	-10.3	-10.3	-10.3	71	-14.6	6.1	WSW	0.10	7.0	WSW	-16.1	-10.5	-16.2	737.4	0.020	0.000	21.4	8	-14.3	18.4	2.04	 .0725	24	1	100.0	1
02/25/24	16:01	-10.3	-10.3	-10.3	71	-14.6	6.1	WSW	0.10	7.8	WSW	-16.1	-10.5	-16.2	737.4	0.020	0.000	21.4	8	-14.3	18.4	2.04	 .0725	23	1	100.0	1
02/25/24	16:02	-10.4	-10.3	-10.4	71	-14.6	7.8	WSW	0.13	10.4	W	-17.1	-10.6	-17.2	737.4	0.020	0.000	21.4	8	-14.3	18.4	2.04	 .0725	23	1	100.0	1
02/25/24	16:03	-10.4	-10.4	-10.4	72	-14.5	9.6	W	0.16	11.3	W	-17.8	-10.6	-17.9	737.4	0.020	0.000	21.4	8	-14.3	18.4	2.04	 .0725	24	1	100.0	1
02/25/24	16:04	-10.4	-10.4	-10.4	72	-14.5	8.7	W	0.14	10.4	W	-17.5	-10.6	-17.7	737.4	0.020	0.000	21.4	8	-14.3	18.4	2.04	 .0725	23	1	100.0	1
02/25/24	16:05	-10.4	-10.4	-10.4	72	-14.5	6.1	W	0.10	7.0	W	-16.1	-10.6	-16.3	737.4	0.020	0.000	21.5	8	-14.2	18.6	2.04	 .0724	24	1	100.0	1
02/25/24	16:06	-10.4	-10.4	-10.4	72	-14.5	6.1	W	0.10	7.0	W	-16.1	-10.6	-16.3	737.4	0.020	0.000	21.5	8	-14.2	18.6	2.04	 .0724	23	1	100.0	1
02/25/24	16:07	-10.4	-10.4	-10.4	72	-14.5	5.2	W	0.09	6.1	W	-15.6	-10.6	-15.7	737.4	0.020	0.000	21.5	8	-14.2	18.6	2.04	 .0725	24	1	100.0	1
02/25/24	16:08	-10.4	-10.4	-10.4	72	-14.5	6.1	W	0.10	7.0	W	-16.2	-10.6	-16.4	737.4	0.020	0.000	21.6	8	-14.2	18.7	2.03	 .0724	23	1	100.0	1
02/25/24	16:09	-10.4	-10.4	-10.4	72	-14.5	6.1	WSW	0.10	7.8	W	-16.2	-10.6	-16.4	737.4	0.020	0.000	21.6	8	-14.2	18.7	2.03	 .0724	23	1	100.0	1
02/25/24	16:10	-10.4	-10.4	-10.4	72	-14.5	5.2	WSW	0.09	7.0	WSW	-15.7	-10.6	-15.8	737.5	0.020	0.000	21.6	8	-14.2	18.7	2.03	 .0724	24	1	100.0	1
02/25/24	16:11	-10.4	-10.4	-10.4	72	-14.5	4.3	W	0.07	7.0	W	-15.0	-10.6	-15.2	737.4	0.020	0.000	21.6	8	-14.2	18.7	2.03	 .0724	23	1	100.0	1
02/25/24	16:12	-10.4	-10.4	-10.4	72	-14.5	5.2	WNW	0.09	7.0	NW	-15.7	-10.6	-15.8	737.4	0.020	0.000	21.6	8	-14.2	18.7	2.03	 .0724	24	1	100.0	1
02/25/24	16:13	-10.4	-10.4	-10.4	72	-14.5	5.2	WNW	0.09	6.1	WNW	-15.7	-10.6	-15.8	737.4	0.020	0.000	21.6	8	-14.1	18.7	2.03	 .0724	23	1	100.0	1
02/25/24	16:14	-10.4	-10.4	-10.4	72	-14.5	6.1	W	0.10	7.0	WNW	-16.2	-10.6	-16.4	737.4	0.020	0.000	21.6	8	-14.1	18.7	2.03	 .0724	23	1	100.0	1
02/25/24	16:15	-10.5	-10.4	-10.5	72	-14.6	6.1	W	0.10	7.0	W	-16.3	-10.7	-16.4	737.3	0.020	0.000	21.6	8	-14.1	18.7	2.03	 .0724	24	1	100.0	1
02/25/24	16:16	-10.5	-10.4	-10.5	72	-14.6	3.5	W	0.06	5.2	W	-14.3	-10.7	-14.5	737.4	0.020	0.000	21.6	8	-14.1	18.7	2.03	 .0724	23	1	100.0	1
02/25/24	16:17	-10.5	-10.4	-10.5	72	-14.6	3.5	W	0.06	5.2	W	-14.3	-10.7	-14.5	737.3	0.020	0.000	21.6	8	-14.1	18.7	2.03	 .0724	24	1	100.0	1
02/25/24	16:18	-10.5	-10.5	-10.5	72	-14.6	7.0	W	0.12	8.7	W	-16.8	-10.7	-16.9	737.4	0.020	0.000	21.6	8	-14.1	18.7	2.03	 .0724	23	1	100.0	1
02/25/24	16:19	-10.6	-10.5	-10.6	72	-14.6	6.1	W	0.10	7.0	WNW	-16.3	-10.7	-16.5	737.3	0.020	0.000	21.6	8	-14.1	18.7	2.03	 .0724	23	1	100.0	1
02/25/24	16:20	-10.6	-10.6	-10.6	72	-14.6	7.0	WNW	0.12	8.7	WNW	-16.8	-10.7	-17.0	737.4	0.020	0.000	21.6	8	-14.1	18.7	2.03	 .0724	24	1	100.0	1
02/25/24	16:21	-10.6	-10.6	-10.6	72	-14.7	8.7	WNW	0.14	9.6	WNW	-17.7	-10.8	-17.9	737.4	0.020	0.000	21.6	8	-14.1	18.7	2.03	 .0724	23	1	100.0	1
02/25/24	16:22	-10.6	-10.6	-10.6	72	-14.6	8.7	W	0.14	10.4	W	-17.7	-10.7	-17.8	737.4	0.020	0.000	21.6	8	-14.1	18.7	2.03	 .0724	24	1	100.0	1
02/25/24	16:23	-10.6	-10.6	-10.6	72	-14.6	6.1	W	0.10	7.0	W	-16.3	-10.7	-16.5	737.3	0.020	0.000	21.6	8	-14.2	18.7	2.03	 .0724	23	1	100.0	1
02/25/24	16:24	-10.6	-10.6	-10.6	72	-14.6	6.1	WNW	0.10	6.1	WNW	-16.3	-10.7	-16.5	737.4	0.020	0.000	21.6	8	-14.2	18.7	2.03	 .0724	24	1	100.0	1
02/25/24	16:25	-10.6	-10.6	-10.6	71	-14.9	6.1	WNW	0.10	7.8	WNW	-16.4	-10.8	-16.6	737.3	0.020	0.000	21.6	8	-14.2	18.7	2.03	 .0724	23	1	100.0	1
02/25/24	16:26	-10.7	-10.6	-10.7	71	-14.9	7.0	WNW	0.12	8.7	NW	-16.9	-10.8	-17.1	737.3	0.020	0.000	21.5	8	-14.2	18.6	2.04	 .0724	23	1	100.0	1
02/25/24	16:27	-10.7	-10.7	-10.7	71	-15.0	7.0	WNW	0.12	8.7	WNW	-17.1	-10.9	-17.2	737.3	0.020	0.000	21.6	8	-14.2	18.7	2.03	 .0724	24	1	100.0	1
02/25/24	16:28	-10.7	-10.7	-10.7	71	-15.0	8.7	NW	0.14	12.2	NW	-17.8	-10.9	-18.0	737.3	0.020	0.000	21.5	8	-14.2	18.6	2.04	 .0724	23	1	100.0	1
02/25/24	16:29	-10.7	-10.7	-10.7	72	-14.8	9.6	NW	0.16	11.3	NW	-18.2	-10.8	-18.3	737.3	0.020	0.000	21.5	8	-14.2	18.6	2.04	 .0724	24	1	100.0	1
02/25/24	16:30	-10.7	-10.7	-10.7	72	-14.7	7.8	NW	0.13	8.7	NW	-17.4	-10.8	-17.5	737.3	0.020	0.000	21.5	8	-14.2	18.6	2.04	 .0724	23	1	100.0	1
02/25/24	16:31	-10.7	-10.7	-10.7	72	-14.7	7.0	WNW	0.12	7.8	WNW	-16.9	-10.8	-17.1	737.3	0.020	0.000	21.4	8	-14.3	18.4	2.04	 .0725	23	1	100.0	1
02/25/24	16:32	-10.7	-10.6	-10.7	72	-14.7	7.0	WNW	0.12	7.8	WNW	-16.9	-10.8	-17.1	737.3	0.020	0.000	21.4	8	-14.3	18.4	2.04	 .0725	24	1	100.0	1
02/25/24	16:33	-10.7	-10.7	-10.7	72	-14.7	7.8	WNW	0.13	8.7	WNW	-17.4	-10.8	-17.5	737.3	0.020	0.000	21.4	8	-14.3	18.4	2.04	 .0725	23	1	100.0	1
02/25/24	16:34	-10.7	-10.7	-10.7	72	-14.7	7.0	WNW	0.12	7.8	WNW	-16.9	-10.8	-17.1	737.3	0.020	0.000	21.4	8	-14.3	18.4	2.04	 .0725	24	1	100.0	1
02/25/24	16:35	-10.7	-10.6	-10.7	72	-14.7	6.1	WNW	0.10	7.8	WNW	-16.4	-10.8	-16.6	737.3	0.020	0.000	21.4	8	-14.3	18.4	2.04	 .0725	23	1	100.0	1
02/25/24	16:36	-10.7	-10.7	-10.7	71	-14.9	7.8	WNW	0.13	9.6	WNW	-17.4	-10.8	-17.6	737.3	0.020	0.000	21.4	8	-14.3	18.4	2.04	 .0725	24	1	100.0	1
02/25/24	16:37	-10.8	-10.7	-10.8	71	-15.0	7.8	WNW	0.13	9.6	WNW	-17.6	-10.9	-17.7	737.3	0.020	0.000	21.4	8	-14.3	18.4	2.04	 .0725	23	1	100.0	1
02/25/24	16:38	-10.8	-10.8	-10.8	71	-15.0	8.7	WNW	0.14	10.4	WNW	-17.9	-10.9	-18.0	737.3	0.020	0.000	21.4	8	-14.3	18.4	2.04	 .0725	23	1	100.0	1
02/25/24	16:39	-10.8	-10.8	-10.8	70	-15.2	6.1	WNW	0.10	7.8	WNW	-16.7	-10.9	-16.8	737.2	0.020	0.000	21.3	8	-14.3	18.3	2.04	 .0725	24	1	100.0	1
02/25/24	16:40	-10.8	-10.8	-10.9	70	-15.2	7.8	WNW	0.13	8.7	WNW	-17.6	-10.9	-17.7	737.2	0.020	0.000	21.3	8	-14.3	18.3	2.04	 .0725	23	1	100.0	1
02/25/24	16:41	-10.8	-10.8	-10.8	70	-15.2	10.4	WNW	0.17	12.2	WNW	-18.7	-10.9	-18.8	737.2	0.020	0.000	21.3	8	-14.3	18.3	2.04	 .0725	24	1	100.0	1
02/25/24	16:42	-10.8	-10.8	-10.8	69	-15.4	11.3	WNW	0.19	12.2	WNW	-19.0	-11.0	-19.2	737.2	0.020	0.000	21.3	8	-14.3	18.3	2.04	 .0725	23	1	100.0	1
02/25/24	16:43	-10.8	-10.8	-10.9	69	-15.4	8.7	W	0.14	9.6	WNW	-17.9	-11.0	-18.1	737.2	0.020	0.000	21.3	8	-14.3	18.3	2.04	 .0725	23	1	100.0	1
02/25/24	16:44	-10.8	-10.8	-10.9	69	-15.4	8.7	W	0.14	11.3	W	-17.9	-11.0	-18.1	737.2	0.020	0.000	21.3	8	-14.3	18.3	2.04	 .0725	24	1	100.0	1
02/25/24	16:45	-10.8	-10.8	-10.8	69	-15.4	7.8	W	0.13	8.7	WNW	-17.6	-10.9	-17.7	737.1	0.020	0.000	21.3	8	-14.3	18.3	2.04	 .0725	23	1	100.0	1
02/25/24	16:46	-10.8	-10.8	-10.8	69	-15.4	9.6	WNW	0.16	11.3	WNW	-18.3	-10.9	-18.4	737.2	0.020	0.000	21.3	8	-14.3	18.3	2.04	 .0725	24	1	100.0	1
02/25/24	16:47	-10.8	-10.8	-10.8	69	-15.4	9.6	WNW	0.16	11.3	WNW	-18.3	-10.9	-18.4	737.2	0.020	0.000	21.3	8	-14.3	18.3	2.04	 .0725	23	1	100.0	1
02/25/24	16:48	-10.8	-10.8	-10.8	69	-15.4	9.6	WNW	0.16	10.4	WNW	-18.3	-11.0	-18.5	737.2	0.020	0.000	21.3	8	-14.3	18.3	2.04	 .0725	24	1	100.0	1
02/25/24	16:49	-10.9	-10.8	-10.9	68	-15.6	11.3	WNW	0.19	12.2	WNW	-19.1	-11.1	-19.3	737.2	0.020	0.000	21.3	8	-14.3	18.3	2.04	 .0725	23	1	100.0	1
02/25/24	16:50	-10.9	-10.9	-10.9	69	-15.5	12.2	WNW	0.20	13.0	WNW	-19.4	-11.1	-19.6	737.2	0.020	0.000	21.4	8	-14.3	18.4	2.04	 .0725	23	1	100.0	1
02/25/24	16:51	-10.9	-10.9	-10.9	69	-15.5	11.3	WNW	0.19	12.2	WNW	-19.1	-11.1	-19.3	737.1	0.020	0.000	21.4	8	-14.3	18.4	2.04	 .0725	24	1	100.0	1
02/25/24	16:52	-10.8	-10.8	-10.8	69	-15.4	10.4	WNW	0.17	11.3	WNW	-18.7	-11.0	-18.8	737.2	0.020	0.000	21.4	8	-14.3	18.4	2.04	 .0725	23	1	100.0	1
02/25/24	16:53	-10.8	-10.8	-10.8	68	-15.5	8.7	W	0.14	9.6	WNW	-17.9	-10.9	-18.1	737.2	0.020	0.000	21.4	8	-14.3	18.4	2.04	 .0725	24	1	100.0	1
02/25/24	16:54	-10.8	-10.8	-10.8	68	-15.5	7.8	WNW	0.13	7.8	W	-17.6	-10.9	-17.7	737.1	0.020	0.000	21.4	8	-14.3	18.4	2.04	 .0725	23	1	100.0	1
02/25/24	16:55	-10.8	-10.8	-10.8	68	-15.6	7.8	WNW	0.13	8.7	WNW	-17.6	-11.0	-17.8	737.2	0.020	0.000	21.4	8	-14.3	18.4	2.04	 .0725	23	1	100.0	1
02/25/24	16:56	-10.9	-10.8	-10.9	67	-15.8	8.7	WNW	0.14	9.6	WNW	-18.1	-11.1	-18.2	737.2	0.020	0.000	21.4	8	-14.3	18.4	2.04	 .0725	24	1	100.0	1
02/25/24	16:57	-10.9	-10.9	-10.9	67	-15.9	8.7	WNW	0.14	9.6	WNW	-18.1	-11.1	-18.3	737.1	0.020	0.000	21.4	8	-14.3	18.4	2.04	 .0724	23	1	100.0	1
02/25/24	16:58	-10.9	-10.9	-10.9	67	-15.9	8.7	WNW	0.14	10.4	WNW	-18.1	-11.1	-18.3	737.2	0.020	0.000	21.4	8	-14.3	18.4	2.04	 .0724	24	1	100.0	1
02/25/24	16:59	-11.0	-11.0	-11.0	67	-15.9	8.7	W	0.14	9.6	W	-18.2	-11.2	-18.3	737.2	0.020	0.000	21.4	8	-14.3	18.4	2.04	 .0724	23	1	100.0	1
02/25/24	17:00	-11.1	-11.0	-11.1	67	-16.0	8.7	WNW	0.14	10.4	WNW	-18.2	-11.2	-18.4	737.2	0.020	0.000	21.4	8	-14.3	18.4	2.04	 .0724	23	1	100.0	1
02/25/24	17:01	-11.1	-11.1	-11.1	67	-16.0	9.6	WNW	0.16	10.4	W	-18.6	-11.2	-18.8	737.2	0.020	0.000	21.4	8	-14.3	18.4	2.04	 .0724	24	1	100.0	1
02/25/24	17:02	-11.1	-11.1	-11.1	67	-16.0	9.6	WNW	0.16	10.4	WNW	-18.6	-11.2	-18.8	737.2	0.020	0.000	21.5	8	-14.2	18.6	2.04	 .0724	23	1	100.0	1
02/25/24	17:03	-11.1	-11.1	-11.1	67	-16.0	8.7	WNW	0.14	9.6	WNW	-18.2	-11.2	-18.4	737.2	0.020	0.000	21.5	8	-14.2	18.6	2.04	 .0724	24	1	100.0	1
02/25/24	17:04	-11.1	-11.1	-11.1	67	-16.0	9.6	WNW	0.16	11.3	WNW	-18.6	-11.2	-18.8	737.2	0.020	0.000	21.5	8	-14.2	18.6	2.04	 .0724	23	1	100.0	1
02/25/24	17:05	-11.1	-11.1	-11.1	67	-16.0	8.7	WNW	0.14	9.6	WNW	-18.2	-11.2	-18.4	737.2	0.020	0.000	21.5	8	-14.2	18.6	2.04	 .0724	24	1	100.0	1
02/25/24	17:06	-11.1	-11.1	-11.1	67	-16.0	7.8	W	0.13	9.6	W	-17.8	-11.2	-18.0	737.2	0.020	0.000	21.5	8	-14.2	18.6	2.04	 .0724	23	1	100.0	1
02/25/24	17:07	-11.1	-11.1	-11.1	67	-16.0	9.6	WNW	0.16	10.4	WNW	-18.7	-11.3	-18.8	737.2	0.020	0.000	21.5	8	-14.2	18.6	2.04	 .0724	23	1	100.0	1
02/25/24	17:08	-11.2	-11.1	-11.2	67	-16.1	9.6	WNW	0.16	10.4	WNW	-18.8	-11.3	-18.9	737.2	0.020	0.000	21.5	8	-14.2	18.6	2.04	 .0724	24	1	100.0	1
02/25/24	17:09	-11.1	-11.1	-11.2	67	-16.0	9.6	WNW	0.16	10.4	WNW	-18.7	-11.3	-18.8	737.2	0.020	0.000	21.5	8	-14.2	18.6	2.04	 .0724	23	1	100.0	1
02/25/24	17:10	-11.2	-11.2	-11.2	67	-16.1	8.7	WNW	0.14	9.6	WNW	-18.4	-11.3	-18.6	737.2	0.020	0.000	21.5	8	-14.2	18.6	2.04	 .0724	24	1	100.0	1
02/25/24	17:11	-11.2	-11.2	-11.2	66	-16.3	8.7	WNW	0.14	9.6	WNW	-18.4	-11.3	-18.6	737.2	0.020	0.000	21.4	8	-14.3	18.4	2.04	 .0724	23	1	100.0	1
02/25/24	17:12	-11.2	-11.2	-11.2	66	-16.3	7.8	WNW	0.13	9.6	WNW	-17.9	-11.3	-18.1	737.2	0.020	0.000	21.5	8	-14.2	18.6	2.04	 .0724	23	1	100.0	1
02/25/24	17:13	-11.2	-11.2	-11.2	66	-16.3	8.7	WNW	0.14	9.6	WNW	-18.4	-11.4	-18.6	737.2	0.021	0.000	21.5	8	-14.2	18.6	2.04	 .0724	24	1	100.0	1
02/25/24	17:14	-11.2	-11.2	-11.2	66	-16.3	8.7	WNW	0.14	9.6	WNW	-18.4	-11.4	-18.6	737.2	0.021	0.000	21.4	8	-14.3	18.4	2.04	 .0724	23	1	100.0	1
02/25/24	17:15	-11.2	-11.2	-11.2	66	-16.3	7.8	W	0.13	8.7	WNW	-17.9	-11.3	-18.1	737.2	0.020	0.000	21.4	8	-14.3	18.4	2.04	 .0724	24	1	100.0	1
02/25/24	17:16	-11.2	-11.2	-11.2	66	-16.3	7.0	WNW	0.12	7.8	WNW	-17.7	-11.4	-17.8	737.2	0.021	0.000	21.4	8	-14.3	18.4	2.04	 .0724	23	1	100.0	1
02/25/24	17:17	-11.2	-11.2	-11.2	66	-16.3	6.1	WNW	0.10	7.8	WNW	-17.1	-11.4	-17.3	737.2	0.021	0.000	21.4	8	-14.3	18.4	2.04	 .0724	24	1	100.0	1
02/25/24	17:18	-11.3	-11.2	-11.3	66	-16.4	7.0	WNW	0.12	7.8	WNW	-17.7	-11.4	-17.9	737.1	0.021	0.000	21.4	8	-14.3	18.4	2.04	 .0724	23	1	100.0	1
02/25/24	17:19	-11.3	-11.3	-11.3	66	-16.4	7.8	WNW	0.13	8.7	WNW	-18.1	-11.4	-18.3	737.1	0.021	0.000	21.4	8	-14.3	18.4	2.04	 .0724	23	1	100.0	1
02/25/24	17:20	-11.3	-11.3	-11.3	66	-16.4	7.8	WNW	0.13	8.7	WNW	-18.1	-11.4	-18.3	737.1	0.021	0.000	21.4	8	-14.3	18.4	2.04	 .0725	24	1	100.0	1
02/25/24	17:21	-11.3	-11.3	-11.3	66	-16.4	7.8	W	0.13	8.7	W	-18.2	-11.5	-18.3	737.1	0.021	0.000	21.4	8	-14.3	18.4	2.04	 .0725	23	1	100.0	1
02/25/24	17:22	-11.3	-11.3	-11.3	66	-16.4	7.0	W	0.12	7.8	W	-17.7	-11.4	-17.9	737.1	0.021	0.000	21.4	8	-14.3	18.4	2.04	 .0725	24	1	100.0	1
02/25/24	17:23	-11.3	-11.3	-11.3	66	-16.4	7.0	WNW	0.12	7.8	WNW	-17.7	-11.4	-17.9	737.1	0.021	0.000	21.4	8	-14.3	18.4	2.04	 .0725	23	1	100.0	1
02/25/24	17:24	-11.3	-11.3	-11.3	66	-16.4	7.0	WNW	0.12	7.8	WNW	-17.7	-11.4	-17.9	737.1	0.021	0.000	21.4	8	-14.3	18.4	2.04	 .0725	23	1	100.0	1
02/25/24	17:25	-11.3	-11.3	-11.3	66	-16.4	7.0	WNW	0.12	7.8	WNW	-17.7	-11.4	-17.9	737.2	0.021	0.000	21.4	8	-14.3	18.4	2.04	 .0725	24	1	100.0	1
02/25/24	17:26	-11.3	-11.3	-11.3	66	-16.4	5.2	WNW	0.09	7.0	WNW	-16.6	-11.4	-16.8	737.2	0.021	0.000	21.4	8	-14.3	18.4	2.04	 .0725	23	1	100.0	1
02/25/24	17:27	-11.2	-11.2	-11.3	67	-16.1	6.1	NW	0.10	7.0	WNW	-17.1	-11.4	-17.3	737.2	0.021	0.000	21.4	8	-14.3	18.4	2.04	 .0725	24	1	100.0	1
02/25/24	17:28	-11.2	-11.2	-11.2	67	-16.1	3.5	NW	0.06	4.3	NW	-15.2	-11.4	-15.3	737.2	0.021	0.000	21.3	8	-14.3	18.3	2.04	 .0725	23	1	100.0	1
02/25/24	17:29	-11.3	-11.2	-11.3	67	-16.2	5.2	NW	0.09	7.0	NW	-16.6	-11.4	-16.8	737.2	0.021	0.000	21.3	8	-14.3	18.3	2.04	 .0725	23	1	100.0	1
02/25/24	17:30	-11.3	-11.3	-11.3	67	-16.2	6.1	WNW	0.10	7.8	WNW	-17.2	-11.4	-17.4	737.2	0.021	0.000	21.3	8	-14.3	18.3	2.04	 .0725	24	1	100.0	1
02/25/24	17:31	-11.3	-11.3	-11.3	67	-16.2	5.2	WNW	0.09	7.0	WNW	-16.6	-11.4	-16.8	737.2	0.021	0.000	21.3	8	-14.3	18.3	2.04	 .0725	23	1	100.0	1
02/25/24	17:32	-11.3	-11.3	-11.3	68	-16.0	5.2	WNW	0.09	6.1	WNW	-16.6	-11.4	-16.7	737.2	0.021	0.000	21.3	8	-14.3	18.3	2.04	 .0725	24	1	100.0	1
02/25/24	17:33	-11.3	-11.3	-11.3	68	-16.0	6.1	NW	0.10	6.1	NW	-17.2	-11.4	-17.3	737.2	0.021	0.000	21.3	8	-14.3	18.3	2.04	 .0725	23	1	100.0	1
02/25/24	17:34	-11.3	-11.3	-11.3	68	-16.0	5.2	WNW	0.09	6.1	WNW	-16.6	-11.4	-16.7	737.2	0.021	0.000	21.3	8	-14.3	18.3	2.04	 .0725	24	1	100.0	1
02/25/24	17:35	-11.3	-11.3	-11.3	68	-16.0	5.2	WNW	0.09	6.1	WNW	-16.6	-11.4	-16.7	737.2	0.021	0.000	21.3	8	-14.3	18.3	2.04	 .0725	23	1	100.0	1
02/25/24	17:36	-11.3	-11.3	-11.3	68	-16.1	6.1	WNW	0.10	7.0	WNW	-17.3	-11.4	-17.4	737.2	0.021	0.000	21.3	8	-14.3	18.3	2.04	 .0725	23	1	100.0	1
02/25/24	17:37	-11.3	-11.3	-11.3	68	-16.0	7.8	WNW	0.13	8.7	WNW	-18.1	-11.4	-18.2	737.2	0.021	0.000	21.3	8	-14.3	18.3	2.04	 .0725	24	1	100.0	1
02/25/24	17:38	-11.3	-11.3	-11.3	68	-16.0	7.8	WNW	0.13	8.7	WNW	-18.1	-11.4	-18.2	737.1	0.021	0.000	21.3	8	-14.3	18.3	2.04	 .0725	23	1	100.0	1
02/25/24	17:39	-11.3	-11.3	-11.3	68	-16.0	7.8	WNW	0.13	8.7	WNW	-18.1	-11.4	-18.2	737.2	0.021	0.000	21.3	8	-14.3	18.3	2.04	 .0725	24	1	100.0	1
02/25/24	17:40	-11.3	-11.3	-11.3	68	-16.1	7.8	WNW	0.13	8.7	WNW	-18.2	-11.4	-18.3	737.1	0.021	0.000	21.3	8	-14.3	18.3	2.04	 .0725	23	1	100.0	1
02/25/24	17:41	-11.3	-11.3	-11.3	68	-16.1	9.6	W	0.16	10.4	W	-18.9	-11.4	-19.1	737.1	0.021	0.000	21.4	8	-14.3	18.4	2.04	 .0725	23	1	100.0	1
02/25/24	17:42	-11.3	-11.3	-11.3	68	-16.0	9.6	W	0.16	11.3	W	-18.9	-11.4	-19.0	737.1	0.021	0.000	21.4	8	-14.3	18.4	2.04	 .0725	24	1	100.0	1
02/25/24	17:43	-11.3	-11.3	-11.3	68	-16.0	9.6	W	0.16	10.4	W	-18.9	-11.4	-19.0	737.1	0.021	0.000	21.4	8	-14.3	18.4	2.04	 .0724	23	1	100.0	1
02/25/24	17:44	-11.3	-11.3	-11.3	68	-16.0	9.6	W	0.16	12.2	WNW	-18.9	-11.4	-19.0	737.1	0.021	0.000	21.4	8	-14.3	18.4	2.04	 .0724	24	1	100.0	1
02/25/24	17:45	-11.3	-11.3	-11.3	68	-16.0	9.6	W	0.16	11.3	W	-18.9	-11.4	-19.0	737.1	0.021	0.000	21.4	8	-14.3	18.4	2.04	 .0724	23	1	100.0	1
02/25/24	17:46	-11.2	-11.2	-11.3	68	-16.0	11.3	WNW	0.19	12.2	WNW	-19.5	-11.3	-19.6	737.1	0.021	0.000	21.4	8	-14.3	18.4	2.04	 .0724	24	1	100.0	1
02/25/24	17:47	-11.2	-11.2	-11.3	68	-16.0	11.3	WNW	0.19	12.2	WNW	-19.5	-11.3	-19.6	737.1	0.021	0.000	21.4	8	-14.3	18.4	2.04	 .0724	23	1	100.0	1
02/25/24	17:48	-11.2	-11.2	-11.3	68	-16.0	11.3	WNW	0.19	12.2	WNW	-19.5	-11.3	-19.6	737.1	0.021	0.000	21.4	8	-14.3	18.4	2.04	 .0724	23	1	100.0	1
02/25/24	17:49	-11.2	-11.2	-11.2	68	-16.0	11.3	WNW	0.19	11.3	WNW	-19.5	-11.3	-19.6	737.1	0.021	0.000	21.4	8	-14.3	18.4	2.04	 .0724	24	1	100.0	1
02/25/24	17:50	-11.2	-11.2	-11.2	68	-16.0	11.3	W	0.19	12.2	W	-19.5	-11.3	-19.6	737.0	0.021	0.000	21.5	8	-14.2	18.6	2.04	 .0724	23	1	100.0	1
02/25/24	17:51	-11.2	-11.2	-11.2	68	-16.0	11.3	WNW	0.19	12.2	WNW	-19.5	-11.3	-19.6	737.0	0.021	0.000	21.5	8	-14.2	18.6	2.04	 .0724	24	1	100.0	1
02/25/24	17:52	-11.2	-11.2	-11.2	68	-16.0	10.4	WNW	0.17	11.3	WNW	-19.2	-11.3	-19.3	737.0	0.021	0.000	21.5	8	-14.2	18.6	2.04	 .0724	23	1	100.0	1
02/25/24	17:53	-11.2	-11.2	-11.3	68	-16.0	10.4	W	0.17	12.2	W	-19.2	-11.3	-19.3	737.0	0.021	0.000	21.5	8	-14.2	18.6	2.04	 .0724	23	1	100.0	1
02/25/24	17:54	-11.3	-11.3	-11.3	68	-16.0	11.3	WNW	0.19	13.0	W	-19.6	-11.4	-19.7	737.0	0.021	0.000	21.5	8	-14.2	18.6	2.04	 .0724	24	1	100.0	1
02/25/24	17:55	-11.2	-11.2	-11.3	68	-16.0	13.0	WNW	0.22	14.8	WNW	-20.1	-11.3	-20.2	737.0	0.021	0.000	21.5	8	-14.2	18.6	2.04	 .0724	23	1	100.0	1
02/25/24	17:56	-11.2	-11.2	-11.2	68	-16.0	13.0	WNW	0.22	13.9	WNW	-20.1	-11.3	-20.2	737.0	0.021	0.000	21.5	8	-14.2	18.6	2.04	 .0724	24	1	100.0	1
02/25/24	17:57	-11.2	-11.2	-11.2	68	-16.0	12.2	W	0.20	13.9	WNW	-19.8	-11.3	-19.9	737.0	0.021	0.000	21.5	8	-14.2	18.6	2.04	 .0724	23	1	100.0	1
02/25/24	17:58	-11.3	-11.3	-11.3	68	-16.0	10.4	W	0.17	11.3	W	-19.2	-11.4	-19.3	737.0	0.021	0.000	21.5	8	-14.2	18.6	2.04	 .0724	24	1	100.0	1
02/25/24	17:59	-11.3	-11.3	-11.3	68	-16.0	12.2	WNW	0.20	13.9	W	-19.9	-11.4	-20.0	737.0	0.021	0.000	21.5	8	-14.2	18.6	2.04	 .0724	23	1	100.0	1
02/25/24	18:00	-11.3	-11.3	-11.3	68	-16.0	11.3	WNW	0.19	13.9	WNW	-19.6	-11.4	-19.7	737.0	0.021	0.000	21.5	8	-14.2	18.6	2.04	 .0724	23	1	100.0	1
02/25/24	18:01	-11.3	-11.3	-11.3	68	-16.0	10.4	WNW	0.17	12.2	WNW	-19.2	-11.4	-19.3	737.0	0.021	0.000	21.5	8	-14.2	18.6	2.04	 .0724	24	1	100.0	1
02/25/24	18:02	-11.3	-11.3	-11.3	69	-15.8	11.3	WNW	0.19	13.0	WNW	-19.6	-11.4	-19.7	737.0	0.021	0.000	21.5	8	-14.2	18.6	2.04	 .0724	23	1	100.0	1
02/25/24	18:03	-11.3	-11.3	-11.3	69	-15.9	9.6	W	0.16	11.3	W	-18.9	-11.4	-19.1	737.0	0.021	0.000	21.5	8	-14.2	18.6	2.04	 .0724	24	1	100.0	1
02/25/24	18:04	-11.4	-11.3	-11.4	69	-15.9	11.3	WNW	0.19	12.2	WNW	-19.7	-11.5	-19.8	737.0	0.021	0.000	21.5	8	-14.2	18.6	2.04	 .0724	23	1	100.0	1
02/25/24	18:05	-11.4	-11.4	-11.4	69	-16.0	9.6	WNW	0.16	10.4	WNW	-19.1	-11.6	-19.2	737.0	0.021	0.000	21.4	8	-14.3	18.4	2.04	 .0724	23	1	100.0	1
02/25/24	18:06	-11.5	-11.4	-11.5	69	-16.1	10.4	WNW	0.17	12.2	WNW	-19.6	-11.6	-19.7	737.0	0.021	0.000	21.5	8	-14.2	18.6	2.04	 .0724	24	1	100.0	1
02/25/24	18:07	-11.6	-11.5	-11.6	69	-16.1	8.7	WNW	0.14	10.4	WNW	-18.9	-11.7	-19.0	737.0	0.021	0.000	21.4	8	-14.3	18.4	2.04	 .0724	23	1	100.0	1
02/25/24	18:08	-11.6	-11.5	-11.6	69	-16.1	10.4	WNW	0.17	11.3	WNW	-19.6	-11.7	-19.7	737.0	0.021	0.000	21.4	8	-14.3	18.4	2.04	 .0724	24	1	100.0	1
02/25/24	18:09	-11.6	-11.6	-11.6	69	-16.1	10.4	WNW	0.17	11.3	WNW	-19.6	-11.7	-19.7	737.0	0.021	0.000	21.4	8	-14.3	18.4	2.04	 .0724	23	1	100.0	1
02/25/24	18:10	-11.6	-11.6	-11.6	69	-16.1	10.4	WNW	0.17	11.3	WNW	-19.6	-11.7	-19.7	737.0	0.021	0.000	21.4	8	-14.3	18.4	2.04	 .0724	24	1	100.0	1
02/25/24	18:11	-11.6	-11.6	-11.6	69	-16.2	8.7	WNW	0.14	9.6	WNW	-18.9	-11.7	-19.1	737.0	0.021	0.000	21.4	8	-14.3	18.4	2.04	 .0724	23	1	100.0	1
02/25/24	18:12	-11.6	-11.6	-11.6	69	-16.2	7.8	WNW	0.13	8.7	WNW	-18.5	-11.7	-18.6	737.0	0.021	0.000	21.4	8	-14.3	18.4	2.04	 .0724	23	1	100.0	1
02/25/24	18:13	-11.6	-11.6	-11.6	69	-16.2	7.8	WNW	0.13	8.7	WNW	-18.5	-11.7	-18.6	737.0	0.021	0.000	21.4	8	-14.3	18.4	2.04	 .0724	24	1	100.0	1
02/25/24	18:14	-11.6	-11.6	-11.6	70	-16.0	7.8	WNW	0.13	9.6	WNW	-18.5	-11.7	-18.6	737.0	0.021	0.000	21.4	8	-14.3	18.4	2.04	 .0724	23	1	100.0	1
02/25/24	18:15	-11.6	-11.6	-11.6	70	-16.0	8.7	WNW	0.14	8.7	WNW	-18.9	-11.7	-19.1	737.0	0.021	0.000	21.4	8	-14.3	18.4	2.04	 .0724	24	1	100.0	1
02/25/24	18:16	-11.6	-11.6	-11.7	70	-16.0	8.7	WNW	0.14	9.6	WNW	-18.9	-11.7	-19.1	737.1	0.021	0.000	21.4	8	-14.3	18.4	2.04	 .0724	23	1	100.0	1
02/25/24	18:17	-11.6	-11.6	-11.6	70	-16.0	7.0	WNW	0.12	7.8	WNW	-18.1	-11.7	-18.2	737.0	0.021	0.000	21.4	8	-14.3	18.4	2.04	 .0724	23	1	100.0	1
02/25/24	18:18	-11.6	-11.6	-11.6	70	-16.0	6.1	WNW	0.10	7.0	WNW	-17.6	-11.7	-17.7	737.0	0.021	0.000	21.4	8	-14.3	18.4	2.04	 .0724	24	1	100.0	1
02/25/24	18:19	-11.6	-11.6	-11.7	70	-16.0	6.1	WNW	0.10	7.8	WNW	-17.6	-11.7	-17.7	737.1	0.021	0.000	21.4	8	-14.3	18.4	2.04	 .0724	23	1	100.0	1
02/25/24	18:20	-11.6	-11.6	-11.7	71	-15.8	6.1	WNW	0.10	7.8	WNW	-17.6	-11.7	-17.7	737.0	0.021	0.000	21.4	8	-14.3	18.4	2.04	 .0724	24	1	100.0	1
02/25/24	18:21	-11.6	-11.6	-11.6	71	-15.8	8.7	WNW	0.14	9.6	W	-18.9	-11.7	-19.1	737.0	0.021	0.000	21.3	8	-14.3	18.3	2.04	 .0725	23	1	100.0	1
02/25/24	18:22	-11.6	-11.6	-11.6	71	-15.8	10.4	WNW	0.17	12.2	WNW	-19.6	-11.7	-19.7	737.0	0.021	0.000	21.3	8	-14.3	18.3	2.04	 .0725	24	1	100.0	1
02/25/24	18:23	-11.5	-11.5	-11.6	71	-15.7	10.4	WNW	0.17	13.0	WNW	-19.6	-11.6	-19.7	737.1	0.021	0.000	21.3	8	-14.3	18.3	2.04	 .0725	23	1	100.0	1
02/25/24	18:24	-11.4	-11.4	-11.5	72	-15.5	10.4	WNW	0.17	11.3	WNW	-19.4	-11.6	-19.6	737.1	0.021	0.000	21.3	8	-14.3	18.3	2.04	 .0725	23	1	100.0	1
02/25/24	18:25	-11.4	-11.4	-11.4	71	-15.6	9.6	WNW	0.16	11.3	WNW	-19.1	-11.5	-19.2	737.1	0.021	0.000	21.3	8	-14.3	18.3	2.04	 .0725	24	1	100.0	1
02/25/24	18:26	-11.3	-11.3	-11.4	71	-15.6	8.7	W	0.14	9.6	W	-18.6	-11.4	-18.7	737.0	0.021	0.000	21.3	8	-14.3	18.3	2.04	 .0725	23	1	100.0	1
02/25/24	18:27	-11.3	-11.3	-11.3	71	-15.6	6.1	WSW	0.10	7.0	WSW	-17.3	-11.4	-17.4	737.1	0.021	0.000	21.4	8	-14.3	18.4	2.04	 .0724	24	1	100.0	1
02/25/24	18:28	-11.3	-11.3	-11.3	71	-15.6	2.6	W	0.04	3.5	W	-14.3	-11.4	-14.4	737.1	0.021	0.000	21.4	8	-14.3	18.4	2.04	 .0724	23	1	100.0	1
02/25/24	18:29	-11.3	-11.3	-11.3	71	-15.6	3.5	W	0.06	5.2	W	-15.3	-11.4	-15.4	737.1	0.021	0.000	21.4	8	-14.3	18.4	2.04	 .0724	23	1	100.0	1
02/25/24	18:30	-11.3	-11.3	-11.3	71	-15.6	4.3	WNW	0.07	7.0	WNW	-16.1	-11.4	-16.2	737.1	0.021	0.000	21.4	8	-14.3	18.4	2.04	 .0724	24	1	100.0	1
02/25/24	18:31	-11.3	-11.3	-11.3	71	-15.6	3.5	W	0.06	5.2	W	-15.3	-11.4	-15.4	737.1	0.021	0.000	21.4	8	-14.3	18.4	2.04	 .0724	23	1	100.0	1
02/25/24	18:32	-11.4	-11.3	-11.4	71	-15.6	3.5	WSW	0.06	3.5	WSW	-15.3	-11.5	-15.4	737.1	0.021	0.000	21.4	8	-14.3	18.4	2.04	 .0724	24	1	100.0	1
02/25/24	18:33	-11.3	-11.3	-11.4	72	-15.4	3.5	WSW	0.06	4.3	WSW	-15.3	-11.4	-15.4	737.1	0.021	0.000	21.4	8	-14.3	18.4	2.04	 .0724	23	1	100.0	1
02/25/24	18:34	-11.4	-11.3	-11.4	72	-15.4	4.3	WSW	0.07	6.1	W	-16.1	-11.5	-16.2	737.2	0.021	0.000	21.4	8	-14.3	18.4	2.04	 .0724	23	1	100.0	1
02/25/24	18:35	-11.4	-11.4	-11.4	72	-15.4	4.3	W	0.07	6.1	W	-16.1	-11.5	-16.2	737.1	0.021	0.000	21.4	8	-14.3	18.4	2.04	 .0724	24	1	100.0	1
02/25/24	18:36	-11.4	-11.4	-11.4	72	-15.5	3.5	WSW	0.06	3.5	WSW	-15.4	-11.6	-15.5	737.1	0.021	0.000	21.4	8	-14.3	18.4	2.04	 .0724	23	1	100.0	1
02/25/24	18:37	-11.4	-11.4	-11.4	71	-15.7	3.5	WSW	0.06	4.3	SW	-15.4	-11.6	-15.5	737.1	0.021	0.000	21.4	8	-14.3	18.4	2.04	 .0724	24	1	100.0	1
02/25/24	18:38	-11.4	-11.4	-11.4	71	-15.7	2.6	SW	0.04	3.5	SW	-14.4	-11.6	-14.6	737.1	0.021	0.000	21.5	8	-14.2	18.6	2.04	 .0724	23	1	100.0	1
02/25/24	18:39	-11.4	-11.4	-11.4	71	-15.7	2.6	WSW	0.04	2.6	WSW	-14.4	-11.6	-14.6	737.2	0.021	0.000	21.5	8	-14.2	18.6	2.04	 .0724	24	1	100.0	1
02/25/24	18:40	-11.4	-11.4	-11.4	71	-15.6	2.6	WSW	0.04	3.5	WSW	-14.4	-11.5	-14.5	737.1	0.021	0.000	21.5	8	-14.2	18.6	2.04	 .0724	23	1	100.0	1
02/25/24	18:41	-11.4	-11.4	-11.4	71	-15.7	3.5	SW	0.06	4.3	SW	-15.4	-11.6	-15.5	737.1	0.021	0.000	21.5	8	-14.2	18.6	2.04	 .0724	23	1	100.0	1
02/25/24	18:42	-11.4	-11.4	-11.4	71	-15.7	3.5	SSW	0.06	4.3	SW	-15.4	-11.6	-15.5	737.1	0.021	0.000	21.5	8	-14.2	18.6	2.04	 .0724	24	1	100.0	1
02/25/24	18:43	-11.4	-11.4	-11.4	71	-15.7	4.3	SW	0.07	5.2	SW	-16.2	-11.6	-16.3	737.1	0.021	0.000	21.5	8	-14.2	18.6	2.04	 .0724	23	1	100.0	1
02/25/24	18:44	-11.5	-11.4	-11.5	71	-15.7	3.5	WSW	0.06	4.3	WSW	-15.4	-11.6	-15.6	737.1	0.021	0.000	21.5	8	-14.2	18.6	2.04	 .0724	24	1	100.0	1
02/25/24	18:45	-11.5	-11.5	-11.5	71	-15.7	3.5	SW	0.06	5.2	SW	-15.4	-11.6	-15.6	737.1	0.021	0.000	21.5	8	-14.2	18.6	2.04	 .0724	23	1	100.0	1
02/25/24	18:46	-11.5	-11.5	-11.5	71	-15.7	1.7	WSW	0.03	3.5	WSW	-13.2	-11.6	-13.3	737.1	0.021	0.000	21.5	8	-14.2	18.6	2.04	 .0724	23	1	100.0	1
02/25/24	18:47	-11.5	-11.5	-11.5	71	-15.7	3.5	SW	0.06	4.3	SW	-15.4	-11.6	-15.6	737.0	0.021	0.000	21.5	8	-14.2	18.6	2.04	 .0724	24	1	100.0	1
02/25/24	18:48	-11.5	-11.5	-11.5	70	-15.9	3.5	SW	0.06	7.8	WSW	-15.4	-11.6	-15.6	737.1	0.021	0.000	21.5	8	-14.2	18.6	2.04	 .0724	23	1	100.0	1
02/25/24	18:49	-11.5	-11.5	-11.5	70	-15.9	7.0	W	0.12	7.8	W	-17.9	-11.6	-18.1	737.1	0.021	0.000	21.5	8	-14.2	18.6	2.04	 .0724	24	1	100.0	1
02/25/24	18:50	-11.5	-11.5	-11.5	69	-16.1	5.2	W	0.09	6.1	W	-16.9	-11.6	-17.0	737.1	0.021	0.000	21.5	8	-14.2	18.6	2.04	 .0724	23	1	100.0	1
02/25/24	18:51	-11.5	-11.5	-11.5	69	-16.1	4.3	SW	0.07	7.0	WSW	-16.2	-11.6	-16.3	737.1	0.021	0.000	21.4	8	-14.3	18.4	2.04	 .0724	24	1	100.0	1
02/25/24	18:52	-11.5	-11.5	-11.5	69	-16.1	3.5	WNW	0.06	5.2	WNW	-15.4	-11.6	-15.6	737.0	0.021	0.000	21.4	8	-14.3	18.4	2.04	 .0724	23	1	100.0	1
02/25/24	18:53	-11.6	-11.5	-11.6	69	-16.1	3.5	W	0.06	5.2	W	-15.6	-11.7	-15.7	737.0	0.021	0.000	21.4	8	-14.3	18.4	2.04	 .0724	23	1	100.0	1
02/25/24	18:54	-11.6	-11.6	-11.6	69	-16.1	2.6	WSW	0.04	3.5	WSW	-14.6	-11.7	-14.7	737.0	0.021	0.000	21.4	8	-14.3	18.4	2.04	 .0724	24	1	100.0	1
02/25/24	18:55	-11.6	-11.6	-11.6	69	-16.1	2.6	SW	0.04	3.5	SW	-14.6	-11.7	-14.7	737.0	0.021	0.000	21.4	8	-14.3	18.4	2.04	 .0724	23	1	100.0	1
02/25/24	18:56	-11.6	-11.6	-11.6	69	-16.2	1.7	SSW	0.03	4.3	S	-13.3	-11.7	-13.4	737.0	0.021	0.000	21.4	8	-14.3	18.4	2.04	 .0724	24	1	100.0	1
02/25/24	18:57	-11.6	-11.6	-11.6	69	-16.2	0.9	W	0.01	1.7	W	-11.6	-11.7	-11.7	737.1	0.021	0.000	21.4	8	-14.3	18.4	2.04	 .0724	23	1	100.0	1
02/25/24	18:58	-11.6	-11.6	-11.6	69	-16.2	0.9	W	0.01	3.5	SW	-11.6	-11.7	-11.7	737.1	0.021	0.000	21.4	8	-14.3	18.4	2.04	 .0724	23	1	100.0	1
02/25/24	18:59	-11.6	-11.6	-11.6	69	-16.1	2.6	SSW	0.04	3.5	WSW	-14.6	-11.7	-14.7	737.1	0.021	0.000	21.4	8	-14.3	18.4	2.04	 .0724	24	1	100.0	1
02/25/24	19:00	-11.6	-11.6	-11.6	69	-16.1	4.3	SE	0.07	6.1	SE	-16.3	-11.7	-16.4	737.0	0.021	0.000	21.4	8	-14.3	18.4	2.04	 .0724	23	1	100.0	1
02/25/24	19:01	-11.6	-11.6	-11.6	69	-16.1	2.6	ESE	0.04	3.5	ESE	-14.6	-11.7	-14.7	737.1	0.021	0.000	21.4	8	-14.3	18.4	2.04	 .0724	24	1	100.0	1
02/25/24	19:02	-11.6	-11.6	-11.6	69	-16.1	2.6	SE	0.04	3.5	ESE	-14.6	-11.7	-14.7	737.1	0.021	0.000	21.4	8	-14.3	18.4	2.04	 .0725	23	1	100.0	1
02/25/24	19:03	-11.6	-11.6	-11.6	70	-15.9	3.5	SE	0.06	4.3	ESE	-15.6	-11.7	-15.7	737.1	0.021	0.000	21.4	8	-14.3	18.4	2.04	 .0725	23	1	100.0	1
02/25/24	19:04	-11.6	-11.6	-11.6	70	-15.9	2.6	ESE	0.04	3.5	ESE	-14.6	-11.7	-14.7	737.1	0.021	0.000	21.3	8	-14.3	18.3	2.04	 .0725	24	1	100.0	1
02/25/24	19:05	-11.6	-11.6	-11.6	70	-15.9	3.5	E	0.06	5.2	E	-15.6	-11.7	-15.7	737.1	0.021	0.000	21.3	8	-14.3	18.3	2.04	 .0725	23	1	100.0	1
02/25/24	19:06	-11.6	-11.6	-11.6	70	-15.9	2.6	E	0.04	3.5	E	-14.6	-11.7	-14.7	737.1	0.021	0.000	21.3	8	-14.3	18.3	2.04	 .0725	24	1	100.0	1
02/25/24	19:07	-11.6	-11.6	-11.6	70	-15.9	1.7	E	0.03	3.5	ESE	-13.3	-11.7	-13.4	737.1	0.021	0.000	21.3	8	-14.3	18.3	2.04	 .0725	23	1	100.0	1
02/25/24	19:08	-11.6	-11.6	-11.6	70	-15.9	1.7	ESE	0.03	2.6	ESE	-13.3	-11.7	-13.4	737.1	0.021	0.000	21.3	8	-14.3	18.3	2.04	 .0725	24	1	100.0	1
02/25/24	19:09	-11.6	-11.6	-11.6	70	-15.9	0.9	SE	0.01	1.7	SE	-11.6	-11.7	-11.7	737.1	0.021	0.000	21.3	8	-14.3	18.3	2.04	 .0725	23	1	100.0	1
02/25/24	19:10	-11.6	-11.6	-11.6	70	-15.9	0.0	---	0.00	0.0	---	-11.6	-11.7	-11.7	737.1	0.021	0.000	21.3	8	-14.3	18.3	2.04	 .0725	23	1	100.0	1
02/25/24	19:11	-11.6	-11.5	-11.6	70	-15.9	0.0	---	0.00	0.0	---	-11.6	-11.7	-11.7	737.1	0.021	0.000	21.3	8	-14.3	18.3	2.04	 .0725	24	1	100.0	1
02/25/24	19:12	-11.5	-11.5	-11.6	70	-15.9	0.9	SE	0.01	2.6	SE	-11.5	-11.6	-11.6	737.1	0.021	0.000	21.3	8	-14.3	18.3	2.04	 .0725	23	1	100.0	1
02/25/24	19:13	-11.6	-11.5	-11.6	70	-15.9	2.6	SE	0.04	3.5	ESE	-14.6	-11.7	-14.7	737.1	0.021	0.000	21.3	8	-14.3	18.3	2.04	 .0725	24	1	100.0	1
02/25/24	19:14	-11.6	-11.6	-11.6	70	-15.9	3.5	E	0.06	5.2	ESE	-15.6	-11.7	-15.7	737.0	0.021	0.000	21.4	8	-14.3	18.4	2.04	 .0724	23	1	100.0	1
02/25/24	19:15	-11.6	-11.6	-11.6	70	-15.9	3.5	E	0.06	4.3	SE	-15.6	-11.7	-15.7	737.1	0.021	0.000	21.4	8	-14.3	18.4	2.04	 .0724	24	1	100.0	1
02/25/24	19:16	-11.6	-11.6	-11.6	70	-16.0	3.5	ESE	0.06	5.2	ESE	-15.6	-11.7	-15.7	737.0	0.021	0.000	21.4	8	-14.3	18.4	2.04	 .0724	23	1	100.0	1
02/25/24	19:17	-11.6	-11.6	-11.6	70	-16.0	3.5	SE	0.06	6.1	SE	-15.6	-11.7	-15.7	737.0	0.021	0.000	21.4	8	-14.3	18.4	2.04	 .0724	23	1	100.0	1
02/25/24	19:18	-11.7	-11.6	-11.7	70	-16.0	4.3	ESE	0.07	5.2	ESE	-16.4	-11.8	-16.6	737.1	0.021	0.000	21.4	8	-14.3	18.4	2.04	 .0724	24	1	100.0	1
02/25/24	19:19	-11.7	-11.7	-11.7	70	-16.0	3.5	ESE	0.06	5.2	ESE	-15.7	-11.8	-15.8	737.0	0.021	0.000	21.4	8	-14.3	18.4	2.04	 .0724	23	1	100.0	1
02/25/24	19:20	-11.7	-11.7	-11.7	70	-16.0	1.7	ESE	0.03	2.6	ESE	-13.4	-11.8	-13.5	737.1	0.021	0.000	21.4	8	-14.3	18.4	2.04	 .0724	24	1	100.0	1
02/25/24	19:21	-11.7	-11.7	-11.7	71	-15.9	2.6	ESE	0.04	3.5	ESE	-14.7	-11.8	-14.8	737.1	0.021	0.000	21.4	8	-14.3	18.4	2.04	 .0724	23	1	100.0	1
02/25/24	19:22	-11.7	-11.7	-11.7	71	-15.9	4.3	E	0.07	5.2	ESE	-16.4	-11.8	-16.6	737.1	0.021	0.000	21.4	8	-14.3	18.4	2.04	 .0724	23	1	100.0	1
02/25/24	19:23	-11.7	-11.7	-11.7	71	-15.9	5.2	E	0.09	6.1	E	-17.2	-11.8	-17.3	737.1	0.021	0.000	21.5	8	-14.2	18.6	2.04	 .0724	24	1	100.0	1
02/25/24	19:24	-11.7	-11.7	-11.7	71	-15.9	2.6	E	0.04	3.5	E	-14.8	-11.8	-14.9	737.1	0.021	0.000	21.5	8	-14.2	18.6	2.04	 .0724	23	1	100.0	1
02/25/24	19:25	-11.7	-11.7	-11.8	71	-15.9	2.6	ESE	0.04	3.5	ESE	-14.8	-11.8	-14.9	737.0	0.021	0.000	21.5	8	-14.2	18.6	2.04	 .0724	24	1	100.0	1
02/25/24	19:26	-11.8	-11.8	-11.8	71	-16.0	2.6	SE	0.04	4.3	SE	-14.8	-11.9	-14.9	737.1	0.021	0.000	21.5	8	-14.2	18.6	2.04	 .0724	23	1	100.0	1
02/25/24	19:27	-11.8	-11.8	-11.8	71	-16.0	0.9	SE	0.01	2.6	SE	-11.8	-11.9	-11.9	737.1	0.021	0.000	21.5	8	-14.2	18.6	2.04	 .0724	23	1	100.0	1
02/25/24	19:28	-11.8	-11.8	-11.8	71	-16.0	0.9	SE	0.01	1.7	SE	-11.8	-11.9	-11.9	737.1	0.021	0.000	21.5	8	-14.2	18.6	2.04	 .0724	24	1	100.0	1
02/25/24	19:29	-11.8	-11.8	-11.8	71	-16.0	0.0	SE	0.00	0.9	SE	-11.8	-11.9	-11.9	737.1	0.021	0.000	21.6	8	-14.2	18.7	2.03	 .0724	23	1	100.0	1
02/25/24	19:30	-11.7	-11.7	-11.8	71	-15.9	0.0	---	0.00	0.0	---	-11.7	-11.8	-11.8	737.1	0.021	0.000	21.6	8	-14.2	18.7	2.03	 .0724	24	1	100.0	1
02/25/24	19:31	-11.7	-11.7	-11.8	71	-15.9	0.0	SE	0.00	0.9	SE	-11.7	-11.8	-11.8	737.1	0.021	0.000	21.6	8	-14.2	18.7	2.03	 .0724	23	1	100.0	1
02/25/24	19:32	-11.7	-11.7	-11.7	71	-15.9	0.0	SE	0.00	0.9	SE	-11.7	-11.8	-11.8	737.1	0.021	0.000	21.6	8	-14.2	18.7	2.03	 .0724	24	1	100.0	1
02/25/24	19:33	-11.7	-11.7	-11.7	72	-15.8	0.0	SE	0.00	0.9	SE	-11.7	-11.8	-11.8	737.1	0.021	0.000	21.6	8	-14.2	18.7	2.03	 .0724	23	1	100.0	1
02/25/24	19:34	-11.7	-11.7	-11.7	72	-15.8	0.9	SE	0.01	1.7	SE	-11.7	-11.8	-11.8	737.1	0.021	0.000	21.6	8	-14.2	18.7	2.03	 .0724	23	1	100.0	1
02/25/24	19:35	-11.7	-11.7	-11.7	72	-15.8	0.9	SE	0.01	1.7	SE	-11.7	-11.8	-11.8	737.1	0.021	0.000	21.6	8	-14.2	18.7	2.03	 .0724	24	1	100.0	1
02/25/24	19:36	-11.7	-11.7	-11.7	72	-15.7	0.0	SE	0.00	0.9	SE	-11.7	-11.8	-11.8	737.2	0.021	0.000	21.6	8	-14.2	18.7	2.03	 .0724	23	1	100.0	1
02/25/24	19:37	-11.7	-11.7	-11.7	72	-15.7	0.0	---	0.00	0.0	---	-11.7	-11.8	-11.8	737.1	0.021	0.000	21.6	8	-14.2	18.7	2.03	 .0724	24	1	100.0	1
02/25/24	19:38	-11.7	-11.7	-11.7	72	-15.7	0.0	---	0.00	0.0	---	-11.7	-11.8	-11.8	737.1	0.021	0.000	21.6	8	-14.2	18.7	2.03	 .0724	23	1	100.0	1
02/25/24	19:39	-11.7	-11.7	-11.7	72	-15.7	0.9	SSE	0.01	3.5	SSE	-11.7	-11.8	-11.8	737.2	0.021	0.000	21.6	8	-14.2	18.7	2.03	 .0724	23	1	100.0	1
02/25/24	19:40	-11.7	-11.7	-11.7	72	-15.7	2.6	W	0.04	3.5	SSE	-14.7	-11.8	-14.8	737.2	0.021	0.000	21.5	8	-14.2	18.6	2.04	 .0724	24	1	100.0	1
02/25/24	19:41	-11.6	-11.6	-11.6	72	-15.6	3.5	WSW	0.06	5.2	W	-15.6	-11.7	-15.7	737.1	0.021	0.000	21.5	8	-14.2	18.6	2.04	 .0724	23	1	100.0	1
02/25/24	19:42	-11.6	-11.6	-11.6	73	-15.5	5.2	W	0.09	6.1	W	-17.1	-11.7	-17.2	737.1	0.021	0.000	21.5	8	-14.2	18.6	2.04	 .0724	24	1	100.0	1
02/25/24	19:43	-11.6	-11.6	-11.6	73	-15.4	6.1	WNW	0.10	7.0	WNW	-17.6	-11.7	-17.7	737.1	0.021	0.000	21.5	8	-14.2	18.6	2.04	 .0724	23	1	100.0	1
02/25/24	19:44	-11.6	-11.6	-11.6	73	-15.5	6.1	W	0.10	7.8	W	-17.6	-11.7	-17.7	737.1	0.021	0.000	21.5	8	-14.2	18.6	2.04	 .0724	24	1	100.0	1
02/25/24	19:45	-11.6	-11.6	-11.6	73	-15.5	3.5	WSW	0.06	4.3	WSW	-15.6	-11.7	-15.7	737.1	0.021	0.000	21.5	8	-14.2	18.6	2.04	 .0724	23	1	100.0	1
02/25/24	19:46	-11.6	-11.6	-11.6	73	-15.5	1.7	WSW	0.03	2.6	WSW	-13.3	-11.7	-13.4	737.1	0.021	0.000	21.5	8	-14.2	18.6	2.04	 .0724	23	1	100.0	1
02/25/24	19:47	-11.6	-11.6	-11.6	73	-15.5	1.7	WSW	0.03	2.6	WSW	-13.3	-11.7	-13.4	737.1	0.021	0.000	21.5	8	-14.2	18.6	2.04	 .0724	24	1	100.0	1
02/25/24	19:48	-11.6	-11.6	-11.6	74	-15.3	1.7	SW	0.03	2.6	WSW	-13.3	-11.7	-13.4	737.1	0.021	0.000	21.4	8	-14.3	18.4	2.04	 .0724	23	1	100.0	1
02/25/24	19:49	-11.7	-11.6	-11.7	74	-15.4	3.5	S	0.06	4.3	S	-15.7	-11.8	-15.8	737.1	0.021	0.000	21.4	8	-14.3	18.4	2.04	 .0724	24	1	100.0	1
02/25/24	19:50	-11.7	-11.6	-11.7	74	-15.4	4.3	ESE	0.07	6.1	ESE	-16.4	-11.8	-16.6	737.1	0.021	0.000	21.4	8	-14.3	18.4	2.04	 .0724	23	1	100.0	1
02/25/24	19:51	-11.7	-11.7	-11.7	74	-15.4	4.3	E	0.07	6.1	E	-16.5	-11.8	-16.6	737.0	0.021	0.000	21.4	8	-14.3	18.4	2.04	 .0724	23	1	100.0	1
02/25/24	19:52	-11.8	-11.7	-11.8	74	-15.5	4.3	ESE	0.07	6.1	ESE	-16.6	-11.9	-16.7	737.0	0.021	0.000	21.4	8	-14.3	18.4	2.04	 .0724	24	1	100.0	1
02/25/24	19:53	-11.8	-11.8	-11.8	74	-15.5	5.2	ESE	0.09	6.1	ESE	-17.3	-11.9	-17.4	737.0	0.021	0.000	21.4	8	-14.3	18.4	2.04	 .0724	23	1	100.0	1
02/25/24	19:54	-11.9	-11.8	-11.9	74	-15.6	5.2	ESE	0.09	6.1	ESE	-17.4	-12.0	-17.5	737.0	0.021	0.000	21.4	8	-14.3	18.4	2.04	 .0724	24	1	100.0	1
02/25/24	19:55	-11.9	-11.9	-11.9	74	-15.6	4.3	ESE	0.07	5.2	ESE	-16.8	-12.1	-16.9	737.0	0.021	0.000	21.4	8	-14.3	18.4	2.04	 .0724	23	1	100.0	1
02/25/24	19:56	-11.9	-11.9	-11.9	74	-15.6	6.1	E	0.10	7.0	ESE	-17.9	-12.1	-18.1	737.0	0.021	0.000	21.4	8	-14.3	18.4	2.04	 .0724	23	1	100.0	1
02/25/24	19:57	-12.0	-11.9	-12.0	74	-15.7	7.8	ESE	0.13	8.7	ESE	-19.0	-12.1	-19.1	737.0	0.021	0.000	21.4	8	-14.3	18.4	2.04	 .0724	24	1	100.0	1
02/25/24	19:58	-12.1	-12.0	-12.1	74	-15.7	7.0	ESE	0.12	7.8	ESE	-18.6	-12.2	-18.7	737.0	0.021	0.000	21.4	8	-14.3	18.4	2.04	 .0724	23	1	100.0	1
02/25/24	19:59	-12.1	-12.1	-12.1	74	-15.7	6.1	ESE	0.10	7.0	ESE	-18.1	-12.2	-18.2	737.0	0.021	0.000	21.4	8	-14.3	18.4	2.04	 .0724	24	1	100.0	1
02/25/24	20:00	-12.2	-12.1	-12.2	74	-15.9	6.1	ESE	0.10	7.0	ESE	-18.2	-12.3	-18.3	737.0	0.021	0.000	21.4	8	-14.3	18.4	2.04	 .0724	23	1	100.0	1
02/25/24	20:01	-12.2	-12.2	-12.2	74	-15.9	5.2	ESE	0.09	6.1	ESE	-17.7	-12.3	-17.8	737.0	0.021	0.000	21.4	8	-14.3	18.4	2.04	 .0724	24	1	100.0	1
02/25/24	20:02	-12.2	-12.2	-12.2	75	-15.7	4.3	E	0.07	6.1	E	-17.1	-12.3	-17.2	737.1	0.021	0.000	21.4	8	-14.3	18.4	2.04	 .0724	23	1	100.0	1
02/25/24	20:03	-12.2	-12.2	-12.2	75	-15.7	4.3	E	0.07	5.2	E	-17.1	-12.3	-17.2	737.1	0.021	0.000	21.4	8	-14.3	18.4	2.04	 .0724	23	1	100.0	1
02/25/24	20:04	-12.2	-12.2	-12.2	75	-15.7	3.5	E	0.06	5.2	E	-16.3	-12.3	-16.4	737.0	0.021	0.000	21.4	8	-14.3	18.4	2.04	 .0724	24	1	100.0	1
02/25/24	20:05	-12.2	-12.2	-12.2	75	-15.7	3.5	E	0.06	5.2	E	-16.3	-12.3	-16.4	737.0	0.021	0.000	21.4	8	-14.3	18.4	2.04	 .0724	23	1	100.0	1
02/25/24	20:06	-12.2	-12.2	-12.2	75	-15.7	2.6	E	0.04	3.5	E	-15.3	-12.3	-15.4	737.0	0.021	0.000	21.4	8	-14.3	18.4	2.04	 .0724	24	1	100.0	1
02/25/24	20:07	-12.2	-12.2	-12.2	75	-15.7	3.5	E	0.06	5.2	E	-16.3	-12.3	-16.4	737.0	0.021	0.000	21.4	8	-14.3	18.4	2.04	 .0724	23	1	100.0	1
02/25/24	20:08	-12.2	-12.2	-12.2	75	-15.7	5.2	ENE	0.09	7.0	ENE	-17.8	-12.3	-17.9	737.1	0.021	0.000	21.4	8	-14.3	18.4	2.04	 .0724	23	1	100.0	1
02/25/24	20:09	-12.3	-12.2	-12.3	75	-15.8	7.0	ENE	0.12	7.8	ENE	-18.9	-12.4	-19.0	737.0	0.021	0.000	21.5	8	-14.2	18.6	2.04	 .0724	24	1	100.0	1
02/25/24	20:10	-12.3	-12.3	-12.3	75	-15.8	7.0	E	0.12	7.8	ENE	-18.9	-12.4	-19.0	737.0	0.021	0.000	21.5	8	-14.2	18.6	2.04	 .0724	23	1	100.0	1
02/25/24	20:11	-12.3	-12.3	-12.3	75	-15.9	7.0	E	0.12	7.8	E	-18.9	-12.4	-19.1	737.0	0.021	0.000	21.5	8	-14.2	18.6	2.04	 .0724	24	1	100.0	1
02/25/24	20:12	-12.4	-12.3	-12.4	75	-15.9	7.0	E	0.12	7.8	ENE	-19.0	-12.5	-19.1	737.1	0.021	0.000	21.5	8	-14.2	18.6	2.04	 .0724	23	1	100.0	1
02/25/24	20:13	-12.4	-12.4	-12.4	75	-16.0	7.0	E	0.12	7.0	E	-19.1	-12.6	-19.2	737.1	0.021	0.000	21.5	8	-14.2	18.6	2.04	 .0724	24	1	100.0	1
02/25/24	20:14	-12.5	-12.4	-12.5	75	-16.0	6.1	E	0.10	7.0	E	-18.6	-12.6	-18.7	737.1	0.021	0.000	21.6	8	-14.2	18.7	2.03	 .0724	23	1	100.0	1
02/25/24	20:15	-12.5	-12.5	-12.5	75	-16.0	6.1	E	0.10	7.0	E	-18.6	-12.6	-18.7	737.1	0.021	0.000	21.6	8	-14.2	18.7	2.03	 .0724	23	1	100.0	1
02/25/24	20:16	-12.6	-12.5	-12.6	76	-15.9	6.1	ENE	0.10	7.0	ENE	-18.7	-12.7	-18.8	737.1	0.021	0.000	21.6	8	-14.2	18.7	2.03	 .0724	24	1	100.0	1
02/25/24	20:17	-12.6	-12.6	-12.6	76	-15.9	6.1	ENE	0.10	7.0	ENE	-18.7	-12.7	-18.8	737.1	0.021	0.000	21.6	8	-14.2	18.7	2.03	 .0724	23	1	100.0	1
02/25/24	20:18	-12.6	-12.6	-12.6	76	-15.9	7.0	ENE	0.12	7.8	ENE	-19.2	-12.7	-19.3	737.1	0.021	0.000	21.6	8	-14.2	18.7	2.03	 .0724	24	1	100.0	1
02/25/24	20:19	-12.6	-12.6	-12.6	76	-16.0	7.0	ENE	0.12	7.8	ENE	-19.3	-12.7	-19.4	737.1	0.021	0.000	21.6	8	-14.2	18.7	2.03	 .0724	23	1	100.0	1
02/25/24	20:20	-12.6	-12.6	-12.6	76	-16.0	6.1	ENE	0.10	7.0	ENE	-18.8	-12.7	-18.9	737.1	0.021	0.000	21.6	8	-14.1	18.7	2.03	 .0724	23	1	100.0	1
02/25/24	20:21	-12.7	-12.6	-12.7	76	-16.0	5.2	E	0.09	6.1	ENE	-18.2	-12.8	-18.3	737.1	0.022	0.000	21.6	8	-14.1	18.7	2.03	 .0724	24	1	100.0	1
02/25/24	20:22	-12.7	-12.7	-12.7	76	-16.0	5.2	E	0.09	6.1	E	-18.2	-12.8	-18.3	737.1	0.022	0.000	21.6	8	-14.2	18.7	2.03	 .0724	23	1	100.0	1
02/25/24	20:23	-12.7	-12.7	-12.7	76	-16.0	5.2	E	0.09	6.1	E	-18.2	-12.8	-18.3	737.0	0.022	0.000	21.6	8	-14.1	18.7	2.03	 .0724	24	1	100.0	1
02/25/24	20:24	-12.7	-12.7	-12.7	76	-16.0	4.3	E	0.07	6.1	E	-17.6	-12.8	-17.7	737.0	0.022	0.000	21.6	8	-14.1	18.7	2.03	 .0724	23	1	100.0	1
02/25/24	20:25	-12.7	-12.6	-12.7	76	-16.0	4.3	E	0.07	6.1	E	-17.6	-12.8	-17.7	737.1	0.022	0.000	21.6	8	-14.1	18.7	2.03	 .0724	24	1	100.0	1
02/25/24	20:26	-12.7	-12.6	-12.7	76	-16.0	6.1	E	0.10	7.0	E	-18.8	-12.8	-18.9	737.0	0.022	0.000	21.6	8	-14.1	18.7	2.03	 .0724	23	1	100.0	1
02/25/24	20:27	-12.7	-12.7	-12.7	76	-16.0	6.1	ENE	0.10	7.0	E	-18.8	-12.8	-18.9	737.0	0.022	0.000	21.6	8	-14.1	18.7	2.03	 .0724	23	1	100.0	1
02/25/24	20:28	-12.7	-12.7	-12.7	77	-15.9	6.1	ENE	0.10	7.0	ENE	-18.8	-12.8	-18.9	737.1	0.022	0.000	21.6	8	-14.2	18.7	2.03	 .0724	24	1	100.0	1
02/25/24	20:29	-12.7	-12.7	-12.7	77	-15.9	7.0	ENE	0.12	7.8	ENE	-19.3	-12.8	-19.4	737.0	0.022	0.000	21.6	8	-14.2	18.7	2.03	 .0724	23	1	100.0	1
02/25/24	20:30	-12.7	-12.7	-12.7	77	-15.9	7.0	ENE	0.12	7.8	ENE	-19.3	-12.8	-19.4	737.1	0.022	0.000	21.6	8	-14.2	18.7	2.03	 .0724	24	1	100.0	1
02/25/24	20:31	-12.7	-12.7	-12.7	77	-15.9	7.0	ENE	0.12	7.8	ENE	-19.3	-12.8	-19.4	737.1	0.022	0.000	21.6	8	-14.2	18.7	2.03	 .0724	23	1	100.0	1
02/25/24	20:32	-12.6	-12.6	-12.7	77	-15.8	7.0	ENE	0.12	7.0	ENE	-19.3	-12.7	-19.4	737.1	0.021	0.000	21.6	8	-14.2	18.7	2.03	 .0724	23	1	100.0	1
02/25/24	20:33	-12.6	-12.6	-12.7	77	-15.8	6.1	E	0.10	7.0	ENE	-18.8	-12.7	-18.9	737.0	0.021	0.000	21.6	8	-14.2	18.7	2.03	 .0724	24	1	100.0	1
02/25/24	20:34	-12.6	-12.6	-12.6	77	-15.8	5.2	E	0.09	6.1	E	-18.1	-12.7	-18.2	737.1	0.021	0.000	21.6	8	-14.2	18.7	2.03	 .0724	23	1	100.0	1
02/25/24	20:35	-12.6	-12.6	-12.6	77	-15.8	3.5	E	0.06	4.3	E	-16.7	-12.7	-16.8	737.0	0.021	0.000	21.6	8	-14.2	18.7	2.03	 .0724	24	1	100.0	1
02/25/24	20:36	-12.6	-12.5	-12.6	77	-15.8	4.3	E	0.07	5.2	ESE	-17.5	-12.7	-17.6	737.0	0.021	0.000	21.6	8	-14.2	18.7	2.03	 .0724	23	1	100.0	1
02/25/24	20:37	-12.5	-12.5	-12.5	77	-15.7	4.3	E	0.07	6.1	E	-17.4	-12.6	-17.6	737.0	0.021	0.000	21.5	8	-14.2	18.6	2.04	 .0724	23	1	100.0	1
02/25/24	20:38	-12.5	-12.5	-12.5	77	-15.7	6.1	E	0.10	7.0	E	-18.6	-12.6	-18.7	737.0	0.021	0.000	21.5	8	-14.2	18.6	2.04	 .0724	24	1	100.0	1
02/25/24	20:39	-12.4	-12.4	-12.5	77	-15.6	6.1	E	0.10	7.8	E	-18.6	-12.6	-18.7	737.0	0.021	0.000	21.5	8	-14.2	18.6	2.04	 .0724	23	1	100.0	1
02/25/24	20:40	-12.4	-12.4	-12.5	77	-15.6	7.0	E	0.12	7.8	E	-19.1	-12.6	-19.2	737.0	0.021	0.000	21.6	8	-14.2	18.7	2.03	 .0724	24	1	100.0	1
02/25/24	20:41	-12.5	-12.4	-12.5	77	-15.7	7.0	ENE	0.12	7.8	ENE	-19.2	-12.6	-19.3	737.0	0.021	0.000	21.5	8	-14.2	18.6	2.04	 .0724	23	1	100.0	1
02/25/24	20:42	-12.5	-12.5	-12.5	77	-15.7	7.0	ENE	0.12	7.8	ENE	-19.2	-12.6	-19.3	737.0	0.021	0.000	21.5	8	-14.2	18.6	2.04	 .0724	24	1	100.0	1
02/25/24	20:43	-12.5	-12.5	-12.5	77	-15.7	6.1	ENE	0.10	7.8	ENE	-18.6	-12.6	-18.7	737.0	0.021	0.000	21.5	8	-14.2	18.6	2.04	 .0724	23	1	100.0	1
02/25/24	20:44	-12.5	-12.5	-12.5	77	-15.7	7.0	E	0.12	7.8	E	-19.2	-12.6	-19.3	737.1	0.021	0.000	21.5	8	-14.2	18.6	2.04	 .0724	23	1	100.0	1
02/25/24	20:45	-12.5	-12.5	-12.5	77	-15.7	6.1	E	0.10	7.0	E	-18.6	-12.6	-18.7	737.1	0.021	0.000	21.5	8	-14.2	18.6	2.04	 .0724	24	1	100.0	1
02/25/24	20:46	-12.5	-12.5	-12.5	77	-15.7	5.2	E	0.09	6.1	E	-18.1	-12.6	-18.2	737.1	0.021	0.000	21.5	8	-14.2	18.6	2.04	 .0724	23	1	100.0	1
02/25/24	20:47	-12.4	-12.4	-12.5	77	-15.6	4.3	E	0.07	6.1	E	-17.3	-12.6	-17.4	737.1	0.021	0.000	21.5	8	-14.2	18.6	2.04	 .0724	24	1	100.0	1
02/25/24	20:48	-12.4	-12.4	-12.4	77	-15.6	5.2	E	0.09	6.1	E	-17.9	-12.5	-18.0	737.1	0.021	0.000	21.5	8	-14.2	18.6	2.04	 .0724	23	1	100.0	1
02/25/24	20:49	-12.3	-12.3	-12.4	77	-15.5	5.2	ENE	0.09	7.0	ENE	-17.8	-12.4	-17.9	737.1	0.021	0.000	21.4	8	-14.3	18.4	2.04	 .0724	23	1	100.0	1
02/25/24	20:50	-12.3	-12.3	-12.3	78	-15.4	7.0	ENE	0.12	8.7	E	-18.9	-12.4	-19.0	737.1	0.021	0.000	21.5	8	-14.2	18.6	2.04	 .0724	24	1	100.0	1
02/25/24	20:51	-12.3	-12.3	-12.4	78	-15.4	7.8	E	0.13	7.8	E	-19.4	-12.4	-19.4	737.0	0.021	0.000	21.5	8	-14.2	18.6	2.04	 .0724	23	1	100.0	1
02/25/24	20:52	-12.4	-12.4	-12.4	78	-15.4	7.0	E	0.12	7.8	E	-19.0	-12.4	-19.1	737.0	0.021	0.000	21.5	8	-14.2	18.6	2.04	 .0724	24	1	100.0	1
02/25/24	20:53	-12.4	-12.4	-12.4	78	-15.4	6.1	E	0.10	7.0	E	-18.5	-12.4	-18.6	737.1	0.021	0.000	21.5	8	-14.2	18.6	2.04	 .0724	23	1	100.0	1
02/25/24	20:54	-12.4	-12.4	-12.4	77	-15.6	7.0	E	0.12	7.8	E	-19.1	-12.6	-19.2	737.1	0.021	0.000	21.5	8	-14.2	18.6	2.04	 .0724	24	1	100.0	1
02/25/24	20:55	-12.4	-12.4	-12.4	77	-15.6	7.0	ENE	0.12	7.8	E	-19.1	-12.6	-19.2	737.1	0.021	0.000	21.5	8	-14.2	18.6	2.04	 .0724	23	1	100.0	1
02/25/24	20:56	-12.5	-12.4	-12.5	77	-15.7	7.0	ENE	0.12	7.8	ENE	-19.2	-12.6	-19.3	737.1	0.021	0.000	21.5	8	-14.2	18.6	2.04	 .0724	23	1	100.0	1
02/25/24	20:57	-12.5	-12.5	-12.5	77	-15.7	7.0	ENE	0.12	7.8	ENE	-19.2	-12.6	-19.3	737.1	0.021	0.000	21.6	8	-14.2	18.7	2.03	 .0724	24	1	100.0	1
02/25/24	20:58	-12.5	-12.5	-12.5	77	-15.7	6.1	E	0.10	7.8	E	-18.6	-12.6	-18.7	737.1	0.021	0.000	21.6	8	-14.2	18.7	2.03	 .0724	23	1	100.0	1
02/25/24	20:59	-12.5	-12.5	-12.5	77	-15.7	5.2	ENE	0.09	7.0	ENE	-18.1	-12.6	-18.2	737.1	0.021	0.000	21.6	8	-14.2	18.7	2.03	 .0724	24	1	100.0	1
02/25/24	21:00	-12.4	-12.4	-12.4	77	-15.6	5.2	ENE	0.09	6.1	ENE	-17.9	-12.6	-18.1	737.1	0.021	0.000	21.6	8	-14.2	18.7	2.03	 .0724	23	1	100.0	1
02/25/24	21:01	-12.4	-12.4	-12.5	77	-15.6	4.3	ENE	0.07	5.2	ENE	-17.3	-12.6	-17.4	737.1	0.021	0.000	21.6	8	-14.1	18.7	2.03	 .0724	23	1	100.0	1
02/25/24	21:02	-12.4	-12.4	-12.4	77	-15.6	3.5	ENE	0.06	4.3	ENE	-16.6	-12.6	-16.7	737.1	0.021	0.000	21.6	8	-14.1	18.7	2.03	 .0724	24	1	100.0	1
02/25/24	21:03	-12.4	-12.4	-12.4	77	-15.6	3.5	ENE	0.06	5.2	ENE	-16.6	-12.6	-16.7	737.1	0.021	0.000	21.6	8	-14.1	18.7	2.03	 .0724	23	1	100.0	1
02/25/24	21:04	-12.4	-12.4	-12.4	77	-15.6	3.5	ENE	0.06	4.3	ENE	-16.6	-12.6	-16.7	737.1	0.021	0.000	21.6	8	-14.1	18.7	2.03	 .0724	24	1	100.0	1
02/25/24	21:05	-12.4	-12.4	-12.4	78	-15.4	4.3	ENE	0.07	5.2	ENE	-17.3	-12.4	-17.3	737.1	0.021	0.000	21.6	8	-14.1	18.7	2.03	 .0724	23	1	100.0	1
02/25/24	21:06	-12.3	-12.3	-12.4	78	-15.4	4.3	E	0.07	6.1	ENE	-17.2	-12.4	-17.3	737.1	0.021	0.000	21.6	8	-14.1	18.7	2.03	 .0724	24	1	100.0	1
02/25/24	21:07	-12.3	-12.3	-12.3	78	-15.3	4.3	E	0.07	5.2	E	-17.2	-12.3	-17.2	737.1	0.021	0.000	21.6	8	-14.1	18.7	2.03	 .0724	23	1	100.0	1
02/25/24	21:08	-12.3	-12.3	-12.3	78	-15.3	3.5	E	0.06	5.2	ESE	-16.4	-12.3	-16.4	737.1	0.021	0.000	21.6	8	-14.1	18.7	2.03	 .0724	23	1	100.0	1
02/25/24	21:09	-12.2	-12.2	-12.2	78	-15.3	3.5	E	0.06	6.1	ESE	-16.3	-12.3	-16.3	737.1	0.021	0.000	21.7	8	-14.1	18.8	2.03	 .0724	24	1	100.0	1
02/25/24	21:10	-12.2	-12.2	-12.2	77	-15.4	3.5	ESE	0.06	5.2	E	-16.2	-12.3	-16.3	737.1	0.021	0.000	21.6	8	-14.1	18.7	2.03	 .0724	23	1	100.0	1
02/25/24	21:11	-12.1	-12.1	-12.1	77	-15.3	2.6	E	0.04	5.2	E	-15.1	-12.2	-15.2	737.1	0.021	0.000	21.6	8	-14.1	18.7	2.03	 .0724	24	1	100.0	1
02/25/24	21:12	-12.0	-12.0	-12.1	77	-15.2	2.6	E	0.04	5.2	E	-15.1	-12.1	-15.2	737.1	0.021	0.000	21.6	8	-14.1	18.7	2.03	 .0724	23	1	100.0	1
02/25/24	21:13	-11.9	-11.9	-11.9	77	-15.1	5.2	ENE	0.09	7.0	ENE	-17.4	-12.0	-17.5	737.1	0.021	0.000	21.6	8	-14.1	18.7	2.03	 .0724	23	1	100.0	1
02/25/24	21:14	-11.9	-11.9	-11.9	78	-14.9	5.2	ENE	0.09	7.0	ENE	-17.4	-12.0	-17.5	737.1	0.021	0.000	21.6	8	-14.1	18.7	2.03	 .0724	24	1	100.0	1
02/25/24	21:15	-11.9	-11.9	-11.9	78	-14.9	3.5	ENE	0.06	4.3	ENE	-15.9	-12.0	-16.0	737.1	0.021	0.000	21.6	8	-14.1	18.7	2.03	 .0724	23	1	100.0	1
02/25/24	21:16	-11.9	-11.9	-11.9	78	-14.9	4.3	ESE	0.07	5.2	ESE	-16.7	-12.0	-16.8	737.1	0.021	0.000	21.6	8	-14.1	18.7	2.03	 .0724	24	1	100.0	1
02/25/24	21:17	-11.9	-11.9	-11.9	77	-15.1	5.2	ESE	0.09	6.1	ESE	-17.4	-12.0	-17.5	737.1	0.021	0.000	21.6	8	-14.1	18.7	2.03	 .0724	23	1	100.0	1
02/25/24	21:18	-11.8	-11.8	-11.9	77	-15.1	4.3	ESE	0.07	5.2	ESE	-16.6	-11.9	-16.7	737.0	0.021	0.000	21.6	8	-14.1	18.7	2.03	 .0724	24	1	100.0	1
02/25/24	21:19	-11.8	-11.8	-11.8	77	-15.1	5.2	SE	0.09	6.1	SE	-17.3	-11.9	-17.4	737.0	0.021	0.000	21.6	8	-14.1	18.7	2.03	 .0724	23	1	100.0	1
02/25/24	21:20	-11.8	-11.8	-11.8	77	-15.0	6.1	SE	0.10	7.0	SE	-17.8	-11.9	-17.9	737.0	0.021	0.000	21.6	8	-14.1	18.7	2.03	 .0724	23	1	100.0	1
02/25/24	21:21	-11.7	-11.7	-11.8	77	-14.9	6.1	ESE	0.10	7.0	ESE	-17.7	-11.8	-17.8	737.0	0.021	0.000	21.6	8	-14.1	18.7	2.03	 .0724	24	1	100.0	1
02/25/24	21:22	-11.7	-11.7	-11.7	77	-14.9	6.1	ESE	0.10	7.0	ESE	-17.7	-11.8	-17.8	737.0	0.021	0.000	21.6	8	-14.1	18.7	2.03	 .0724	23	1	100.0	1
02/25/24	21:23	-11.7	-11.7	-11.7	77	-14.9	6.1	ESE	0.10	7.0	ESE	-17.7	-11.8	-17.8	737.0	0.021	0.000	21.6	8	-14.1	18.7	2.03	 .0724	24	1	100.0	1
02/25/24	21:24	-11.6	-11.6	-11.7	77	-14.8	5.2	ESE	0.09	6.1	ESE	-17.1	-11.7	-17.2	737.0	0.021	0.000	21.6	8	-14.2	18.7	2.03	 .0724	23	1	100.0	1
02/25/24	21:25	-11.6	-11.6	-11.7	77	-14.8	5.2	ESE	0.09	6.1	ESE	-17.1	-11.7	-17.2	737.0	0.021	0.000	21.6	8	-14.2	18.7	2.03	 .0724	23	1	100.0	1
02/25/24	21:26	-11.6	-11.6	-11.6	77	-14.8	5.2	E	0.09	6.1	ESE	-16.9	-11.7	-17.1	737.0	0.021	0.000	21.6	8	-14.2	18.7	2.03	 .0724	24	1	100.0	1
02/25/24	21:27	-11.5	-11.5	-11.6	77	-14.7	5.2	E	0.09	6.1	E	-16.9	-11.6	-17.0	737.0	0.021	0.000	21.6	8	-14.2	18.7	2.03	 .0724	23	1	100.0	1
02/25/24	21:28	-11.5	-11.5	-11.5	77	-14.7	5.2	E	0.09	6.1	E	-16.9	-11.6	-17.0	737.0	0.021	0.000	21.6	8	-14.2	18.7	2.03	 .0724	24	1	100.0	1
02/25/24	21:29	-11.5	-11.5	-11.5	77	-14.7	6.1	E	0.10	7.0	E	-17.4	-11.6	-17.6	737.0	0.021	0.000	21.6	8	-14.2	18.7	2.03	 .0724	23	1	100.0	1
02/25/24	21:30	-11.5	-11.5	-11.5	77	-14.7	6.1	E	0.10	7.0	E	-17.4	-11.6	-17.6	737.0	0.021	0.000	21.6	8	-14.2	18.7	2.03	 .0724	24	1	100.0	1
02/25/24	21:31	-11.5	-11.5	-11.5	77	-14.7	5.2	E	0.09	6.1	E	-16.9	-11.6	-17.0	737.0	0.021	0.000	21.6	8	-14.2	18.7	2.03	 .0724	23	1	100.0	1
02/25/24	21:32	-11.5	-11.5	-11.5	77	-14.7	3.5	E	0.06	5.2	E	-15.4	-11.6	-15.6	737.0	0.021	0.000	21.6	8	-14.2	18.7	2.03	 .0724	23	1	100.0	1
02/25/24	21:33	-11.6	-11.5	-11.6	77	-14.8	4.3	ENE	0.07	6.1	ENE	-16.3	-11.7	-16.4	737.1	0.021	0.000	21.5	8	-14.2	18.6	2.04	 .0724	24	1	100.0	1
02/25/24	21:34	-11.6	-11.6	-11.6	77	-14.8	4.3	E	0.07	6.1	ENE	-16.4	-11.7	-16.5	737.1	0.021	0.000	21.6	8	-14.2	18.7	2.03	 .0724	23	1	100.0	1
02/25/24	21:35	-11.7	-11.7	-11.7	77	-14.9	4.3	E	0.07	5.2	E	-16.4	-11.8	-16.6	737.1	0.021	0.000	21.6	8	-14.2	18.7	2.03	 .0724	24	1	100.0	1
02/25/24	21:36	-11.8	-11.7	-11.8	77	-15.0	4.3	E	0.07	6.1	E	-16.6	-11.9	-16.7	737.0	0.021	0.000	21.5	8	-14.2	18.6	2.04	 .0724	23	1	100.0	1
02/25/24	21:37	-11.8	-11.7	-11.8	77	-15.0	3.5	E	0.06	5.2	ESE	-15.8	-11.9	-15.9	737.0	0.021	0.000	21.6	8	-14.2	18.7	2.03	 .0724	23	1	100.0	1
02/25/24	21:38	-11.8	-11.8	-11.8	77	-15.0	5.2	E	0.09	6.1	E	-17.2	-11.9	-17.3	737.0	0.021	0.000	21.6	8	-14.2	18.7	2.03	 .0724	24	1	100.0	1
02/25/24	21:39	-11.8	-11.8	-11.8	77	-15.0	4.3	E	0.07	5.2	E	-16.6	-11.9	-16.7	737.0	0.021	0.000	21.6	8	-14.2	18.7	2.03	 .0724	23	1	100.0	1
02/25/24	21:40	-11.8	-11.8	-11.8	77	-15.1	6.1	E	0.10	7.0	E	-17.8	-11.9	-17.9	737.0	0.021	0.000	21.6	8	-14.2	18.7	2.03	 .0724	24	1	100.0	1
02/25/24	21:41	-11.8	-11.8	-11.8	77	-15.1	6.1	E	0.10	8.7	ENE	-17.8	-11.9	-17.9	737.1	0.021	0.000	21.6	8	-14.2	18.7	2.03	 .0724	23	1	100.0	1
02/25/24	21:42	-11.9	-11.8	-11.9	77	-15.1	7.8	E	0.13	9.6	E	-18.8	-12.0	-18.9	737.0	0.021	0.000	21.6	8	-14.2	18.7	2.03	 .0724	23	1	100.0	1
02/25/24	21:43	-11.9	-11.9	-11.9	77	-15.1	5.2	ESE	0.09	6.1	ESE	-17.4	-12.0	-17.5	737.0	0.021	0.000	21.6	8	-14.2	18.7	2.03	 .0724	24	1	100.0	1
02/25/24	21:44	-11.9	-11.9	-11.9	77	-15.1	3.5	ESE	0.06	5.2	E	-15.9	-12.0	-16.0	737.1	0.021	0.000	21.6	8	-14.1	18.7	2.03	 .0724	23	1	100.0	1
02/25/24	21:45	-11.9	-11.9	-11.9	77	-15.2	2.6	E	0.04	3.5	ESE	-15.0	-12.1	-15.1	737.1	0.021	0.000	21.6	8	-14.1	18.7	2.03	 .0724	24	1	100.0	1
02/25/24	21:46	-11.9	-11.9	-11.9	77	-15.2	2.6	E	0.04	2.6	E	-15.0	-12.1	-15.1	737.1	0.021	0.000	21.6	8	-14.1	18.7	2.03	 .0724	23	1	100.0	1
02/25/24	21:47	-11.9	-11.9	-11.9	77	-15.2	3.5	ESE	0.06	5.2	E	-16.0	-12.1	-16.1	737.0	0.021	0.000	21.6	8	-14.1	18.7	2.03	 .0724	24	1	100.0	1
02/25/24	21:48	-11.9	-11.9	-11.9	77	-15.2	2.6	E	0.04	3.5	E	-15.0	-12.1	-15.1	737.0	0.021	0.000	21.6	8	-14.1	18.7	2.03	 .0724	23	1	100.0	1
02/25/24	21:49	-11.9	-11.9	-11.9	77	-15.2	3.5	E	0.06	5.2	E	-16.0	-12.1	-16.1	737.1	0.021	0.000	21.7	8	-14.1	18.8	2.03	 .0724	23	1	100.0	1
02/25/24	21:50	-11.9	-11.9	-11.9	77	-15.2	3.5	E	0.06	3.5	E	-16.0	-12.1	-16.1	737.1	0.021	0.000	21.7	8	-14.1	18.8	2.03	 .0724	24	1	100.0	1
02/25/24	21:51	-11.9	-11.9	-11.9	77	-15.2	3.5	E	0.06	4.3	E	-16.0	-12.1	-16.1	737.0	0.021	0.000	21.7	8	-14.1	18.8	2.03	 .0724	23	1	100.0	1
02/25/24	21:52	-11.9	-11.9	-12.0	77	-15.2	3.5	E	0.06	4.3	E	-16.0	-12.1	-16.1	737.0	0.021	0.000	21.7	8	-14.1	18.8	2.03	 .0724	24	1	100.0	1
02/25/24	21:53	-12.0	-11.9	-12.0	77	-15.2	7.0	ENE	0.12	7.8	ENE	-18.6	-12.1	-18.7	737.1	0.021	0.000	21.7	8	-14.1	18.8	2.03	 .0724	23	1	100.0	1
02/25/24	21:54	-12.1	-12.0	-12.1	77	-15.3	7.0	ENE	0.12	8.7	ENE	-18.6	-12.2	-18.7	737.1	0.021	0.000	21.7	8	-14.1	18.8	2.03	 .0724	23	1	100.0	1
02/25/24	21:55	-12.1	-12.1	-12.1	77	-15.3	5.2	ENE	0.09	6.1	ENE	-17.6	-12.2	-17.7	737.1	0.021	0.000	21.7	8	-14.1	18.8	2.03	 .0724	24	1	100.0	1
02/25/24	21:56	-12.2	-12.1	-12.2	77	-15.4	5.2	ENE	0.09	6.1	ENE	-17.7	-12.3	-17.8	737.1	0.021	0.000	21.7	8	-14.1	18.8	2.03	 .0724	23	1	100.0	1
02/25/24	21:57	-12.2	-12.2	-12.2	77	-15.4	5.2	ENE	0.09	7.0	ENE	-17.8	-12.3	-17.9	737.1	0.021	0.000	21.7	8	-14.1	18.8	2.03	 .0724	24	1	100.0	1
02/25/24	21:58	-12.2	-12.2	-12.2	77	-15.4	4.3	ENE	0.07	6.1	ENE	-17.0	-12.3	-17.1	737.1	0.021	0.000	21.7	8	-14.1	18.8	2.03	 .0724	23	1	100.0	1
02/25/24	21:59	-12.2	-12.2	-12.2	77	-15.4	4.3	ENE	0.07	5.2	ENE	-17.0	-12.3	-17.1	737.1	0.021	0.000	21.7	8	-14.1	18.8	2.03	 .0724	24	1	100.0	1
02/25/24	22:00	-12.1	-12.1	-12.2	77	-15.3	4.3	ENE	0.07	4.3	ENE	-16.9	-12.2	-17.1	737.0	0.021	0.000	21.7	8	-14.1	18.8	2.03	 .0724	23	1	100.0	1
02/25/24	22:01	-12.1	-12.1	-12.1	77	-15.3	4.3	ENE	0.07	6.1	ENE	-16.9	-12.2	-17.0	737.1	0.021	0.000	21.7	8	-14.1	18.8	2.03	 .0724	23	1	100.0	1
02/25/24	22:02	-12.0	-12.0	-12.1	77	-15.2	5.2	E	0.09	6.1	E	-17.5	-12.1	-17.6	737.0	0.021	0.000	21.7	8	-14.1	18.8	2.03	 .0724	24	1	100.0	1
02/25/24	22:03	-11.9	-11.9	-12.0	77	-15.2	5.2	ENE	0.09	6.1	ENE	-17.4	-12.1	-17.6	737.0	0.021	0.000	21.7	8	-14.1	18.8	2.03	 .0724	23	1	100.0	1
02/25/24	22:04	-11.9	-11.9	-11.9	77	-15.2	5.2	ENE	0.09	7.0	ENE	-17.4	-12.1	-17.6	737.0	0.021	0.000	21.7	8	-14.1	18.8	2.03	 .0724	24	1	100.0	1
02/25/24	22:05	-11.9	-11.9	-11.9	77	-15.2	5.2	ENE	0.09	7.0	ENE	-17.4	-12.1	-17.6	737.0	0.021	0.000	21.7	8	-14.1	18.8	2.03	 .0724	23	1	100.0	1
02/25/24	22:06	-11.9	-11.9	-12.0	77	-15.2	6.1	ENE	0.10	7.0	ENE	-17.9	-12.1	-18.1	737.0	0.021	0.000	21.7	8	-14.1	18.8	2.03	 .0724	23	1	100.0	1
02/25/24	22:07	-12.0	-12.0	-12.0	77	-15.2	6.1	ENE	0.10	7.0	ENE	-18.0	-12.1	-18.1	737.0	0.021	0.000	21.6	8	-14.1	18.7	2.03	 .0724	24	1	100.0	1
02/25/24	22:08	-12.1	-12.0	-12.1	77	-15.3	5.2	E	0.09	7.0	ENE	-17.6	-12.2	-17.7	737.0	0.021	0.000	21.6	8	-14.1	18.7	2.03	 .0724	23	1	100.0	1
02/25/24	22:09	-12.0	-12.0	-12.1	77	-15.2	4.3	E	0.07	6.1	E	-16.8	-12.1	-16.9	737.0	0.021	0.000	21.6	9	-12.7	18.8	2.31	 .0724	24	1	100.0	1
02/25/24	22:10	-12.0	-12.0	-12.0	77	-15.2	4.3	E	0.07	6.1	E	-16.8	-12.1	-16.9	737.0	0.021	0.000	21.6	8	-14.1	18.7	2.03	 .0724	23	1	100.0	1
02/25/24	22:11	-11.9	-11.9	-12.0	77	-15.2	4.3	E	0.07	6.1	E	-16.8	-12.1	-16.9	737.0	0.021	0.000	21.6	8	-14.1	18.7	2.03	 .0724	24	1	100.0	1
02/25/24	22:12	-11.9	-11.9	-11.9	77	-15.1	4.3	E	0.07	5.2	E	-16.7	-12.0	-16.8	737.0	0.021	0.000	21.6	9	-12.7	18.8	2.31	 .0724	23	1	100.0	1
02/25/24	22:13	-11.8	-11.8	-11.9	77	-15.1	6.1	ENE	0.10	8.7	ENE	-17.8	-11.9	-17.9	737.0	0.021	0.000	21.6	8	-14.1	18.7	2.03	 .0724	23	1	100.0	1
02/25/24	22:14	-12.0	-11.8	-12.0	77	-15.2	7.8	ENE	0.13	8.7	ENE	-19.0	-12.1	-19.1	737.1	0.021	0.000	21.6	9	-12.7	18.7	2.32	 .0724	24	1	100.0	1
02/25/24	22:15	-12.1	-12.0	-12.1	77	-15.3	7.0	ENE	0.12	8.7	ENE	-18.7	-12.2	-18.8	737.1	0.021	0.000	21.6	9	-12.7	18.7	2.32	 .0724	23	1	100.0	1
02/25/24	22:16	-12.2	-12.2	-12.2	77	-15.4	8.7	ENE	0.14	8.7	NE	-19.7	-12.3	-19.8	737.1	0.021	0.000	21.6	9	-12.7	18.7	2.32	 .0724	24	1	100.0	1
02/25/24	22:17	-12.3	-12.3	-12.3	77	-15.5	7.8	ENE	0.13	8.7	ENE	-19.4	-12.4	-19.5	737.0	0.021	0.000	21.6	9	-12.7	18.7	2.32	 .0724	23	1	100.0	1
02/25/24	22:18	-12.3	-12.3	-12.3	77	-15.5	7.0	ENE	0.12	7.8	ENE	-18.9	-12.4	-19.1	737.0	0.021	0.000	21.6	9	-12.7	18.7	2.32	 .0724	23	1	100.0	1
02/25/24	22:19	-12.3	-12.3	-12.3	77	-15.5	7.8	ENE	0.13	8.7	ENE	-19.4	-12.4	-19.5	737.1	0.021	0.000	21.6	9	-12.7	18.7	2.32	 .0724	24	1	100.0	1
02/25/24	22:20	-12.3	-12.3	-12.3	77	-15.5	8.7	ENE	0.14	9.6	ENE	-19.8	-12.4	-19.9	737.1	0.021	0.000	21.6	9	-12.7	18.7	2.32	 .0724	23	1	100.0	1
02/25/24	22:21	-12.3	-12.3	-12.3	77	-15.5	8.7	ENE	0.14	9.6	ENE	-19.8	-12.4	-19.9	737.1	0.021	0.000	21.5	9	-12.8	18.6	2.32	 .0724	24	1	100.0	1
02/25/24	22:22	-12.4	-12.4	-12.4	77	-15.6	8.7	ENE	0.14	9.6	ENE	-19.9	-12.6	-20.1	737.1	0.021	0.000	21.5	9	-12.8	18.6	2.32	 .0724	23	1	100.0	1
02/25/24	22:23	-12.4	-12.4	-12.5	77	-15.6	7.0	ENE	0.12	7.8	ENE	-19.1	-12.6	-19.2	737.1	0.021	0.000	21.5	9	-12.8	18.6	2.32	 .0724	23	1	100.0	1
02/25/24	22:24	-12.4	-12.4	-12.4	77	-15.6	6.1	ENE	0.10	7.0	ENE	-18.6	-12.6	-18.7	737.1	0.021	0.000	21.5	8	-14.2	18.6	2.04	 .0724	24	1	100.0	1
02/25/24	22:25	-12.4	-12.4	-12.4	77	-15.6	7.0	ENE	0.12	7.8	ENE	-19.1	-12.6	-19.2	737.0	0.021	0.000	21.5	8	-14.2	18.6	2.04	 .0724	23	1	100.0	1
02/25/24	22:26	-12.5	-12.4	-12.5	77	-15.7	7.0	ENE	0.12	7.8	ENE	-19.2	-12.6	-19.3	737.1	0.021	0.000	21.5	8	-14.2	18.6	2.04	 .0724	24	1	100.0	1
02/25/24	22:27	-12.6	-12.5	-12.6	77	-15.8	7.0	ENE	0.12	8.7	ENE	-19.2	-12.7	-19.3	737.0	0.021	0.000	21.5	8	-14.2	18.6	2.04	 .0724	23	1	100.0	1
02/25/24	22:28	-12.6	-12.6	-12.6	77	-15.8	8.7	ENE	0.14	9.6	ENE	-20.2	-12.7	-20.3	737.1	0.021	0.000	21.5	8	-14.2	18.6	2.04	 .0724	24	1	100.0	1
02/25/24	22:29	-12.7	-12.6	-12.7	77	-15.9	8.7	ENE	0.14	9.6	ENE	-20.2	-12.8	-20.3	737.1	0.022	0.000	21.6	8	-14.2	18.7	2.03	 .0724	23	1	100.0	1
02/25/24	22:30	-12.7	-12.7	-12.7	77	-15.9	9.6	ENE	0.16	10.4	ENE	-20.7	-12.8	-20.8	737.0	0.022	0.000	21.6	8	-14.2	18.7	2.03	 .0724	23	1	100.0	1
02/25/24	22:31	-12.8	-12.7	-12.8	78	-15.8	8.7	ENE	0.14	9.6	ENE	-20.4	-12.8	-20.4	737.0	0.022	0.000	21.6	8	-14.2	18.7	2.03	 .0724	24	1	100.0	1
02/25/24	22:32	-12.8	-12.8	-12.8	78	-15.9	8.7	ENE	0.14	9.6	ENE	-20.4	-12.9	-20.5	737.0	0.022	0.000	21.6	8	-14.2	18.7	2.03	 .0724	23	1	100.0	1
02/25/24	22:33	-12.8	-12.8	-12.8	77	-16.0	8.7	ENE	0.14	9.6	ENE	-20.4	-12.9	-20.6	737.1	0.022	0.000	21.6	8	-14.1	18.7	2.03	 .0724	24	1	100.0	1
02/25/24	22:34	-12.8	-12.8	-12.8	77	-16.0	7.8	ENE	0.13	9.6	E	-20.0	-12.9	-20.1	737.0	0.022	0.000	21.6	8	-14.1	18.7	2.03	 .0724	23	1	100.0	1
02/25/24	22:35	-12.8	-12.8	-12.8	78	-15.8	8.7	ENE	0.14	9.6	ENE	-20.4	-12.8	-20.4	737.1	0.022	0.000	21.6	8	-14.1	18.7	2.03	 .0724	23	1	100.0	1
02/25/24	22:36	-12.7	-12.7	-12.7	78	-15.7	7.8	ENE	0.13	9.6	ENE	-19.8	-12.7	-19.9	737.1	0.022	0.000	21.6	8	-14.1	18.7	2.03	 .0724	24	1	100.0	1
02/25/24	22:37	-12.7	-12.7	-12.7	78	-15.7	7.8	ENE	0.13	8.7	ENE	-19.8	-12.7	-19.9	737.1	0.022	0.000	21.7	8	-14.1	18.8	2.03	 .0724	23	1	100.0	1
02/25/24	22:38	-12.6	-12.6	-12.7	78	-15.7	7.8	ENE	0.13	8.7	ENE	-19.7	-12.7	-19.8	737.1	0.021	0.000	21.7	8	-14.1	18.8	2.03	 .0724	24	1	100.0	1
02/25/24	22:39	-12.5	-12.5	-12.6	77	-15.7	7.0	ENE	0.12	7.8	ENE	-19.2	-12.6	-19.3	737.1	0.021	0.000	21.7	8	-14.1	18.8	2.03	 .0724	23	1	100.0	1
02/25/24	22:40	-12.4	-12.4	-12.5	77	-15.6	7.0	E	0.12	7.8	E	-19.1	-12.6	-19.2	737.1	0.021	0.000	21.7	8	-14.1	18.8	2.03	 .0724	24	1	100.0	1
02/25/24	22:41	-12.4	-12.4	-12.4	77	-15.6	7.0	E	0.12	8.7	E	-19.0	-12.5	-19.1	737.0	0.021	0.000	21.7	8	-14.1	18.8	2.03	 .0724	23	1	100.0	1
02/25/24	22:42	-12.4	-12.3	-12.4	77	-15.6	7.0	E	0.12	8.7	E	-19.0	-12.5	-19.1	737.1	0.021	0.000	21.7	8	-14.0	18.9	2.03	 .0724	23	1	100.0	1
02/25/24	22:43	-12.4	-12.4	-12.4	77	-15.6	7.0	E	0.12	7.8	E	-19.0	-12.5	-19.1	737.0	0.021	0.000	21.7	8	-14.0	18.9	2.03	 .0724	24	1	100.0	1
02/25/24	22:44	-12.4	-12.4	-12.4	77	-15.6	7.0	E	0.12	7.8	E	-19.1	-12.6	-19.2	737.0	0.021	0.000	21.7	9	-12.6	18.9	2.31	 .0723	23	1	100.0	1
02/25/24	22:45	-12.4	-12.4	-12.4	77	-15.6	5.2	E	0.09	6.1	E	-17.9	-12.5	-18.0	737.1	0.021	0.000	21.7	9	-12.6	18.9	2.31	 .0723	24	1	100.0	1
02/25/24	22:46	-12.3	-12.3	-12.4	77	-15.5	5.2	E	0.09	6.1	E	-17.8	-12.4	-17.9	737.1	0.021	0.000	21.7	9	-12.6	18.9	2.31	 .0723	23	1	100.0	1
02/25/24	22:47	-12.3	-12.3	-12.4	77	-15.5	5.2	E	0.09	6.1	E	-17.8	-12.4	-17.9	737.1	0.021	0.000	21.7	9	-12.6	18.9	2.31	 .0723	23	1	100.0	1
02/25/24	22:48	-12.3	-12.3	-12.3	77	-15.5	5.2	E	0.09	6.1	E	-17.8	-12.4	-17.9	737.1	0.021	0.000	21.7	9	-12.6	18.9	2.31	 .0723	24	1	100.0	1
02/25/24	22:49	-12.3	-12.2	-12.3	77	-15.5	6.1	E	0.10	7.0	ESE	-18.3	-12.4	-18.4	737.0	0.021	0.000	21.7	9	-12.6	18.9	2.31	 .0723	23	1	100.0	1
02/25/24	22:50	-12.2	-12.2	-12.2	77	-15.4	6.1	E	0.10	7.0	E	-18.3	-12.3	-18.4	737.0	0.021	0.000	21.7	9	-12.6	18.9	2.31	 .0723	24	1	100.0	1
02/25/24	22:51	-12.2	-12.2	-12.2	77	-15.4	6.1	E	0.10	7.0	ESE	-18.3	-12.3	-18.4	737.0	0.021	0.000	21.7	9	-12.6	18.9	2.31	 .0723	23	1	100.0	1
02/25/24	22:52	-12.2	-12.2	-12.2	77	-15.4	6.1	E	0.10	7.0	E	-18.3	-12.3	-18.4	737.0	0.021	0.000	21.7	9	-12.6	18.9	2.31	 .0723	24	1	100.0	1
02/25/24	22:53	-12.2	-12.2	-12.2	77	-15.4	5.2	E	0.09	6.1	E	-17.8	-12.3	-17.9	737.0	0.021	0.000	21.7	9	-12.6	18.9	2.31	 .0723	23	1	100.0	1
02/25/24	22:54	-12.2	-12.2	-12.2	77	-15.4	4.3	E	0.07	6.1	E	-17.0	-12.3	-17.1	737.1	0.021	0.000	21.7	9	-12.6	18.9	2.31	 .0723	23	1	100.0	1
02/25/24	22:55	-12.1	-12.1	-12.2	77	-15.3	5.2	E	0.09	6.1	E	-17.6	-12.2	-17.7	737.0	0.021	0.000	21.7	9	-12.6	18.9	2.31	 .0723	24	1	100.0	1
02/25/24	22:56	-12.1	-12.1	-12.1	77	-15.3	5.2	ESE	0.09	6.1	ESE	-17.6	-12.2	-17.7	737.0	0.021	0.000	21.7	9	-12.6	18.9	2.31	 .0723	23	1	100.0	1
02/25/24	22:57	-12.0	-12.0	-12.0	77	-15.2	5.2	E	0.09	6.1	E	-17.5	-12.1	-17.6	737.1	0.021	0.000	21.7	9	-12.6	18.8	2.31	 .0724	24	1	100.0	1
02/25/24	22:58	-12.1	-12.0	-12.1	77	-15.3	6.1	E	0.10	7.8	E	-18.1	-12.2	-18.2	737.0	0.021	0.000	21.7	9	-12.6	18.8	2.31	 .0724	23	1	100.0	1
02/25/24	22:59	-12.1	-12.1	-12.1	77	-15.3	7.0	E	0.12	7.0	E	-18.7	-12.2	-18.8	737.0	0.021	0.000	21.7	9	-12.6	18.8	2.31	 .0724	23	1	100.0	1
02/25/24	23:00	-12.2	-12.1	-12.2	76	-15.5	6.1	E	0.10	7.0	E	-18.2	-12.3	-18.3	737.0	0.021	0.000	21.7	9	-12.6	18.8	2.31	 .0723	24	1	100.0	1
02/25/24	23:01	-12.2	-12.2	-12.2	76	-15.6	5.2	E	0.09	6.1	E	-17.8	-12.3	-17.9	737.0	0.021	0.000	21.7	9	-12.6	18.8	2.31	 .0724	23	1	100.0	1
02/25/24	23:02	-12.2	-12.2	-12.2	76	-15.5	3.5	E	0.06	5.2	E	-16.2	-12.3	-16.3	737.0	0.021	0.000	21.7	9	-12.6	18.8	2.31	 .0724	24	1	100.0	1
02/25/24	23:03	-12.1	-12.1	-12.2	76	-15.5	2.6	ESE	0.04	3.5	ESE	-15.2	-12.2	-15.3	737.1	0.021	0.000	21.6	9	-12.7	18.8	2.31	 .0724	23	1	100.0	1
02/25/24	23:04	-12.0	-12.0	-12.1	76	-15.4	3.5	E	0.06	4.3	E	-16.1	-12.1	-16.2	737.1	0.021	0.000	21.6	9	-12.7	18.8	2.31	 .0724	23	1	100.0	1
02/25/24	23:05	-11.9	-11.9	-11.9	76	-15.3	4.3	E	0.07	5.2	E	-16.7	-12.0	-16.8	737.1	0.021	0.000	21.6	9	-12.7	18.8	2.31	 .0724	24	1	100.0	1
02/25/24	23:06	-11.8	-11.8	-11.8	76	-15.2	4.3	E	0.07	6.1	E	-16.6	-11.9	-16.7	737.1	0.021	0.000	21.6	9	-12.7	18.8	2.31	 .0724	23	1	100.0	1
02/25/24	23:07	-11.7	-11.7	-11.8	76	-15.1	5.2	E	0.09	6.1	E	-17.2	-11.8	-17.3	737.0	0.021	0.000	21.6	9	-12.7	18.8	2.31	 .0724	24	1	100.0	1
02/25/24	23:08	-11.7	-11.7	-11.7	76	-15.0	5.2	E	0.09	6.1	E	-17.1	-11.8	-17.2	737.0	0.021	0.000	21.6	9	-12.7	18.8	2.31	 .0724	23	1	100.0	1
02/25/24	23:09	-11.6	-11.6	-11.7	76	-15.0	4.3	E	0.07	5.2	E	-16.4	-11.7	-16.5	737.0	0.021	0.000	21.6	9	-12.7	18.8	2.31	 .0724	24	1	100.0	1
02/25/24	23:10	-11.6	-11.6	-11.6	76	-15.0	5.2	ESE	0.09	7.0	ESE	-17.1	-11.7	-17.2	737.1	0.021	0.000	21.6	9	-12.7	18.8	2.31	 .0724	23	1	100.0	1
02/25/24	23:11	-11.6	-11.6	-11.6	76	-15.0	4.3	ESE	0.07	6.1	ESE	-16.4	-11.7	-16.5	737.1	0.021	0.000	21.6	9	-12.7	18.8	2.31	 .0724	23	1	100.0	1
02/25/24	23:12	-11.7	-11.6	-11.7	76	-15.0	7.8	E	0.13	9.6	E	-18.6	-11.8	-18.7	737.1	0.021	0.000	21.6	9	-12.7	18.7	2.32	 .0724	24	1	100.0	1
02/25/24	23:13	-11.8	-11.7	-11.8	76	-15.2	7.8	ENE	0.13	9.6	E	-18.7	-11.9	-18.8	737.1	0.021	0.000	21.6	9	-12.7	18.7	2.32	 .0724	23	1	100.0	1
02/25/24	23:14	-11.9	-11.8	-11.9	76	-15.3	8.7	ENE	0.14	10.4	ENE	-19.3	-12.1	-19.4	737.1	0.021	0.000	21.6	9	-12.7	18.7	2.32	 .0724	24	1	100.0	1
02/25/24	23:15	-12.1	-11.9	-12.1	76	-15.5	10.4	ENE	0.17	11.3	ENE	-20.3	-12.2	-20.4	737.1	0.021	0.000	21.6	9	-12.7	18.7	2.32	 .0724	23	1	100.0	1
02/25/24	23:16	-12.3	-12.2	-12.3	76	-15.6	9.6	ENE	0.16	11.3	ENE	-20.2	-12.4	-20.3	737.1	0.021	0.000	21.6	9	-12.7	18.7	2.32	 .0724	23	1	100.0	1
02/25/24	23:17	-12.4	-12.3	-12.4	76	-15.7	10.4	ENE	0.17	11.3	ENE	-20.7	-12.5	-20.8	737.1	0.021	0.000	21.6	9	-12.7	18.7	2.32	 .0724	24	1	100.0	1
02/25/24	23:18	-12.4	-12.4	-12.4	76	-15.8	10.4	E	0.17	12.2	E	-20.7	-12.6	-20.8	737.1	0.021	0.000	21.6	9	-12.7	18.7	2.32	 .0724	23	1	100.0	1
02/25/24	23:19	-12.4	-12.4	-12.4	76	-15.8	11.3	E	0.19	13.0	E	-21.1	-12.6	-21.2	737.1	0.021	0.000	21.6	9	-12.7	18.8	2.31	 .0724	24	1	100.0	1
02/25/24	23:20	-12.5	-12.4	-12.5	76	-15.9	9.6	E	0.16	11.3	E	-20.4	-12.6	-20.6	737.1	0.021	0.000	21.6	9	-12.7	18.8	2.31	 .0724	23	1	100.0	1
02/25/24	23:21	-12.5	-12.5	-12.5	76	-15.9	12.2	E	0.20	14.8	E	-21.4	-12.6	-21.6	737.1	0.021	0.000	21.6	9	-12.7	18.8	2.31	 .0724	24	1	100.0	1
02/25/24	23:22	-12.6	-12.6	-12.6	76	-16.0	13.0	E	0.22	13.9	E	-21.9	-12.7	-22.0	737.1	0.021	0.000	21.6	9	-12.7	18.8	2.31	 .0724	23	1	100.0	1
02/25/24	23:23	-12.8	-12.7	-12.8	76	-16.1	11.3	E	0.19	12.2	E	-21.5	-12.9	-21.6	737.1	0.022	0.000	21.6	9	-12.7	18.8	2.31	 .0724	23	1	100.0	1
02/25/24	23:24	-13.0	-12.8	-13.0	77	-16.2	10.4	E	0.17	11.3	E	-21.4	-13.1	-21.5	737.1	0.022	0.000	21.6	9	-12.7	18.8	2.31	 .0724	24	1	100.0	1
02/25/24	23:25	-13.2	-13.0	-13.2	76	-16.6	11.3	E	0.19	12.2	E	-22.1	-13.3	-22.2	737.1	0.022	0.000	21.7	9	-12.6	18.8	2.31	 .0724	23	1	100.0	1
02/25/24	23:26	-13.3	-13.2	-13.3	76	-16.7	11.3	ENE	0.19	12.2	ENE	-22.2	-13.4	-22.3	737.1	0.022	0.000	21.7	9	-12.6	18.8	2.31	 .0724	24	1	100.0	1
02/25/24	23:27	-13.4	-13.3	-13.4	77	-16.6	9.6	ENE	0.16	11.3	ENE	-21.6	-13.6	-21.7	737.1	0.022	0.000	21.7	9	-12.6	18.8	2.31	 .0724	23	1	100.0	1
02/25/24	23:28	-13.6	-13.5	-13.6	77	-16.7	11.3	ENE	0.19	13.0	ENE	-22.4	-13.7	-22.6	737.1	0.022	0.000	21.7	9	-12.6	18.9	2.31	 .0723	23	1	100.0	1
02/25/24	23:29	-13.6	-13.6	-13.6	77	-16.8	12.2	ENE	0.20	13.0	ENE	-22.8	-13.7	-22.9	737.1	0.022	0.000	21.7	9	-12.6	18.9	2.31	 .0723	24	1	100.0	1
02/25/24	23:30	-13.6	-13.6	-13.6	77	-16.7	13.0	ENE	0.22	13.0	ENE	-23.1	-13.7	-23.2	737.1	0.022	0.000	21.7	9	-12.6	18.9	2.31	 .0723	23	1	100.0	1
02/25/24	23:31	-13.5	-13.5	-13.6	77	-16.7	12.2	ENE	0.20	13.0	ENE	-22.7	-13.6	-22.8	737.1	0.022	0.000	21.7	9	-12.6	18.9	2.31	 .0723	24	1	100.0	1
02/25/24	23:32	-13.5	-13.5	-13.5	77	-16.7	13.0	ENE	0.22	13.9	ENE	-23.0	-13.6	-23.1	737.1	0.022	0.000	21.7	9	-12.6	18.9	2.31	 .0723	23	1	100.0	1
02/25/24	23:33	-13.6	-13.5	-13.6	77	-16.7	8.7	ENE	0.14	10.4	ENE	-21.3	-13.7	-21.4	737.1	0.022	0.000	21.8	9	-12.6	19.0	2.30	 .0723	24	1	100.0	1
02/25/24	23:34	-13.6	-13.6	-13.6	77	-16.8	8.7	E	0.14	11.3	E	-21.4	-13.7	-21.5	737.1	0.022	0.000	21.8	9	-12.6	19.0	2.30	 .0723	23	1	100.0	1
02/25/24	23:35	-13.7	-13.6	-13.7	77	-16.9	7.8	ENE	0.13	10.4	ENE	-21.1	-13.8	-21.2	737.1	0.022	0.000	21.8	9	-12.6	19.0	2.30	 .0723	23	1	100.0	1
02/25/24	23:36	-13.9	-13.8	-13.9	77	-17.1	8.7	ENE	0.14	10.4	ENE	-21.8	-14.1	-21.9	737.1	0.022	0.000	21.8	9	-12.6	19.0	2.30	 .0723	24	1	100.0	1
02/25/24	23:37	-14.2	-13.9	-14.2	77	-17.3	10.4	E	0.17	12.2	E	-22.9	-14.3	-23.0	737.1	0.023	0.000	21.8	9	-12.6	19.0	2.30	 .0723	23	1	100.0	1
02/25/24	23:38	-14.3	-14.2	-14.3	77	-17.4	11.3	E	0.19	12.2	E	-23.4	-14.4	-23.5	737.1	0.023	0.000	21.8	9	-12.6	19.0	2.30	 .0723	24	1	100.0	1
02/25/24	23:39	-14.3	-14.3	-14.3	77	-17.4	10.4	E	0.17	12.2	E	-23.0	-14.4	-23.1	737.0	0.023	0.000	21.8	9	-12.6	19.0	2.30	 .0723	23	1	100.0	1
02/25/24	23:40	-14.4	-14.3	-14.4	77	-17.5	10.4	ENE	0.17	12.2	ENE	-23.2	-14.5	-23.3	737.1	0.023	0.000	21.8	9	-12.6	19.0	2.30	 .0723	23	1	100.0	1
02/25/24	23:41	-14.4	-14.4	-14.4	77	-17.6	11.3	ENE	0.19	12.2	ENE	-23.6	-14.6	-23.7	737.0	0.023	0.000	21.8	9	-12.6	19.0	2.30	 .0723	24	1	100.0	1
02/25/24	23:42	-14.4	-14.4	-14.4	77	-17.5	11.3	ENE	0.19	12.2	ENE	-23.5	-14.5	-23.6	737.1	0.023	0.000	21.7	9	-12.6	18.9	2.31	 .0723	23	1	100.0	1
02/25/24	23:43	-14.3	-14.3	-14.4	77	-17.4	10.4	ENE	0.17	11.3	E	-23.0	-14.4	-23.1	737.1	0.023	0.000	21.7	9	-12.6	18.9	2.31	 .0723	24	1	100.0	1
02/25/24	23:44	-14.1	-14.1	-14.3	77	-17.2	8.7	ENE	0.14	10.4	ENE	-21.9	-14.2	-22.1	737.2	0.022	0.000	21.7	9	-12.6	18.9	2.31	 .0723	23	1	100.0	1
02/25/24	23:45	-13.8	-13.8	-14.0	77	-16.9	10.4	ENE	0.17	13.9	ENE	-22.4	-13.9	-22.5	737.2	0.022	0.000	21.7	9	-12.6	18.9	2.31	 .0723	24	1	100.0	1
02/25/24	23:46	-13.5	-13.5	-13.7	78	-16.5	10.4	ENE	0.17	11.3	ENE	-22.1	-13.6	-22.1	737.2	0.022	0.000	21.7	9	-12.6	18.9	2.31	 .0723	23	1	100.0	1
02/25/24	23:47	-13.3	-13.3	-13.4	78	-16.3	11.3	ENE	0.19	13.9	NE	-22.1	-13.3	-22.2	737.2	0.022	0.000	21.7	9	-12.6	18.9	2.31	 .0724	23	1	100.0	1
02/25/24	23:48	-13.2	-13.2	-13.2	78	-16.2	10.4	ENE	0.17	12.2	ENE	-21.6	-13.2	-21.7	737.2	0.022	0.000	21.7	9	-12.6	18.9	2.31	 .0724	24	1	100.0	1
02/25/24	23:49	-13.2	-13.1	-13.2	78	-16.2	13.0	E	0.22	14.8	E	-22.6	-13.2	-22.7	737.1	0.022	0.000	21.7	9	-12.6	18.9	2.31	 .0723	23	1	100.0	1
02/25/24	23:50	-13.3	-13.2	-13.3	78	-16.4	12.2	E	0.20	13.9	E	-22.5	-13.4	-22.6	737.1	0.022	0.000	21.7	9	-12.6	18.9	2.31	 .0723	24	1	100.0	1
02/25/24	23:51	-13.7	-13.4	-13.7	78	-16.7	13.9	ENE	0.23	15.7	E	-23.6	-13.8	-23.7	737.0	0.022	0.000	21.7	9	-12.6	18.9	2.31	 .0723	23	1	100.0	1
02/25/24	23:52	-14.3	-13.8	-14.3	78	-17.3	14.8	E	0.25	16.5	E	-24.6	-14.3	-24.7	737.0	0.023	0.000	21.7	9	-12.6	18.9	2.31	 .0723	23	1	100.0	1
02/25/24	23:53	-14.8	-14.4	-14.8	76	-18.1	13.0	E	0.22	13.9	ENE	-24.7	-14.9	-24.8	736.9	0.023	0.000	21.7	9	-12.6	18.8	2.31	 .0723	24	1	100.0	1
02/25/24	23:54	-15.1	-14.8	-15.1	76	-18.4	12.2	E	0.20	13.0	E	-24.8	-15.2	-24.9	737.0	0.023	0.000	21.7	9	-12.6	18.8	2.31	 .0723	23	1	100.0	1
02/25/24	23:55	-15.4	-15.2	-15.4	76	-18.7	11.3	E	0.19	13.0	E	-24.8	-15.4	-24.8	737.0	0.023	0.000	21.7	9	-12.6	18.8	2.31	 .0723	24	1	100.0	1
02/25/24	23:56	-15.6	-15.4	-15.6	76	-18.8	11.3	E	0.19	12.2	E	-25.0	-15.6	-25.1	737.0	0.024	0.000	21.7	9	-12.6	18.8	2.31	 .0723	23	1	100.0	1
02/25/24	23:57	-15.7	-15.6	-15.7	76	-18.9	10.4	E	0.17	11.3	E	-24.8	-15.7	-24.8	737.0	0.024	0.000	21.7	9	-12.6	18.8	2.31	 .0724	23	1	100.0	1
02/25/24	23:58	-15.7	-15.7	-15.7	76	-19.0	9.6	E	0.16	11.3	E	-24.4	-15.8	-24.5	737.1	0.024	0.000	21.6	9	-12.7	18.8	2.31	 .0724	24	1	100.0	1
02/25/24	23:59	-15.7	-15.7	-15.7	77	-18.8	8.7	E	0.14	9.6	E	-23.9	-15.7	-24.0	737.1	0.024	0.000	21.6	9	-12.7	18.8	2.31	 .0724	23	1	100.0	1
02/26/24	00:00	-15.6	-15.6	-15.7	77	-18.7	10.4	E	0.17	11.3	E	-24.7	-15.7	-24.8	737.1	0.024	0.000	21.6	9	-12.7	18.8	2.31	 .0724	24	1	100.0	1